<?xml version='1.0' encoding='UTF-8'?><gpx version="1.1" creator="JPX - https://github.com/jenetics/jpx" xmlns="http://www.topografix.com/GPX/1/1"><trk><trkseg><trkpt lat="42.1498867" lon="14.5852155"><ele>205.0</ele><time>2026-04-14T07:10:32.117Z</time></trkpt><trkpt lat="42.1499517" lon="14.5852352"><ele>205.0</ele><time>2026-04-14T07:10:40.866Z</time></trkpt><trkpt lat="42.1500085" lon="14.585272"><ele>205.0</ele><time>2026-04-14T07:10:57.867Z</time></trkpt><trkpt lat="42.1500816" lon="14.5852631"><ele>205.0</ele><time>2026-04-14T07:11:01.866Z</time></trkpt><trkpt lat="42.1501505" lon="14.5852102"><ele>205.0</ele><time>2026-04-14T07:11:05.867Z</time></trkpt><trkpt lat="42.1502143" lon="14.5851976"><ele>205.0</ele><time>2026-04-14T07:11:08.867Z</time></trkpt><trkpt lat="42.1502826" lon="14.5851709"><ele>205.0</ele><time>2026-04-14T07:11:12.867Z</time></trkpt><trkpt lat="42.1503409" lon="14.585121"><ele>205.0</ele><time>2026-04-14T07:11:16.867Z</time></trkpt><trkpt lat="42.1504047" lon="14.585099"><ele>205.0</ele><time>2026-04-14T07:11:20.867Z</time></trkpt><trkpt lat="42.1504674" lon="14.5850887"><ele>205.0</ele><time>2026-04-14T07:11:24.867Z</time></trkpt><trkpt lat="42.1505229" lon="14.5850177"><ele>205.0</ele><time>2026-04-14T07:11:32.866Z</time></trkpt><trkpt lat="42.1506117" lon="14.5850108"><ele>205.0</ele><time>2026-04-14T07:11:37.866Z</time></trkpt><trkpt lat="42.1506784" lon="14.5850355"><ele>205.0</ele><time>2026-04-14T07:11:39.867Z</time></trkpt><trkpt lat="42.1507506" lon="14.5850668"><ele>205.0</ele><time>2026-04-14T07:11:41.866Z</time></trkpt><trkpt lat="42.1508361" lon="14.5850676"><ele>205.2</ele><time>2026-04-14T07:11:44.867Z</time></trkpt><trkpt lat="42.1508993" lon="14.5850424"><ele>205.4</ele><time>2026-04-14T07:11:46.866Z</time></trkpt><trkpt lat="42.1509874" lon="14.5850495"><ele>205.60000000000002</ele><time>2026-04-14T07:11:49.867Z</time></trkpt><trkpt lat="42.1510731" lon="14.5851058"><ele>205.8</ele><time>2026-04-14T07:11:51.867Z</time></trkpt><trkpt lat="42.1511501" lon="14.5851205"><ele>206.0</ele><time>2026-04-14T07:11:53.866Z</time></trkpt><trkpt lat="42.1512661" lon="14.5850583"><ele>206.0</ele><time>2026-04-14T07:11:55.867Z</time></trkpt><trkpt lat="42.151324" lon="14.5850181"><ele>206.0</ele><time>2026-04-14T07:11:56.866Z</time></trkpt><trkpt lat="42.1514475" lon="14.5849861"><ele>206.0</ele><time>2026-04-14T07:11:58.867Z</time></trkpt><trkpt lat="42.1515418" lon="14.5849265"><ele>206.0</ele><time>2026-04-14T07:12:00.867Z</time></trkpt><trkpt lat="42.15159" lon="14.58486"><ele>206.0</ele><time>2026-04-14T07:12:01.866Z</time></trkpt><trkpt lat="42.15165" lon="14.5847367"><ele>204.8</ele><time>2026-04-14T07:12:03.867Z</time></trkpt><trkpt lat="42.1516917" lon="14.584595"><ele>203.60000000000002</ele><time>2026-04-14T07:12:05.866Z</time></trkpt><trkpt lat="42.1517217" lon="14.5844433"><ele>202.4</ele><time>2026-04-14T07:12:07.866Z</time></trkpt><trkpt lat="42.1517517" lon="14.5842833"><ele>201.2</ele><time>2026-04-14T07:12:09.866Z</time></trkpt><trkpt lat="42.15177" lon="14.5841933"><ele>200.0</ele><time>2026-04-14T07:12:10.867Z</time></trkpt><trkpt lat="42.1517867" lon="14.5841"><ele>199.66666666666669</ele><time>2026-04-14T07:12:11.867Z</time></trkpt><trkpt lat="42.1518083" lon="14.5840033"><ele>199.33333333333334</ele><time>2026-04-14T07:12:12.867Z</time></trkpt><trkpt lat="42.151825" lon="14.5839067"><ele>199.0</ele><time>2026-04-14T07:12:13.866Z</time></trkpt><trkpt lat="42.151845" lon="14.58381"><ele>198.66666666666669</ele><time>2026-04-14T07:12:14.867Z</time></trkpt><trkpt lat="42.151855" lon="14.58371"><ele>198.33333333333334</ele><time>2026-04-14T07:12:15.867Z</time></trkpt><trkpt lat="42.1518667" lon="14.5836233"><ele>198.0</ele><time>2026-04-14T07:12:16.866Z</time></trkpt><trkpt lat="42.15185" lon="14.5834917"><ele>197.0</ele><time>2026-04-14T07:12:18.866Z</time></trkpt><trkpt lat="42.1518367" lon="14.5833867"><ele>196.0</ele><time>2026-04-14T07:12:20.867Z</time></trkpt><trkpt lat="42.1518667" lon="14.5832667"><ele>195.0</ele><time>2026-04-14T07:12:22.866Z</time></trkpt><trkpt lat="42.15192" lon="14.58315"><ele>194.0</ele><time>2026-04-14T07:12:24.867Z</time></trkpt><trkpt lat="42.15198" lon="14.5830567"><ele>193.0</ele><time>2026-04-14T07:12:26.866Z</time></trkpt><trkpt lat="42.1520617" lon="14.5830533"><ele>192.0</ele><time>2026-04-14T07:12:28.867Z</time></trkpt><trkpt lat="42.1521467" lon="14.5831267"><ele>192.0</ele><time>2026-04-14T07:12:30.866Z</time></trkpt><trkpt lat="42.1522367" lon="14.5832433"><ele>192.0</ele><time>2026-04-14T07:12:32.867Z</time></trkpt><trkpt lat="42.152285" lon="14.5833067"><ele>192.0</ele><time>2026-04-14T07:12:33.867Z</time></trkpt><trkpt lat="42.1523383" lon="14.583375"><ele>192.0</ele><time>2026-04-14T07:12:34.866Z</time></trkpt><trkpt lat="42.1523933" lon="14.5834433"><ele>192.0</ele><time>2026-04-14T07:12:35.866Z</time></trkpt><trkpt lat="42.1524467" lon="14.5835117"><ele>192.0</ele><time>2026-04-14T07:12:36.867Z</time></trkpt><trkpt lat="42.1524983" lon="14.5835817"><ele>190.66666666666666</ele><time>2026-04-14T07:12:37.867Z</time></trkpt><trkpt lat="42.1525517" lon="14.5836533"><ele>189.33333333333334</ele><time>2026-04-14T07:12:38.866Z</time></trkpt><trkpt lat="42.152605" lon="14.583725"><ele>188.0</ele><time>2026-04-14T07:12:39.867Z</time></trkpt><trkpt lat="42.1526633" lon="14.5837967"><ele>186.66666666666669</ele><time>2026-04-14T07:12:40.866Z</time></trkpt><trkpt lat="42.15272" lon="14.58387"><ele>185.33333333333334</ele><time>2026-04-14T07:12:41.867Z</time></trkpt><trkpt lat="42.15278" lon="14.583945"><ele>184.0</ele><time>2026-04-14T07:12:42.867Z</time></trkpt><trkpt lat="42.152835" lon="14.5840167"><ele>184.0</ele><time>2026-04-14T07:12:43.866Z</time></trkpt><trkpt lat="42.15289" lon="14.584095"><ele>184.0</ele><time>2026-04-14T07:12:44.867Z</time></trkpt><trkpt lat="42.1529467" lon="14.5841717"><ele>184.0</ele><time>2026-04-14T07:12:45.867Z</time></trkpt><trkpt lat="42.15301" lon="14.5842467"><ele>184.0</ele><time>2026-04-14T07:12:46.867Z</time></trkpt><trkpt lat="42.153065" lon="14.584325"><ele>184.0</ele><time>2026-04-14T07:12:47.867Z</time></trkpt><trkpt lat="42.153115" lon="14.584415"><ele>184.0</ele><time>2026-04-14T07:12:48.867Z</time></trkpt><trkpt lat="42.1531617" lon="14.5845033"><ele>184.83333333333334</ele><time>2026-04-14T07:12:49.866Z</time></trkpt><trkpt lat="42.1532033" lon="14.584595"><ele>185.66666666666669</ele><time>2026-04-14T07:12:50.867Z</time></trkpt><trkpt lat="42.1532367" lon="14.58469"><ele>186.5</ele><time>2026-04-14T07:12:51.866Z</time></trkpt><trkpt lat="42.15326" lon="14.5847833"><ele>187.33333333333334</ele><time>2026-04-14T07:12:52.866Z</time></trkpt><trkpt lat="42.153275" lon="14.5848783"><ele>188.16666666666666</ele><time>2026-04-14T07:12:53.866Z</time></trkpt><trkpt lat="42.153285" lon="14.5849683"><ele>189.0</ele><time>2026-04-14T07:12:54.867Z</time></trkpt><trkpt lat="42.1533017" lon="14.58509"><ele>187.0</ele><time>2026-04-14T07:12:56.867Z</time></trkpt><trkpt lat="42.15331" lon="14.585175"><ele>185.0</ele><time>2026-04-14T07:12:58.867Z</time></trkpt><trkpt lat="42.1533533" lon="14.5852467"><ele>183.0</ele><time>2026-04-14T07:13:00.866Z</time></trkpt><trkpt lat="42.1534333" lon="14.5852717"><ele>181.0</ele><time>2026-04-14T07:13:02.867Z</time></trkpt><trkpt lat="42.153535" lon="14.5852483"><ele>179.0</ele><time>2026-04-14T07:13:04.867Z</time></trkpt><trkpt lat="42.1536033" lon="14.5852367"><ele>177.0</ele><time>2026-04-14T07:13:05.866Z</time></trkpt><trkpt lat="42.153675" lon="14.585225"><ele>177.0</ele><time>2026-04-14T07:13:06.866Z</time></trkpt><trkpt lat="42.1537433" lon="14.5852183"><ele>177.0</ele><time>2026-04-14T07:13:07.867Z</time></trkpt><trkpt lat="42.1538083" lon="14.5852117"><ele>177.0</ele><time>2026-04-14T07:13:08.867Z</time></trkpt><trkpt lat="42.1538767" lon="14.5852133"><ele>177.0</ele><time>2026-04-14T07:13:09.866Z</time></trkpt><trkpt lat="42.153945" lon="14.5852167"><ele>177.0</ele><time>2026-04-14T07:13:10.866Z</time></trkpt><trkpt lat="42.1540183" lon="14.5852217"><ele>177.0</ele><time>2026-04-14T07:13:11.866Z</time></trkpt><trkpt lat="42.1540933" lon="14.5852217"><ele>177.0</ele><time>2026-04-14T07:13:12.867Z</time></trkpt><trkpt lat="42.1541717" lon="14.585225"><ele>176.2857142857143</ele><time>2026-04-14T07:13:13.867Z</time></trkpt><trkpt lat="42.154245" lon="14.5852383"><ele>175.57142857142856</ele><time>2026-04-14T07:13:14.866Z</time></trkpt><trkpt lat="42.1543117" lon="14.5852533"><ele>174.85714285714286</ele><time>2026-04-14T07:13:15.867Z</time></trkpt><trkpt lat="42.154375" lon="14.585285"><ele>174.14285714285717</ele><time>2026-04-14T07:13:16.867Z</time></trkpt><trkpt lat="42.1544333" lon="14.5853317"><ele>173.42857142857144</ele><time>2026-04-14T07:13:17.867Z</time></trkpt><trkpt lat="42.154485" lon="14.5853933"><ele>172.71428571428572</ele><time>2026-04-14T07:13:18.867Z</time></trkpt><trkpt lat="42.1545317" lon="14.58546"><ele>172.0</ele><time>2026-04-14T07:13:19.867Z</time></trkpt><trkpt lat="42.154575" lon="14.5855283"><ele>171.6</ele><time>2026-04-14T07:13:20.867Z</time></trkpt><trkpt lat="42.154615" lon="14.5855967"><ele>171.2</ele><time>2026-04-14T07:13:21.867Z</time></trkpt><trkpt lat="42.1547" lon="14.5857333"><ele>170.8</ele><time>2026-04-14T07:13:23.866Z</time></trkpt><trkpt lat="42.15479" lon="14.5858333"><ele>170.4</ele><time>2026-04-14T07:13:25.867Z</time></trkpt><trkpt lat="42.1548817" lon="14.5858983"><ele>170.0</ele><time>2026-04-14T07:13:27.867Z</time></trkpt><trkpt lat="42.1549633" lon="14.5859367"><ele>170.0</ele><time>2026-04-14T07:13:29.866Z</time></trkpt><trkpt lat="42.1550267" lon="14.5859667"><ele>170.0</ele><time>2026-04-14T07:13:31.866Z</time></trkpt><trkpt lat="42.1550867" lon="14.5859967"><ele>170.0</ele><time>2026-04-14T07:13:33.867Z</time></trkpt><trkpt lat="42.15515" lon="14.586025"><ele>170.0</ele><time>2026-04-14T07:13:35.867Z</time></trkpt><trkpt lat="42.155215" lon="14.5860483"><ele>170.0</ele><time>2026-04-14T07:13:37.867Z</time></trkpt><trkpt lat="42.1552867" lon="14.58608"><ele>170.0</ele><time>2026-04-14T07:13:39.867Z</time></trkpt><trkpt lat="42.1553667" lon="14.5861083"><ele>170.0</ele><time>2026-04-14T07:13:41.867Z</time></trkpt><trkpt lat="42.1554467" lon="14.5861317"><ele>170.0</ele><time>2026-04-14T07:13:43.867Z</time></trkpt><trkpt lat="42.1555333" lon="14.5861517"><ele>170.0</ele><time>2026-04-14T07:13:45.866Z</time></trkpt><trkpt lat="42.1556217" lon="14.5861717"><ele>170.0</ele><time>2026-04-14T07:13:47.867Z</time></trkpt><trkpt lat="42.1557083" lon="14.586205"><ele>170.0</ele><time>2026-04-14T07:13:49.867Z</time></trkpt><trkpt lat="42.1557983" lon="14.58624"><ele>170.0</ele><time>2026-04-14T07:13:51.866Z</time></trkpt><trkpt lat="42.155895" lon="14.5862683"><ele>169.2</ele><time>2026-04-14T07:13:53.866Z</time></trkpt><trkpt lat="42.1559917" lon="14.5863017"><ele>168.4</ele><time>2026-04-14T07:13:55.866Z</time></trkpt><trkpt lat="42.1560933" lon="14.5863383"><ele>167.60000000000002</ele><time>2026-04-14T07:13:57.867Z</time></trkpt><trkpt lat="42.1561817" lon="14.5863717"><ele>166.8</ele><time>2026-04-14T07:13:59.866Z</time></trkpt><trkpt lat="42.156275" lon="14.5864"><ele>166.0</ele><time>2026-04-14T07:14:01.867Z</time></trkpt><trkpt lat="42.1563717" lon="14.5864283"><ele>166.0</ele><time>2026-04-14T07:14:03.866Z</time></trkpt><trkpt lat="42.1564733" lon="14.58646"><ele>166.0</ele><time>2026-04-14T07:14:05.867Z</time></trkpt><trkpt lat="42.1565717" lon="14.5864933"><ele>166.0</ele><time>2026-04-14T07:14:07.867Z</time></trkpt><trkpt lat="42.156665" lon="14.5865283"><ele>166.0</ele><time>2026-04-14T07:14:09.867Z</time></trkpt><trkpt lat="42.1567533" lon="14.586565"><ele>166.0</ele><time>2026-04-14T07:14:11.866Z</time></trkpt><trkpt lat="42.1568467" lon="14.5865933"><ele>166.60000000000002</ele><time>2026-04-14T07:14:13.866Z</time></trkpt><trkpt lat="42.1569383" lon="14.5866333"><ele>167.2</ele><time>2026-04-14T07:14:15.866Z</time></trkpt><trkpt lat="42.1570217" lon="14.5866933"><ele>167.8</ele><time>2026-04-14T07:14:17.867Z</time></trkpt><trkpt lat="42.1571" lon="14.5867717"><ele>168.39999999999998</ele><time>2026-04-14T07:14:19.867Z</time></trkpt><trkpt lat="42.1571817" lon="14.58684"><ele>169.0</ele><time>2026-04-14T07:14:21.867Z</time></trkpt><trkpt lat="42.157265" lon="14.5869217"><ele>169.0</ele><time>2026-04-14T07:14:23.866Z</time></trkpt><trkpt lat="42.1573517" lon="14.5869967"><ele>169.0</ele><time>2026-04-14T07:14:25.866Z</time></trkpt><trkpt lat="42.1574367" lon="14.5870667"><ele>169.0</ele><time>2026-04-14T07:14:27.866Z</time></trkpt><trkpt lat="42.157535" lon="14.5871417"><ele>169.0</ele><time>2026-04-14T07:14:29.867Z</time></trkpt><trkpt lat="42.1576283" lon="14.5872167"><ele>169.0</ele><time>2026-04-14T07:14:31.866Z</time></trkpt><trkpt lat="42.1577217" lon="14.5872967"><ele>168.2</ele><time>2026-04-14T07:14:33.866Z</time></trkpt><trkpt lat="42.157815" lon="14.5873767"><ele>167.39999999999998</ele><time>2026-04-14T07:14:35.867Z</time></trkpt><trkpt lat="42.1578667" lon="14.5874283"><ele>166.6</ele><time>2026-04-14T07:14:36.866Z</time></trkpt><trkpt lat="42.15797" lon="14.587525"><ele>165.8</ele><time>2026-04-14T07:14:38.867Z</time></trkpt><trkpt lat="42.15807" lon="14.5876133"><ele>165.0</ele><time>2026-04-14T07:14:40.867Z</time></trkpt><trkpt lat="42.1581733" lon="14.5877017"><ele>164.6</ele><time>2026-04-14T07:14:42.866Z</time></trkpt><trkpt lat="42.158275" lon="14.5877917"><ele>164.2</ele><time>2026-04-14T07:14:44.867Z</time></trkpt><trkpt lat="42.1583833" lon="14.58788"><ele>163.8</ele><time>2026-04-14T07:14:46.866Z</time></trkpt><trkpt lat="42.1584867" lon="14.5879767"><ele>163.4</ele><time>2026-04-14T07:14:48.866Z</time></trkpt><trkpt lat="42.1585383" lon="14.5880267"><ele>163.0</ele><time>2026-04-14T07:14:49.867Z</time></trkpt><trkpt lat="42.1585917" lon="14.5880733"><ele>162.71428571428572</ele><time>2026-04-14T07:14:50.867Z</time></trkpt><trkpt lat="42.1586467" lon="14.5881167"><ele>162.42857142857142</ele><time>2026-04-14T07:14:51.866Z</time></trkpt><trkpt lat="42.1587017" lon="14.5881667"><ele>162.14285714285714</ele><time>2026-04-14T07:14:52.866Z</time></trkpt><trkpt lat="42.158755" lon="14.5882133"><ele>161.85714285714286</ele><time>2026-04-14T07:14:53.866Z</time></trkpt><trkpt lat="42.15881" lon="14.5882567"><ele>161.57142857142856</ele><time>2026-04-14T07:14:54.866Z</time></trkpt><trkpt lat="42.1588683" lon="14.5882983"><ele>161.28571428571428</ele><time>2026-04-14T07:14:55.866Z</time></trkpt><trkpt lat="42.15893" lon="14.58834"><ele>161.0</ele><time>2026-04-14T07:14:56.866Z</time></trkpt><trkpt lat="42.1590483" lon="14.5884083"><ele>160.60000000000002</ele><time>2026-04-14T07:14:58.866Z</time></trkpt><trkpt lat="42.1591633" lon="14.5884733"><ele>160.20000000000002</ele><time>2026-04-14T07:15:00.866Z</time></trkpt><trkpt lat="42.15928" lon="14.5885333"><ele>159.8</ele><time>2026-04-14T07:15:02.866Z</time></trkpt><trkpt lat="42.15934" lon="14.5885667"><ele>159.4</ele><time>2026-04-14T07:15:03.867Z</time></trkpt><trkpt lat="42.1594033" lon="14.5886033"><ele>159.0</ele><time>2026-04-14T07:15:04.867Z</time></trkpt><trkpt lat="42.1595183" lon="14.5886617"><ele>158.33333333333334</ele><time>2026-04-14T07:15:06.867Z</time></trkpt><trkpt lat="42.15958" lon="14.5886933"><ele>157.66666666666666</ele><time>2026-04-14T07:15:07.866Z</time></trkpt><trkpt lat="42.1596433" lon="14.5887217"><ele>157.0</ele><time>2026-04-14T07:15:08.866Z</time></trkpt><trkpt lat="42.159705" lon="14.5887533"><ele>156.33333333333331</ele><time>2026-04-14T07:15:09.867Z</time></trkpt><trkpt lat="42.1598167" lon="14.5888217"><ele>155.66666666666666</ele><time>2026-04-14T07:15:11.867Z</time></trkpt><trkpt lat="42.159875" lon="14.58886"><ele>155.0</ele><time>2026-04-14T07:15:12.866Z</time></trkpt><trkpt lat="42.1599333" lon="14.5888967"><ele>154.83333333333331</ele><time>2026-04-14T07:15:13.866Z</time></trkpt><trkpt lat="42.1599933" lon="14.5889317"><ele>154.66666666666666</ele><time>2026-04-14T07:15:14.866Z</time></trkpt><trkpt lat="42.1600517" lon="14.588965"><ele>154.5</ele><time>2026-04-14T07:15:15.866Z</time></trkpt><trkpt lat="42.16011" lon="14.5889983"><ele>154.33333333333334</ele><time>2026-04-14T07:15:16.866Z</time></trkpt><trkpt lat="42.1601717" lon="14.58903"><ele>154.16666666666669</ele><time>2026-04-14T07:15:17.866Z</time></trkpt><trkpt lat="42.1602833" lon="14.5890983"><ele>154.0</ele><time>2026-04-14T07:15:19.867Z</time></trkpt><trkpt lat="42.1604" lon="14.5891617"><ele>154.0</ele><time>2026-04-14T07:15:21.866Z</time></trkpt><trkpt lat="42.1604617" lon="14.5891983"><ele>154.0</ele><time>2026-04-14T07:15:22.867Z</time></trkpt><trkpt lat="42.1605217" lon="14.58924"><ele>154.0</ele><time>2026-04-14T07:15:23.867Z</time></trkpt><trkpt lat="42.1606333" lon="14.5893217"><ele>154.0</ele><time>2026-04-14T07:15:25.867Z</time></trkpt><trkpt lat="42.1607467" lon="14.5894"><ele>154.0</ele><time>2026-04-14T07:15:27.867Z</time></trkpt><trkpt lat="42.1608567" lon="14.5894817"><ele>153.66666666666669</ele><time>2026-04-14T07:15:29.866Z</time></trkpt><trkpt lat="42.1609133" lon="14.5895267"><ele>153.33333333333334</ele><time>2026-04-14T07:15:30.866Z</time></trkpt><trkpt lat="42.1609717" lon="14.5895717"><ele>153.0</ele><time>2026-04-14T07:15:31.867Z</time></trkpt><trkpt lat="42.1610283" lon="14.589615"><ele>152.66666666666666</ele><time>2026-04-14T07:15:32.867Z</time></trkpt><trkpt lat="42.161085" lon="14.5896533"><ele>152.33333333333331</ele><time>2026-04-14T07:15:33.866Z</time></trkpt><trkpt lat="42.1611417" lon="14.5896967"><ele>152.0</ele><time>2026-04-14T07:15:34.867Z</time></trkpt><trkpt lat="42.16126" lon="14.5897483"><ele>152.0</ele><time>2026-04-14T07:15:36.867Z</time></trkpt><trkpt lat="42.1613783" lon="14.5897867"><ele>152.0</ele><time>2026-04-14T07:15:38.866Z</time></trkpt><trkpt lat="42.1614883" lon="14.58982"><ele>152.0</ele><time>2026-04-14T07:15:40.867Z</time></trkpt><trkpt lat="42.1616033" lon="14.589845"><ele>152.0</ele><time>2026-04-14T07:15:42.867Z</time></trkpt><trkpt lat="42.1617117" lon="14.5898633"><ele>151.4</ele><time>2026-04-14T07:15:44.867Z</time></trkpt><trkpt lat="42.1618283" lon="14.5898817"><ele>150.79999999999998</ele><time>2026-04-14T07:15:46.866Z</time></trkpt><trkpt lat="42.1619367" lon="14.5899"><ele>150.2</ele><time>2026-04-14T07:15:48.867Z</time></trkpt><trkpt lat="42.1620483" lon="14.5899217"><ele>149.6</ele><time>2026-04-14T07:15:50.866Z</time></trkpt><trkpt lat="42.1621567" lon="14.5899417"><ele>149.0</ele><time>2026-04-14T07:15:52.867Z</time></trkpt><trkpt lat="42.16227" lon="14.5899483"><ele>148.4</ele><time>2026-04-14T07:15:54.867Z</time></trkpt><trkpt lat="42.1623783" lon="14.5899717"><ele>147.8</ele><time>2026-04-14T07:15:56.867Z</time></trkpt><trkpt lat="42.1624867" lon="14.5899767"><ele>147.2</ele><time>2026-04-14T07:15:58.867Z</time></trkpt><trkpt lat="42.1625967" lon="14.5899833"><ele>146.6</ele><time>2026-04-14T07:16:00.866Z</time></trkpt><trkpt lat="42.16271" lon="14.5899967"><ele>146.0</ele><time>2026-04-14T07:16:02.866Z</time></trkpt><trkpt lat="42.1628217" lon="14.5900367"><ele>146.0</ele><time>2026-04-14T07:16:04.867Z</time></trkpt><trkpt lat="42.16294" lon="14.5900817"><ele>146.0</ele><time>2026-04-14T07:16:06.867Z</time></trkpt><trkpt lat="42.1630017" lon="14.5901033"><ele>146.0</ele><time>2026-04-14T07:16:07.867Z</time></trkpt><trkpt lat="42.1630633" lon="14.5901317"><ele>146.0</ele><time>2026-04-14T07:16:08.867Z</time></trkpt><trkpt lat="42.1631233" lon="14.590165"><ele>146.0</ele><time>2026-04-14T07:16:09.866Z</time></trkpt><trkpt lat="42.1631833" lon="14.5902"><ele>146.0</ele><time>2026-04-14T07:16:10.866Z</time></trkpt><trkpt lat="42.1632983" lon="14.5902567"><ele>145.5</ele><time>2026-04-14T07:16:12.867Z</time></trkpt><trkpt lat="42.16341" lon="14.5903233"><ele>145.0</ele><time>2026-04-14T07:16:14.867Z</time></trkpt><trkpt lat="42.1634717" lon="14.5903517"><ele>144.5</ele><time>2026-04-14T07:16:15.866Z</time></trkpt><trkpt lat="42.1635333" lon="14.5903817"><ele>144.0</ele><time>2026-04-14T07:16:16.867Z</time></trkpt><trkpt lat="42.1636567" lon="14.5904333"><ele>143.5</ele><time>2026-04-14T07:16:18.866Z</time></trkpt><trkpt lat="42.16372" lon="14.59046"><ele>143.0</ele><time>2026-04-14T07:16:19.867Z</time></trkpt><trkpt lat="42.1637833" lon="14.5904933"><ele>142.99999999999997</ele><time>2026-04-14T07:16:20.866Z</time></trkpt><trkpt lat="42.1638433" lon="14.5905233"><ele>143.0</ele><time>2026-04-14T07:16:21.867Z</time></trkpt><trkpt lat="42.1639083" lon="14.590555"><ele>143.0</ele><time>2026-04-14T07:16:22.867Z</time></trkpt><trkpt lat="42.1639767" lon="14.5905933"><ele>143.0</ele><time>2026-04-14T07:16:23.866Z</time></trkpt><trkpt lat="42.1640433" lon="14.59063"><ele>143.0</ele><time>2026-04-14T07:16:24.867Z</time></trkpt><trkpt lat="42.1641083" lon="14.5906633"><ele>142.99999999999997</ele><time>2026-04-14T07:16:25.867Z</time></trkpt><trkpt lat="42.164175" lon="14.5907017"><ele>143.0</ele><time>2026-04-14T07:16:26.867Z</time></trkpt><trkpt lat="42.1642383" lon="14.59074"><ele>142.83333333333331</ele><time>2026-04-14T07:16:27.866Z</time></trkpt><trkpt lat="42.1643" lon="14.5907817"><ele>142.66666666666666</ele><time>2026-04-14T07:16:28.867Z</time></trkpt><trkpt lat="42.16436" lon="14.5908283"><ele>142.5</ele><time>2026-04-14T07:16:29.866Z</time></trkpt><trkpt lat="42.1644167" lon="14.5908683"><ele>142.33333333333334</ele><time>2026-04-14T07:16:30.866Z</time></trkpt><trkpt lat="42.1644767" lon="14.5909083"><ele>142.16666666666669</ele><time>2026-04-14T07:16:31.867Z</time></trkpt><trkpt lat="42.1645367" lon="14.5909467"><ele>142.0</ele><time>2026-04-14T07:16:32.867Z</time></trkpt><trkpt lat="42.1646383" lon="14.5910317"><ele>142.0</ele><time>2026-04-14T07:16:34.866Z</time></trkpt><trkpt lat="42.1647417" lon="14.5911017"><ele>142.0</ele><time>2026-04-14T07:16:36.867Z</time></trkpt><trkpt lat="42.1648317" lon="14.5911567"><ele>142.0</ele><time>2026-04-14T07:16:38.867Z</time></trkpt><trkpt lat="42.1649217" lon="14.59123"><ele>142.0</ele><time>2026-04-14T07:16:40.866Z</time></trkpt><trkpt lat="42.165005" lon="14.5913133"><ele>142.0</ele><time>2026-04-14T07:16:42.866Z</time></trkpt><trkpt lat="42.1650783" lon="14.591385"><ele>141.4</ele><time>2026-04-14T07:16:44.867Z</time></trkpt><trkpt lat="42.1651517" lon="14.59147"><ele>140.79999999999998</ele><time>2026-04-14T07:16:46.867Z</time></trkpt><trkpt lat="42.1652233" lon="14.5915667"><ele>140.2</ele><time>2026-04-14T07:16:48.867Z</time></trkpt><trkpt lat="42.16529" lon="14.5916667"><ele>139.6</ele><time>2026-04-14T07:16:50.866Z</time></trkpt><trkpt lat="42.165355" lon="14.59177"><ele>139.0</ele><time>2026-04-14T07:16:52.867Z</time></trkpt><trkpt lat="42.1654167" lon="14.59188"><ele>139.0</ele><time>2026-04-14T07:16:54.867Z</time></trkpt><trkpt lat="42.1654733" lon="14.5919933"><ele>139.0</ele><time>2026-04-14T07:16:56.867Z</time></trkpt><trkpt lat="42.1655317" lon="14.5921117"><ele>139.0</ele><time>2026-04-14T07:16:58.867Z</time></trkpt><trkpt lat="42.1655883" lon="14.5922217"><ele>139.0</ele><time>2026-04-14T07:17:00.866Z</time></trkpt><trkpt lat="42.16564" lon="14.59234"><ele>139.0</ele><time>2026-04-14T07:17:02.866Z</time></trkpt><trkpt lat="42.1656983" lon="14.5924583"><ele>138.8</ele><time>2026-04-14T07:17:04.867Z</time></trkpt><trkpt lat="42.1657633" lon="14.5925817"><ele>138.60000000000002</ele><time>2026-04-14T07:17:06.866Z</time></trkpt><trkpt lat="42.1658283" lon="14.5927033"><ele>138.4</ele><time>2026-04-14T07:17:08.866Z</time></trkpt><trkpt lat="42.1658933" lon="14.5928217"><ele>138.20000000000002</ele><time>2026-04-14T07:17:10.867Z</time></trkpt><trkpt lat="42.1659583" lon="14.592935"><ele>138.0</ele><time>2026-04-14T07:17:12.867Z</time></trkpt><trkpt lat="42.1660283" lon="14.593045"><ele>138.0</ele><time>2026-04-14T07:17:14.866Z</time></trkpt><trkpt lat="42.1661117" lon="14.59315"><ele>138.0</ele><time>2026-04-14T07:17:16.867Z</time></trkpt><trkpt lat="42.1661833" lon="14.59324"><ele>138.0</ele><time>2026-04-14T07:17:18.866Z</time></trkpt><trkpt lat="42.16626" lon="14.593335"><ele>138.0</ele><time>2026-04-14T07:17:20.867Z</time></trkpt><trkpt lat="42.16634" lon="14.5934367"><ele>138.0</ele><time>2026-04-14T07:17:22.866Z</time></trkpt><trkpt lat="42.166425" lon="14.5935333"><ele>138.0</ele><time>2026-04-14T07:17:24.866Z</time></trkpt><trkpt lat="42.166495" lon="14.5936233"><ele>138.0</ele><time>2026-04-14T07:17:26.867Z</time></trkpt><trkpt lat="42.1665633" lon="14.593695"><ele>138.0</ele><time>2026-04-14T07:17:28.866Z</time></trkpt><trkpt lat="42.1666483" lon="14.5937583"><ele>138.0</ele><time>2026-04-14T07:17:30.867Z</time></trkpt><trkpt lat="42.1667517" lon="14.5938417"><ele>138.0</ele><time>2026-04-14T07:17:32.866Z</time></trkpt><trkpt lat="42.166845" lon="14.5939267"><ele>137.4</ele><time>2026-04-14T07:17:34.867Z</time></trkpt><trkpt lat="42.1669383" lon="14.594015"><ele>136.8</ele><time>2026-04-14T07:17:36.867Z</time></trkpt><trkpt lat="42.1670283" lon="14.5941083"><ele>136.2</ele><time>2026-04-14T07:17:38.867Z</time></trkpt><trkpt lat="42.1671117" lon="14.5941917"><ele>135.6</ele><time>2026-04-14T07:17:40.867Z</time></trkpt><trkpt lat="42.1671967" lon="14.5942783"><ele>135.0</ele><time>2026-04-14T07:17:42.866Z</time></trkpt><trkpt lat="42.1672883" lon="14.5943633"><ele>134.6</ele><time>2026-04-14T07:17:44.866Z</time></trkpt><trkpt lat="42.1673833" lon="14.59444"><ele>134.2</ele><time>2026-04-14T07:17:46.867Z</time></trkpt><trkpt lat="42.1674667" lon="14.5945117"><ele>133.8</ele><time>2026-04-14T07:17:48.866Z</time></trkpt><trkpt lat="42.1675567" lon="14.59457"><ele>133.4</ele><time>2026-04-14T07:17:50.867Z</time></trkpt><trkpt lat="42.1676467" lon="14.594625"><ele>133.0</ele><time>2026-04-14T07:17:52.867Z</time></trkpt><trkpt lat="42.167735" lon="14.5946667"><ele>133.0</ele><time>2026-04-14T07:17:54.867Z</time></trkpt><trkpt lat="42.167825" lon="14.5946867"><ele>133.0</ele><time>2026-04-14T07:17:56.866Z</time></trkpt><trkpt lat="42.167905" lon="14.5947083"><ele>133.0</ele><time>2026-04-14T07:17:58.866Z</time></trkpt><trkpt lat="42.16798" lon="14.5947483"><ele>133.0</ele><time>2026-04-14T07:18:00.866Z</time></trkpt><trkpt lat="42.168065" lon="14.5947683"><ele>133.0</ele><time>2026-04-14T07:18:02.867Z</time></trkpt><trkpt lat="42.16816" lon="14.59482"><ele>133.0</ele><time>2026-04-14T07:18:04.867Z</time></trkpt><trkpt lat="42.16826" lon="14.5948733"><ele>132.20000000000002</ele><time>2026-04-14T07:18:06.867Z</time></trkpt><trkpt lat="42.1683533" lon="14.594935"><ele>131.4</ele><time>2026-04-14T07:18:08.867Z</time></trkpt><trkpt lat="42.16845" lon="14.5950117"><ele>130.60000000000002</ele><time>2026-04-14T07:18:10.867Z</time></trkpt><trkpt lat="42.1685483" lon="14.5950917"><ele>129.8</ele><time>2026-04-14T07:18:12.867Z</time></trkpt><trkpt lat="42.168635" lon="14.5951583"><ele>129.0</ele><time>2026-04-14T07:18:14.867Z</time></trkpt><trkpt lat="42.1687283" lon="14.5952333"><ele>129.0</ele><time>2026-04-14T07:18:16.867Z</time></trkpt><trkpt lat="42.1688167" lon="14.5952867"><ele>129.0</ele><time>2026-04-14T07:18:18.867Z</time></trkpt><trkpt lat="42.1689" lon="14.595335"><ele>129.0</ele><time>2026-04-14T07:18:20.867Z</time></trkpt><trkpt lat="42.16898" lon="14.5953817"><ele>129.0</ele><time>2026-04-14T07:18:22.866Z</time></trkpt><trkpt lat="42.1690767" lon="14.5954167"><ele>129.0</ele><time>2026-04-14T07:18:24.867Z</time></trkpt><trkpt lat="42.1691767" lon="14.5954467"><ele>126.80000000000001</ele><time>2026-04-14T07:18:26.866Z</time></trkpt><trkpt lat="42.16927" lon="14.595465"><ele>124.60000000000001</ele><time>2026-04-14T07:18:28.867Z</time></trkpt><trkpt lat="42.169355" lon="14.595485"><ele>122.4</ele><time>2026-04-14T07:18:30.867Z</time></trkpt><trkpt lat="42.1694433" lon="14.595495"><ele>120.2</ele><time>2026-04-14T07:18:32.867Z</time></trkpt><trkpt lat="42.16954" lon="14.5955133"><ele>118.0</ele><time>2026-04-14T07:18:34.866Z</time></trkpt><trkpt lat="42.1696267" lon="14.5955483"><ele>118.0</ele><time>2026-04-14T07:18:36.867Z</time></trkpt><trkpt lat="42.1697217" lon="14.595575"><ele>118.00000000000001</ele><time>2026-04-14T07:18:38.867Z</time></trkpt><trkpt lat="42.169825" lon="14.5955917"><ele>118.00000000000001</ele><time>2026-04-14T07:18:40.866Z</time></trkpt><trkpt lat="42.1699233" lon="14.5955983"><ele>118.0</ele><time>2026-04-14T07:18:42.866Z</time></trkpt><trkpt lat="42.170035" lon="14.595605"><ele>118.0</ele><time>2026-04-14T07:18:44.867Z</time></trkpt><trkpt lat="42.170145" lon="14.595625"><ele>116.33333333333334</ele><time>2026-04-14T07:18:46.867Z</time></trkpt><trkpt lat="42.17024" lon="14.5956317"><ele>114.66666666666667</ele><time>2026-04-14T07:18:48.866Z</time></trkpt><trkpt lat="42.170335" lon="14.5956383"><ele>113.0</ele><time>2026-04-14T07:18:50.867Z</time></trkpt><trkpt lat="42.1704133" lon="14.5956533"><ele>111.33333333333334</ele><time>2026-04-14T07:18:52.867Z</time></trkpt><trkpt lat="42.1704883" lon="14.5956667"><ele>109.66666666666667</ele><time>2026-04-14T07:18:54.867Z</time></trkpt><trkpt lat="42.17057" lon="14.595665"><ele>108.0</ele><time>2026-04-14T07:18:56.866Z</time></trkpt><trkpt lat="42.170655" lon="14.595675"><ele>106.0</ele><time>2026-04-14T07:18:58.867Z</time></trkpt><trkpt lat="42.1707417" lon="14.5956983"><ele>104.0</ele><time>2026-04-14T07:19:00.866Z</time></trkpt><trkpt lat="42.17082" lon="14.595725"><ele>102.0</ele><time>2026-04-14T07:19:02.867Z</time></trkpt><trkpt lat="42.1708983" lon="14.59578"><ele>100.0</ele><time>2026-04-14T07:19:04.867Z</time></trkpt><trkpt lat="42.17098" lon="14.59583"><ele>98.0</ele><time>2026-04-14T07:19:06.866Z</time></trkpt><trkpt lat="42.1710483" lon="14.5958683"><ele>96.0</ele><time>2026-04-14T07:19:08.867Z</time></trkpt><trkpt lat="42.17111" lon="14.59591"><ele>95.99999999999999</ele><time>2026-04-14T07:19:11.867Z</time></trkpt><trkpt lat="42.17117" lon="14.59595"><ele>96.0</ele><time>2026-04-14T07:19:14.867Z</time></trkpt><trkpt lat="42.1712333" lon="14.5959717"><ele>96.0</ele><time>2026-04-14T07:19:17.867Z</time></trkpt><trkpt lat="42.17127" lon="14.5960567"><ele>96.0</ele><time>2026-04-14T07:19:24.867Z</time></trkpt><trkpt lat="42.1713217" lon="14.5961267"><ele>96.0</ele><time>2026-04-14T07:19:30.866Z</time></trkpt><trkpt lat="42.17138" lon="14.59617"><ele>95.99999999999999</ele><time>2026-04-14T07:19:36.867Z</time></trkpt><trkpt lat="42.1714333" lon="14.5962283"><ele>96.0</ele><time>2026-04-14T07:19:41.867Z</time></trkpt><trkpt lat="42.17148" lon="14.59629"><ele>95.0</ele><time>2026-04-14T07:19:45.866Z</time></trkpt><trkpt lat="42.171575" lon="14.596425"><ele>94.0</ele><time>2026-04-14T07:19:54.867Z</time></trkpt><trkpt lat="42.17163" lon="14.59651"><ele>93.0</ele><time>2026-04-14T07:19:57.867Z</time></trkpt><trkpt lat="42.1716767" lon="14.5965967"><ele>92.0</ele><time>2026-04-14T07:20:00.867Z</time></trkpt><trkpt lat="42.171715" lon="14.596685"><ele>91.0</ele><time>2026-04-14T07:20:03.867Z</time></trkpt><trkpt lat="42.1717517" lon="14.5967833"><ele>91.0</ele><time>2026-04-14T07:20:07.867Z</time></trkpt><trkpt lat="42.1717717" lon="14.59687"><ele>91.0</ele><time>2026-04-14T07:20:10.867Z</time></trkpt><trkpt lat="42.1717983" lon="14.5969667"><ele>91.0</ele><time>2026-04-14T07:20:13.866Z</time></trkpt><trkpt lat="42.17183" lon="14.5970783"><ele>91.0</ele><time>2026-04-14T07:20:16.867Z</time></trkpt><trkpt lat="42.1718533" lon="14.59717"><ele>91.0</ele><time>2026-04-14T07:20:19.867Z</time></trkpt><trkpt lat="42.1718967" lon="14.59728"><ele>91.0</ele><time>2026-04-14T07:20:39.867Z</time></trkpt><trkpt lat="42.1719367" lon="14.5973583"><ele>91.66666666666666</ele><time>2026-04-14T07:20:43.866Z</time></trkpt><trkpt lat="42.1719833" lon="14.59743"><ele>92.33333333333333</ele><time>2026-04-14T07:20:48.867Z</time></trkpt><trkpt lat="42.1720283" lon="14.5974983"><ele>93.0</ele><time>2026-04-14T07:20:53.867Z</time></trkpt><trkpt lat="42.172045" lon="14.59759"><ele>93.66666666666667</ele><time>2026-04-14T07:20:57.866Z</time></trkpt><trkpt lat="42.17206" lon="14.597685"><ele>94.33333333333334</ele><time>2026-04-14T07:21:01.867Z</time></trkpt><trkpt lat="42.1721" lon="14.5978117"><ele>95.0</ele><time>2026-04-14T07:21:09.867Z</time></trkpt><trkpt lat="42.1721533" lon="14.5979517"><ele>95.28571428571429</ele><time>2026-04-14T07:21:17.866Z</time></trkpt><trkpt lat="42.1721783" lon="14.5980417"><ele>95.57142857142858</ele><time>2026-04-14T07:21:21.867Z</time></trkpt><trkpt lat="42.1721883" lon="14.5981367"><ele>95.85714285714286</ele><time>2026-04-14T07:21:25.867Z</time></trkpt><trkpt lat="42.1722267" lon="14.5982183"><ele>96.14285714285714</ele><time>2026-04-14T07:21:30.866Z</time></trkpt><trkpt lat="42.1722567" lon="14.5983167"><ele>96.42857142857143</ele><time>2026-04-14T07:21:35.866Z</time></trkpt><trkpt lat="42.1722833" lon="14.5984017"><ele>96.71428571428571</ele><time>2026-04-14T07:21:38.867Z</time></trkpt><trkpt lat="42.1723117" lon="14.5984783"><ele>97.0</ele><time>2026-04-14T07:21:41.866Z</time></trkpt><trkpt lat="42.1723317" lon="14.5985667"><ele>96.0</ele><time>2026-04-14T07:21:45.866Z</time></trkpt><trkpt lat="42.172365" lon="14.59864"><ele>95.0</ele><time>2026-04-14T07:21:48.867Z</time></trkpt><trkpt lat="42.1724033" lon="14.59872"><ele>94.0</ele><time>2026-04-14T07:21:52.866Z</time></trkpt><trkpt lat="42.1724217" lon="14.5988167"><ele>93.0</ele><time>2026-04-14T07:21:57.867Z</time></trkpt><trkpt lat="42.17243" lon="14.5989067"><ele>92.0</ele><time>2026-04-14T07:22:01.866Z</time></trkpt><trkpt lat="42.1724267" lon="14.5989983"><ele>91.0</ele><time>2026-04-14T07:22:05.866Z</time></trkpt><trkpt lat="42.1724283" lon="14.5990917"><ele>90.0</ele><time>2026-04-14T07:22:10.867Z</time></trkpt><trkpt lat="42.1724217" lon="14.5991767"><ele>89.8</ele><time>2026-04-14T07:22:14.867Z</time></trkpt><trkpt lat="42.1724083" lon="14.5992667"><ele>89.6</ele><time>2026-04-14T07:22:18.866Z</time></trkpt><trkpt lat="42.1723983" lon="14.59936"><ele>89.4</ele><time>2026-04-14T07:22:22.867Z</time></trkpt><trkpt lat="42.1724083" lon="14.59957"><ele>89.2</ele><time>2026-04-14T07:22:41.867Z</time></trkpt><trkpt lat="42.1724283" lon="14.5996767"><ele>89.0</ele><time>2026-04-14T07:22:45.867Z</time></trkpt><trkpt lat="42.1724667" lon="14.5997683"><ele>88.66666666666667</ele><time>2026-04-14T07:22:48.866Z</time></trkpt><trkpt lat="42.1724983" lon="14.5998467"><ele>88.33333333333334</ele><time>2026-04-14T07:22:50.867Z</time></trkpt><trkpt lat="42.172545" lon="14.5999567"><ele>88.0</ele><time>2026-04-14T07:22:53.867Z</time></trkpt><trkpt lat="42.1725717" lon="14.600035"><ele>87.66666666666667</ele><time>2026-04-14T07:22:55.867Z</time></trkpt><trkpt lat="42.1726067" lon="14.6001383"><ele>87.33333333333333</ele><time>2026-04-14T07:22:58.866Z</time></trkpt><trkpt lat="42.1726417" lon="14.6002317"><ele>87.0</ele><time>2026-04-14T07:23:01.867Z</time></trkpt><trkpt lat="42.1726733" lon="14.6003167"><ele>87.28571428571428</ele><time>2026-04-14T07:23:04.866Z</time></trkpt><trkpt lat="42.1727017" lon="14.6004"><ele>87.57142857142857</ele><time>2026-04-14T07:23:07.867Z</time></trkpt><trkpt lat="42.1727233" lon="14.60049"><ele>87.85714285714286</ele><time>2026-04-14T07:23:10.866Z</time></trkpt><trkpt lat="42.172745" lon="14.600575"><ele>88.14285714285714</ele><time>2026-04-14T07:23:13.867Z</time></trkpt><trkpt lat="42.1727667" lon="14.600675"><ele>88.42857142857143</ele><time>2026-04-14T07:23:17.867Z</time></trkpt><trkpt lat="42.1727967" lon="14.6007633"><ele>88.71428571428571</ele><time>2026-04-14T07:23:20.867Z</time></trkpt><trkpt lat="42.172825" lon="14.6008633"><ele>89.0</ele><time>2026-04-14T07:23:23.866Z</time></trkpt><trkpt lat="42.17285" lon="14.60097"><ele>88.99999999999999</ele><time>2026-04-14T07:23:26.867Z</time></trkpt><trkpt lat="42.1728733" lon="14.6010533"><ele>89.0</ele><time>2026-04-14T07:23:28.867Z</time></trkpt><trkpt lat="42.1729017" lon="14.6011683"><ele>89.0</ele><time>2026-04-14T07:23:31.867Z</time></trkpt><trkpt lat="42.172925" lon="14.6012617"><ele>89.0</ele><time>2026-04-14T07:23:34.866Z</time></trkpt><trkpt lat="42.1729633" lon="14.6013517"><ele>89.0</ele><time>2026-04-14T07:23:37.866Z</time></trkpt><trkpt lat="42.1729967" lon="14.6014283"><ele>88.99999999999999</ele><time>2026-04-14T07:23:39.867Z</time></trkpt><trkpt lat="42.173035" lon="14.6015083"><ele>89.0</ele><time>2026-04-14T07:23:41.867Z</time></trkpt><trkpt lat="42.173075" lon="14.60159"><ele>89.16666666666667</ele><time>2026-04-14T07:23:43.866Z</time></trkpt><trkpt lat="42.1731083" lon="14.6016667"><ele>89.33333333333334</ele><time>2026-04-14T07:23:45.867Z</time></trkpt><trkpt lat="42.1731533" lon="14.6017783"><ele>89.5</ele><time>2026-04-14T07:23:48.867Z</time></trkpt><trkpt lat="42.1731933" lon="14.60186"><ele>89.66666666666667</ele><time>2026-04-14T07:23:50.867Z</time></trkpt><trkpt lat="42.173235" lon="14.6019417"><ele>89.83333333333333</ele><time>2026-04-14T07:23:52.867Z</time></trkpt><trkpt lat="42.1732883" lon="14.60203"><ele>90.0</ele><time>2026-04-14T07:23:55.867Z</time></trkpt><trkpt lat="42.17333" lon="14.6021083"><ele>88.85714285714285</ele><time>2026-04-14T07:23:59.867Z</time></trkpt><trkpt lat="42.17337" lon="14.6021983"><ele>87.71428571428572</ele><time>2026-04-14T07:24:03.867Z</time></trkpt><trkpt lat="42.1733967" lon="14.60228"><ele>86.57142857142857</ele><time>2026-04-14T07:24:07.866Z</time></trkpt><trkpt lat="42.173435" lon="14.6023567"><ele>85.42857142857142</ele><time>2026-04-14T07:24:11.866Z</time></trkpt><trkpt lat="42.1734583" lon="14.602455"><ele>84.28571428571428</ele><time>2026-04-14T07:24:15.867Z</time></trkpt><trkpt lat="42.1734433" lon="14.602545"><ele>83.14285714285714</ele><time>2026-04-14T07:24:20.867Z</time></trkpt><trkpt lat="42.173405" lon="14.602625"><ele>82.0</ele><time>2026-04-14T07:24:26.866Z</time></trkpt><trkpt lat="42.1733767" lon="14.6027633"><ele>81.66666666666666</ele><time>2026-04-14T07:24:34.867Z</time></trkpt><trkpt lat="42.1733633" lon="14.6028617"><ele>81.33333333333333</ele><time>2026-04-14T07:24:38.867Z</time></trkpt><trkpt lat="42.17335" lon="14.6029467"><ele>81.0</ele><time>2026-04-14T07:24:42.866Z</time></trkpt><trkpt lat="42.1733383" lon="14.6030417"><ele>80.66666666666667</ele><time>2026-04-14T07:24:45.866Z</time></trkpt><trkpt lat="42.1733383" lon="14.60316"><ele>80.33333333333334</ele><time>2026-04-14T07:24:48.867Z</time></trkpt><trkpt lat="42.17334" lon="14.603275"><ele>80.0</ele><time>2026-04-14T07:24:51.866Z</time></trkpt><trkpt lat="42.1733367" lon="14.6033783"><ele>80.0</ele><time>2026-04-14T07:24:54.866Z</time></trkpt><trkpt lat="42.173315" lon="14.6034617"><ele>80.0</ele><time>2026-04-14T07:24:57.867Z</time></trkpt><trkpt lat="42.1732833" lon="14.603555"><ele>80.0</ele><time>2026-04-14T07:25:01.867Z</time></trkpt><trkpt lat="42.1732433" lon="14.6036567"><ele>80.0</ele><time>2026-04-14T07:25:05.867Z</time></trkpt><trkpt lat="42.173225" lon="14.6037767"><ele>80.0</ele><time>2026-04-14T07:25:08.866Z</time></trkpt><trkpt lat="42.1732167" lon="14.60387"><ele>80.0</ele><time>2026-04-14T07:25:10.867Z</time></trkpt><trkpt lat="42.1732083" lon="14.60396"><ele>80.28571428571428</ele><time>2026-04-14T07:25:12.867Z</time></trkpt><trkpt lat="42.1732" lon="14.6040517"><ele>80.57142857142857</ele><time>2026-04-14T07:25:14.866Z</time></trkpt><trkpt lat="42.1731883" lon="14.604145"><ele>80.85714285714286</ele><time>2026-04-14T07:25:16.866Z</time></trkpt><trkpt lat="42.173195" lon="14.604235"><ele>81.14285714285714</ele><time>2026-04-14T07:25:18.866Z</time></trkpt><trkpt lat="42.173195" lon="14.60432"><ele>81.42857142857143</ele><time>2026-04-14T07:25:20.867Z</time></trkpt><trkpt lat="42.1732117" lon="14.6044267"><ele>81.71428571428571</ele><time>2026-04-14T07:25:24.867Z</time></trkpt><trkpt lat="42.1732367" lon="14.6045233"><ele>82.0</ele><time>2026-04-14T07:25:27.866Z</time></trkpt><trkpt lat="42.1732767" lon="14.6046183"><ele>81.42857142857142</ele><time>2026-04-14T07:25:30.866Z</time></trkpt><trkpt lat="42.1733167" lon="14.6046883"><ele>80.85714285714286</ele><time>2026-04-14T07:25:33.866Z</time></trkpt><trkpt lat="42.17336" lon="14.6047683"><ele>80.28571428571428</ele><time>2026-04-14T07:25:37.866Z</time></trkpt><trkpt lat="42.1734117" lon="14.604825"><ele>79.71428571428571</ele><time>2026-04-14T07:25:40.867Z</time></trkpt><trkpt lat="42.1734783" lon="14.6048867"><ele>79.14285714285714</ele><time>2026-04-14T07:25:43.867Z</time></trkpt><trkpt lat="42.17354" lon="14.604925"><ele>78.57142857142857</ele><time>2026-04-14T07:25:45.866Z</time></trkpt><trkpt lat="42.1735967" lon="14.6049667"><ele>78.0</ele><time>2026-04-14T07:25:47.867Z</time></trkpt><trkpt lat="42.173665" lon="14.605015"><ele>78.0</ele><time>2026-04-14T07:25:50.867Z</time></trkpt><trkpt lat="42.1737333" lon="14.6050583"><ele>78.0</ele><time>2026-04-14T07:25:53.867Z</time></trkpt><trkpt lat="42.1737983" lon="14.6051117"><ele>78.0</ele><time>2026-04-14T07:25:56.866Z</time></trkpt><trkpt lat="42.1738533" lon="14.6051617"><ele>78.0</ele><time>2026-04-14T07:25:59.867Z</time></trkpt><trkpt lat="42.1739117" lon="14.6052033"><ele>78.0</ele><time>2026-04-14T07:26:02.866Z</time></trkpt><trkpt lat="42.1739883" lon="14.60526"><ele>78.0</ele><time>2026-04-14T07:26:05.866Z</time></trkpt><trkpt lat="42.17407" lon="14.6053117"><ele>77.28571428571429</ele><time>2026-04-14T07:26:08.866Z</time></trkpt><trkpt lat="42.1741433" lon="14.605345"><ele>76.57142857142857</ele><time>2026-04-14T07:26:11.867Z</time></trkpt><trkpt lat="42.1742033" lon="14.6053983"><ele>75.85714285714286</ele><time>2026-04-14T07:26:14.867Z</time></trkpt><trkpt lat="42.1742617" lon="14.6054417"><ele>75.14285714285714</ele><time>2026-04-14T07:26:17.867Z</time></trkpt><trkpt lat="42.1743317" lon="14.6054917"><ele>74.42857142857143</ele><time>2026-04-14T07:26:21.867Z</time></trkpt><trkpt lat="42.1743917" lon="14.6055383"><ele>73.71428571428571</ele><time>2026-04-14T07:26:25.866Z</time></trkpt><trkpt lat="42.1744467" lon="14.6055833"><ele>73.0</ele><time>2026-04-14T07:26:29.867Z</time></trkpt><trkpt lat="42.1743917" lon="14.605535"><ele>73.0</ele><time>2026-04-14T07:28:27.866Z</time></trkpt><trkpt lat="42.1743417" lon="14.6054833"><ele>73.0</ele><time>2026-04-14T07:28:31.866Z</time></trkpt><trkpt lat="42.174275" lon="14.6054217"><ele>73.0</ele><time>2026-04-14T07:28:35.866Z</time></trkpt><trkpt lat="42.17422" lon="14.6053617"><ele>73.0</ele><time>2026-04-14T07:28:39.865Z</time></trkpt><trkpt lat="42.1741517" lon="14.6053267"><ele>73.0</ele><time>2026-04-14T07:28:43.866Z</time></trkpt><trkpt lat="42.1740867" lon="14.605305"><ele>73.0</ele><time>2026-04-14T07:28:46.866Z</time></trkpt><trkpt lat="42.1740283" lon="14.605265"><ele>73.0</ele><time>2026-04-14T07:28:49.866Z</time></trkpt><trkpt lat="42.1739717" lon="14.6052"><ele>73.71428571428571</ele><time>2026-04-14T07:28:52.866Z</time></trkpt><trkpt lat="42.1739017" lon="14.605135"><ele>74.42857142857143</ele><time>2026-04-14T07:28:56.866Z</time></trkpt><trkpt lat="42.1738333" lon="14.605095"><ele>75.14285714285714</ele><time>2026-04-14T07:29:00.866Z</time></trkpt><trkpt lat="42.17377" lon="14.6050667"><ele>75.85714285714286</ele><time>2026-04-14T07:29:03.866Z</time></trkpt><trkpt lat="42.1737083" lon="14.6050233"><ele>76.57142857142857</ele><time>2026-04-14T07:29:07.866Z</time></trkpt><trkpt lat="42.1736383" lon="14.6049817"><ele>77.28571428571429</ele><time>2026-04-14T07:29:11.866Z</time></trkpt><trkpt lat="42.1735767" lon="14.6049367"><ele>78.0</ele><time>2026-04-14T07:29:17.865Z</time></trkpt><trkpt lat="42.1735067" lon="14.6048817"><ele>78.0</ele><time>2026-04-14T07:29:21.866Z</time></trkpt><trkpt lat="42.17345" lon="14.6048433"><ele>78.0</ele><time>2026-04-14T07:29:24.866Z</time></trkpt><trkpt lat="42.173395" lon="14.6047967"><ele>78.0</ele><time>2026-04-14T07:29:27.865Z</time></trkpt><trkpt lat="42.1733433" lon="14.6047117"><ele>78.0</ele><time>2026-04-14T07:29:32.866Z</time></trkpt><trkpt lat="42.1733167" lon="14.604625"><ele>78.0</ele><time>2026-04-14T07:29:35.866Z</time></trkpt><trkpt lat="42.1732817" lon="14.60454"><ele>78.0</ele><time>2026-04-14T07:29:39.865Z</time></trkpt><trkpt lat="42.1732483" lon="14.604455"><ele>78.0</ele><time>2026-04-14T07:29:44.865Z</time></trkpt><trkpt lat="42.1731883" lon="14.60442"><ele>78.57142857142857</ele><time>2026-04-14T07:29:50.865Z</time></trkpt><trkpt lat="42.1731183" lon="14.604395"><ele>79.14285714285714</ele><time>2026-04-14T07:29:56.865Z</time></trkpt><trkpt lat="42.1730567" lon="14.60437"><ele>79.71428571428571</ele><time>2026-04-14T07:30:00.866Z</time></trkpt><trkpt lat="42.1729833" lon="14.60435"><ele>80.28571428571428</ele><time>2026-04-14T07:30:04.865Z</time></trkpt><trkpt lat="42.1729067" lon="14.604335"><ele>80.85714285714286</ele><time>2026-04-14T07:30:08.866Z</time></trkpt><trkpt lat="42.1728333" lon="14.60431"><ele>81.42857142857142</ele><time>2026-04-14T07:30:12.866Z</time></trkpt><trkpt lat="42.1727583" lon="14.6042867"><ele>82.0</ele><time>2026-04-14T07:30:16.865Z</time></trkpt><trkpt lat="42.1726733" lon="14.604265"><ele>81.99999999999999</ele><time>2026-04-14T07:30:20.866Z</time></trkpt><trkpt lat="42.1726083" lon="14.6042467"><ele>82.0</ele><time>2026-04-14T07:30:23.865Z</time></trkpt><trkpt lat="42.1725467" lon="14.6042233"><ele>82.0</ele><time>2026-04-14T07:30:26.866Z</time></trkpt><trkpt lat="42.172465" lon="14.60421"><ele>82.0</ele><time>2026-04-14T07:30:30.866Z</time></trkpt><trkpt lat="42.1723867" lon="14.6041867"><ele>82.0</ele><time>2026-04-14T07:30:34.866Z</time></trkpt><trkpt lat="42.1723067" lon="14.6042083"><ele>81.99999999999999</ele><time>2026-04-14T07:30:38.865Z</time></trkpt><trkpt lat="42.1722467" lon="14.6042483"><ele>82.0</ele><time>2026-04-14T07:30:40.866Z</time></trkpt><trkpt lat="42.1721883" lon="14.6043233"><ele>82.99999999999999</ele><time>2026-04-14T07:30:44.866Z</time></trkpt><trkpt lat="42.1721417" lon="14.604395"><ele>84.0</ele><time>2026-04-14T07:30:48.865Z</time></trkpt><trkpt lat="42.1720933" lon="14.60446"><ele>85.0</ele><time>2026-04-14T07:30:52.866Z</time></trkpt><trkpt lat="42.172055" lon="14.6045433"><ele>86.0</ele><time>2026-04-14T07:30:56.866Z</time></trkpt><trkpt lat="42.1720017" lon="14.6046267"><ele>87.0</ele><time>2026-04-14T07:31:00.865Z</time></trkpt><trkpt lat="42.171955" lon="14.604695"><ele>87.99999999999999</ele><time>2026-04-14T07:31:04.866Z</time></trkpt><trkpt lat="42.1719083" lon="14.6047733"><ele>89.0</ele><time>2026-04-14T07:31:08.865Z</time></trkpt><trkpt lat="42.17187" lon="14.6048567"><ele>89.71428571428571</ele><time>2026-04-14T07:31:12.866Z</time></trkpt><trkpt lat="42.17183" lon="14.6049317"><ele>90.42857142857143</ele><time>2026-04-14T07:31:16.866Z</time></trkpt><trkpt lat="42.1717933" lon="14.6050117"><ele>91.14285714285714</ele><time>2026-04-14T07:31:20.866Z</time></trkpt><trkpt lat="42.17175" lon="14.6050883"><ele>91.85714285714286</ele><time>2026-04-14T07:31:24.866Z</time></trkpt><trkpt lat="42.1717033" lon="14.605165"><ele>92.57142857142857</ele><time>2026-04-14T07:31:28.866Z</time></trkpt><trkpt lat="42.1716633" lon="14.6052533"><ele>93.28571428571428</ele><time>2026-04-14T07:31:32.865Z</time></trkpt><trkpt lat="42.1716183" lon="14.6053433"><ele>94.0</ele><time>2026-04-14T07:31:36.866Z</time></trkpt><trkpt lat="42.1715767" lon="14.6054183"><ele>95.28571428571428</ele><time>2026-04-14T07:31:40.866Z</time></trkpt><trkpt lat="42.1715367" lon="14.605495"><ele>96.57142857142857</ele><time>2026-04-14T07:31:44.866Z</time></trkpt><trkpt lat="42.1714917" lon="14.605565"><ele>97.85714285714286</ele><time>2026-04-14T07:31:48.866Z</time></trkpt><trkpt lat="42.1714533" lon="14.6056383"><ele>99.14285714285714</ele><time>2026-04-14T07:31:52.867Z</time></trkpt><trkpt lat="42.171415" lon="14.6057067"><ele>100.42857142857143</ele><time>2026-04-14T07:31:56.867Z</time></trkpt><trkpt lat="42.1713767" lon="14.6057817"><ele>101.71428571428571</ele><time>2026-04-14T07:32:00.867Z</time></trkpt><trkpt lat="42.17133" lon="14.6058433"><ele>103.0</ele><time>2026-04-14T07:32:04.866Z</time></trkpt><trkpt lat="42.1712917" lon="14.60592"><ele>103.99999999999999</ele><time>2026-04-14T07:32:08.867Z</time></trkpt><trkpt lat="42.1712517" lon="14.606"><ele>105.0</ele><time>2026-04-14T07:32:12.867Z</time></trkpt><trkpt lat="42.1712167" lon="14.6060733"><ele>106.0</ele><time>2026-04-14T07:32:16.867Z</time></trkpt><trkpt lat="42.1711683" lon="14.60615"><ele>107.0</ele><time>2026-04-14T07:32:21.866Z</time></trkpt><trkpt lat="42.1711183" lon="14.60623"><ele>108.0</ele><time>2026-04-14T07:32:26.866Z</time></trkpt><trkpt lat="42.1710733" lon="14.6062967"><ele>108.99999999999999</ele><time>2026-04-14T07:32:30.867Z</time></trkpt><trkpt lat="42.171025" lon="14.606375"><ele>110.0</ele><time>2026-04-14T07:32:34.867Z</time></trkpt><trkpt lat="42.17098" lon="14.6064633"><ele>110.71428571428571</ele><time>2026-04-14T07:32:38.867Z</time></trkpt><trkpt lat="42.1709367" lon="14.60653"><ele>111.42857142857142</ele><time>2026-04-14T07:32:41.867Z</time></trkpt><trkpt lat="42.1708917" lon="14.6066"><ele>112.14285714285714</ele><time>2026-04-14T07:32:45.867Z</time></trkpt><trkpt lat="42.1708533" lon="14.60667"><ele>112.85714285714285</ele><time>2026-04-14T07:32:48.867Z</time></trkpt><trkpt lat="42.170805" lon="14.6067583"><ele>113.57142857142857</ele><time>2026-04-14T07:32:52.866Z</time></trkpt><trkpt lat="42.1707717" lon="14.6068317"><ele>114.28571428571426</ele><time>2026-04-14T07:32:55.867Z</time></trkpt><trkpt lat="42.17082" lon="14.606925"><ele>114.99999999999999</ele><time>2026-04-14T07:32:58.867Z</time></trkpt><trkpt lat="42.1708683" lon="14.606995"><ele>114.99999999999999</ele><time>2026-04-14T07:33:00.867Z</time></trkpt><trkpt lat="42.1709133" lon="14.6070583"><ele>115.0</ele><time>2026-04-14T07:33:02.866Z</time></trkpt><trkpt lat="42.17096" lon="14.607125"><ele>114.99999999999999</ele><time>2026-04-14T07:33:04.867Z</time></trkpt><trkpt lat="42.1710117" lon="14.6071983"><ele>114.99999999999999</ele><time>2026-04-14T07:33:06.867Z</time></trkpt><trkpt lat="42.17106" lon="14.6072617"><ele>115.0</ele><time>2026-04-14T07:33:08.867Z</time></trkpt><trkpt lat="42.1711117" lon="14.6073283"><ele>114.99999999999999</ele><time>2026-04-14T07:33:10.867Z</time></trkpt><trkpt lat="42.17116" lon="14.6073983"><ele>114.99999999999999</ele><time>2026-04-14T07:33:12.866Z</time></trkpt><trkpt lat="42.171205" lon="14.6074667"><ele>115.00000000000001</ele><time>2026-04-14T07:33:14.867Z</time></trkpt><trkpt lat="42.1712567" lon="14.607535"><ele>115.0</ele><time>2026-04-14T07:33:16.867Z</time></trkpt><trkpt lat="42.1713" lon="14.6076117"><ele>115.0</ele><time>2026-04-14T07:33:18.866Z</time></trkpt><trkpt lat="42.1713483" lon="14.6076883"><ele>115.0</ele><time>2026-04-14T07:33:20.867Z</time></trkpt><trkpt lat="42.1714017" lon="14.6077617"><ele>115.00000000000001</ele><time>2026-04-14T07:33:22.866Z</time></trkpt><trkpt lat="42.1714567" lon="14.6078383"><ele>115.0</ele><time>2026-04-14T07:33:24.867Z</time></trkpt><trkpt lat="42.1715117" lon="14.607915"><ele>114.50000000000001</ele><time>2026-04-14T07:33:26.867Z</time></trkpt><trkpt lat="42.1715633" lon="14.6079967"><ele>114.0</ele><time>2026-04-14T07:33:28.867Z</time></trkpt><trkpt lat="42.17161" lon="14.608085"><ele>113.5</ele><time>2026-04-14T07:33:30.867Z</time></trkpt><trkpt lat="42.1716567" lon="14.60817"><ele>113.0</ele><time>2026-04-14T07:33:32.866Z</time></trkpt><trkpt lat="42.1717133" lon="14.6082433"><ele>112.50000000000001</ele><time>2026-04-14T07:33:34.866Z</time></trkpt><trkpt lat="42.17177" lon="14.608315"><ele>112.0</ele><time>2026-04-14T07:33:36.867Z</time></trkpt><trkpt lat="42.17184" lon="14.6083917"><ele>112.0</ele><time>2026-04-14T07:33:38.867Z</time></trkpt><trkpt lat="42.17191" lon="14.6084733"><ele>111.99999999999999</ele><time>2026-04-14T07:33:40.866Z</time></trkpt><trkpt lat="42.1719833" lon="14.6085467"><ele>111.99999999999999</ele><time>2026-04-14T07:33:42.867Z</time></trkpt><trkpt lat="42.172055" lon="14.60862"><ele>112.0</ele><time>2026-04-14T07:33:44.866Z</time></trkpt><trkpt lat="42.1721333" lon="14.608695"><ele>112.0</ele><time>2026-04-14T07:33:46.867Z</time></trkpt><trkpt lat="42.1722017" lon="14.6087767"><ele>111.19999999999999</ele><time>2026-04-14T07:33:48.866Z</time></trkpt><trkpt lat="42.172265" lon="14.6088567"><ele>110.39999999999999</ele><time>2026-04-14T07:33:50.867Z</time></trkpt><trkpt lat="42.1723233" lon="14.6089383"><ele>109.60000000000001</ele><time>2026-04-14T07:33:52.867Z</time></trkpt><trkpt lat="42.1723933" lon="14.6090283"><ele>108.80000000000001</ele><time>2026-04-14T07:33:54.867Z</time></trkpt><trkpt lat="42.17246" lon="14.6091317"><ele>108.0</ele><time>2026-04-14T07:33:56.866Z</time></trkpt><trkpt lat="42.17252" lon="14.6092333"><ele>108.0</ele><time>2026-04-14T07:33:58.866Z</time></trkpt><trkpt lat="42.1725933" lon="14.609335"><ele>108.00000000000001</ele><time>2026-04-14T07:34:00.867Z</time></trkpt><trkpt lat="42.1726667" lon="14.60943"><ele>108.00000000000001</ele><time>2026-04-14T07:34:02.867Z</time></trkpt><trkpt lat="42.172755" lon="14.6095067"><ele>108.0</ele><time>2026-04-14T07:34:04.867Z</time></trkpt><trkpt lat="42.17284" lon="14.6095733"><ele>108.0</ele><time>2026-04-14T07:34:06.867Z</time></trkpt><trkpt lat="42.172935" lon="14.6096233"><ele>106.4</ele><time>2026-04-14T07:34:08.867Z</time></trkpt><trkpt lat="42.1730333" lon="14.609675"><ele>104.80000000000001</ele><time>2026-04-14T07:34:10.866Z</time></trkpt><trkpt lat="42.1731233" lon="14.6097467"><ele>103.2</ele><time>2026-04-14T07:34:12.867Z</time></trkpt><trkpt lat="42.1732033" lon="14.609825"><ele>101.6</ele><time>2026-04-14T07:34:14.867Z</time></trkpt><trkpt lat="42.1732733" lon="14.6098967"><ele>100.0</ele><time>2026-04-14T07:34:16.867Z</time></trkpt><trkpt lat="42.17334" lon="14.6099683"><ele>99.83333333333334</ele><time>2026-04-14T07:34:18.866Z</time></trkpt><trkpt lat="42.1734033" lon="14.610025"><ele>99.66666666666667</ele><time>2026-04-14T07:34:20.867Z</time></trkpt><trkpt lat="42.1734817" lon="14.610065"><ele>99.5</ele><time>2026-04-14T07:34:22.867Z</time></trkpt><trkpt lat="42.17358" lon="14.6100617"><ele>99.33333333333334</ele><time>2026-04-14T07:34:24.867Z</time></trkpt><trkpt lat="42.1736733" lon="14.610035"><ele>99.16666666666667</ele><time>2026-04-14T07:34:26.866Z</time></trkpt><trkpt lat="42.1737667" lon="14.6100117"><ele>99.0</ele><time>2026-04-14T07:34:28.867Z</time></trkpt><trkpt lat="42.17387" lon="14.6100133"><ele>99.0</ele><time>2026-04-14T07:34:30.867Z</time></trkpt><trkpt lat="42.17397" lon="14.610025"><ele>99.0</ele><time>2026-04-14T07:34:32.867Z</time></trkpt><trkpt lat="42.1740717" lon="14.610045"><ele>99.0</ele><time>2026-04-14T07:34:34.867Z</time></trkpt><trkpt lat="42.1741733" lon="14.6100633"><ele>99.0</ele><time>2026-04-14T07:34:36.867Z</time></trkpt><trkpt lat="42.1742883" lon="14.6101033"><ele>99.0</ele><time>2026-04-14T07:34:38.866Z</time></trkpt><trkpt lat="42.1743967" lon="14.6101417"><ele>97.80000000000001</ele><time>2026-04-14T07:34:40.867Z</time></trkpt><trkpt lat="42.1745067" lon="14.6101867"><ele>96.60000000000001</ele><time>2026-04-14T07:34:42.867Z</time></trkpt><trkpt lat="42.1746283" lon="14.6102133"><ele>95.4</ele><time>2026-04-14T07:34:44.866Z</time></trkpt><trkpt lat="42.1746933" lon="14.61023"><ele>94.2</ele><time>2026-04-14T07:34:45.866Z</time></trkpt><trkpt lat="42.174815" lon="14.610275"><ele>93.0</ele><time>2026-04-14T07:34:47.867Z</time></trkpt><trkpt lat="42.17488" lon="14.610295"><ele>91.57142857142858</ele><time>2026-04-14T07:34:48.867Z</time></trkpt><trkpt lat="42.174945" lon="14.6103117"><ele>90.14285714285714</ele><time>2026-04-14T07:34:49.867Z</time></trkpt><trkpt lat="42.17501" lon="14.6103267"><ele>88.71428571428572</ele><time>2026-04-14T07:34:50.866Z</time></trkpt><trkpt lat="42.1750733" lon="14.610345"><ele>87.28571428571429</ele><time>2026-04-14T07:34:51.867Z</time></trkpt><trkpt lat="42.1751383" lon="14.610365"><ele>85.85714285714286</ele><time>2026-04-14T07:34:52.866Z</time></trkpt><trkpt lat="42.1752017" lon="14.6103833"><ele>84.42857142857143</ele><time>2026-04-14T07:34:53.867Z</time></trkpt><trkpt lat="42.1752667" lon="14.6104"><ele>83.0</ele><time>2026-04-14T07:34:54.867Z</time></trkpt><trkpt lat="42.175335" lon="14.6104183"><ele>81.4</ele><time>2026-04-14T07:34:55.867Z</time></trkpt><trkpt lat="42.17546" lon="14.610435"><ele>79.80000000000001</ele><time>2026-04-14T07:34:57.867Z</time></trkpt><trkpt lat="42.175565" lon="14.61045"><ele>78.2</ele><time>2026-04-14T07:34:59.867Z</time></trkpt><trkpt lat="42.1756567" lon="14.610465"><ele>76.6</ele><time>2026-04-14T07:35:01.867Z</time></trkpt><trkpt lat="42.1757567" lon="14.610485"><ele>75.0</ele><time>2026-04-14T07:35:03.867Z</time></trkpt><trkpt lat="42.1758483" lon="14.6105483"><ele>73.2</ele><time>2026-04-14T07:35:05.867Z</time></trkpt><trkpt lat="42.1759117" lon="14.610625"><ele>71.4</ele><time>2026-04-14T07:35:07.866Z</time></trkpt><trkpt lat="42.1759817" lon="14.6107067"><ele>69.6</ele><time>2026-04-14T07:35:09.867Z</time></trkpt><trkpt lat="42.176045" lon="14.6107817"><ele>67.8</ele><time>2026-04-14T07:35:11.867Z</time></trkpt><trkpt lat="42.176115" lon="14.6108617"><ele>66.0</ele><time>2026-04-14T07:35:13.866Z</time></trkpt><trkpt lat="42.1761917" lon="14.610955"><ele>66.0</ele><time>2026-04-14T07:35:15.866Z</time></trkpt><trkpt lat="42.1762633" lon="14.6110383"><ele>66.0</ele><time>2026-04-14T07:35:17.867Z</time></trkpt><trkpt lat="42.1763333" lon="14.61113"><ele>66.0</ele><time>2026-04-14T07:35:19.867Z</time></trkpt><trkpt lat="42.1764167" lon="14.611235"><ele>66.0</ele><time>2026-04-14T07:35:21.867Z</time></trkpt><trkpt lat="42.176495" lon="14.6113333"><ele>66.0</ele><time>2026-04-14T07:35:23.866Z</time></trkpt><trkpt lat="42.1765867" lon="14.6114383"><ele>64.83333333333333</ele><time>2026-04-14T07:35:25.866Z</time></trkpt><trkpt lat="42.1766633" lon="14.6114767"><ele>63.66666666666667</ele><time>2026-04-14T07:35:27.867Z</time></trkpt><trkpt lat="42.1767583" lon="14.6114817"><ele>62.5</ele><time>2026-04-14T07:35:29.867Z</time></trkpt><trkpt lat="42.176855" lon="14.6114533"><ele>61.333333333333336</ele><time>2026-04-14T07:35:31.867Z</time></trkpt><trkpt lat="42.1769283" lon="14.6114067"><ele>60.16666666666667</ele><time>2026-04-14T07:35:33.867Z</time></trkpt><trkpt lat="42.177" lon="14.61138"><ele>59.0</ele><time>2026-04-14T07:35:35.867Z</time></trkpt><trkpt lat="42.1770717" lon="14.611365"><ele>59.00000000000001</ele><time>2026-04-14T07:35:37.866Z</time></trkpt><trkpt lat="42.177145" lon="14.6113517"><ele>59.0</ele><time>2026-04-14T07:35:39.867Z</time></trkpt><trkpt lat="42.1772233" lon="14.6113367"><ele>59.0</ele><time>2026-04-14T07:35:41.867Z</time></trkpt><trkpt lat="42.1773" lon="14.6113233"><ele>59.0</ele><time>2026-04-14T07:35:43.867Z</time></trkpt><trkpt lat="42.17739" lon="14.6113117"><ele>59.00000000000001</ele><time>2026-04-14T07:35:45.866Z</time></trkpt><trkpt lat="42.1774717" lon="14.6112967"><ele>59.0</ele><time>2026-04-14T07:35:47.866Z</time></trkpt><trkpt lat="42.1775617" lon="14.6112867"><ele>58.400000000000006</ele><time>2026-04-14T07:35:49.867Z</time></trkpt><trkpt lat="42.1776533" lon="14.6112717"><ele>57.800000000000004</ele><time>2026-04-14T07:35:51.867Z</time></trkpt><trkpt lat="42.1777467" lon="14.61126"><ele>57.199999999999996</ele><time>2026-04-14T07:35:53.867Z</time></trkpt><trkpt lat="42.1778433" lon="14.6112517"><ele>56.599999999999994</ele><time>2026-04-14T07:35:55.867Z</time></trkpt><trkpt lat="42.1779333" lon="14.6112367"><ele>56.0</ele><time>2026-04-14T07:35:57.867Z</time></trkpt><trkpt lat="42.17801" lon="14.6112467"><ele>56.0</ele><time>2026-04-14T07:35:59.866Z</time></trkpt><trkpt lat="42.1780783" lon="14.611305"><ele>55.99999999999999</ele><time>2026-04-14T07:36:01.867Z</time></trkpt><trkpt lat="42.178155" lon="14.61137"><ele>55.99999999999999</ele><time>2026-04-14T07:36:03.867Z</time></trkpt><trkpt lat="42.17824" lon="14.61143"><ele>56.0</ele><time>2026-04-14T07:36:05.866Z</time></trkpt><trkpt lat="42.178335" lon="14.611485"><ele>56.0</ele><time>2026-04-14T07:36:07.867Z</time></trkpt><trkpt lat="42.1784383" lon="14.6115317"><ele>55.8</ele><time>2026-04-14T07:36:09.866Z</time></trkpt><trkpt lat="42.1785367" lon="14.6115567"><ele>55.599999999999994</ele><time>2026-04-14T07:36:11.867Z</time></trkpt><trkpt lat="42.178635" lon="14.6115717"><ele>55.4</ele><time>2026-04-14T07:36:13.866Z</time></trkpt><trkpt lat="42.17872" lon="14.6115833"><ele>55.2</ele><time>2026-04-14T07:36:15.866Z</time></trkpt><trkpt lat="42.1788117" lon="14.611605"><ele>55.0</ele><time>2026-04-14T07:36:17.867Z</time></trkpt><trkpt lat="42.178905" lon="14.6116167"><ele>55.0</ele><time>2026-04-14T07:36:19.867Z</time></trkpt><trkpt lat="42.1789933" lon="14.6116317"><ele>55.0</ele><time>2026-04-14T07:36:21.866Z</time></trkpt><trkpt lat="42.1790917" lon="14.6116433"><ele>55.0</ele><time>2026-04-14T07:36:23.867Z</time></trkpt><trkpt lat="42.1791917" lon="14.61164"><ele>55.0</ele><time>2026-04-14T07:36:25.866Z</time></trkpt><trkpt lat="42.1792883" lon="14.6116283"><ele>55.0</ele><time>2026-04-14T07:36:27.867Z</time></trkpt><trkpt lat="42.179385" lon="14.6116217"><ele>54.8</ele><time>2026-04-14T07:36:29.867Z</time></trkpt><trkpt lat="42.1794783" lon="14.6116133"><ele>54.6</ele><time>2026-04-14T07:36:31.867Z</time></trkpt><trkpt lat="42.1795617" lon="14.6116117"><ele>54.400000000000006</ele><time>2026-04-14T07:36:33.867Z</time></trkpt><trkpt lat="42.1796317" lon="14.6116283"><ele>54.2</ele><time>2026-04-14T07:36:35.866Z</time></trkpt><trkpt lat="42.1797617" lon="14.6116217"><ele>54.0</ele><time>2026-04-14T07:37:32.867Z</time></trkpt><trkpt lat="42.1798533" lon="14.6116583"><ele>53.5</ele><time>2026-04-14T07:37:35.867Z</time></trkpt><trkpt lat="42.1799267" lon="14.611675"><ele>53.0</ele><time>2026-04-14T07:37:37.866Z</time></trkpt><trkpt lat="42.18" lon="14.6116733"><ele>52.5</ele><time>2026-04-14T07:37:39.867Z</time></trkpt><trkpt lat="42.1800867" lon="14.611655"><ele>52.0</ele><time>2026-04-14T07:37:41.867Z</time></trkpt><trkpt lat="42.1801633" lon="14.611625"><ele>51.5</ele><time>2026-04-14T07:37:43.867Z</time></trkpt><trkpt lat="42.1802433" lon="14.6115817"><ele>51.0</ele><time>2026-04-14T07:37:45.867Z</time></trkpt><trkpt lat="42.18034" lon="14.611525"><ele>51.0</ele><time>2026-04-14T07:37:47.866Z</time></trkpt><trkpt lat="42.1804217" lon="14.6114667"><ele>51.0</ele><time>2026-04-14T07:37:49.867Z</time></trkpt><trkpt lat="42.1804783" lon="14.6114183"><ele>51.0</ele><time>2026-04-14T07:37:51.867Z</time></trkpt><trkpt lat="42.1805317" lon="14.61136"><ele>51.0</ele><time>2026-04-14T07:37:53.866Z</time></trkpt><trkpt lat="42.180605" lon="14.6113083"><ele>51.0</ele><time>2026-04-14T07:37:55.867Z</time></trkpt><trkpt lat="42.1806767" lon="14.6112617"><ele>51.0</ele><time>2026-04-14T07:37:57.866Z</time></trkpt><trkpt lat="42.18075" lon="14.6112117"><ele>50.4</ele><time>2026-04-14T07:37:59.867Z</time></trkpt><trkpt lat="42.18083" lon="14.61116"><ele>49.8</ele><time>2026-04-14T07:38:01.866Z</time></trkpt><trkpt lat="42.1809067" lon="14.6111117"><ele>49.199999999999996</ele><time>2026-04-14T07:38:03.867Z</time></trkpt><trkpt lat="42.1809983" lon="14.6110583"><ele>48.599999999999994</ele><time>2026-04-14T07:38:05.867Z</time></trkpt><trkpt lat="42.1810917" lon="14.6109817"><ele>48.0</ele><time>2026-04-14T07:38:07.867Z</time></trkpt><trkpt lat="42.1811783" lon="14.6109317"><ele>48.599999999999994</ele><time>2026-04-14T07:38:09.866Z</time></trkpt><trkpt lat="42.1812683" lon="14.6109083"><ele>49.199999999999996</ele><time>2026-04-14T07:38:11.866Z</time></trkpt><trkpt lat="42.18136" lon="14.610875"><ele>49.8</ele><time>2026-04-14T07:38:13.867Z</time></trkpt><trkpt lat="42.1814517" lon="14.610855"><ele>50.4</ele><time>2026-04-14T07:38:15.867Z</time></trkpt><trkpt lat="42.181535" lon="14.6108267"><ele>51.0</ele><time>2026-04-14T07:38:17.867Z</time></trkpt><trkpt lat="42.1816217" lon="14.6107817"><ele>51.0</ele><time>2026-04-14T07:38:19.867Z</time></trkpt><trkpt lat="42.1817233" lon="14.61075"><ele>51.0</ele><time>2026-04-14T07:38:21.866Z</time></trkpt><trkpt lat="42.181835" lon="14.6107167"><ele>51.0</ele><time>2026-04-14T07:38:23.866Z</time></trkpt><trkpt lat="42.1819567" lon="14.6106917"><ele>51.0</ele><time>2026-04-14T07:38:25.866Z</time></trkpt><trkpt lat="42.1820733" lon="14.6106917"><ele>51.0</ele><time>2026-04-14T07:38:27.867Z</time></trkpt><trkpt lat="42.1821967" lon="14.6106883"><ele>51.0</ele><time>2026-04-14T07:38:29.867Z</time></trkpt><trkpt lat="42.1822633" lon="14.610685"><ele>51.0</ele><time>2026-04-14T07:38:30.866Z</time></trkpt><trkpt lat="42.1823267" lon="14.6106833"><ele>51.0</ele><time>2026-04-14T07:38:31.867Z</time></trkpt><trkpt lat="42.182395" lon="14.6106783"><ele>51.0</ele><time>2026-04-14T07:38:32.867Z</time></trkpt><trkpt lat="42.18246" lon="14.6106833"><ele>51.0</ele><time>2026-04-14T07:38:33.867Z</time></trkpt><trkpt lat="42.182525" lon="14.610695"><ele>50.714285714285715</ele><time>2026-04-14T07:38:34.867Z</time></trkpt><trkpt lat="42.1825933" lon="14.6107017"><ele>50.42857142857143</ele><time>2026-04-14T07:38:35.867Z</time></trkpt><trkpt lat="42.182665" lon="14.6107133"><ele>50.14285714285714</ele><time>2026-04-14T07:38:36.867Z</time></trkpt><trkpt lat="42.1827333" lon="14.6107233"><ele>49.85714285714286</ele><time>2026-04-14T07:38:37.866Z</time></trkpt><trkpt lat="42.182805" lon="14.6107267"><ele>49.57142857142857</ele><time>2026-04-14T07:38:38.867Z</time></trkpt><trkpt lat="42.1828783" lon="14.610725"><ele>49.285714285714285</ele><time>2026-04-14T07:38:39.867Z</time></trkpt><trkpt lat="42.1829517" lon="14.6107333"><ele>49.0</ele><time>2026-04-14T07:38:40.867Z</time></trkpt><trkpt lat="42.183025" lon="14.61074"><ele>49.0</ele><time>2026-04-14T07:38:41.867Z</time></trkpt><trkpt lat="42.1830967" lon="14.61074"><ele>49.0</ele><time>2026-04-14T07:38:42.867Z</time></trkpt><trkpt lat="42.18316" lon="14.610755"><ele>49.0</ele><time>2026-04-14T07:38:43.867Z</time></trkpt><trkpt lat="42.183225" lon="14.610785"><ele>49.0</ele><time>2026-04-14T07:38:44.867Z</time></trkpt><trkpt lat="42.18329" lon="14.6108117"><ele>49.0</ele><time>2026-04-14T07:38:45.866Z</time></trkpt><trkpt lat="42.1833567" lon="14.6108233"><ele>49.0</ele><time>2026-04-14T07:38:46.867Z</time></trkpt><trkpt lat="42.183425" lon="14.61083"><ele>49.0</ele><time>2026-04-14T07:38:47.867Z</time></trkpt><trkpt lat="42.183545" lon="14.6108283"><ele>48.33333333333333</ele><time>2026-04-14T07:38:49.866Z</time></trkpt><trkpt lat="42.183635" lon="14.6108183"><ele>47.666666666666664</ele><time>2026-04-14T07:38:51.867Z</time></trkpt><trkpt lat="42.1837117" lon="14.6108217"><ele>47.0</ele><time>2026-04-14T07:38:53.867Z</time></trkpt><trkpt lat="42.1838167" lon="14.6107983"><ele>46.33333333333333</ele><time>2026-04-14T07:38:55.867Z</time></trkpt><trkpt lat="42.1838867" lon="14.6107817"><ele>45.666666666666664</ele><time>2026-04-14T07:38:56.867Z</time></trkpt><trkpt lat="42.1839733" lon="14.6107567"><ele>45.0</ele><time>2026-04-14T07:38:57.866Z</time></trkpt><trkpt lat="42.1840483" lon="14.61072"><ele>44.666666666666664</ele><time>2026-04-14T07:38:58.866Z</time></trkpt><trkpt lat="42.1841233" lon="14.61069"><ele>44.333333333333336</ele><time>2026-04-14T07:38:59.867Z</time></trkpt><trkpt lat="42.1842267" lon="14.6106483"><ele>44.0</ele><time>2026-04-14T07:39:01.867Z</time></trkpt><trkpt lat="42.18431" lon="14.610645"><ele>43.66666666666667</ele><time>2026-04-14T07:39:03.867Z</time></trkpt><trkpt lat="42.1843867" lon="14.6106417"><ele>43.333333333333336</ele><time>2026-04-14T07:39:06.867Z</time></trkpt><trkpt lat="42.18444" lon="14.610705"><ele>43.0</ele><time>2026-04-14T07:39:09.866Z</time></trkpt><trkpt lat="42.184495" lon="14.61077"><ele>43.0</ele><time>2026-04-14T07:39:13.867Z</time></trkpt><trkpt lat="42.1845383" lon="14.61084"><ele>43.0</ele><time>2026-04-14T07:39:20.867Z</time></trkpt><trkpt lat="42.184665" lon="14.6110033"><ele>43.0</ele><time>2026-04-14T07:40:01.866Z</time></trkpt><trkpt lat="42.1846883" lon="14.6110833"><ele>43.0</ele><time>2026-04-14T07:40:06.866Z</time></trkpt><trkpt lat="42.184675" lon="14.61118"><ele>43.0</ele><time>2026-04-14T07:40:12.866Z</time></trkpt><trkpt lat="42.1846383" lon="14.6112633"><ele>43.599999999999994</ele><time>2026-04-14T07:40:15.867Z</time></trkpt><trkpt lat="42.1845933" lon="14.611365"><ele>44.199999999999996</ele><time>2026-04-14T07:40:18.867Z</time></trkpt><trkpt lat="42.18456" lon="14.6114483"><ele>44.8</ele><time>2026-04-14T07:40:21.867Z</time></trkpt><trkpt lat="42.18453" lon="14.61154"><ele>45.4</ele><time>2026-04-14T07:40:25.867Z</time></trkpt><trkpt lat="42.1845183" lon="14.61169"><ele>46.0</ele><time>2026-04-14T07:40:36.867Z</time></trkpt><trkpt lat="42.1845333" lon="14.6118817"><ele>46.0</ele><time>2026-04-14T07:41:41.136Z</time></trkpt><trkpt lat="42.1844717" lon="14.611835"><ele>46.0</ele><time>2026-04-14T07:41:42.367Z</time></trkpt><trkpt lat="42.18453" lon="14.6117783"><ele>46.0</ele><time>2026-04-14T07:41:54.867Z</time></trkpt><trkpt lat="42.184595" lon="14.6117683"><ele>46.0</ele><time>2026-04-14T07:44:46.147Z</time></trkpt><trkpt lat="42.1846067" lon="14.6118567"><ele>46.0</ele><time>2026-04-14T07:44:50.867Z</time></trkpt><trkpt lat="42.184535" lon="14.611865"><ele>46.0</ele><time>2026-04-14T07:46:22.369Z</time></trkpt><trkpt lat="42.184605" lon="14.6118967"><ele>46.0</ele><time>2026-04-14T07:47:36.869Z</time></trkpt><trkpt lat="42.18466" lon="14.61197"><ele>47.0</ele><time>2026-04-14T07:47:39.868Z</time></trkpt><trkpt lat="42.1847317" lon="14.6120483"><ele>48.0</ele><time>2026-04-14T07:47:42.869Z</time></trkpt><trkpt lat="42.1848083" lon="14.6121033"><ele>49.0</ele><time>2026-04-14T07:47:44.869Z</time></trkpt><trkpt lat="42.184885" lon="14.6121683"><ele>50.0</ele><time>2026-04-14T07:47:46.869Z</time></trkpt><trkpt lat="42.184955" lon="14.612225"><ele>50.99999999999999</ele><time>2026-04-14T07:47:48.869Z</time></trkpt><trkpt lat="42.1850283" lon="14.6122733"><ele>52.0</ele><time>2026-04-14T07:47:50.869Z</time></trkpt><trkpt lat="42.1851083" lon="14.6123167"><ele>52.0</ele><time>2026-04-14T07:47:52.869Z</time></trkpt><trkpt lat="42.1851917" lon="14.6123633"><ele>52.0</ele><time>2026-04-14T07:47:54.869Z</time></trkpt><trkpt lat="42.1852783" lon="14.612415"><ele>52.0</ele><time>2026-04-14T07:47:56.868Z</time></trkpt><trkpt lat="42.185355" lon="14.6124683"><ele>52.0</ele><time>2026-04-14T07:47:58.868Z</time></trkpt><trkpt lat="42.1854367" lon="14.6125167"><ele>52.0</ele><time>2026-04-14T07:48:00.869Z</time></trkpt><trkpt lat="42.1855217" lon="14.6125717"><ele>52.0</ele><time>2026-04-14T07:48:02.869Z</time></trkpt><trkpt lat="42.1856133" lon="14.612635"><ele>52.0</ele><time>2026-04-14T07:48:04.869Z</time></trkpt><trkpt lat="42.185705" lon="14.6127017"><ele>52.0</ele><time>2026-04-14T07:48:06.869Z</time></trkpt><trkpt lat="42.185795" lon="14.612775"><ele>52.0</ele><time>2026-04-14T07:48:08.869Z</time></trkpt><trkpt lat="42.1858783" lon="14.6128433"><ele>52.0</ele><time>2026-04-14T07:48:10.868Z</time></trkpt><trkpt lat="42.1859617" lon="14.6129117"><ele>53.2</ele><time>2026-04-14T07:48:12.868Z</time></trkpt><trkpt lat="42.18605" lon="14.6129883"><ele>54.400000000000006</ele><time>2026-04-14T07:48:14.869Z</time></trkpt><trkpt lat="42.1861367" lon="14.61306"><ele>55.599999999999994</ele><time>2026-04-14T07:48:16.868Z</time></trkpt><trkpt lat="42.1862033" lon="14.613105"><ele>56.8</ele><time>2026-04-14T07:48:18.869Z</time></trkpt><trkpt lat="42.1862767" lon="14.6131633"><ele>58.0</ele><time>2026-04-14T07:48:20.868Z</time></trkpt><trkpt lat="42.1863583" lon="14.61325"><ele>58.0</ele><time>2026-04-14T07:48:22.869Z</time></trkpt><trkpt lat="42.1864167" lon="14.6133233"><ele>58.0</ele><time>2026-04-14T07:48:24.868Z</time></trkpt><trkpt lat="42.186485" lon="14.6134067"><ele>58.0</ele><time>2026-04-14T07:48:26.868Z</time></trkpt><trkpt lat="42.1865583" lon="14.61349"><ele>58.0</ele><time>2026-04-14T07:48:28.869Z</time></trkpt><trkpt lat="42.1866283" lon="14.6135633"><ele>58.0</ele><time>2026-04-14T07:48:30.869Z</time></trkpt><trkpt lat="42.1867083" lon="14.6136417"><ele>57.8</ele><time>2026-04-14T07:48:32.868Z</time></trkpt><trkpt lat="42.1867917" lon="14.6137017"><ele>57.599999999999994</ele><time>2026-04-14T07:48:34.869Z</time></trkpt><trkpt lat="42.1868667" lon="14.6137667"><ele>57.400000000000006</ele><time>2026-04-14T07:48:36.869Z</time></trkpt><trkpt lat="42.1869417" lon="14.61383"><ele>57.2</ele><time>2026-04-14T07:48:38.869Z</time></trkpt><trkpt lat="42.1870217" lon="14.6138967"><ele>57.0</ele><time>2026-04-14T07:48:40.868Z</time></trkpt><trkpt lat="42.1871033" lon="14.61395"><ele>57.0</ele><time>2026-04-14T07:48:42.869Z</time></trkpt><trkpt lat="42.1871933" lon="14.6140033"><ele>57.0</ele><time>2026-04-14T07:48:44.868Z</time></trkpt><trkpt lat="42.18729" lon="14.614095"><ele>57.0</ele><time>2026-04-14T07:48:46.868Z</time></trkpt><trkpt lat="42.1873783" lon="14.614175"><ele>57.0</ele><time>2026-04-14T07:48:48.869Z</time></trkpt><trkpt lat="42.1874633" lon="14.6142617"><ele>57.0</ele><time>2026-04-14T07:48:50.869Z</time></trkpt><trkpt lat="42.1875567" lon="14.6143417"><ele>57.2</ele><time>2026-04-14T07:48:52.869Z</time></trkpt><trkpt lat="42.18766" lon="14.6144067"><ele>57.400000000000006</ele><time>2026-04-14T07:48:54.868Z</time></trkpt><trkpt lat="42.187755" lon="14.6144667"><ele>57.599999999999994</ele><time>2026-04-14T07:48:56.869Z</time></trkpt><trkpt lat="42.18785" lon="14.6145183"><ele>57.8</ele><time>2026-04-14T07:48:58.869Z</time></trkpt><trkpt lat="42.1879317" lon="14.6145933"><ele>58.0</ele><time>2026-04-14T07:49:00.869Z</time></trkpt><trkpt lat="42.1880017" lon="14.6146833"><ele>57.99999999999999</ele><time>2026-04-14T07:49:02.869Z</time></trkpt><trkpt lat="42.188075" lon="14.614755"><ele>58.0</ele><time>2026-04-14T07:49:04.868Z</time></trkpt><trkpt lat="42.1881483" lon="14.6148083"><ele>58.0</ele><time>2026-04-14T07:49:06.868Z</time></trkpt><trkpt lat="42.1882233" lon="14.614875"><ele>58.0</ele><time>2026-04-14T07:49:08.868Z</time></trkpt><trkpt lat="42.1882983" lon="14.6149317"><ele>57.99999999999999</ele><time>2026-04-14T07:49:10.869Z</time></trkpt><trkpt lat="42.1883783" lon="14.6150017"><ele>58.0</ele><time>2026-04-14T07:49:12.869Z</time></trkpt><trkpt lat="42.1884667" lon="14.615105"><ele>57.2</ele><time>2026-04-14T07:49:14.869Z</time></trkpt><trkpt lat="42.1885133" lon="14.61517"><ele>56.4</ele><time>2026-04-14T07:49:15.868Z</time></trkpt><trkpt lat="42.1886083" lon="14.61527"><ele>55.60000000000001</ele><time>2026-04-14T07:49:17.869Z</time></trkpt><trkpt lat="42.1887067" lon="14.6153533"><ele>54.800000000000004</ele><time>2026-04-14T07:49:19.869Z</time></trkpt><trkpt lat="42.1888033" lon="14.6154183"><ele>54.0</ele><time>2026-04-14T07:49:21.869Z</time></trkpt><trkpt lat="42.1888933" lon="14.6154717"><ele>54.0</ele><time>2026-04-14T07:49:23.868Z</time></trkpt><trkpt lat="42.1889767" lon="14.6155183"><ele>54.0</ele><time>2026-04-14T07:49:25.868Z</time></trkpt><trkpt lat="42.1890583" lon="14.6155617"><ele>54.0</ele><time>2026-04-14T07:49:27.869Z</time></trkpt><trkpt lat="42.1891383" lon="14.6156167"><ele>54.0</ele><time>2026-04-14T07:49:29.869Z</time></trkpt><trkpt lat="42.1892033" lon="14.6156567"><ele>54.0</ele><time>2026-04-14T07:49:31.868Z</time></trkpt><trkpt lat="42.1892683" lon="14.6157"><ele>54.0</ele><time>2026-04-14T07:49:33.869Z</time></trkpt><trkpt lat="42.18934" lon="14.6157367"><ele>50.2</ele><time>2026-04-14T07:49:35.868Z</time></trkpt><trkpt lat="42.18942" lon="14.6157717"><ele>46.400000000000006</ele><time>2026-04-14T07:49:37.868Z</time></trkpt><trkpt lat="42.1895083" lon="14.6158"><ele>42.6</ele><time>2026-04-14T07:49:39.868Z</time></trkpt><trkpt lat="42.18961" lon="14.6158217"><ele>38.8</ele><time>2026-04-14T07:49:41.868Z</time></trkpt><trkpt lat="42.18972" lon="14.615845"><ele>35.0</ele><time>2026-04-14T07:49:43.868Z</time></trkpt><trkpt lat="42.1898433" lon="14.615845"><ele>34.0</ele><time>2026-04-14T07:49:45.868Z</time></trkpt><trkpt lat="42.1899667" lon="14.61582"><ele>33.0</ele><time>2026-04-14T07:49:47.868Z</time></trkpt><trkpt lat="42.19003" lon="14.6157983"><ele>32.0</ele><time>2026-04-14T07:49:48.869Z</time></trkpt><trkpt lat="42.1900933" lon="14.6157767"><ele>31.0</ele><time>2026-04-14T07:49:49.868Z</time></trkpt><trkpt lat="42.1902133" lon="14.6157483"><ele>30.0</ele><time>2026-04-14T07:49:51.869Z</time></trkpt><trkpt lat="42.1903283" lon="14.6157433"><ele>30.0</ele><time>2026-04-14T07:49:53.869Z</time></trkpt><trkpt lat="42.1904483" lon="14.6157417"><ele>30.0</ele><time>2026-04-14T07:49:55.869Z</time></trkpt><trkpt lat="42.1905567" lon="14.6157233"><ele>30.0</ele><time>2026-04-14T07:49:57.869Z</time></trkpt><trkpt lat="42.190655" lon="14.6157783"><ele>30.0</ele><time>2026-04-14T07:49:59.869Z</time></trkpt><trkpt lat="42.19075" lon="14.6158217"><ele>30.0</ele><time>2026-04-14T07:50:01.868Z</time></trkpt><trkpt lat="42.19085" lon="14.6158383"><ele>28.6</ele><time>2026-04-14T07:50:03.868Z</time></trkpt><trkpt lat="42.1909517" lon="14.6158467"><ele>27.2</ele><time>2026-04-14T07:50:05.869Z</time></trkpt><trkpt lat="42.191055" lon="14.6158417"><ele>25.799999999999997</ele><time>2026-04-14T07:50:07.869Z</time></trkpt><trkpt lat="42.19117" lon="14.61588"><ele>24.4</ele><time>2026-04-14T07:50:09.868Z</time></trkpt><trkpt lat="42.19127" lon="14.6159633"><ele>23.0</ele><time>2026-04-14T07:50:11.869Z</time></trkpt><trkpt lat="42.1913133" lon="14.6160267"><ele>22.5</ele><time>2026-04-14T07:50:12.868Z</time></trkpt><trkpt lat="42.19137" lon="14.6161767"><ele>22.0</ele><time>2026-04-14T07:50:14.868Z</time></trkpt><trkpt lat="42.1914033" lon="14.6162533"><ele>21.5</ele><time>2026-04-14T07:50:15.868Z</time></trkpt><trkpt lat="42.1914333" lon="14.6163333"><ele>21.0</ele><time>2026-04-14T07:50:16.868Z</time></trkpt><trkpt lat="42.1914667" lon="14.6164083"><ele>20.5</ele><time>2026-04-14T07:50:17.868Z</time></trkpt><trkpt lat="42.1915017" lon="14.6164817"><ele>20.0</ele><time>2026-04-14T07:50:18.868Z</time></trkpt><trkpt lat="42.1915717" lon="14.6166083"><ele>20.0</ele><time>2026-04-14T07:50:20.868Z</time></trkpt><trkpt lat="42.1916417" lon="14.6167217"><ele>20.0</ele><time>2026-04-14T07:50:22.869Z</time></trkpt><trkpt lat="42.19172" lon="14.6168317"><ele>20.0</ele><time>2026-04-14T07:50:24.868Z</time></trkpt><trkpt lat="42.1918" lon="14.6169417"><ele>20.0</ele><time>2026-04-14T07:50:26.869Z</time></trkpt><trkpt lat="42.1918817" lon="14.6170467"><ele>20.0</ele><time>2026-04-14T07:50:28.868Z</time></trkpt><trkpt lat="42.1919533" lon="14.6171383"><ele>23.6</ele><time>2026-04-14T07:50:30.869Z</time></trkpt><trkpt lat="42.1920283" lon="14.617245"><ele>27.2</ele><time>2026-04-14T07:50:32.869Z</time></trkpt><trkpt lat="42.192095" lon="14.6173367"><ele>30.799999999999997</ele><time>2026-04-14T07:50:34.868Z</time></trkpt><trkpt lat="42.192165" lon="14.6174267"><ele>34.4</ele><time>2026-04-14T07:50:36.869Z</time></trkpt><trkpt lat="42.192245" lon="14.6174917"><ele>38.0</ele><time>2026-04-14T07:50:38.869Z</time></trkpt><trkpt lat="42.1923317" lon="14.6175433"><ele>34.8</ele><time>2026-04-14T07:50:40.869Z</time></trkpt><trkpt lat="42.19243" lon="14.6175733"><ele>31.599999999999998</ele><time>2026-04-14T07:50:42.869Z</time></trkpt><trkpt lat="42.1925283" lon="14.6175717"><ele>28.4</ele><time>2026-04-14T07:50:44.868Z</time></trkpt><trkpt lat="42.1926333" lon="14.6175383"><ele>25.200000000000003</ele><time>2026-04-14T07:50:46.869Z</time></trkpt><trkpt lat="42.1927383" lon="14.61749"><ele>22.0</ele><time>2026-04-14T07:50:48.869Z</time></trkpt><trkpt lat="42.192835" lon="14.6174333"><ele>22.0</ele><time>2026-04-14T07:50:50.869Z</time></trkpt><trkpt lat="42.1929267" lon="14.617375"><ele>22.0</ele><time>2026-04-14T07:50:52.868Z</time></trkpt><trkpt lat="42.1930233" lon="14.61732"><ele>22.0</ele><time>2026-04-14T07:50:54.868Z</time></trkpt><trkpt lat="42.1931283" lon="14.6172867"><ele>22.0</ele><time>2026-04-14T07:50:56.868Z</time></trkpt><trkpt lat="42.19324" lon="14.6172367"><ele>22.0</ele><time>2026-04-14T07:50:58.869Z</time></trkpt><trkpt lat="42.19335" lon="14.6172017"><ele>21.200000000000003</ele><time>2026-04-14T07:51:00.869Z</time></trkpt><trkpt lat="42.1934583" lon="14.617205"><ele>20.400000000000002</ele><time>2026-04-14T07:51:02.869Z</time></trkpt><trkpt lat="42.19355" lon="14.6172617"><ele>19.6</ele><time>2026-04-14T07:51:04.868Z</time></trkpt><trkpt lat="42.1936067" lon="14.6173733"><ele>18.8</ele><time>2026-04-14T07:51:06.869Z</time></trkpt><trkpt lat="42.1936283" lon="14.6174983"><ele>18.0</ele><time>2026-04-14T07:51:08.868Z</time></trkpt><trkpt lat="42.1936433" lon="14.6176367"><ele>18.0</ele><time>2026-04-14T07:51:10.868Z</time></trkpt><trkpt lat="42.19366" lon="14.6177767"><ele>18.0</ele><time>2026-04-14T07:51:12.869Z</time></trkpt><trkpt lat="42.1936767" lon="14.617915"><ele>18.0</ele><time>2026-04-14T07:51:14.868Z</time></trkpt><trkpt lat="42.1936817" lon="14.6180517"><ele>18.0</ele><time>2026-04-14T07:51:16.868Z</time></trkpt><trkpt lat="42.19369" lon="14.6181867"><ele>18.0</ele><time>2026-04-14T07:51:18.869Z</time></trkpt><trkpt lat="42.1937033" lon="14.61833"><ele>19.8</ele><time>2026-04-14T07:51:20.87Z</time></trkpt><trkpt lat="42.1937183" lon="14.6184767"><ele>21.6</ele><time>2026-04-14T07:51:22.869Z</time></trkpt><trkpt lat="42.19374" lon="14.61862"><ele>23.400000000000002</ele><time>2026-04-14T07:51:24.869Z</time></trkpt><trkpt lat="42.193765" lon="14.6187667"><ele>25.200000000000003</ele><time>2026-04-14T07:51:26.87Z</time></trkpt><trkpt lat="42.1938017" lon="14.6189133"><ele>27.0</ele><time>2026-04-14T07:51:28.87Z</time></trkpt><trkpt lat="42.193835" lon="14.6190517"><ele>28.400000000000002</ele><time>2026-04-14T07:51:30.869Z</time></trkpt><trkpt lat="42.1938717" lon="14.6191933"><ele>29.800000000000004</ele><time>2026-04-14T07:51:32.869Z</time></trkpt><trkpt lat="42.1939117" lon="14.6193283"><ele>31.2</ele><time>2026-04-14T07:51:34.869Z</time></trkpt><trkpt lat="42.1939517" lon="14.61947"><ele>32.6</ele><time>2026-04-14T07:51:36.869Z</time></trkpt><trkpt lat="42.1939883" lon="14.619595"><ele>34.0</ele><time>2026-04-14T07:51:38.87Z</time></trkpt><trkpt lat="42.19403" lon="14.6197233"><ele>29.8</ele><time>2026-04-14T07:51:40.87Z</time></trkpt><trkpt lat="42.1940633" lon="14.61985"><ele>25.599999999999998</ele><time>2026-04-14T07:51:42.87Z</time></trkpt><trkpt lat="42.1940967" lon="14.61998"><ele>21.4</ele><time>2026-04-14T07:51:44.87Z</time></trkpt><trkpt lat="42.19413" lon="14.6201133"><ele>17.2</ele><time>2026-04-14T07:51:46.87Z</time></trkpt><trkpt lat="42.194165" lon="14.6202517"><ele>13.0</ele><time>2026-04-14T07:51:48.87Z</time></trkpt><trkpt lat="42.1942033" lon="14.62039"><ele>13.0</ele><time>2026-04-14T07:51:50.869Z</time></trkpt><trkpt lat="42.1942417" lon="14.6205283"><ele>13.0</ele><time>2026-04-14T07:51:52.869Z</time></trkpt><trkpt lat="42.1942817" lon="14.6206733"><ele>13.0</ele><time>2026-04-14T07:51:54.87Z</time></trkpt><trkpt lat="42.1943233" lon="14.6208133"><ele>13.0</ele><time>2026-04-14T07:51:56.869Z</time></trkpt><trkpt lat="42.194365" lon="14.6209583"><ele>13.0</ele><time>2026-04-14T07:51:58.87Z</time></trkpt><trkpt lat="42.1944067" lon="14.6211033"><ele>13.0</ele><time>2026-04-14T07:52:00.87Z</time></trkpt><trkpt lat="42.1944467" lon="14.6212433"><ele>13.0</ele><time>2026-04-14T07:52:02.87Z</time></trkpt><trkpt lat="42.194495" lon="14.6213767"><ele>13.0</ele><time>2026-04-14T07:52:04.87Z</time></trkpt><trkpt lat="42.19456" lon="14.621505"><ele>13.2</ele><time>2026-04-14T07:52:06.87Z</time></trkpt><trkpt lat="42.19463" lon="14.6216233"><ele>13.4</ele><time>2026-04-14T07:52:08.87Z</time></trkpt><trkpt lat="42.1947" lon="14.6217333"><ele>13.599999999999998</ele><time>2026-04-14T07:52:10.869Z</time></trkpt><trkpt lat="42.1947733" lon="14.6218367"><ele>13.799999999999999</ele><time>2026-04-14T07:52:12.87Z</time></trkpt><trkpt lat="42.1948417" lon="14.621965"><ele>14.0</ele><time>2026-04-14T07:52:14.87Z</time></trkpt><trkpt lat="42.1949117" lon="14.6220817"><ele>13.2</ele><time>2026-04-14T07:52:16.87Z</time></trkpt><trkpt lat="42.1949817" lon="14.6221967"><ele>12.399999999999999</ele><time>2026-04-14T07:52:18.869Z</time></trkpt><trkpt lat="42.1950467" lon="14.6223017"><ele>11.6</ele><time>2026-04-14T07:52:20.87Z</time></trkpt><trkpt lat="42.19513" lon="14.6223683"><ele>10.8</ele><time>2026-04-14T07:52:22.87Z</time></trkpt><trkpt lat="42.1951883" lon="14.6224817"><ele>10.0</ele><time>2026-04-14T07:52:24.869Z</time></trkpt><trkpt lat="42.195215" lon="14.6225667"><ele>10.0</ele><time>2026-04-14T07:52:25.869Z</time></trkpt><trkpt lat="42.1952467" lon="14.6226517"><ele>10.0</ele><time>2026-04-14T07:52:26.869Z</time></trkpt><trkpt lat="42.1953067" lon="14.622795"><ele>10.0</ele><time>2026-04-14T07:52:28.87Z</time></trkpt><trkpt lat="42.1953517" lon="14.6229283"><ele>10.0</ele><time>2026-04-14T07:52:30.87Z</time></trkpt><trkpt lat="42.195375" lon="14.623055"><ele>10.0</ele><time>2026-04-14T07:52:32.87Z</time></trkpt><trkpt lat="42.195395" lon="14.62319"><ele>10.4</ele><time>2026-04-14T07:52:34.87Z</time></trkpt><trkpt lat="42.1954283" lon="14.6233417"><ele>10.8</ele><time>2026-04-14T07:52:36.87Z</time></trkpt><trkpt lat="42.195455" lon="14.623485"><ele>11.2</ele><time>2026-04-14T07:52:38.869Z</time></trkpt><trkpt lat="42.1954833" lon="14.62364"><ele>11.6</ele><time>2026-04-14T07:52:40.87Z</time></trkpt><trkpt lat="42.195505" lon="14.6237733"><ele>12.0</ele><time>2026-04-14T07:52:42.869Z</time></trkpt><trkpt lat="42.1955283" lon="14.62391"><ele>12.0</ele><time>2026-04-14T07:52:44.869Z</time></trkpt><trkpt lat="42.1955583" lon="14.6240667"><ele>12.0</ele><time>2026-04-14T07:52:46.869Z</time></trkpt><trkpt lat="42.1955917" lon="14.6242033"><ele>12.0</ele><time>2026-04-14T07:52:48.87Z</time></trkpt><trkpt lat="42.1956183" lon="14.6242883"><ele>12.0</ele><time>2026-04-14T07:52:49.87Z</time></trkpt><trkpt lat="42.1956517" lon="14.6244467"><ele>12.0</ele><time>2026-04-14T07:52:51.87Z</time></trkpt><trkpt lat="42.1956817" lon="14.624595"><ele>11.4</ele><time>2026-04-14T07:52:53.869Z</time></trkpt><trkpt lat="42.1956967" lon="14.6247467"><ele>10.799999999999999</ele><time>2026-04-14T07:52:55.87Z</time></trkpt><trkpt lat="42.1957017" lon="14.6248933"><ele>10.2</ele><time>2026-04-14T07:52:57.87Z</time></trkpt><trkpt lat="42.195705" lon="14.62504"><ele>9.6</ele><time>2026-04-14T07:52:59.87Z</time></trkpt><trkpt lat="42.1957067" lon="14.62519"><ele>9.0</ele><time>2026-04-14T07:53:01.869Z</time></trkpt><trkpt lat="42.1957083" lon="14.6253433"><ele>8.8</ele><time>2026-04-14T07:53:03.869Z</time></trkpt><trkpt lat="42.1957083" lon="14.625495"><ele>8.600000000000001</ele><time>2026-04-14T07:53:05.869Z</time></trkpt><trkpt lat="42.1957117" lon="14.6256367"><ele>8.4</ele><time>2026-04-14T07:53:07.87Z</time></trkpt><trkpt lat="42.1957083" lon="14.6257817"><ele>8.200000000000001</ele><time>2026-04-14T07:53:09.869Z</time></trkpt><trkpt lat="42.1956933" lon="14.6259233"><ele>8.0</ele><time>2026-04-14T07:53:11.869Z</time></trkpt><trkpt lat="42.1956483" lon="14.6260483"><ele>8.200000000000001</ele><time>2026-04-14T07:53:13.87Z</time></trkpt><trkpt lat="42.19558" lon="14.6261483"><ele>8.4</ele><time>2026-04-14T07:53:15.87Z</time></trkpt><trkpt lat="42.1955083" lon="14.6262433"><ele>8.600000000000001</ele><time>2026-04-14T07:53:17.869Z</time></trkpt><trkpt lat="42.1954383" lon="14.6263317"><ele>8.8</ele><time>2026-04-14T07:53:19.869Z</time></trkpt><trkpt lat="42.1953817" lon="14.6264267"><ele>9.0</ele><time>2026-04-14T07:53:21.87Z</time></trkpt><trkpt lat="42.1953283" lon="14.6265167"><ele>9.0</ele><time>2026-04-14T07:53:23.87Z</time></trkpt><trkpt lat="42.1952783" lon="14.62662"><ele>9.0</ele><time>2026-04-14T07:53:25.87Z</time></trkpt><trkpt lat="42.1952517" lon="14.6267333"><ele>9.0</ele><time>2026-04-14T07:53:27.869Z</time></trkpt><trkpt lat="42.195235" lon="14.6268467"><ele>9.0</ele><time>2026-04-14T07:53:29.87Z</time></trkpt><trkpt lat="42.195225" lon="14.6269567"><ele>9.0</ele><time>2026-04-14T07:53:31.869Z</time></trkpt><trkpt lat="42.195235" lon="14.6270783"><ele>9.0</ele><time>2026-04-14T07:53:33.869Z</time></trkpt><trkpt lat="42.1952417" lon="14.6272083"><ele>9.0</ele><time>2026-04-14T07:53:35.869Z</time></trkpt><trkpt lat="42.1952333" lon="14.6272983"><ele>9.0</ele><time>2026-04-14T07:53:37.87Z</time></trkpt><trkpt lat="42.1952533" lon="14.6274033"><ele>9.0</ele><time>2026-04-14T07:53:39.869Z</time></trkpt><trkpt lat="42.1953083" lon="14.627535"><ele>9.0</ele><time>2026-04-14T07:53:41.87Z</time></trkpt><trkpt lat="42.1953783" lon="14.6276683"><ele>9.0</ele><time>2026-04-14T07:53:43.87Z</time></trkpt><trkpt lat="42.1954417" lon="14.62779"><ele>8.8</ele><time>2026-04-14T07:53:45.87Z</time></trkpt><trkpt lat="42.19552" lon="14.6279217"><ele>8.600000000000001</ele><time>2026-04-14T07:53:47.869Z</time></trkpt><trkpt lat="42.1955317" lon="14.6280067"><ele>8.4</ele><time>2026-04-14T07:53:48.869Z</time></trkpt><trkpt lat="42.1955617" lon="14.6280817"><ele>8.200000000000001</ele><time>2026-04-14T07:53:49.869Z</time></trkpt><trkpt lat="42.1956267" lon="14.62821"><ele>8.0</ele><time>2026-04-14T07:53:51.87Z</time></trkpt><trkpt lat="42.19568" lon="14.6283233"><ele>7.333333333333333</ele><time>2026-04-14T07:53:53.869Z</time></trkpt><trkpt lat="42.195725" lon="14.6284217"><ele>6.666666666666666</ele><time>2026-04-14T07:53:55.87Z</time></trkpt><trkpt lat="42.1957633" lon="14.6285117"><ele>6.0</ele><time>2026-04-14T07:53:57.87Z</time></trkpt><trkpt lat="42.1957967" lon="14.628595"><ele>5.333333333333333</ele><time>2026-04-14T07:53:59.87Z</time></trkpt><trkpt lat="42.1958183" lon="14.6286867"><ele>4.666666666666666</ele><time>2026-04-14T07:54:01.87Z</time></trkpt><trkpt lat="42.19584" lon="14.628795"><ele>4.0</ele><time>2026-04-14T07:54:03.87Z</time></trkpt><trkpt lat="42.1958683" lon="14.6289083"><ele>3.9999999999999996</ele><time>2026-04-14T07:54:05.869Z</time></trkpt><trkpt lat="42.1959367" lon="14.6289817"><ele>4.0</ele><time>2026-04-14T07:54:07.87Z</time></trkpt><trkpt lat="42.1960133" lon="14.6290567"><ele>4.0</ele><time>2026-04-14T07:54:09.869Z</time></trkpt><trkpt lat="42.19605" lon="14.6291567"><ele>4.0</ele><time>2026-04-14T07:54:11.87Z</time></trkpt><trkpt lat="42.196025" lon="14.6292583"><ele>3.9999999999999996</ele><time>2026-04-14T07:54:13.87Z</time></trkpt><trkpt lat="42.1959767" lon="14.6293617"><ele>4.0</ele><time>2026-04-14T07:54:15.869Z</time></trkpt><trkpt lat="42.1959283" lon="14.629465"><ele>3.8000000000000003</ele><time>2026-04-14T07:54:17.869Z</time></trkpt><trkpt lat="42.1958933" lon="14.6295817"><ele>3.6000000000000005</ele><time>2026-04-14T07:54:19.87Z</time></trkpt><trkpt lat="42.19586" lon="14.6297017"><ele>3.4</ele><time>2026-04-14T07:54:21.87Z</time></trkpt><trkpt lat="42.1958233" lon="14.62983"><ele>3.2</ele><time>2026-04-14T07:54:23.87Z</time></trkpt><trkpt lat="42.1957833" lon="14.6299383"><ele>3.0</ele><time>2026-04-14T07:54:25.87Z</time></trkpt><trkpt lat="42.1957483" lon="14.6300483"><ele>3.0</ele><time>2026-04-14T07:54:27.87Z</time></trkpt><trkpt lat="42.1957117" lon="14.6301717"><ele>3.0</ele><time>2026-04-14T07:54:29.869Z</time></trkpt><trkpt lat="42.195675" lon="14.6302967"><ele>3.0</ele><time>2026-04-14T07:54:31.869Z</time></trkpt><trkpt lat="42.195645" lon="14.6304217"><ele>3.0</ele><time>2026-04-14T07:54:33.869Z</time></trkpt><trkpt lat="42.1956117" lon="14.6305567"><ele>3.0</ele><time>2026-04-14T07:54:35.87Z</time></trkpt><trkpt lat="42.1955783" lon="14.63069"><ele>3.2</ele><time>2026-04-14T07:54:37.87Z</time></trkpt><trkpt lat="42.1955483" lon="14.6308183"><ele>3.4</ele><time>2026-04-14T07:54:39.87Z</time></trkpt><trkpt lat="42.1955133" lon="14.6309533"><ele>3.6000000000000005</ele><time>2026-04-14T07:54:41.87Z</time></trkpt><trkpt lat="42.19548" lon="14.6310783"><ele>3.8000000000000003</ele><time>2026-04-14T07:54:43.87Z</time></trkpt><trkpt lat="42.19544" lon="14.6312017"><ele>4.0</ele><time>2026-04-14T07:54:45.87Z</time></trkpt><trkpt lat="42.195405" lon="14.6313283"><ele>4.0</ele><time>2026-04-14T07:54:47.87Z</time></trkpt><trkpt lat="42.1953683" lon="14.6314533"><ele>4.0</ele><time>2026-04-14T07:54:49.87Z</time></trkpt><trkpt lat="42.1953333" lon="14.6315733"><ele>4.0</ele><time>2026-04-14T07:54:51.87Z</time></trkpt><trkpt lat="42.1952917" lon="14.6317"><ele>4.0</ele><time>2026-04-14T07:54:53.869Z</time></trkpt><trkpt lat="42.1952533" lon="14.6318383"><ele>4.0</ele><time>2026-04-14T07:54:55.869Z</time></trkpt><trkpt lat="42.1952217" lon="14.63197"><ele>4.2</ele><time>2026-04-14T07:54:57.869Z</time></trkpt><trkpt lat="42.1951883" lon="14.6320917"><ele>4.4</ele><time>2026-04-14T07:54:59.87Z</time></trkpt><trkpt lat="42.1951483" lon="14.63222"><ele>4.6</ele><time>2026-04-14T07:55:01.87Z</time></trkpt><trkpt lat="42.1951133" lon="14.632345"><ele>4.8</ele><time>2026-04-14T07:55:03.869Z</time></trkpt><trkpt lat="42.1950683" lon="14.632465"><ele>5.0</ele><time>2026-04-14T07:55:05.869Z</time></trkpt><trkpt lat="42.1950317" lon="14.6325933"><ele>5.0</ele><time>2026-04-14T07:55:07.87Z</time></trkpt><trkpt lat="42.194995" lon="14.632715"><ele>5.0</ele><time>2026-04-14T07:55:09.87Z</time></trkpt><trkpt lat="42.194965" lon="14.6328417"><ele>5.0</ele><time>2026-04-14T07:55:11.869Z</time></trkpt><trkpt lat="42.1949267" lon="14.632965"><ele>5.0</ele><time>2026-04-14T07:55:13.87Z</time></trkpt><trkpt lat="42.1948933" lon="14.6331"><ele>5.0</ele><time>2026-04-14T07:55:15.869Z</time></trkpt><trkpt lat="42.19486" lon="14.633225"><ele>5.2</ele><time>2026-04-14T07:55:17.869Z</time></trkpt><trkpt lat="42.194825" lon="14.6333467"><ele>5.4</ele><time>2026-04-14T07:55:19.87Z</time></trkpt><trkpt lat="42.1947933" lon="14.6334717"><ele>5.6</ele><time>2026-04-14T07:55:21.87Z</time></trkpt><trkpt lat="42.1947567" lon="14.6335883"><ele>5.8</ele><time>2026-04-14T07:55:23.869Z</time></trkpt><trkpt lat="42.1947233" lon="14.63371"><ele>6.0</ele><time>2026-04-14T07:55:25.87Z</time></trkpt><trkpt lat="42.19469" lon="14.633835"><ele>5.6</ele><time>2026-04-14T07:55:27.869Z</time></trkpt><trkpt lat="42.1946567" lon="14.6339567"><ele>5.199999999999999</ele><time>2026-04-14T07:55:29.869Z</time></trkpt><trkpt lat="42.1946233" lon="14.63407"><ele>4.800000000000001</ele><time>2026-04-14T07:55:31.87Z</time></trkpt><trkpt lat="42.19458" lon="14.6341617"><ele>4.4</ele><time>2026-04-14T07:55:33.87Z</time></trkpt><trkpt lat="42.19454" lon="14.6342683"><ele>4.0</ele><time>2026-04-14T07:55:35.87Z</time></trkpt><trkpt lat="42.1944983" lon="14.6343833"><ele>3.6</ele><time>2026-04-14T07:55:37.87Z</time></trkpt><trkpt lat="42.1944667" lon="14.6345067"><ele>3.2</ele><time>2026-04-14T07:55:39.87Z</time></trkpt><trkpt lat="42.1944333" lon="14.6346317"><ele>2.8000000000000003</ele><time>2026-04-14T07:55:41.87Z</time></trkpt><trkpt lat="42.1943967" lon="14.6347483"><ele>2.4000000000000004</ele><time>2026-04-14T07:55:43.869Z</time></trkpt><trkpt lat="42.194365" lon="14.6348617"><ele>2.0</ele><time>2026-04-14T07:55:45.869Z</time></trkpt><trkpt lat="42.1943317" lon="14.6349767"><ele>2.0</ele><time>2026-04-14T07:55:47.869Z</time></trkpt><trkpt lat="42.194305" lon="14.6350917"><ele>2.0</ele><time>2026-04-14T07:55:49.87Z</time></trkpt><trkpt lat="42.1942817" lon="14.6352133"><ele>2.0</ele><time>2026-04-14T07:55:51.87Z</time></trkpt><trkpt lat="42.1942383" lon="14.63533"><ele>2.0</ele><time>2026-04-14T07:55:53.87Z</time></trkpt><trkpt lat="42.19421" lon="14.6354367"><ele>2.0</ele><time>2026-04-14T07:55:55.87Z</time></trkpt><trkpt lat="42.1941617" lon="14.63557"><ele>2.0</ele><time>2026-04-14T07:55:57.869Z</time></trkpt><trkpt lat="42.19412" lon="14.6357"><ele>2.0</ele><time>2026-04-14T07:55:59.87Z</time></trkpt><trkpt lat="42.1940867" lon="14.6358267"><ele>2.0</ele><time>2026-04-14T07:56:01.869Z</time></trkpt><trkpt lat="42.1940617" lon="14.635945"><ele>2.0</ele><time>2026-04-14T07:56:03.869Z</time></trkpt><trkpt lat="42.194025" lon="14.636065"><ele>2.0</ele><time>2026-04-14T07:56:05.87Z</time></trkpt><trkpt lat="42.1939933" lon="14.6361867"><ele>2.0</ele><time>2026-04-14T07:56:07.869Z</time></trkpt><trkpt lat="42.193955" lon="14.6363133"><ele>2.0</ele><time>2026-04-14T07:56:09.87Z</time></trkpt><trkpt lat="42.1939167" lon="14.6364333"><ele>2.0</ele><time>2026-04-14T07:56:11.87Z</time></trkpt><trkpt lat="42.1938883" lon="14.6365533"><ele>2.0</ele><time>2026-04-14T07:56:13.87Z</time></trkpt><trkpt lat="42.19386" lon="14.63667"><ele>2.0</ele><time>2026-04-14T07:56:15.87Z</time></trkpt><trkpt lat="42.1938283" lon="14.63679"><ele>2.0</ele><time>2026-04-14T07:56:17.87Z</time></trkpt><trkpt lat="42.1937967" lon="14.6369167"><ele>2.0</ele><time>2026-04-14T07:56:19.87Z</time></trkpt><trkpt lat="42.193765" lon="14.6370383"><ele>2.0</ele><time>2026-04-14T07:56:21.87Z</time></trkpt><trkpt lat="42.19373" lon="14.6371617"><ele>2.0</ele><time>2026-04-14T07:56:23.87Z</time></trkpt><trkpt lat="42.1936833" lon="14.6372733"><ele>2.0</ele><time>2026-04-14T07:56:25.869Z</time></trkpt><trkpt lat="42.1936483" lon="14.6373983"><ele>1.8</ele><time>2026-04-14T07:56:27.869Z</time></trkpt><trkpt lat="42.19362" lon="14.63753"><ele>1.6</ele><time>2026-04-14T07:56:29.87Z</time></trkpt><trkpt lat="42.193585" lon="14.637655"><ele>1.4000000000000001</ele><time>2026-04-14T07:56:31.87Z</time></trkpt><trkpt lat="42.19355" lon="14.6377867"><ele>1.2000000000000002</ele><time>2026-04-14T07:56:33.87Z</time></trkpt><trkpt lat="42.1935117" lon="14.6379083"><ele>1.0</ele><time>2026-04-14T07:56:35.869Z</time></trkpt><trkpt lat="42.1934717" lon="14.6380167"><ele>1.0</ele><time>2026-04-14T07:56:37.87Z</time></trkpt><trkpt lat="42.1934317" lon="14.638115"><ele>1.0</ele><time>2026-04-14T07:56:39.869Z</time></trkpt><trkpt lat="42.1933917" lon="14.638235"><ele>1.0</ele><time>2026-04-14T07:56:41.87Z</time></trkpt><trkpt lat="42.1933533" lon="14.63835"><ele>1.0</ele><time>2026-04-14T07:56:43.87Z</time></trkpt><trkpt lat="42.19332" lon="14.638475"><ele>1.0</ele><time>2026-04-14T07:56:45.869Z</time></trkpt><trkpt lat="42.1932783" lon="14.6386133"><ele>1.0</ele><time>2026-04-14T07:56:47.869Z</time></trkpt><trkpt lat="42.1932417" lon="14.63875"><ele>1.0</ele><time>2026-04-14T07:56:49.87Z</time></trkpt><trkpt lat="42.19321" lon="14.6388933"><ele>1.0</ele><time>2026-04-14T07:56:51.869Z</time></trkpt><trkpt lat="42.1931783" lon="14.6390317"><ele>1.0</ele><time>2026-04-14T07:56:53.869Z</time></trkpt><trkpt lat="42.1931483" lon="14.6391617"><ele>1.0</ele><time>2026-04-14T07:56:55.87Z</time></trkpt><trkpt lat="42.1931117" lon="14.6392883"><ele>1.0</ele><time>2026-04-14T07:56:57.87Z</time></trkpt><trkpt lat="42.1930733" lon="14.6394183"><ele>1.0</ele><time>2026-04-14T07:56:59.869Z</time></trkpt><trkpt lat="42.1930383" lon="14.6395467"><ele>1.0</ele><time>2026-04-14T07:57:01.87Z</time></trkpt><trkpt lat="42.193" lon="14.6396733"><ele>1.0</ele><time>2026-04-14T07:57:03.87Z</time></trkpt><trkpt lat="42.192965" lon="14.6398033"><ele>1.0</ele><time>2026-04-14T07:57:05.87Z</time></trkpt><trkpt lat="42.1929333" lon="14.6399383"><ele>0.8</ele><time>2026-04-14T07:57:07.87Z</time></trkpt><trkpt lat="42.1929" lon="14.64007"><ele>0.6000000000000001</ele><time>2026-04-14T07:57:09.869Z</time></trkpt><trkpt lat="42.1928667" lon="14.6402033"><ele>0.4</ele><time>2026-04-14T07:57:11.87Z</time></trkpt><trkpt lat="42.19283" lon="14.6403333"><ele>0.2</ele><time>2026-04-14T07:57:13.87Z</time></trkpt><trkpt lat="42.1928" lon="14.6404583"><ele>0.0</ele><time>2026-04-14T07:57:15.869Z</time></trkpt><trkpt lat="42.192765" lon="14.6405833"><ele>0.0</ele><time>2026-04-14T07:57:17.87Z</time></trkpt><trkpt lat="42.192735" lon="14.64072"><ele>0.0</ele><time>2026-04-14T07:57:19.869Z</time></trkpt><trkpt lat="42.1927067" lon="14.640855"><ele>0.0</ele><time>2026-04-14T07:57:21.869Z</time></trkpt><trkpt lat="42.192675" lon="14.6409917"><ele>0.0</ele><time>2026-04-14T07:57:23.87Z</time></trkpt><trkpt lat="42.19265" lon="14.6411283"><ele>0.0</ele><time>2026-04-14T07:57:25.87Z</time></trkpt><trkpt lat="42.192625" lon="14.6412683"><ele>0.0</ele><time>2026-04-14T07:57:27.87Z</time></trkpt><trkpt lat="42.1925967" lon="14.6413967"><ele>0.0</ele><time>2026-04-14T07:57:29.87Z</time></trkpt><trkpt lat="42.19256" lon="14.64153"><ele>0.0</ele><time>2026-04-14T07:57:31.87Z</time></trkpt><trkpt lat="42.1925233" lon="14.64166"><ele>0.0</ele><time>2026-04-14T07:57:33.87Z</time></trkpt><trkpt lat="42.1924833" lon="14.6417917"><ele>0.0</ele><time>2026-04-14T07:57:35.869Z</time></trkpt><trkpt lat="42.19245" lon="14.64192"><ele>0.0</ele><time>2026-04-14T07:57:37.87Z</time></trkpt><trkpt lat="42.192415" lon="14.6420517"><ele>0.0</ele><time>2026-04-14T07:57:39.87Z</time></trkpt><trkpt lat="42.1923817" lon="14.64218"><ele>0.0</ele><time>2026-04-14T07:57:41.87Z</time></trkpt><trkpt lat="42.1923483" lon="14.6423067"><ele>0.0</ele><time>2026-04-14T07:57:43.869Z</time></trkpt><trkpt lat="42.1923017" lon="14.6424183"><ele>0.0</ele><time>2026-04-14T07:57:45.87Z</time></trkpt><trkpt lat="42.1922417" lon="14.6425167"><ele>0.0</ele><time>2026-04-14T07:57:47.87Z</time></trkpt><trkpt lat="42.192165" lon="14.642595"><ele>0.0</ele><time>2026-04-14T07:57:49.87Z</time></trkpt><trkpt lat="42.19209" lon="14.642695"><ele>0.0</ele><time>2026-04-14T07:57:51.87Z</time></trkpt><trkpt lat="42.1920217" lon="14.6427933"><ele>0.0</ele><time>2026-04-14T07:57:53.87Z</time></trkpt><trkpt lat="42.1919533" lon="14.642895"><ele>0.0</ele><time>2026-04-14T07:57:55.87Z</time></trkpt><trkpt lat="42.1918867" lon="14.6429883"><ele>0.0</ele><time>2026-04-14T07:57:57.87Z</time></trkpt><trkpt lat="42.191815" lon="14.64308"><ele>0.0</ele><time>2026-04-14T07:57:59.869Z</time></trkpt><trkpt lat="42.191735" lon="14.6431517"><ele>0.0</ele><time>2026-04-14T07:58:01.87Z</time></trkpt><trkpt lat="42.1916583" lon="14.6432333"><ele>0.0</ele><time>2026-04-14T07:58:03.869Z</time></trkpt><trkpt lat="42.1915833" lon="14.6433167"><ele>0.0</ele><time>2026-04-14T07:58:05.869Z</time></trkpt><trkpt lat="42.19151" lon="14.6434"><ele>0.4</ele><time>2026-04-14T07:58:07.87Z</time></trkpt><trkpt lat="42.191445" lon="14.6434883"><ele>0.8</ele><time>2026-04-14T07:58:09.869Z</time></trkpt><trkpt lat="42.191385" lon="14.6435983"><ele>1.2000000000000002</ele><time>2026-04-14T07:58:11.869Z</time></trkpt><trkpt lat="42.1913267" lon="14.6437083"><ele>1.6</ele><time>2026-04-14T07:58:13.87Z</time></trkpt><trkpt lat="42.1912717" lon="14.643825"><ele>2.0</ele><time>2026-04-14T07:58:15.87Z</time></trkpt><trkpt lat="42.191225" lon="14.6439367"><ele>2.0</ele><time>2026-04-14T07:58:17.87Z</time></trkpt><trkpt lat="42.191175" lon="14.6440467"><ele>2.0</ele><time>2026-04-14T07:58:19.869Z</time></trkpt><trkpt lat="42.19111" lon="14.6441417"><ele>2.0</ele><time>2026-04-14T07:58:21.87Z</time></trkpt><trkpt lat="42.1910367" lon="14.6442133"><ele>2.0</ele><time>2026-04-14T07:58:23.87Z</time></trkpt><trkpt lat="42.1909617" lon="14.64428"><ele>2.0</ele><time>2026-04-14T07:58:25.869Z</time></trkpt><trkpt lat="42.190895" lon="14.6443383"><ele>2.0</ele><time>2026-04-14T07:58:27.87Z</time></trkpt><trkpt lat="42.19083" lon="14.64438"><ele>1.9999999999999998</ele><time>2026-04-14T07:58:29.87Z</time></trkpt><trkpt lat="42.1907633" lon="14.64441"><ele>2.0</ele><time>2026-04-14T07:58:31.869Z</time></trkpt><trkpt lat="42.1906983" lon="14.644425"><ele>2.0</ele><time>2026-04-14T07:58:33.869Z</time></trkpt><trkpt lat="42.1906183" lon="14.644445"><ele>1.9999999999999998</ele><time>2026-04-14T07:58:36.869Z</time></trkpt><trkpt lat="42.1905283" lon="14.64447"><ele>2.0</ele><time>2026-04-14T07:58:39.869Z</time></trkpt><trkpt lat="42.190465" lon="14.6445"><ele>2.0</ele><time>2026-04-14T07:58:41.87Z</time></trkpt><trkpt lat="42.1903733" lon="14.6445383"><ele>2.142857142857143</ele><time>2026-04-14T07:58:44.87Z</time></trkpt><trkpt lat="42.1903067" lon="14.6445583"><ele>2.2857142857142856</ele><time>2026-04-14T07:58:46.869Z</time></trkpt><trkpt lat="42.1902467" lon="14.644605"><ele>2.4285714285714284</ele><time>2026-04-14T07:58:48.87Z</time></trkpt><trkpt lat="42.190175" lon="14.644675"><ele>2.571428571428571</ele><time>2026-04-14T07:58:51.87Z</time></trkpt><trkpt lat="42.1901367" lon="14.6447533"><ele>2.7142857142857144</ele><time>2026-04-14T07:58:54.87Z</time></trkpt><trkpt lat="42.1901233" lon="14.6448367"><ele>2.8571428571428568</ele><time>2026-04-14T07:58:57.87Z</time></trkpt><trkpt lat="42.190115" lon="14.64494"><ele>3.0</ele><time>2026-04-14T07:59:00.869Z</time></trkpt><trkpt lat="42.190095" lon="14.6450567"><ele>3.0</ele><time>2026-04-14T07:59:03.87Z</time></trkpt><trkpt lat="42.1900717" lon="14.6451633"><ele>3.0</ele><time>2026-04-14T07:59:06.87Z</time></trkpt><trkpt lat="42.1900333" lon="14.6452567"><ele>3.0</ele><time>2026-04-14T07:59:09.869Z</time></trkpt><trkpt lat="42.1899867" lon="14.6453433"><ele>3.0</ele><time>2026-04-14T07:59:12.87Z</time></trkpt><trkpt lat="42.1899417" lon="14.645425"><ele>3.0</ele><time>2026-04-14T07:59:15.869Z</time></trkpt><trkpt lat="42.1899067" lon="14.6455033"><ele>3.0</ele><time>2026-04-14T07:59:18.869Z</time></trkpt><trkpt lat="42.189865" lon="14.6455817"><ele>2.9999999999999996</ele><time>2026-04-14T07:59:21.87Z</time></trkpt><trkpt lat="42.18984" lon="14.6456633"><ele>3.0</ele><time>2026-04-14T07:59:24.87Z</time></trkpt><trkpt lat="42.1898133" lon="14.6457533"><ele>3.0</ele><time>2026-04-14T07:59:27.869Z</time></trkpt><trkpt lat="42.189785" lon="14.6458383"><ele>3.0</ele><time>2026-04-14T07:59:30.869Z</time></trkpt><trkpt lat="42.1897667" lon="14.6459533"><ele>3.0</ele><time>2026-04-14T07:59:33.869Z</time></trkpt><trkpt lat="42.18976" lon="14.6460417"><ele>2.9999999999999996</ele><time>2026-04-14T07:59:35.87Z</time></trkpt><trkpt lat="42.1897483" lon="14.6461333"><ele>3.0</ele><time>2026-04-14T07:59:37.87Z</time></trkpt><trkpt lat="42.1897517" lon="14.64622"><ele>3.2857142857142856</ele><time>2026-04-14T07:59:39.87Z</time></trkpt><trkpt lat="42.1897517" lon="14.6463083"><ele>3.571428571428571</ele><time>2026-04-14T07:59:41.869Z</time></trkpt><trkpt lat="42.18974" lon="14.6464083"><ele>3.8571428571428568</ele><time>2026-04-14T07:59:43.87Z</time></trkpt><trkpt lat="42.1897217" lon="14.6465067"><ele>4.142857142857142</ele><time>2026-04-14T07:59:45.87Z</time></trkpt><trkpt lat="42.189715" lon="14.646605"><ele>4.428571428571429</ele><time>2026-04-14T07:59:47.87Z</time></trkpt><trkpt lat="42.189715" lon="14.6466933"><ele>4.714285714285714</ele><time>2026-04-14T07:59:49.87Z</time></trkpt><trkpt lat="42.1897233" lon="14.64681"><ele>5.0</ele><time>2026-04-14T07:59:52.869Z</time></trkpt><trkpt lat="42.189735" lon="14.64693"><ele>4.833333333333334</ele><time>2026-04-14T07:59:55.869Z</time></trkpt><trkpt lat="42.18973" lon="14.647025"><ele>4.666666666666667</ele><time>2026-04-14T07:59:57.869Z</time></trkpt><trkpt lat="42.1897283" lon="14.6471267"><ele>4.5</ele><time>2026-04-14T07:59:59.87Z</time></trkpt><trkpt lat="42.1897267" lon="14.64723"><ele>4.333333333333333</ele><time>2026-04-14T08:00:01.87Z</time></trkpt><trkpt lat="42.189725" lon="14.647335"><ele>4.166666666666666</ele><time>2026-04-14T08:00:03.869Z</time></trkpt><trkpt lat="42.1897217" lon="14.6474317"><ele>4.0</ele><time>2026-04-14T08:00:05.87Z</time></trkpt><trkpt lat="42.1897183" lon="14.6475367"><ele>4.0</ele><time>2026-04-14T08:00:07.87Z</time></trkpt><trkpt lat="42.1897167" lon="14.647645"><ele>3.9999999999999996</ele><time>2026-04-14T08:00:09.87Z</time></trkpt><trkpt lat="42.189715" lon="14.6477517"><ele>4.0</ele><time>2026-04-14T08:00:11.87Z</time></trkpt><trkpt lat="42.18971" lon="14.6478383"><ele>4.0</ele><time>2026-04-14T08:00:13.87Z</time></trkpt><trkpt lat="42.1897033" lon="14.6479283"><ele>3.9999999999999996</ele><time>2026-04-14T08:00:15.87Z</time></trkpt><trkpt lat="42.1896967" lon="14.6480367"><ele>4.0</ele><time>2026-04-14T08:00:17.87Z</time></trkpt><trkpt lat="42.1896867" lon="14.6481367"><ele>4.0</ele><time>2026-04-14T08:00:19.87Z</time></trkpt><trkpt lat="42.1896667" lon="14.6482233"><ele>4.6</ele><time>2026-04-14T08:00:21.87Z</time></trkpt><trkpt lat="42.1896333" lon="14.6483417"><ele>5.2</ele><time>2026-04-14T08:00:24.87Z</time></trkpt><trkpt lat="42.1896083" lon="14.648445"><ele>5.799999999999999</ele><time>2026-04-14T08:00:26.87Z</time></trkpt><trkpt lat="42.1895817" lon="14.6485783"><ele>6.3999999999999995</ele><time>2026-04-14T08:00:28.87Z</time></trkpt><trkpt lat="42.1895567" lon="14.6487183"><ele>7.0</ele><time>2026-04-14T08:00:30.87Z</time></trkpt><trkpt lat="42.1895367" lon="14.6488467"><ele>7.666666666666667</ele><time>2026-04-14T08:00:32.87Z</time></trkpt><trkpt lat="42.189515" lon="14.6489633"><ele>8.333333333333334</ele><time>2026-04-14T08:00:34.869Z</time></trkpt><trkpt lat="42.1894767" lon="14.64904"><ele>9.0</ele><time>2026-04-14T08:00:37.87Z</time></trkpt><trkpt lat="42.1894583" lon="14.64894"><ele>9.666666666666666</ele><time>2026-04-14T08:00:41.869Z</time></trkpt><trkpt lat="42.18948" lon="14.648845"><ele>10.333333333333332</ele><time>2026-04-14T08:00:43.87Z</time></trkpt><trkpt lat="42.1894933" lon="14.6487417"><ele>11.0</ele><time>2026-04-14T08:00:45.87Z</time></trkpt><trkpt lat="42.1895083" lon="14.64864"><ele>10.333333333333332</ele><time>2026-04-14T08:00:47.87Z</time></trkpt><trkpt lat="42.1895083" lon="14.6485283"><ele>9.666666666666666</ele><time>2026-04-14T08:00:49.87Z</time></trkpt><trkpt lat="42.1895" lon="14.64841"><ele>9.0</ele><time>2026-04-14T08:00:51.87Z</time></trkpt><trkpt lat="42.1894817" lon="14.6482717"><ele>8.333333333333334</ele><time>2026-04-14T08:00:53.869Z</time></trkpt><trkpt lat="42.18947" lon="14.648145"><ele>7.666666666666667</ele><time>2026-04-14T08:00:55.87Z</time></trkpt><trkpt lat="42.1894633" lon="14.6480467"><ele>7.0</ele><time>2026-04-14T08:00:57.87Z</time></trkpt><trkpt lat="42.1894233" lon="14.64797"><ele>7.000000000000001</ele><time>2026-04-14T08:01:01.87Z</time></trkpt><trkpt lat="42.189355" lon="14.6479433"><ele>7.0</ele><time>2026-04-14T08:01:05.87Z</time></trkpt><trkpt lat="42.18929" lon="14.647905"><ele>7.0</ele><time>2026-04-14T08:01:09.87Z</time></trkpt><trkpt lat="42.189205" lon="14.6479033"><ele>7.0</ele><time>2026-04-14T08:01:12.869Z</time></trkpt><trkpt lat="42.1891117" lon="14.6479017"><ele>7.000000000000001</ele><time>2026-04-14T08:01:15.87Z</time></trkpt><trkpt lat="42.1890433" lon="14.6478983"><ele>7.0</ele><time>2026-04-14T08:01:17.87Z</time></trkpt><trkpt lat="42.1889783" lon="14.64789"><ele>7.0</ele><time>2026-04-14T08:01:19.87Z</time></trkpt><trkpt lat="42.1889183" lon="14.64786"><ele>7.0</ele><time>2026-04-14T08:01:21.869Z</time></trkpt><trkpt lat="42.1888467" lon="14.6478317"><ele>7.0</ele><time>2026-04-14T08:01:23.87Z</time></trkpt><trkpt lat="42.1887833" lon="14.64781"><ele>7.0</ele><time>2026-04-14T08:01:25.869Z</time></trkpt><trkpt lat="42.1886917" lon="14.6477667"><ele>7.0</ele><time>2026-04-14T08:01:27.87Z</time></trkpt><trkpt lat="42.1886167" lon="14.6477883"><ele>7.0</ele><time>2026-04-14T08:01:29.869Z</time></trkpt><trkpt lat="42.1885467" lon="14.647805"><ele>7.0</ele><time>2026-04-14T08:01:31.869Z</time></trkpt><trkpt lat="42.188475" lon="14.6478367"><ele>7.0</ele><time>2026-04-14T08:01:33.87Z</time></trkpt><trkpt lat="42.1884033" lon="14.6478383"><ele>7.0</ele><time>2026-04-14T08:01:35.87Z</time></trkpt><trkpt lat="42.1883367" lon="14.6478433"><ele>7.0</ele><time>2026-04-14T08:01:37.869Z</time></trkpt><trkpt lat="42.18826" lon="14.64785"><ele>7.0</ele><time>2026-04-14T08:01:39.87Z</time></trkpt><trkpt lat="42.18819" lon="14.6478617"><ele>7.0</ele><time>2026-04-14T08:01:41.869Z</time></trkpt><trkpt lat="42.1881033" lon="14.6478867"><ele>7.0</ele><time>2026-04-14T08:01:44.869Z</time></trkpt><trkpt lat="42.18804" lon="14.6479033"><ele>7.0</ele><time>2026-04-14T08:01:46.87Z</time></trkpt><trkpt lat="42.1879683" lon="14.6479133"><ele>6.571428571428571</ele><time>2026-04-14T08:01:48.87Z</time></trkpt><trkpt lat="42.1878983" lon="14.6479233"><ele>6.142857142857142</ele><time>2026-04-14T08:01:50.869Z</time></trkpt><trkpt lat="42.18783" lon="14.6479333"><ele>5.714285714285714</ele><time>2026-04-14T08:01:52.87Z</time></trkpt><trkpt lat="42.1877633" lon="14.6479383"><ele>5.285714285714286</ele><time>2026-04-14T08:01:54.87Z</time></trkpt><trkpt lat="42.187695" lon="14.6479367"><ele>4.857142857142857</ele><time>2026-04-14T08:01:56.87Z</time></trkpt><trkpt lat="42.1876317" lon="14.6479517"><ele>4.428571428571429</ele><time>2026-04-14T08:01:58.87Z</time></trkpt><trkpt lat="42.1875433" lon="14.6480083"><ele>4.0</ele><time>2026-04-14T08:02:01.87Z</time></trkpt><trkpt lat="42.18747" lon="14.6480333"><ele>3.9999999999999996</ele><time>2026-04-14T08:02:03.869Z</time></trkpt><trkpt lat="42.1873867" lon="14.6480617"><ele>4.0</ele><time>2026-04-14T08:02:05.87Z</time></trkpt><trkpt lat="42.1872967" lon="14.6480883"><ele>4.0</ele><time>2026-04-14T08:02:07.869Z</time></trkpt><trkpt lat="42.1872133" lon="14.6480867"><ele>4.0</ele><time>2026-04-14T08:02:09.87Z</time></trkpt><trkpt lat="42.187145" lon="14.6481017"><ele>3.9999999999999996</ele><time>2026-04-14T08:02:11.869Z</time></trkpt><trkpt lat="42.1870733" lon="14.648125"><ele>4.0</ele><time>2026-04-14T08:02:14.87Z</time></trkpt><trkpt lat="42.1869917" lon="14.6481583"><ele>4.0</ele><time>2026-04-14T08:02:17.869Z</time></trkpt><trkpt lat="42.18693" lon="14.6481983"><ele>3.9999999999999996</ele><time>2026-04-14T08:02:19.87Z</time></trkpt><trkpt lat="42.1868667" lon="14.648235"><ele>4.0</ele><time>2026-04-14T08:02:21.87Z</time></trkpt><trkpt lat="42.1868033" lon="14.6482617"><ele>4.0</ele><time>2026-04-14T08:02:23.869Z</time></trkpt><trkpt lat="42.1867383" lon="14.6482867"><ele>3.9999999999999996</ele><time>2026-04-14T08:02:25.869Z</time></trkpt><trkpt lat="42.1866667" lon="14.6483133"><ele>4.0</ele><time>2026-04-14T08:02:27.869Z</time></trkpt><trkpt lat="42.1865933" lon="14.6483467"><ele>4.0</ele><time>2026-04-14T08:02:29.87Z</time></trkpt><trkpt lat="42.1865217" lon="14.6483833"><ele>3.8571428571428568</ele><time>2026-04-14T08:02:31.87Z</time></trkpt><trkpt lat="42.1864533" lon="14.64842"><ele>3.714285714285714</ele><time>2026-04-14T08:02:33.869Z</time></trkpt><trkpt lat="42.1863867" lon="14.6484533"><ele>3.571428571428571</ele><time>2026-04-14T08:02:35.87Z</time></trkpt><trkpt lat="42.1863167" lon="14.6484983"><ele>3.4285714285714284</ele><time>2026-04-14T08:02:38.869Z</time></trkpt><trkpt lat="42.1862517" lon="14.648535"><ele>3.2857142857142856</ele><time>2026-04-14T08:02:41.87Z</time></trkpt><trkpt lat="42.1861717" lon="14.648585"><ele>3.1428571428571423</ele><time>2026-04-14T08:02:44.869Z</time></trkpt><trkpt lat="42.1861133" lon="14.64862"><ele>3.0</ele><time>2026-04-14T08:02:46.87Z</time></trkpt><trkpt lat="42.1860483" lon="14.6486983"><ele>3.4285714285714284</ele><time>2026-04-14T08:02:49.87Z</time></trkpt><trkpt lat="42.18599" lon="14.6487367"><ele>3.8571428571428568</ele><time>2026-04-14T08:02:52.869Z</time></trkpt><trkpt lat="42.1859317" lon="14.648785"><ele>4.285714285714286</ele><time>2026-04-14T08:02:56.87Z</time></trkpt><trkpt lat="42.1858733" lon="14.6488333"><ele>4.7142857142857135</ele><time>2026-04-14T08:03:00.87Z</time></trkpt><trkpt lat="42.18581" lon="14.6488617"><ele>5.142857142857142</ele><time>2026-04-14T08:03:04.87Z</time></trkpt><trkpt lat="42.18575" lon="14.6489133"><ele>5.571428571428571</ele><time>2026-04-14T08:03:09.869Z</time></trkpt><trkpt lat="42.18569" lon="14.64896"><ele>6.0</ele><time>2026-04-14T08:03:14.869Z</time></trkpt><trkpt lat="42.1856367" lon="14.6490083"><ele>6.0</ele><time>2026-04-14T08:03:19.87Z</time></trkpt><trkpt lat="42.1855783" lon="14.649055"><ele>6.0</ele><time>2026-04-14T08:03:24.87Z</time></trkpt><trkpt lat="42.185515" lon="14.6491"><ele>6.0</ele><time>2026-04-14T08:03:27.87Z</time></trkpt><trkpt lat="42.1854517" lon="14.6491517"><ele>6.0</ele><time>2026-04-14T08:03:30.87Z</time></trkpt><trkpt lat="42.185395" lon="14.6492167"><ele>6.0</ele><time>2026-04-14T08:03:33.869Z</time></trkpt><trkpt lat="42.1853217" lon="14.6492817"><ele>6.0</ele><time>2026-04-14T08:03:36.87Z</time></trkpt><trkpt lat="42.185255" lon="14.6493467"><ele>6.0</ele><time>2026-04-14T08:03:39.87Z</time></trkpt><trkpt lat="42.18519" lon="14.649415"><ele>6.0</ele><time>2026-04-14T08:03:42.869Z</time></trkpt><trkpt lat="42.1851183" lon="14.6495"><ele>6.0</ele><time>2026-04-14T08:03:45.87Z</time></trkpt><trkpt lat="42.1850433" lon="14.6495733"><ele>6.0</ele><time>2026-04-14T08:03:48.87Z</time></trkpt><trkpt lat="42.184975" lon="14.6496483"><ele>6.0</ele><time>2026-04-14T08:03:51.871Z</time></trkpt><trkpt lat="42.1849267" lon="14.6497067"><ele>6.0</ele><time>2026-04-14T08:03:53.871Z</time></trkpt><trkpt lat="42.1848683" lon="14.6497917"><ele>5.999999999999999</ele><time>2026-04-14T08:03:56.871Z</time></trkpt><trkpt lat="42.184805" lon="14.6498733"><ele>6.0</ele><time>2026-04-14T08:03:59.87Z</time></trkpt><trkpt lat="42.1847483" lon="14.6499183"><ele>6.0</ele><time>2026-04-14T08:04:01.871Z</time></trkpt><trkpt lat="42.1846883" lon="14.649965"><ele>6.0</ele><time>2026-04-14T08:04:03.871Z</time></trkpt><trkpt lat="42.1846383" lon="14.65002"><ele>6.0</ele><time>2026-04-14T08:04:05.871Z</time></trkpt><trkpt lat="42.1845883" lon="14.6500733"><ele>5.999999999999999</ele><time>2026-04-14T08:04:07.871Z</time></trkpt><trkpt lat="42.184535" lon="14.6501333"><ele>6.0</ele><time>2026-04-14T08:04:09.871Z</time></trkpt><trkpt lat="42.18447" lon="14.650215"><ele>6.0</ele><time>2026-04-14T08:04:12.871Z</time></trkpt><trkpt lat="42.1844067" lon="14.6502767"><ele>6.0</ele><time>2026-04-14T08:04:16.871Z</time></trkpt><trkpt lat="42.1843417" lon="14.6503333"><ele>6.0</ele><time>2026-04-14T08:04:20.871Z</time></trkpt><trkpt lat="42.1842833" lon="14.6504033"><ele>6.0</ele><time>2026-04-14T08:04:23.871Z</time></trkpt><trkpt lat="42.1842033" lon="14.6504617"><ele>6.0</ele><time>2026-04-14T08:04:26.87Z</time></trkpt><trkpt lat="42.1841467" lon="14.6505117"><ele>6.0</ele><time>2026-04-14T08:04:28.87Z</time></trkpt><trkpt lat="42.1840867" lon="14.650565"><ele>5.666666666666667</ele><time>2026-04-14T08:04:30.87Z</time></trkpt><trkpt lat="42.1840233" lon="14.6506167"><ele>5.333333333333333</ele><time>2026-04-14T08:04:32.87Z</time></trkpt><trkpt lat="42.18396" lon="14.6506667"><ele>5.0</ele><time>2026-04-14T08:04:34.871Z</time></trkpt><trkpt lat="42.1838933" lon="14.6507217"><ele>4.666666666666666</ele><time>2026-04-14T08:04:36.871Z</time></trkpt><trkpt lat="42.1838317" lon="14.6507833"><ele>4.333333333333333</ele><time>2026-04-14T08:04:38.871Z</time></trkpt><trkpt lat="42.1837683" lon="14.6508417"><ele>4.0</ele><time>2026-04-14T08:04:40.871Z</time></trkpt><trkpt lat="42.1837033" lon="14.6509"><ele>4.0</ele><time>2026-04-14T08:04:42.871Z</time></trkpt><trkpt lat="42.18364" lon="14.6509533"><ele>3.9999999999999996</ele><time>2026-04-14T08:04:44.871Z</time></trkpt><trkpt lat="42.183575" lon="14.6510017"><ele>4.0</ele><time>2026-04-14T08:04:46.871Z</time></trkpt><trkpt lat="42.1835167" lon="14.6510517"><ele>4.0</ele><time>2026-04-14T08:04:48.871Z</time></trkpt><trkpt lat="42.1834533" lon="14.6510967"><ele>3.9999999999999996</ele><time>2026-04-14T08:04:50.87Z</time></trkpt><trkpt lat="42.1833833" lon="14.6511467"><ele>4.0</ele><time>2026-04-14T08:04:52.871Z</time></trkpt><trkpt lat="42.183315" lon="14.6511983"><ele>4.0</ele><time>2026-04-14T08:04:54.871Z</time></trkpt><trkpt lat="42.1832467" lon="14.651245"><ele>5.0</ele><time>2026-04-14T08:04:56.871Z</time></trkpt><trkpt lat="42.1831833" lon="14.65128"><ele>6.0</ele><time>2026-04-14T08:04:58.871Z</time></trkpt><trkpt lat="42.1831167" lon="14.6513117"><ele>7.0</ele><time>2026-04-14T08:05:00.871Z</time></trkpt><trkpt lat="42.1830467" lon="14.651355"><ele>8.0</ele><time>2026-04-14T08:05:03.87Z</time></trkpt><trkpt lat="42.18298" lon="14.6513917"><ele>9.0</ele><time>2026-04-14T08:05:09.871Z</time></trkpt><trkpt lat="42.182905" lon="14.6514183"><ele>10.0</ele><time>2026-04-14T08:05:14.871Z</time></trkpt><trkpt lat="42.1828317" lon="14.6514483"><ele>11.0</ele><time>2026-04-14T08:05:18.871Z</time></trkpt><trkpt lat="42.1827633" lon="14.6514767"><ele>11.0</ele><time>2026-04-14T08:05:21.871Z</time></trkpt><trkpt lat="42.1826917" lon="14.6514917"><ele>11.0</ele><time>2026-04-14T08:05:26.87Z</time></trkpt><trkpt lat="42.1826233" lon="14.651505"><ele>11.0</ele><time>2026-04-14T08:05:31.871Z</time></trkpt><trkpt lat="42.1825583" lon="14.6515217"><ele>11.0</ele><time>2026-04-14T08:05:35.871Z</time></trkpt><trkpt lat="42.18249" lon="14.6515317"><ele>11.0</ele><time>2026-04-14T08:05:39.871Z</time></trkpt><trkpt lat="42.1824083" lon="14.651545"><ele>11.0</ele><time>2026-04-14T08:05:43.87Z</time></trkpt><trkpt lat="42.182335" lon="14.6515633"><ele>11.0</ele><time>2026-04-14T08:05:47.87Z</time></trkpt><trkpt lat="42.1822667" lon="14.6515683"><ele>11.428571428571429</ele><time>2026-04-14T08:05:50.871Z</time></trkpt><trkpt lat="42.1821983" lon="14.651575"><ele>11.857142857142858</ele><time>2026-04-14T08:05:53.87Z</time></trkpt><trkpt lat="42.1821217" lon="14.6515767"><ele>12.285714285714285</ele><time>2026-04-14T08:05:57.871Z</time></trkpt><trkpt lat="42.1820517" lon="14.6515717"><ele>12.714285714285715</ele><time>2026-04-14T08:06:01.87Z</time></trkpt><trkpt lat="42.1819767" lon="14.6515717"><ele>13.142857142857142</ele><time>2026-04-14T08:06:04.87Z</time></trkpt><trkpt lat="42.1818983" lon="14.6515467"><ele>13.571428571428571</ele><time>2026-04-14T08:06:07.871Z</time></trkpt><trkpt lat="42.1818283" lon="14.651525"><ele>14.0</ele><time>2026-04-14T08:06:10.871Z</time></trkpt><trkpt lat="42.1817583" lon="14.65149"><ele>14.000000000000002</ele><time>2026-04-14T08:06:14.87Z</time></trkpt><trkpt lat="42.1816817" lon="14.65149"><ele>14.0</ele><time>2026-04-14T08:06:18.871Z</time></trkpt><trkpt lat="42.18161" lon="14.6514433"><ele>14.0</ele><time>2026-04-14T08:06:23.87Z</time></trkpt><trkpt lat="42.1815467" lon="14.6514367"><ele>14.0</ele><time>2026-04-14T08:06:27.87Z</time></trkpt><trkpt lat="42.1814833" lon="14.651405"><ele>14.000000000000002</ele><time>2026-04-14T08:06:32.87Z</time></trkpt><trkpt lat="42.1814067" lon="14.6513683"><ele>14.0</ele><time>2026-04-14T08:06:35.87Z</time></trkpt><trkpt lat="42.1813233" lon="14.651325"><ele>14.166666666666668</ele><time>2026-04-14T08:06:38.87Z</time></trkpt><trkpt lat="42.1812333" lon="14.6512933"><ele>14.333333333333334</ele><time>2026-04-14T08:06:41.87Z</time></trkpt><trkpt lat="42.1811467" lon="14.651265"><ele>14.5</ele><time>2026-04-14T08:06:44.87Z</time></trkpt><trkpt lat="42.1810583" lon="14.651225"><ele>14.666666666666668</ele><time>2026-04-14T08:06:47.871Z</time></trkpt><trkpt lat="42.1809933" lon="14.65118"><ele>14.833333333333334</ele><time>2026-04-14T08:06:49.871Z</time></trkpt><trkpt lat="42.1809267" lon="14.6511317"><ele>15.0</ele><time>2026-04-14T08:06:51.871Z</time></trkpt><trkpt lat="42.18086" lon="14.65108"><ele>14.142857142857144</ele><time>2026-04-14T08:06:53.87Z</time></trkpt><trkpt lat="42.18079" lon="14.6510183"><ele>13.285714285714285</ele><time>2026-04-14T08:06:55.871Z</time></trkpt><trkpt lat="42.180725" lon="14.6509617"><ele>12.428571428571429</ele><time>2026-04-14T08:06:57.87Z</time></trkpt><trkpt lat="42.1806683" lon="14.6509133"><ele>11.571428571428573</ele><time>2026-04-14T08:06:59.871Z</time></trkpt><trkpt lat="42.1806167" lon="14.6508633"><ele>10.714285714285715</ele><time>2026-04-14T08:07:01.871Z</time></trkpt><trkpt lat="42.1805583" lon="14.6507983"><ele>9.857142857142858</ele><time>2026-04-14T08:07:04.871Z</time></trkpt><trkpt lat="42.18051" lon="14.65074"><ele>9.0</ele><time>2026-04-14T08:07:08.871Z</time></trkpt><trkpt lat="42.180455" lon="14.6506667"><ele>9.0</ele><time>2026-04-14T08:07:13.871Z</time></trkpt><trkpt lat="42.1803967" lon="14.6505983"><ele>9.0</ele><time>2026-04-14T08:07:18.871Z</time></trkpt><trkpt lat="42.1803533" lon="14.6505167"><ele>9.0</ele><time>2026-04-14T08:07:22.871Z</time></trkpt><trkpt lat="42.1803033" lon="14.6504467"><ele>9.0</ele><time>2026-04-14T08:07:26.871Z</time></trkpt><trkpt lat="42.180255" lon="14.6503767"><ele>9.0</ele><time>2026-04-14T08:07:29.871Z</time></trkpt><trkpt lat="42.1802067" lon="14.6502983"><ele>9.0</ele><time>2026-04-14T08:07:32.87Z</time></trkpt><trkpt lat="42.1801483" lon="14.65021"><ele>9.0</ele><time>2026-04-14T08:07:35.871Z</time></trkpt><trkpt lat="42.1800933" lon="14.65012"><ele>9.0</ele><time>2026-04-14T08:07:38.871Z</time></trkpt><trkpt lat="42.1800367" lon="14.6500283"><ele>9.0</ele><time>2026-04-14T08:07:41.871Z</time></trkpt><trkpt lat="42.17999" lon="14.649965"><ele>9.0</ele><time>2026-04-14T08:07:44.87Z</time></trkpt><trkpt lat="42.1799467" lon="14.6498917"><ele>9.0</ele><time>2026-04-14T08:07:47.871Z</time></trkpt><trkpt lat="42.179885" lon="14.6497867"><ele>9.0</ele><time>2026-04-14T08:07:50.871Z</time></trkpt><trkpt lat="42.1798367" lon="14.6497033"><ele>9.0</ele><time>2026-04-14T08:07:52.871Z</time></trkpt><trkpt lat="42.17979" lon="14.6496333"><ele>9.0</ele><time>2026-04-14T08:07:54.871Z</time></trkpt><trkpt lat="42.17973" lon="14.649535"><ele>9.0</ele><time>2026-04-14T08:07:57.871Z</time></trkpt><trkpt lat="42.1796917" lon="14.649455"><ele>9.0</ele><time>2026-04-14T08:07:59.87Z</time></trkpt><trkpt lat="42.1796417" lon="14.6493883"><ele>9.0</ele><time>2026-04-14T08:08:01.87Z</time></trkpt><trkpt lat="42.1795933" lon="14.6493067"><ele>9.0</ele><time>2026-04-14T08:08:03.871Z</time></trkpt><trkpt lat="42.1795483" lon="14.6492217"><ele>8.833333333333334</ele><time>2026-04-14T08:08:05.871Z</time></trkpt><trkpt lat="42.1794933" lon="14.6491417"><ele>8.666666666666666</ele><time>2026-04-14T08:08:07.871Z</time></trkpt><trkpt lat="42.1794317" lon="14.6490717"><ele>8.5</ele><time>2026-04-14T08:08:09.871Z</time></trkpt><trkpt lat="42.1793783" lon="14.64901"><ele>8.333333333333332</ele><time>2026-04-14T08:08:11.87Z</time></trkpt><trkpt lat="42.179315" lon="14.6489417"><ele>8.166666666666666</ele><time>2026-04-14T08:08:14.871Z</time></trkpt><trkpt lat="42.1792633" lon="14.6488783"><ele>8.0</ele><time>2026-04-14T08:08:17.871Z</time></trkpt><trkpt lat="42.1792017" lon="14.6487983"><ele>7.999999999999999</ele><time>2026-04-14T08:08:21.871Z</time></trkpt><trkpt lat="42.17912" lon="14.6487267"><ele>8.0</ele><time>2026-04-14T08:08:41.871Z</time></trkpt><trkpt lat="42.1790617" lon="14.64869"><ele>8.0</ele><time>2026-04-14T08:08:44.871Z</time></trkpt><trkpt lat="42.17899" lon="14.648635"><ele>8.0</ele><time>2026-04-14T08:08:47.87Z</time></trkpt><trkpt lat="42.1789133" lon="14.648595"><ele>7.999999999999999</ele><time>2026-04-14T08:08:50.871Z</time></trkpt><trkpt lat="42.1788533" lon="14.6485567"><ele>8.0</ele><time>2026-04-14T08:08:53.871Z</time></trkpt><trkpt lat="42.178765" lon="14.6484917"><ele>7.7142857142857135</ele><time>2026-04-14T08:09:25.871Z</time></trkpt><trkpt lat="42.1786967" lon="14.648455"><ele>7.428571428571428</ele><time>2026-04-14T08:09:29.87Z</time></trkpt><trkpt lat="42.1786267" lon="14.6484467"><ele>7.142857142857142</ele><time>2026-04-14T08:09:33.871Z</time></trkpt><trkpt lat="42.178555" lon="14.6484183"><ele>6.857142857142857</ele><time>2026-04-14T08:09:37.87Z</time></trkpt><trkpt lat="42.17848" lon="14.6483967"><ele>6.571428571428571</ele><time>2026-04-14T08:09:41.871Z</time></trkpt><trkpt lat="42.178415" lon="14.6483667"><ele>6.285714285714285</ele><time>2026-04-14T08:09:45.871Z</time></trkpt><trkpt lat="42.17834" lon="14.6483433"><ele>6.0</ele><time>2026-04-14T08:09:49.871Z</time></trkpt><trkpt lat="42.178275" lon="14.6483283"><ele>6.0</ele><time>2026-04-14T08:09:52.871Z</time></trkpt><trkpt lat="42.1781917" lon="14.6482933"><ele>6.0</ele><time>2026-04-14T08:09:56.871Z</time></trkpt><trkpt lat="42.1781133" lon="14.648265"><ele>6.0</ele><time>2026-04-14T08:09:59.871Z</time></trkpt><trkpt lat="42.1780433" lon="14.6482317"><ele>6.0</ele><time>2026-04-14T08:10:02.87Z</time></trkpt><trkpt lat="42.17797" lon="14.6482"><ele>6.0</ele><time>2026-04-14T08:10:05.87Z</time></trkpt><trkpt lat="42.1778917" lon="14.64817"><ele>6.0</ele><time>2026-04-14T08:10:08.871Z</time></trkpt><trkpt lat="42.1778067" lon="14.64814"><ele>6.166666666666667</ele><time>2026-04-14T08:10:11.87Z</time></trkpt><trkpt lat="42.177725" lon="14.6481033"><ele>6.333333333333334</ele><time>2026-04-14T08:10:14.871Z</time></trkpt><trkpt lat="42.1776617" lon="14.64807"><ele>6.5</ele><time>2026-04-14T08:10:17.871Z</time></trkpt><trkpt lat="42.1776033" lon="14.648035"><ele>6.666666666666667</ele><time>2026-04-14T08:10:20.87Z</time></trkpt><trkpt lat="42.1775233" lon="14.6479883"><ele>6.833333333333334</ele><time>2026-04-14T08:10:24.871Z</time></trkpt><trkpt lat="42.17746" lon="14.6479433"><ele>7.0</ele><time>2026-04-14T08:10:27.87Z</time></trkpt><trkpt lat="42.1773833" lon="14.6478933"><ele>7.000000000000001</ele><time>2026-04-14T08:10:31.871Z</time></trkpt><trkpt lat="42.1773217" lon="14.6478583"><ele>7.0</ele><time>2026-04-14T08:10:34.871Z</time></trkpt><trkpt lat="42.1772583" lon="14.6478183"><ele>7.0</ele><time>2026-04-14T08:10:37.87Z</time></trkpt><trkpt lat="42.177185" lon="14.647765"><ele>7.0</ele><time>2026-04-14T08:10:41.87Z</time></trkpt><trkpt lat="42.1771217" lon="14.6477183"><ele>7.000000000000001</ele><time>2026-04-14T08:10:45.871Z</time></trkpt><trkpt lat="42.1770517" lon="14.647665"><ele>7.0</ele><time>2026-04-14T08:10:49.871Z</time></trkpt><trkpt lat="42.17699" lon="14.6475967"><ele>7.0</ele><time>2026-04-14T08:10:53.87Z</time></trkpt><trkpt lat="42.176925" lon="14.6475333"><ele>7.0</ele><time>2026-04-14T08:10:56.871Z</time></trkpt><trkpt lat="42.1768683" lon="14.6474633"><ele>7.0</ele><time>2026-04-14T08:10:59.871Z</time></trkpt><trkpt lat="42.1768183" lon="14.6474"><ele>7.0</ele><time>2026-04-14T08:11:02.871Z</time></trkpt><trkpt lat="42.176775" lon="14.64733"><ele>7.0</ele><time>2026-04-14T08:11:05.871Z</time></trkpt><trkpt lat="42.1767183" lon="14.647275"><ele>7.0</ele><time>2026-04-14T08:11:08.871Z</time></trkpt><trkpt lat="42.1766667" lon="14.6472017"><ele>7.0</ele><time>2026-04-14T08:11:11.871Z</time></trkpt><trkpt lat="42.1766167" lon="14.647145"><ele>7.000000000000001</ele><time>2026-04-14T08:11:13.871Z</time></trkpt><trkpt lat="42.1765483" lon="14.6470767"><ele>7.0</ele><time>2026-04-14T08:11:16.871Z</time></trkpt><trkpt lat="42.17648" lon="14.647005"><ele>7.0</ele><time>2026-04-14T08:11:19.87Z</time></trkpt><trkpt lat="42.1764183" lon="14.6469133"><ele>7.0</ele><time>2026-04-14T08:11:22.87Z</time></trkpt><trkpt lat="42.17638" lon="14.64684"><ele>7.000000000000001</ele><time>2026-04-14T08:11:24.871Z</time></trkpt><trkpt lat="42.176335" lon="14.6467683"><ele>7.0</ele><time>2026-04-14T08:11:26.871Z</time></trkpt><trkpt lat="42.1762967" lon="14.6466933"><ele>7.0</ele><time>2026-04-14T08:11:28.871Z</time></trkpt><trkpt lat="42.1762567" lon="14.6465933"><ele>6.999999999999999</ele><time>2026-04-14T08:11:30.871Z</time></trkpt><trkpt lat="42.1762167" lon="14.646485"><ele>6.999999999999999</ele><time>2026-04-14T08:11:32.87Z</time></trkpt><trkpt lat="42.1761767" lon="14.6463683"><ele>7.0</ele><time>2026-04-14T08:11:34.871Z</time></trkpt><trkpt lat="42.17614" lon="14.6462333"><ele>7.0</ele><time>2026-04-14T08:11:36.87Z</time></trkpt><trkpt lat="42.1760967" lon="14.6461017"><ele>7.199999999999999</ele><time>2026-04-14T08:11:38.871Z</time></trkpt><trkpt lat="42.17605" lon="14.645965"><ele>7.3999999999999995</ele><time>2026-04-14T08:11:40.871Z</time></trkpt><trkpt lat="42.1760233" lon="14.6458367"><ele>7.6000000000000005</ele><time>2026-04-14T08:11:42.871Z</time></trkpt><trkpt lat="42.1759983" lon="14.6457217"><ele>7.800000000000001</ele><time>2026-04-14T08:11:44.87Z</time></trkpt><trkpt lat="42.1759617" lon="14.6455983"><ele>8.0</ele><time>2026-04-14T08:11:46.871Z</time></trkpt><trkpt lat="42.17592" lon="14.64547"><ele>8.0</ele><time>2026-04-14T08:11:48.871Z</time></trkpt><trkpt lat="42.175885" lon="14.6453417"><ele>8.0</ele><time>2026-04-14T08:11:50.871Z</time></trkpt><trkpt lat="42.175855" lon="14.64521"><ele>8.0</ele><time>2026-04-14T08:11:52.871Z</time></trkpt><trkpt lat="42.17583" lon="14.6450817"><ele>8.0</ele><time>2026-04-14T08:11:54.87Z</time></trkpt><trkpt lat="42.1757967" lon="14.644955"><ele>8.0</ele><time>2026-04-14T08:11:56.871Z</time></trkpt><trkpt lat="42.1757617" lon="14.64483"><ele>8.0</ele><time>2026-04-14T08:11:58.87Z</time></trkpt><trkpt lat="42.1757317" lon="14.64471"><ele>8.0</ele><time>2026-04-14T08:12:00.871Z</time></trkpt><trkpt lat="42.1757033" lon="14.6445817"><ele>8.0</ele><time>2026-04-14T08:12:02.871Z</time></trkpt><trkpt lat="42.175675" lon="14.64445"><ele>8.0</ele><time>2026-04-14T08:12:04.87Z</time></trkpt><trkpt lat="42.1756433" lon="14.644325"><ele>8.0</ele><time>2026-04-14T08:12:06.87Z</time></trkpt><trkpt lat="42.1756067" lon="14.6441967"><ele>8.0</ele><time>2026-04-14T08:12:08.87Z</time></trkpt><trkpt lat="42.175565" lon="14.6440717"><ele>8.0</ele><time>2026-04-14T08:12:10.871Z</time></trkpt><trkpt lat="42.1755233" lon="14.6439417"><ele>8.0</ele><time>2026-04-14T08:12:12.87Z</time></trkpt><trkpt lat="42.1754833" lon="14.6438167"><ele>8.0</ele><time>2026-04-14T08:12:14.871Z</time></trkpt><trkpt lat="42.175435" lon="14.64369"><ele>8.0</ele><time>2026-04-14T08:12:16.871Z</time></trkpt><trkpt lat="42.1753817" lon="14.6435733"><ele>8.4</ele><time>2026-04-14T08:12:18.871Z</time></trkpt><trkpt lat="42.1753233" lon="14.643475"><ele>8.8</ele><time>2026-04-14T08:12:20.87Z</time></trkpt><trkpt lat="42.1752683" lon="14.643375"><ele>9.2</ele><time>2026-04-14T08:12:22.87Z</time></trkpt><trkpt lat="42.1752083" lon="14.6432617"><ele>9.6</ele><time>2026-04-14T08:12:24.87Z</time></trkpt><trkpt lat="42.1751417" lon="14.6431567"><ele>10.0</ele><time>2026-04-14T08:12:26.871Z</time></trkpt><trkpt lat="42.17507" lon="14.64306"><ele>10.0</ele><time>2026-04-14T08:12:28.87Z</time></trkpt><trkpt lat="42.174995" lon="14.6429783"><ele>10.0</ele><time>2026-04-14T08:12:30.871Z</time></trkpt><trkpt lat="42.17492" lon="14.64288"><ele>10.0</ele><time>2026-04-14T08:12:32.87Z</time></trkpt><trkpt lat="42.17485" lon="14.6427967"><ele>10.0</ele><time>2026-04-14T08:12:34.87Z</time></trkpt><trkpt lat="42.1747767" lon="14.6427183"><ele>10.0</ele><time>2026-04-14T08:12:36.871Z</time></trkpt><trkpt lat="42.1746967" lon="14.6426433"><ele>10.0</ele><time>2026-04-14T08:12:38.871Z</time></trkpt><trkpt lat="42.1746183" lon="14.6425733"><ele>10.0</ele><time>2026-04-14T08:12:40.871Z</time></trkpt><trkpt lat="42.1745367" lon="14.642505"><ele>10.0</ele><time>2026-04-14T08:12:42.87Z</time></trkpt><trkpt lat="42.17445" lon="14.6424367"><ele>10.0</ele><time>2026-04-14T08:12:44.871Z</time></trkpt><trkpt lat="42.174355" lon="14.64238"><ele>10.0</ele><time>2026-04-14T08:12:46.87Z</time></trkpt><trkpt lat="42.1742633" lon="14.6423267"><ele>10.0</ele><time>2026-04-14T08:12:48.87Z</time></trkpt><trkpt lat="42.1741783" lon="14.642285"><ele>10.0</ele><time>2026-04-14T08:12:50.871Z</time></trkpt><trkpt lat="42.1740883" lon="14.6422417"><ele>10.0</ele><time>2026-04-14T08:12:52.871Z</time></trkpt><trkpt lat="42.1740133" lon="14.642205"><ele>10.0</ele><time>2026-04-14T08:12:54.871Z</time></trkpt><trkpt lat="42.1739317" lon="14.642175"><ele>10.0</ele><time>2026-04-14T08:12:56.871Z</time></trkpt><trkpt lat="42.173845" lon="14.6421567"><ele>10.0</ele><time>2026-04-14T08:12:58.871Z</time></trkpt><trkpt lat="42.173765" lon="14.6421433"><ele>10.0</ele><time>2026-04-14T08:13:00.871Z</time></trkpt><trkpt lat="42.1736833" lon="14.642125"><ele>10.0</ele><time>2026-04-14T08:13:02.87Z</time></trkpt><trkpt lat="42.1736033" lon="14.6421117"><ele>10.0</ele><time>2026-04-14T08:13:04.871Z</time></trkpt><trkpt lat="42.17352" lon="14.64211"><ele>10.0</ele><time>2026-04-14T08:13:06.871Z</time></trkpt><trkpt lat="42.1734367" lon="14.6420867"><ele>10.0</ele><time>2026-04-14T08:13:08.87Z</time></trkpt><trkpt lat="42.17336" lon="14.642085"><ele>10.0</ele><time>2026-04-14T08:13:10.87Z</time></trkpt><trkpt lat="42.1732883" lon="14.642085"><ele>10.0</ele><time>2026-04-14T08:13:12.87Z</time></trkpt><trkpt lat="42.17321" lon="14.642085"><ele>10.0</ele><time>2026-04-14T08:13:14.871Z</time></trkpt><trkpt lat="42.1731267" lon="14.6420933"><ele>10.0</ele><time>2026-04-14T08:13:16.871Z</time></trkpt><trkpt lat="42.1730367" lon="14.6421"><ele>10.0</ele><time>2026-04-14T08:13:18.871Z</time></trkpt><trkpt lat="42.1729683" lon="14.6421083"><ele>10.0</ele><time>2026-04-14T08:13:20.871Z</time></trkpt><trkpt lat="42.1728867" lon="14.6421067"><ele>10.0</ele><time>2026-04-14T08:13:23.871Z</time></trkpt><trkpt lat="42.1727983" lon="14.6421017"><ele>9.833333333333334</ele><time>2026-04-14T08:13:26.87Z</time></trkpt><trkpt lat="42.1726983" lon="14.642125"><ele>9.666666666666668</ele><time>2026-04-14T08:13:29.871Z</time></trkpt><trkpt lat="42.1726183" lon="14.64215"><ele>9.5</ele><time>2026-04-14T08:13:31.871Z</time></trkpt><trkpt lat="42.1725433" lon="14.6421817"><ele>9.333333333333334</ele><time>2026-04-14T08:13:33.871Z</time></trkpt><trkpt lat="42.1724483" lon="14.642205"><ele>9.166666666666666</ele><time>2026-04-14T08:13:36.871Z</time></trkpt><trkpt lat="42.172385" lon="14.6422217"><ele>9.0</ele><time>2026-04-14T08:13:38.87Z</time></trkpt><trkpt lat="42.1723183" lon="14.6422533"><ele>9.333333333333334</ele><time>2026-04-14T08:13:41.871Z</time></trkpt><trkpt lat="42.17224" lon="14.6422733"><ele>9.666666666666666</ele><time>2026-04-14T08:13:45.871Z</time></trkpt><trkpt lat="42.1721717" lon="14.6423133"><ele>10.0</ele><time>2026-04-14T08:13:49.871Z</time></trkpt><trkpt lat="42.1720917" lon="14.6423483"><ele>10.333333333333332</ele><time>2026-04-14T08:13:53.87Z</time></trkpt><trkpt lat="42.1720367" lon="14.64239"><ele>10.666666666666666</ele><time>2026-04-14T08:13:55.87Z</time></trkpt><trkpt lat="42.17199" lon="14.64248"><ele>11.0</ele><time>2026-04-14T08:13:58.87Z</time></trkpt><trkpt lat="42.1719917" lon="14.64259"><ele>11.0</ele><time>2026-04-14T08:14:01.871Z</time></trkpt><trkpt lat="42.1719883" lon="14.6426767"><ele>11.0</ele><time>2026-04-14T08:14:03.871Z</time></trkpt><trkpt lat="42.1719817" lon="14.64278"><ele>11.0</ele><time>2026-04-14T08:14:05.871Z</time></trkpt><trkpt lat="42.171975" lon="14.6428833"><ele>11.0</ele><time>2026-04-14T08:14:07.87Z</time></trkpt><trkpt lat="42.17197" lon="14.6429917"><ele>11.0</ele><time>2026-04-14T08:14:09.87Z</time></trkpt><trkpt lat="42.1719633" lon="14.6431067"><ele>11.0</ele><time>2026-04-14T08:14:11.87Z</time></trkpt><trkpt lat="42.1719583" lon="14.6432233"><ele>10.833333333333332</ele><time>2026-04-14T08:14:13.871Z</time></trkpt><trkpt lat="42.17195" lon="14.6433417"><ele>10.666666666666666</ele><time>2026-04-14T08:14:15.871Z</time></trkpt><trkpt lat="42.1719483" lon="14.6434617"><ele>10.5</ele><time>2026-04-14T08:14:17.871Z</time></trkpt><trkpt lat="42.171955" lon="14.6435783"><ele>10.333333333333334</ele><time>2026-04-14T08:14:19.87Z</time></trkpt><trkpt lat="42.1719583" lon="14.6436967"><ele>10.166666666666668</ele><time>2026-04-14T08:14:21.87Z</time></trkpt><trkpt lat="42.171955" lon="14.6438133"><ele>10.0</ele><time>2026-04-14T08:14:23.871Z</time></trkpt><trkpt lat="42.1719533" lon="14.6439283"><ele>10.0</ele><time>2026-04-14T08:14:25.871Z</time></trkpt><trkpt lat="42.1719533" lon="14.6440467"><ele>10.0</ele><time>2026-04-14T08:14:27.87Z</time></trkpt><trkpt lat="42.1719433" lon="14.644165"><ele>10.0</ele><time>2026-04-14T08:14:29.87Z</time></trkpt><trkpt lat="42.1719367" lon="14.6442833"><ele>10.0</ele><time>2026-04-14T08:14:31.87Z</time></trkpt><trkpt lat="42.1719317" lon="14.6444133"><ele>10.0</ele><time>2026-04-14T08:14:33.871Z</time></trkpt><trkpt lat="42.17193" lon="14.644535"><ele>10.5</ele><time>2026-04-14T08:14:35.871Z</time></trkpt><trkpt lat="42.1719217" lon="14.6446517"><ele>11.0</ele><time>2026-04-14T08:14:37.87Z</time></trkpt><trkpt lat="42.1719083" lon="14.64477"><ele>11.5</ele><time>2026-04-14T08:14:39.87Z</time></trkpt><trkpt lat="42.171885" lon="14.6448883"><ele>12.0</ele><time>2026-04-14T08:14:41.871Z</time></trkpt><trkpt lat="42.1718533" lon="14.6449917"><ele>12.499999999999998</ele><time>2026-04-14T08:14:43.871Z</time></trkpt><trkpt lat="42.1718233" lon="14.6450783"><ele>13.0</ele><time>2026-04-14T08:14:45.87Z</time></trkpt><trkpt lat="42.1717933" lon="14.645155"><ele>13.0</ele><time>2026-04-14T08:14:47.871Z</time></trkpt><trkpt lat="42.1717617" lon="14.64523"><ele>13.0</ele><time>2026-04-14T08:14:49.871Z</time></trkpt><trkpt lat="42.1717317" lon="14.6453083"><ele>13.0</ele><time>2026-04-14T08:14:51.87Z</time></trkpt><trkpt lat="42.171695" lon="14.6453883"><ele>13.0</ele><time>2026-04-14T08:14:53.871Z</time></trkpt><trkpt lat="42.17166" lon="14.6454767"><ele>13.0</ele><time>2026-04-14T08:14:55.871Z</time></trkpt><trkpt lat="42.1716283" lon="14.6455767"><ele>13.0</ele><time>2026-04-14T08:14:57.871Z</time></trkpt><trkpt lat="42.1715917" lon="14.645685"><ele>13.0</ele><time>2026-04-14T08:14:59.871Z</time></trkpt><trkpt lat="42.1715517" lon="14.6458033"><ele>13.333333333333332</ele><time>2026-04-14T08:15:01.871Z</time></trkpt><trkpt lat="42.17151" lon="14.645925"><ele>13.666666666666666</ele><time>2026-04-14T08:15:03.87Z</time></trkpt><trkpt lat="42.1714733" lon="14.6460383"><ele>14.0</ele><time>2026-04-14T08:15:05.87Z</time></trkpt><trkpt lat="42.1714333" lon="14.6461417"><ele>14.333333333333332</ele><time>2026-04-14T08:15:07.871Z</time></trkpt><trkpt lat="42.1713933" lon="14.6462367"><ele>14.666666666666666</ele><time>2026-04-14T08:15:09.87Z</time></trkpt><trkpt lat="42.1713483" lon="14.6463133"><ele>15.0</ele><time>2026-04-14T08:15:11.871Z</time></trkpt><trkpt lat="42.1713033" lon="14.64641"><ele>15.0</ele><time>2026-04-14T08:15:13.871Z</time></trkpt><trkpt lat="42.1712733" lon="14.646515"><ele>15.0</ele><time>2026-04-14T08:15:15.871Z</time></trkpt><trkpt lat="42.17125" lon="14.6466283"><ele>15.0</ele><time>2026-04-14T08:15:17.87Z</time></trkpt><trkpt lat="42.1712267" lon="14.6467433"><ele>15.0</ele><time>2026-04-14T08:15:19.87Z</time></trkpt><trkpt lat="42.1712083" lon="14.6468733"><ele>15.0</ele><time>2026-04-14T08:15:21.871Z</time></trkpt><trkpt lat="42.1711933" lon="14.6470083"><ele>14.8</ele><time>2026-04-14T08:15:23.87Z</time></trkpt><trkpt lat="42.171185" lon="14.6471333"><ele>14.6</ele><time>2026-04-14T08:15:25.871Z</time></trkpt><trkpt lat="42.1711817" lon="14.647265"><ele>14.399999999999999</ele><time>2026-04-14T08:15:27.87Z</time></trkpt><trkpt lat="42.1711833" lon="14.6474"><ele>14.2</ele><time>2026-04-14T08:15:29.87Z</time></trkpt><trkpt lat="42.1711883" lon="14.647525"><ele>14.0</ele><time>2026-04-14T08:15:31.871Z</time></trkpt><trkpt lat="42.171195" lon="14.6476533"><ele>14.0</ele><time>2026-04-14T08:15:33.871Z</time></trkpt><trkpt lat="42.1712017" lon="14.6477867"><ele>13.999999999999998</ele><time>2026-04-14T08:15:35.871Z</time></trkpt><trkpt lat="42.1712083" lon="14.6479133"><ele>13.999999999999998</ele><time>2026-04-14T08:15:37.87Z</time></trkpt><trkpt lat="42.17122" lon="14.6480333"><ele>14.0</ele><time>2026-04-14T08:15:39.871Z</time></trkpt><trkpt lat="42.17123" lon="14.6481517"><ele>14.0</ele><time>2026-04-14T08:15:41.871Z</time></trkpt><trkpt lat="42.1712283" lon="14.6482733"><ele>14.000000000000002</ele><time>2026-04-14T08:15:43.87Z</time></trkpt><trkpt lat="42.1712333" lon="14.6483867"><ele>14.0</ele><time>2026-04-14T08:15:45.87Z</time></trkpt><trkpt lat="42.171245" lon="14.648505"><ele>14.0</ele><time>2026-04-14T08:15:47.871Z</time></trkpt><trkpt lat="42.1712533" lon="14.6486217"><ele>14.0</ele><time>2026-04-14T08:15:49.871Z</time></trkpt><trkpt lat="42.1712583" lon="14.6487383"><ele>14.000000000000002</ele><time>2026-04-14T08:15:51.87Z</time></trkpt><trkpt lat="42.1712633" lon="14.648865"><ele>14.0</ele><time>2026-04-14T08:15:53.871Z</time></trkpt><trkpt lat="42.17127" lon="14.64899"><ele>14.2</ele><time>2026-04-14T08:15:55.871Z</time></trkpt><trkpt lat="42.1712733" lon="14.6491133"><ele>14.399999999999999</ele><time>2026-04-14T08:15:57.871Z</time></trkpt><trkpt lat="42.17128" lon="14.6492383"><ele>14.6</ele><time>2026-04-14T08:15:59.871Z</time></trkpt><trkpt lat="42.171285" lon="14.6493617"><ele>14.8</ele><time>2026-04-14T08:16:01.871Z</time></trkpt><trkpt lat="42.17129" lon="14.6494817"><ele>15.0</ele><time>2026-04-14T08:16:03.871Z</time></trkpt><trkpt lat="42.1713" lon="14.649605"><ele>15.0</ele><time>2026-04-14T08:16:05.87Z</time></trkpt><trkpt lat="42.1713133" lon="14.64973"><ele>15.0</ele><time>2026-04-14T08:16:07.871Z</time></trkpt><trkpt lat="42.171315" lon="14.6498533"><ele>15.0</ele><time>2026-04-14T08:16:09.871Z</time></trkpt><trkpt lat="42.1713167" lon="14.6499833"><ele>15.0</ele><time>2026-04-14T08:16:11.871Z</time></trkpt><trkpt lat="42.1713283" lon="14.65012"><ele>15.0</ele><time>2026-04-14T08:16:13.871Z</time></trkpt><trkpt lat="42.1713383" lon="14.6502417"><ele>15.0</ele><time>2026-04-14T08:16:15.871Z</time></trkpt><trkpt lat="42.17135" lon="14.6503583"><ele>15.0</ele><time>2026-04-14T08:16:17.87Z</time></trkpt><trkpt lat="42.1713617" lon="14.650475"><ele>15.0</ele><time>2026-04-14T08:16:19.871Z</time></trkpt><trkpt lat="42.1713667" lon="14.65059"><ele>15.0</ele><time>2026-04-14T08:16:21.87Z</time></trkpt><trkpt lat="42.1713717" lon="14.6507017"><ele>15.0</ele><time>2026-04-14T08:16:23.871Z</time></trkpt><trkpt lat="42.1713767" lon="14.650815"><ele>15.0</ele><time>2026-04-14T08:16:25.871Z</time></trkpt><trkpt lat="42.17138" lon="14.6509283"><ele>15.0</ele><time>2026-04-14T08:16:27.871Z</time></trkpt><trkpt lat="42.17137" lon="14.6510367"><ele>15.0</ele><time>2026-04-14T08:16:29.871Z</time></trkpt><trkpt lat="42.1713517" lon="14.651135"><ele>15.0</ele><time>2026-04-14T08:16:31.871Z</time></trkpt><trkpt lat="42.17132" lon="14.6512233"><ele>15.0</ele><time>2026-04-14T08:16:33.87Z</time></trkpt><trkpt lat="42.17127" lon="14.6513033"><ele>15.0</ele><time>2026-04-14T08:16:35.87Z</time></trkpt><trkpt lat="42.1712183" lon="14.651395"><ele>15.0</ele><time>2026-04-14T08:16:37.87Z</time></trkpt><trkpt lat="42.1711633" lon="14.65148"><ele>15.5</ele><time>2026-04-14T08:16:39.87Z</time></trkpt><trkpt lat="42.1711083" lon="14.651555"><ele>16.0</ele><time>2026-04-14T08:16:41.87Z</time></trkpt><trkpt lat="42.171055" lon="14.651625"><ele>16.5</ele><time>2026-04-14T08:16:43.87Z</time></trkpt><trkpt lat="42.1709967" lon="14.6516933"><ele>17.0</ele><time>2026-04-14T08:16:45.871Z</time></trkpt><trkpt lat="42.1709417" lon="14.6517583"><ele>17.5</ele><time>2026-04-14T08:16:47.871Z</time></trkpt><trkpt lat="42.1708967" lon="14.6518217"><ele>18.0</ele><time>2026-04-14T08:16:49.871Z</time></trkpt><trkpt lat="42.1708217" lon="14.651885"><ele>18.000000000000004</ele><time>2026-04-14T08:16:52.87Z</time></trkpt><trkpt lat="42.1707717" lon="14.6519417"><ele>18.0</ele><time>2026-04-14T08:16:54.87Z</time></trkpt><trkpt lat="42.1707283" lon="14.6520083"><ele>18.0</ele><time>2026-04-14T08:16:56.87Z</time></trkpt><trkpt lat="42.1706833" lon="14.6520733"><ele>18.0</ele><time>2026-04-14T08:16:58.871Z</time></trkpt><trkpt lat="42.1706367" lon="14.6521333"><ele>18.0</ele><time>2026-04-14T08:17:00.871Z</time></trkpt><trkpt lat="42.1705883" lon="14.6522"><ele>18.000000000000004</ele><time>2026-04-14T08:17:02.871Z</time></trkpt><trkpt lat="42.1705383" lon="14.652255"><ele>18.0</ele><time>2026-04-14T08:17:04.87Z</time></trkpt><trkpt lat="42.170475" lon="14.6523417"><ele>19.0</ele><time>2026-04-14T08:17:07.871Z</time></trkpt><trkpt lat="42.1704017" lon="14.6524233"><ele>20.0</ele><time>2026-04-14T08:17:10.87Z</time></trkpt><trkpt lat="42.1703517" lon="14.6524767"><ele>21.0</ele><time>2026-04-14T08:17:12.871Z</time></trkpt><trkpt lat="42.1702817" lon="14.652545"><ele>22.0</ele><time>2026-04-14T08:17:15.87Z</time></trkpt><trkpt lat="42.1702133" lon="14.6526233"><ele>23.0</ele><time>2026-04-14T08:17:18.871Z</time></trkpt><trkpt lat="42.17016" lon="14.6526933"><ele>24.0</ele><time>2026-04-14T08:17:20.87Z</time></trkpt><trkpt lat="42.1701117" lon="14.65275"><ele>25.333333333333332</ele><time>2026-04-14T08:17:22.871Z</time></trkpt><trkpt lat="42.170045" lon="14.6528367"><ele>26.666666666666664</ele><time>2026-04-14T08:17:25.871Z</time></trkpt><trkpt lat="42.1699967" lon="14.652905"><ele>28.0</ele><time>2026-04-14T08:17:27.871Z</time></trkpt><trkpt lat="42.1699483" lon="14.652965"><ele>29.333333333333332</ele><time>2026-04-14T08:17:29.871Z</time></trkpt><trkpt lat="42.1699033" lon="14.6530283"><ele>30.666666666666664</ele><time>2026-04-14T08:17:31.871Z</time></trkpt><trkpt lat="42.1698333" lon="14.6531117"><ele>32.0</ele><time>2026-04-14T08:17:34.87Z</time></trkpt><trkpt lat="42.169785" lon="14.6531667"><ele>33.166666666666664</ele><time>2026-04-14T08:17:36.871Z</time></trkpt><trkpt lat="42.169705" lon="14.653235"><ele>34.33333333333333</ele><time>2026-04-14T08:17:39.871Z</time></trkpt><trkpt lat="42.1696233" lon="14.6532917"><ele>35.5</ele><time>2026-04-14T08:17:42.872Z</time></trkpt><trkpt lat="42.16954" lon="14.6533317"><ele>36.666666666666664</ele><time>2026-04-14T08:17:45.871Z</time></trkpt><trkpt lat="42.16947" lon="14.6533167"><ele>37.833333333333336</ele><time>2026-04-14T08:17:48.872Z</time></trkpt><trkpt lat="42.1694233" lon="14.65323"><ele>39.0</ele><time>2026-04-14T08:17:52.871Z</time></trkpt><trkpt lat="42.1694017" lon="14.6531267"><ele>39.0</ele><time>2026-04-14T08:17:56.871Z</time></trkpt><trkpt lat="42.1693867" lon="14.6530433"><ele>39.0</ele><time>2026-04-14T08:17:59.871Z</time></trkpt><trkpt lat="42.169375" lon="14.652955"><ele>39.0</ele><time>2026-04-14T08:18:02.872Z</time></trkpt><trkpt lat="42.1693267" lon="14.6528533"><ele>39.0</ele><time>2026-04-14T08:18:05.872Z</time></trkpt><trkpt lat="42.1692633" lon="14.652775"><ele>39.0</ele><time>2026-04-14T08:18:07.872Z</time></trkpt><trkpt lat="42.1692017" lon="14.652665"><ele>39.0</ele><time>2026-04-14T08:18:09.872Z</time></trkpt><trkpt lat="42.1691333" lon="14.6525683"><ele>38.333333333333336</ele><time>2026-04-14T08:18:11.872Z</time></trkpt><trkpt lat="42.16905" lon="14.6524833"><ele>37.666666666666664</ele><time>2026-04-14T08:18:13.871Z</time></trkpt><trkpt lat="42.1689317" lon="14.6524317"><ele>37.0</ele><time>2026-04-14T08:18:15.872Z</time></trkpt><trkpt lat="42.1688667" lon="14.652415"><ele>36.33333333333333</ele><time>2026-04-14T08:18:16.871Z</time></trkpt><trkpt lat="42.1687967" lon="14.6524133"><ele>35.666666666666664</ele><time>2026-04-14T08:18:17.872Z</time></trkpt><trkpt lat="42.16873" lon="14.6524083"><ele>35.0</ele><time>2026-04-14T08:18:18.871Z</time></trkpt><trkpt lat="42.1686633" lon="14.652395"><ele>35.0</ele><time>2026-04-14T08:18:19.871Z</time></trkpt><trkpt lat="42.168595" lon="14.6523817"><ele>35.0</ele><time>2026-04-14T08:18:20.871Z</time></trkpt><trkpt lat="42.1685267" lon="14.652365"><ele>35.0</ele><time>2026-04-14T08:18:21.871Z</time></trkpt><trkpt lat="42.1684617" lon="14.6523383"><ele>35.0</ele><time>2026-04-14T08:18:22.871Z</time></trkpt><trkpt lat="42.1684017" lon="14.6523083"><ele>35.0</ele><time>2026-04-14T08:18:23.872Z</time></trkpt><trkpt lat="42.1683" lon="14.652225"><ele>35.0</ele><time>2026-04-14T08:18:25.871Z</time></trkpt><trkpt lat="42.16825" lon="14.65217"><ele>35.0</ele><time>2026-04-14T08:18:26.872Z</time></trkpt><trkpt lat="42.168205" lon="14.6521083"><ele>35.0</ele><time>2026-04-14T08:18:27.872Z</time></trkpt><trkpt lat="42.1681583" lon="14.652045"><ele>35.0</ele><time>2026-04-14T08:18:28.872Z</time></trkpt><trkpt lat="42.1681133" lon="14.6519783"><ele>35.0</ele><time>2026-04-14T08:18:29.872Z</time></trkpt><trkpt lat="42.1680733" lon="14.6519067"><ele>35.0</ele><time>2026-04-14T08:18:30.871Z</time></trkpt><trkpt lat="42.1680267" lon="14.6518433"><ele>35.0</ele><time>2026-04-14T08:18:31.872Z</time></trkpt><trkpt lat="42.1679717" lon="14.651785"><ele>35.0</ele><time>2026-04-14T08:18:32.872Z</time></trkpt><trkpt lat="42.1679233" lon="14.65173"><ele>33.2</ele><time>2026-04-14T08:18:33.872Z</time></trkpt><trkpt lat="42.1678033" lon="14.6516533"><ele>31.4</ele><time>2026-04-14T08:18:35.872Z</time></trkpt><trkpt lat="42.1677433" lon="14.6516267"><ele>29.6</ele><time>2026-04-14T08:18:36.872Z</time></trkpt><trkpt lat="42.1676583" lon="14.651595"><ele>27.8</ele><time>2026-04-14T08:18:38.872Z</time></trkpt><trkpt lat="42.1675883" lon="14.6516"><ele>26.0</ele><time>2026-04-14T08:18:40.871Z</time></trkpt><trkpt lat="42.1674883" lon="14.6516133"><ele>25.999999999999996</ele><time>2026-04-14T08:23:15.867Z</time></trkpt><trkpt lat="42.1674067" lon="14.651595"><ele>26.0</ele><time>2026-04-14T08:23:18.867Z</time></trkpt><trkpt lat="42.1673433" lon="14.6515783"><ele>26.0</ele><time>2026-04-14T08:23:20.866Z</time></trkpt><trkpt lat="42.1672583" lon="14.6515467"><ele>26.0</ele><time>2026-04-14T08:23:23.867Z</time></trkpt><trkpt lat="42.1671683" lon="14.6515033"><ele>25.999999999999996</ele><time>2026-04-14T08:23:26.866Z</time></trkpt><trkpt lat="42.1671033" lon="14.6514717"><ele>26.0</ele><time>2026-04-14T08:23:28.866Z</time></trkpt><trkpt lat="42.167035" lon="14.6514333"><ele>26.333333333333332</ele><time>2026-04-14T08:23:30.866Z</time></trkpt><trkpt lat="42.1669617" lon="14.6513967"><ele>26.666666666666664</ele><time>2026-04-14T08:23:32.866Z</time></trkpt><trkpt lat="42.1668867" lon="14.6513617"><ele>27.0</ele><time>2026-04-14T08:23:34.867Z</time></trkpt><trkpt lat="42.1668133" lon="14.651325"><ele>27.333333333333336</ele><time>2026-04-14T08:23:36.867Z</time></trkpt><trkpt lat="42.1667233" lon="14.6512933"><ele>27.666666666666668</ele><time>2026-04-14T08:23:38.866Z</time></trkpt><trkpt lat="42.1666383" lon="14.651255"><ele>28.0</ele><time>2026-04-14T08:23:40.867Z</time></trkpt><trkpt lat="42.1665517" lon="14.6512083"><ele>28.333333333333336</ele><time>2026-04-14T08:23:42.867Z</time></trkpt><trkpt lat="42.1664683" lon="14.651165"><ele>28.666666666666668</ele><time>2026-04-14T08:23:44.866Z</time></trkpt><trkpt lat="42.16639" lon="14.6511217"><ele>29.0</ele><time>2026-04-14T08:23:46.867Z</time></trkpt><trkpt lat="42.1663067" lon="14.65108"><ele>29.333333333333336</ele><time>2026-04-14T08:23:48.866Z</time></trkpt><trkpt lat="42.1662283" lon="14.6510417"><ele>29.666666666666668</ele><time>2026-04-14T08:23:50.867Z</time></trkpt><trkpt lat="42.1661517" lon="14.651015"><ele>30.0</ele><time>2026-04-14T08:23:52.867Z</time></trkpt><trkpt lat="42.1660567" lon="14.6510083"><ele>28.0</ele><time>2026-04-14T08:23:54.867Z</time></trkpt><trkpt lat="42.1659617" lon="14.651015"><ele>26.0</ele><time>2026-04-14T08:23:56.867Z</time></trkpt><trkpt lat="42.16587" lon="14.651025"><ele>24.0</ele><time>2026-04-14T08:23:58.867Z</time></trkpt><trkpt lat="42.1657783" lon="14.6510433"><ele>22.0</ele><time>2026-04-14T08:24:00.867Z</time></trkpt><trkpt lat="42.1656917" lon="14.6510583"><ele>20.0</ele><time>2026-04-14T08:24:02.867Z</time></trkpt><trkpt lat="42.1656067" lon="14.6510617"><ele>19.833333333333336</ele><time>2026-04-14T08:24:04.866Z</time></trkpt><trkpt lat="42.1655267" lon="14.65106"><ele>19.666666666666668</ele><time>2026-04-14T08:24:06.866Z</time></trkpt><trkpt lat="42.16546" lon="14.6510617"><ele>19.5</ele><time>2026-04-14T08:24:08.867Z</time></trkpt><trkpt lat="42.16536" lon="14.6510567"><ele>19.333333333333332</ele><time>2026-04-14T08:30:17.866Z</time></trkpt><trkpt lat="42.1652767" lon="14.6510467"><ele>19.166666666666664</ele><time>2026-04-14T08:30:20.867Z</time></trkpt><trkpt lat="42.1652117" lon="14.651055"><ele>19.0</ele><time>2026-04-14T08:30:22.867Z</time></trkpt><trkpt lat="42.1651383" lon="14.6510633"><ele>19.0</ele><time>2026-04-14T08:30:24.867Z</time></trkpt><trkpt lat="42.1650683" lon="14.6510667"><ele>19.0</ele><time>2026-04-14T08:30:26.867Z</time></trkpt><trkpt lat="42.1649967" lon="14.6510633"><ele>19.0</ele><time>2026-04-14T08:30:28.867Z</time></trkpt><trkpt lat="42.1649133" lon="14.651055"><ele>19.0</ele><time>2026-04-14T08:30:30.867Z</time></trkpt><trkpt lat="42.1648383" lon="14.6510367"><ele>19.0</ele><time>2026-04-14T08:30:32.866Z</time></trkpt><trkpt lat="42.1647667" lon="14.65101"><ele>19.0</ele><time>2026-04-14T08:30:34.867Z</time></trkpt><trkpt lat="42.1647" lon="14.6509683"><ele>19.0</ele><time>2026-04-14T08:30:36.866Z</time></trkpt><trkpt lat="42.1646383" lon="14.6509183"><ele>20.166666666666664</ele><time>2026-04-14T08:30:38.867Z</time></trkpt><trkpt lat="42.16458" lon="14.6508583"><ele>21.333333333333332</ele><time>2026-04-14T08:30:40.866Z</time></trkpt><trkpt lat="42.16452" lon="14.6507933"><ele>22.5</ele><time>2026-04-14T08:30:42.866Z</time></trkpt><trkpt lat="42.16446" lon="14.6507317"><ele>23.666666666666664</ele><time>2026-04-14T08:30:44.867Z</time></trkpt><trkpt lat="42.1644067" lon="14.6506633"><ele>24.833333333333332</ele><time>2026-04-14T08:30:46.867Z</time></trkpt><trkpt lat="42.1643567" lon="14.6505867"><ele>26.0</ele><time>2026-04-14T08:30:48.867Z</time></trkpt><trkpt lat="42.1643017" lon="14.6504867"><ele>25.999999999999996</ele><time>2026-04-14T08:30:51.866Z</time></trkpt><trkpt lat="42.1642533" lon="14.6503917"><ele>26.0</ele><time>2026-04-14T08:30:54.867Z</time></trkpt><trkpt lat="42.1642217" lon="14.6502967"><ele>26.0</ele><time>2026-04-14T08:30:57.867Z</time></trkpt><trkpt lat="42.1642" lon="14.650205"><ele>26.0</ele><time>2026-04-14T08:31:00.867Z</time></trkpt><trkpt lat="42.1641433" lon="14.6501567"><ele>25.999999999999996</ele><time>2026-04-14T08:32:17.367Z</time></trkpt><trkpt lat="42.1641383" lon="14.6500517"><ele>26.0</ele><time>2026-04-14T08:32:21.867Z</time></trkpt><trkpt lat="42.1641383" lon="14.6499483"><ele>25.428571428571427</ele><time>2026-04-14T08:32:24.867Z</time></trkpt><trkpt lat="42.1641467" lon="14.6498633"><ele>24.857142857142858</ele><time>2026-04-14T08:32:26.866Z</time></trkpt><trkpt lat="42.1641433" lon="14.6497783"><ele>24.285714285714285</ele><time>2026-04-14T08:32:28.867Z</time></trkpt><trkpt lat="42.16414" lon="14.64969"><ele>23.714285714285715</ele><time>2026-04-14T08:32:30.867Z</time></trkpt><trkpt lat="42.1641317" lon="14.6495883"><ele>23.142857142857142</ele><time>2026-04-14T08:32:32.866Z</time></trkpt><trkpt lat="42.16413" lon="14.649475"><ele>22.571428571428573</ele><time>2026-04-14T08:32:34.866Z</time></trkpt><trkpt lat="42.1641283" lon="14.6493717"><ele>22.0</ele><time>2026-04-14T08:32:36.867Z</time></trkpt><trkpt lat="42.1641267" lon="14.6492783"><ele>22.0</ele><time>2026-04-14T08:32:38.867Z</time></trkpt><trkpt lat="42.1641233" lon="14.6491783"><ele>22.0</ele><time>2026-04-14T08:32:40.866Z</time></trkpt><trkpt lat="42.1641167" lon="14.6490817"><ele>22.0</ele><time>2026-04-14T08:32:42.866Z</time></trkpt><trkpt lat="42.164105" lon="14.648995"><ele>22.0</ele><time>2026-04-14T08:32:44.866Z</time></trkpt><trkpt lat="42.1640917" lon="14.6489083"><ele>22.0</ele><time>2026-04-14T08:32:46.866Z</time></trkpt><trkpt lat="42.16407" lon="14.6488167"><ele>22.0</ele><time>2026-04-14T08:32:48.866Z</time></trkpt><trkpt lat="42.164045" lon="14.6487267"><ele>22.0</ele><time>2026-04-14T08:32:50.867Z</time></trkpt><trkpt lat="42.1640217" lon="14.648635"><ele>22.0</ele><time>2026-04-14T08:32:52.867Z</time></trkpt><trkpt lat="42.1639967" lon="14.648545"><ele>22.0</ele><time>2026-04-14T08:32:54.866Z</time></trkpt><trkpt lat="42.1639717" lon="14.6484667"><ele>22.0</ele><time>2026-04-14T08:32:56.867Z</time></trkpt><trkpt lat="42.1639383" lon="14.6483533"><ele>22.0</ele><time>2026-04-14T08:32:59.867Z</time></trkpt><trkpt lat="42.163915" lon="14.6482667"><ele>22.0</ele><time>2026-04-14T08:33:01.867Z</time></trkpt><trkpt lat="42.1638983" lon="14.64818"><ele>22.0</ele><time>2026-04-14T08:33:03.867Z</time></trkpt><trkpt lat="42.1638883" lon="14.648085"><ele>22.0</ele><time>2026-04-14T08:33:05.866Z</time></trkpt><trkpt lat="42.1638933" lon="14.6479917"><ele>22.0</ele><time>2026-04-14T08:33:07.867Z</time></trkpt><trkpt lat="42.1638983" lon="14.6478883"><ele>22.0</ele><time>2026-04-14T08:33:09.866Z</time></trkpt><trkpt lat="42.1639083" lon="14.64778"><ele>22.0</ele><time>2026-04-14T08:33:11.866Z</time></trkpt><trkpt lat="42.16392" lon="14.64766"><ele>22.0</ele><time>2026-04-14T08:33:13.867Z</time></trkpt><trkpt lat="42.1639333" lon="14.6475283"><ele>22.0</ele><time>2026-04-14T08:33:15.867Z</time></trkpt><trkpt lat="42.1639433" lon="14.6473933"><ele>22.0</ele><time>2026-04-14T08:33:17.866Z</time></trkpt><trkpt lat="42.1639583" lon="14.6472517"><ele>21.6</ele><time>2026-04-14T08:33:19.867Z</time></trkpt><trkpt lat="42.1639733" lon="14.647105"><ele>21.200000000000003</ele><time>2026-04-14T08:33:21.867Z</time></trkpt><trkpt lat="42.1639883" lon="14.64696"><ele>20.8</ele><time>2026-04-14T08:33:23.867Z</time></trkpt><trkpt lat="42.164" lon="14.6468183"><ele>20.4</ele><time>2026-04-14T08:33:25.867Z</time></trkpt><trkpt lat="42.1640133" lon="14.6466717"><ele>20.0</ele><time>2026-04-14T08:33:27.867Z</time></trkpt><trkpt lat="42.164025" lon="14.6465233"><ele>20.0</ele><time>2026-04-14T08:33:29.867Z</time></trkpt><trkpt lat="42.164035" lon="14.646375"><ele>20.0</ele><time>2026-04-14T08:33:31.866Z</time></trkpt><trkpt lat="42.1640367" lon="14.6462233"><ele>20.0</ele><time>2026-04-14T08:33:33.867Z</time></trkpt><trkpt lat="42.1640383" lon="14.646065"><ele>20.0</ele><time>2026-04-14T08:33:35.867Z</time></trkpt><trkpt lat="42.1640383" lon="14.645905"><ele>19.75</ele><time>2026-04-14T08:33:37.866Z</time></trkpt><trkpt lat="42.1640367" lon="14.6457467"><ele>19.5</ele><time>2026-04-14T08:33:39.867Z</time></trkpt><trkpt lat="42.164035" lon="14.6455917"><ele>19.25</ele><time>2026-04-14T08:33:41.866Z</time></trkpt><trkpt lat="42.1640333" lon="14.64543"><ele>19.0</ele><time>2026-04-14T08:33:43.866Z</time></trkpt><trkpt lat="42.1640283" lon="14.6452717"><ele>18.5</ele><time>2026-04-14T08:33:45.867Z</time></trkpt><trkpt lat="42.1640233" lon="14.6451167"><ele>18.0</ele><time>2026-04-14T08:33:47.867Z</time></trkpt><trkpt lat="42.1640167" lon="14.6449633"><ele>17.5</ele><time>2026-04-14T08:33:49.866Z</time></trkpt><trkpt lat="42.1640117" lon="14.6448117"><ele>17.0</ele><time>2026-04-14T08:33:51.866Z</time></trkpt><trkpt lat="42.1640067" lon="14.64466"><ele>17.0</ele><time>2026-04-14T08:33:53.867Z</time></trkpt><trkpt lat="42.164" lon="14.6445033"><ele>17.0</ele><time>2026-04-14T08:33:55.867Z</time></trkpt><trkpt lat="42.1639933" lon="14.6443517"><ele>17.0</ele><time>2026-04-14T08:33:57.866Z</time></trkpt><trkpt lat="42.1639883" lon="14.6442"><ele>17.0</ele><time>2026-04-14T08:33:59.867Z</time></trkpt><trkpt lat="42.1639833" lon="14.6440483"><ele>17.0</ele><time>2026-04-14T08:34:01.867Z</time></trkpt><trkpt lat="42.1639767" lon="14.6438967"><ele>17.0</ele><time>2026-04-14T08:34:03.867Z</time></trkpt><trkpt lat="42.16397" lon="14.64375"><ele>17.0</ele><time>2026-04-14T08:34:05.867Z</time></trkpt><trkpt lat="42.163965" lon="14.6436067"><ele>17.0</ele><time>2026-04-14T08:34:07.866Z</time></trkpt><trkpt lat="42.16396" lon="14.6434667"><ele>17.0</ele><time>2026-04-14T08:34:09.866Z</time></trkpt><trkpt lat="42.1639567" lon="14.6433333"><ele>17.6</ele><time>2026-04-14T08:34:11.867Z</time></trkpt><trkpt lat="42.1639517" lon="14.64321"><ele>18.2</ele><time>2026-04-14T08:34:13.867Z</time></trkpt><trkpt lat="42.163955" lon="14.64308"><ele>18.8</ele><time>2026-04-14T08:34:15.867Z</time></trkpt><trkpt lat="42.1639567" lon="14.64295"><ele>19.4</ele><time>2026-04-14T08:34:17.867Z</time></trkpt><trkpt lat="42.1639583" lon="14.642815"><ele>20.0</ele><time>2026-04-14T08:34:19.866Z</time></trkpt><trkpt lat="42.1639567" lon="14.6426767"><ele>20.0</ele><time>2026-04-14T08:34:21.866Z</time></trkpt><trkpt lat="42.1639583" lon="14.6425383"><ele>20.0</ele><time>2026-04-14T08:34:23.867Z</time></trkpt><trkpt lat="42.163955" lon="14.6424033"><ele>20.0</ele><time>2026-04-14T08:34:25.867Z</time></trkpt><trkpt lat="42.1639517" lon="14.6422683"><ele>20.0</ele><time>2026-04-14T08:34:27.866Z</time></trkpt><trkpt lat="42.1639517" lon="14.642135"><ele>20.0</ele><time>2026-04-14T08:34:29.867Z</time></trkpt><trkpt lat="42.163955" lon="14.6419967"><ele>20.0</ele><time>2026-04-14T08:34:31.867Z</time></trkpt><trkpt lat="42.163965" lon="14.641855"><ele>20.0</ele><time>2026-04-14T08:34:33.867Z</time></trkpt><trkpt lat="42.1639767" lon="14.6417167"><ele>20.0</ele><time>2026-04-14T08:34:35.866Z</time></trkpt><trkpt lat="42.163995" lon="14.6415883"><ele>20.0</ele><time>2026-04-14T08:34:37.867Z</time></trkpt><trkpt lat="42.1640283" lon="14.6414617"><ele>20.0</ele><time>2026-04-14T08:34:39.867Z</time></trkpt><trkpt lat="42.16407" lon="14.6413467"><ele>20.0</ele><time>2026-04-14T08:34:41.866Z</time></trkpt><trkpt lat="42.1641333" lon="14.6412567"><ele>20.0</ele><time>2026-04-14T08:34:43.867Z</time></trkpt><trkpt lat="42.16421" lon="14.6411717"><ele>20.0</ele><time>2026-04-14T08:34:45.867Z</time></trkpt><trkpt lat="42.1642767" lon="14.6410733"><ele>20.0</ele><time>2026-04-14T08:34:47.866Z</time></trkpt><trkpt lat="42.1643267" lon="14.6409583"><ele>20.0</ele><time>2026-04-14T08:34:49.866Z</time></trkpt><trkpt lat="42.16438" lon="14.64084"><ele>20.0</ele><time>2026-04-14T08:34:51.866Z</time></trkpt><trkpt lat="42.1644633" lon="14.6407583"><ele>20.0</ele><time>2026-04-14T08:34:53.867Z</time></trkpt><trkpt lat="42.1645617" lon="14.6407083"><ele>20.0</ele><time>2026-04-14T08:34:55.866Z</time></trkpt><trkpt lat="42.16466" lon="14.6406583"><ele>20.0</ele><time>2026-04-14T08:34:57.866Z</time></trkpt><trkpt lat="42.1647617" lon="14.6406067"><ele>20.0</ele><time>2026-04-14T08:34:59.866Z</time></trkpt><trkpt lat="42.1648633" lon="14.6405567"><ele>19.8</ele><time>2026-04-14T08:35:01.866Z</time></trkpt><trkpt lat="42.164965" lon="14.6405133"><ele>19.6</ele><time>2026-04-14T08:35:03.867Z</time></trkpt><trkpt lat="42.1650633" lon="14.6404817"><ele>19.4</ele><time>2026-04-14T08:35:05.866Z</time></trkpt><trkpt lat="42.165165" lon="14.6404533"><ele>19.2</ele><time>2026-04-14T08:35:07.866Z</time></trkpt><trkpt lat="42.1652633" lon="14.6404283"><ele>19.0</ele><time>2026-04-14T08:35:09.867Z</time></trkpt><trkpt lat="42.1653617" lon="14.6404067"><ele>19.0</ele><time>2026-04-14T08:35:11.867Z</time></trkpt><trkpt lat="42.165455" lon="14.640385"><ele>19.0</ele><time>2026-04-14T08:35:13.867Z</time></trkpt><trkpt lat="42.1655283" lon="14.6403783"><ele>19.0</ele><time>2026-04-14T08:35:15.866Z</time></trkpt><trkpt lat="42.1655567" lon="14.64051"><ele>19.0</ele><time>2026-04-14T08:35:18.866Z</time></trkpt><trkpt lat="42.1655517" lon="14.6406517"><ele>19.0</ele><time>2026-04-14T08:35:20.866Z</time></trkpt><trkpt lat="42.16556" lon="14.6407817"><ele>19.0</ele><time>2026-04-14T08:35:22.866Z</time></trkpt><trkpt lat="42.16559" lon="14.6408967"><ele>19.0</ele><time>2026-04-14T08:35:24.867Z</time></trkpt><trkpt lat="42.1656667" lon="14.64095"><ele>19.0</ele><time>2026-04-14T08:35:26.866Z</time></trkpt><trkpt lat="42.1657633" lon="14.6409733"><ele>19.0</ele><time>2026-04-14T08:35:28.867Z</time></trkpt><trkpt lat="42.1658667" lon="14.640985"><ele>19.0</ele><time>2026-04-14T08:35:30.867Z</time></trkpt><trkpt lat="42.1659717" lon="14.6409983"><ele>18.599999999999998</ele><time>2026-04-14T08:35:32.867Z</time></trkpt><trkpt lat="42.166075" lon="14.641005"><ele>18.2</ele><time>2026-04-14T08:35:34.866Z</time></trkpt><trkpt lat="42.166175" lon="14.6409983"><ele>17.799999999999997</ele><time>2026-04-14T08:35:36.867Z</time></trkpt><trkpt lat="42.166275" lon="14.6409883"><ele>17.4</ele><time>2026-04-14T08:35:38.867Z</time></trkpt><trkpt lat="42.166375" lon="14.6409783"><ele>17.0</ele><time>2026-04-14T08:35:40.867Z</time></trkpt><trkpt lat="42.166475" lon="14.6409617"><ele>17.0</ele><time>2026-04-14T08:35:42.867Z</time></trkpt><trkpt lat="42.1665717" lon="14.6409483"><ele>17.0</ele><time>2026-04-14T08:35:44.867Z</time></trkpt><trkpt lat="42.1666667" lon="14.6409283"><ele>17.0</ele><time>2026-04-14T08:35:46.867Z</time></trkpt><trkpt lat="42.1667583" lon="14.6409117"><ele>17.0</ele><time>2026-04-14T08:35:48.867Z</time></trkpt><trkpt lat="42.1668467" lon="14.6409"><ele>17.0</ele><time>2026-04-14T08:35:50.866Z</time></trkpt><trkpt lat="42.1669267" lon="14.6408883"><ele>16.999999999999996</ele><time>2026-04-14T08:35:52.867Z</time></trkpt><trkpt lat="42.1669967" lon="14.6408767"><ele>17.0</ele><time>2026-04-14T08:35:54.867Z</time></trkpt><trkpt lat="42.1670633" lon="14.6408717"><ele>17.0</ele><time>2026-04-14T08:35:56.866Z</time></trkpt><trkpt lat="42.1671267" lon="14.6408733"><ele>17.0</ele><time>2026-04-14T08:35:58.867Z</time></trkpt><trkpt lat="42.1672167" lon="14.64085"><ele>17.0</ele><time>2026-04-14T08:36:01.867Z</time></trkpt><trkpt lat="42.1672817" lon="14.640845"><ele>16.999999999999996</ele><time>2026-04-14T08:36:03.867Z</time></trkpt><trkpt lat="42.1673483" lon="14.6408317"><ele>17.0</ele><time>2026-04-14T08:36:05.866Z</time></trkpt><trkpt lat="42.1674183" lon="14.64082"><ele>17.0</ele><time>2026-04-14T08:36:07.867Z</time></trkpt><trkpt lat="42.167495" lon="14.6408083"><ele>17.0</ele><time>2026-04-14T08:36:09.866Z</time></trkpt><trkpt lat="42.1675717" lon="14.640795"><ele>17.0</ele><time>2026-04-14T08:36:11.867Z</time></trkpt><trkpt lat="42.1676467" lon="14.6407833"><ele>17.0</ele><time>2026-04-14T08:36:13.867Z</time></trkpt><trkpt lat="42.16772" lon="14.64077"><ele>17.0</ele><time>2026-04-14T08:36:15.867Z</time></trkpt><trkpt lat="42.1677967" lon="14.6407633"><ele>17.0</ele><time>2026-04-14T08:36:17.867Z</time></trkpt><trkpt lat="42.16787" lon="14.6407567"><ele>17.0</ele><time>2026-04-14T08:36:19.866Z</time></trkpt><trkpt lat="42.1679417" lon="14.6407517"><ele>17.0</ele><time>2026-04-14T08:36:21.867Z</time></trkpt><trkpt lat="42.16802" lon="14.6407467"><ele>17.0</ele><time>2026-04-14T08:36:23.866Z</time></trkpt><trkpt lat="42.1680967" lon="14.640755"><ele>17.0</ele><time>2026-04-14T08:36:25.867Z</time></trkpt><trkpt lat="42.168175" lon="14.6407467"><ele>17.0</ele><time>2026-04-14T08:36:27.866Z</time></trkpt><trkpt lat="42.16825" lon="14.6407383"><ele>17.0</ele><time>2026-04-14T08:36:29.867Z</time></trkpt><trkpt lat="42.1683233" lon="14.64074"><ele>16.833333333333336</ele><time>2026-04-14T08:36:31.867Z</time></trkpt><trkpt lat="42.1683983" lon="14.640735"><ele>16.666666666666668</ele><time>2026-04-14T08:36:33.867Z</time></trkpt><trkpt lat="42.168475" lon="14.6407283"><ele>16.5</ele><time>2026-04-14T08:36:35.866Z</time></trkpt><trkpt lat="42.1685567" lon="14.6407217"><ele>16.333333333333332</ele><time>2026-04-14T08:36:37.867Z</time></trkpt><trkpt lat="42.1686383" lon="14.6407133"><ele>16.166666666666664</ele><time>2026-04-14T08:36:39.867Z</time></trkpt><trkpt lat="42.16872" lon="14.64071"><ele>16.0</ele><time>2026-04-14T08:36:41.867Z</time></trkpt><trkpt lat="42.1688" lon="14.6407017"><ele>15.999999999999998</ele><time>2026-04-14T08:36:43.866Z</time></trkpt><trkpt lat="42.1688783" lon="14.6407"><ele>16.0</ele><time>2026-04-14T08:36:45.866Z</time></trkpt><trkpt lat="42.1689567" lon="14.6406983"><ele>16.0</ele><time>2026-04-14T08:36:47.867Z</time></trkpt><trkpt lat="42.169035" lon="14.6406967"><ele>16.0</ele><time>2026-04-14T08:36:49.866Z</time></trkpt><trkpt lat="42.1691117" lon="14.6407017"><ele>15.999999999999998</ele><time>2026-04-14T08:36:51.867Z</time></trkpt><trkpt lat="42.1691833" lon="14.6407017"><ele>16.0</ele><time>2026-04-14T08:36:53.867Z</time></trkpt><trkpt lat="42.169275" lon="14.6406967"><ele>15.999999999999998</ele><time>2026-04-14T08:36:56.867Z</time></trkpt><trkpt lat="42.1693267" lon="14.6407867"><ele>16.0</ele><time>2026-04-14T08:36:59.866Z</time></trkpt><trkpt lat="42.169345" lon="14.6408883"><ele>16.0</ele><time>2026-04-14T08:37:01.867Z</time></trkpt><trkpt lat="42.1693633" lon="14.6409933"><ele>16.0</ele><time>2026-04-14T08:37:03.867Z</time></trkpt><trkpt lat="42.16938" lon="14.6411"><ele>15.999999999999998</ele><time>2026-04-14T08:37:05.867Z</time></trkpt><trkpt lat="42.1693983" lon="14.6412083"><ele>16.0</ele><time>2026-04-14T08:37:07.867Z</time></trkpt><trkpt lat="42.1694217" lon="14.6413267"><ele>15.600000000000001</ele><time>2026-04-14T08:37:09.867Z</time></trkpt><trkpt lat="42.1694433" lon="14.641455"><ele>15.200000000000001</ele><time>2026-04-14T08:37:11.867Z</time></trkpt><trkpt lat="42.1694617" lon="14.641605"><ele>14.799999999999999</ele><time>2026-04-14T08:37:13.866Z</time></trkpt><trkpt lat="42.16948" lon="14.64177"><ele>14.399999999999999</ele><time>2026-04-14T08:37:15.867Z</time></trkpt><trkpt lat="42.1694867" lon="14.6418667"><ele>14.0</ele><time>2026-04-14T08:37:16.867Z</time></trkpt><trkpt lat="42.1695" lon="14.6419567"><ele>13.833333333333334</ele><time>2026-04-14T08:37:17.866Z</time></trkpt><trkpt lat="42.1695117" lon="14.6420483"><ele>13.666666666666668</ele><time>2026-04-14T08:37:18.867Z</time></trkpt><trkpt lat="42.1695317" lon="14.6422083"><ele>13.5</ele><time>2026-04-14T08:37:20.867Z</time></trkpt><trkpt lat="42.1695517" lon="14.6423383"><ele>13.333333333333332</ele><time>2026-04-14T08:37:22.867Z</time></trkpt><trkpt lat="42.169575" lon="14.6424283"><ele>13.166666666666666</ele><time>2026-04-14T08:37:24.867Z</time></trkpt><trkpt lat="42.16966" lon="14.6424433"><ele>13.0</ele><time>2026-04-14T08:37:27.867Z</time></trkpt><trkpt lat="42.1697233" lon="14.64239"><ele>12.999999999999998</ele><time>2026-04-14T08:37:29.866Z</time></trkpt><trkpt lat="42.16979" lon="14.642335"><ele>13.0</ele><time>2026-04-14T08:37:31.867Z</time></trkpt><trkpt lat="42.169855" lon="14.6422733"><ele>13.0</ele><time>2026-04-14T08:37:33.867Z</time></trkpt><trkpt lat="42.169925" lon="14.6422183"><ele>13.0</ele><time>2026-04-14T08:37:35.866Z</time></trkpt><trkpt lat="42.1699967" lon="14.6421583"><ele>12.999999999999998</ele><time>2026-04-14T08:37:37.867Z</time></trkpt><trkpt lat="42.1700683" lon="14.6421"><ele>13.0</ele><time>2026-04-14T08:37:39.867Z</time></trkpt><trkpt lat="42.17015" lon="14.6420367"><ele>12.833333333333332</ele><time>2026-04-14T08:37:41.867Z</time></trkpt><trkpt lat="42.170235" lon="14.6419767"><ele>12.666666666666666</ele><time>2026-04-14T08:37:43.866Z</time></trkpt><trkpt lat="42.1703167" lon="14.641925"><ele>12.5</ele><time>2026-04-14T08:37:45.867Z</time></trkpt><trkpt lat="42.1703933" lon="14.6418717"><ele>12.333333333333332</ele><time>2026-04-14T08:37:47.867Z</time></trkpt><trkpt lat="42.1704717" lon="14.6418183"><ele>12.166666666666666</ele><time>2026-04-14T08:37:49.866Z</time></trkpt><trkpt lat="42.1705517" lon="14.6417683"><ele>12.0</ele><time>2026-04-14T08:37:51.867Z</time></trkpt><trkpt lat="42.170635" lon="14.6417033"><ele>12.166666666666666</ele><time>2026-04-14T08:37:53.866Z</time></trkpt><trkpt lat="42.170715" lon="14.6416533"><ele>12.333333333333332</ele><time>2026-04-14T08:37:55.867Z</time></trkpt><trkpt lat="42.1707883" lon="14.64162"><ele>12.5</ele><time>2026-04-14T08:37:57.867Z</time></trkpt><trkpt lat="42.17086" lon="14.6415783"><ele>12.666666666666666</ele><time>2026-04-14T08:37:59.867Z</time></trkpt><trkpt lat="42.17094" lon="14.641525"><ele>12.833333333333332</ele><time>2026-04-14T08:38:01.867Z</time></trkpt><trkpt lat="42.1710217" lon="14.6414717"><ele>13.0</ele><time>2026-04-14T08:38:03.867Z</time></trkpt><trkpt lat="42.1711" lon="14.6414283"><ele>12.999999999999998</ele><time>2026-04-14T08:38:05.867Z</time></trkpt><trkpt lat="42.1711683" lon="14.6413883"><ele>13.0</ele><time>2026-04-14T08:38:07.866Z</time></trkpt><trkpt lat="42.1712367" lon="14.6413467"><ele>13.0</ele><time>2026-04-14T08:38:09.867Z</time></trkpt><trkpt lat="42.1713067" lon="14.6412933"><ele>13.0</ele><time>2026-04-14T08:38:11.867Z</time></trkpt><trkpt lat="42.1713733" lon="14.6412383"><ele>12.999999999999998</ele><time>2026-04-14T08:38:13.867Z</time></trkpt><trkpt lat="42.1714433" lon="14.6411917"><ele>13.0</ele><time>2026-04-14T08:38:15.867Z</time></trkpt><trkpt lat="42.1715167" lon="14.6411417"><ele>13.166666666666666</ele><time>2026-04-14T08:38:17.867Z</time></trkpt><trkpt lat="42.1715883" lon="14.6411"><ele>13.333333333333332</ele><time>2026-04-14T08:38:19.866Z</time></trkpt><trkpt lat="42.1716633" lon="14.6410533"><ele>13.5</ele><time>2026-04-14T08:38:21.867Z</time></trkpt><trkpt lat="42.171735" lon="14.6410133"><ele>13.666666666666668</ele><time>2026-04-14T08:38:23.867Z</time></trkpt><trkpt lat="42.1718033" lon="14.6409783"><ele>13.833333333333334</ele><time>2026-04-14T08:38:25.867Z</time></trkpt><trkpt lat="42.1718817" lon="14.640945"><ele>14.0</ele><time>2026-04-14T08:38:27.866Z</time></trkpt><trkpt lat="42.1719617" lon="14.6409183"><ele>14.000000000000002</ele><time>2026-04-14T08:38:29.867Z</time></trkpt><trkpt lat="42.17204" lon="14.64089"><ele>14.0</ele><time>2026-04-14T08:38:31.866Z</time></trkpt><trkpt lat="42.172125" lon="14.6408617"><ele>14.0</ele><time>2026-04-14T08:38:33.866Z</time></trkpt><trkpt lat="42.1722067" lon="14.6408283"><ele>14.0</ele><time>2026-04-14T08:38:35.866Z</time></trkpt><trkpt lat="42.1722883" lon="14.640795"><ele>14.000000000000002</ele><time>2026-04-14T08:38:37.867Z</time></trkpt><trkpt lat="42.1723683" lon="14.6407617"><ele>14.0</ele><time>2026-04-14T08:38:39.867Z</time></trkpt><trkpt lat="42.1724583" lon="14.640735"><ele>14.000000000000002</ele><time>2026-04-14T08:38:41.867Z</time></trkpt><trkpt lat="42.17254" lon="14.640725"><ele>14.0</ele><time>2026-04-14T08:38:43.867Z</time></trkpt><trkpt lat="42.1726117" lon="14.6407"><ele>14.0</ele><time>2026-04-14T08:38:45.867Z</time></trkpt><trkpt lat="42.1726833" lon="14.6406833"><ele>14.0</ele><time>2026-04-14T08:38:47.866Z</time></trkpt><trkpt lat="42.172765" lon="14.6406767"><ele>14.000000000000002</ele><time>2026-04-14T08:38:49.867Z</time></trkpt><trkpt lat="42.1728517" lon="14.6406683"><ele>14.0</ele><time>2026-04-14T08:38:51.866Z</time></trkpt><trkpt lat="42.1729417" lon="14.6406617"><ele>14.000000000000002</ele><time>2026-04-14T08:38:53.867Z</time></trkpt><trkpt lat="42.1730333" lon="14.6406633"><ele>14.0</ele><time>2026-04-14T08:38:55.867Z</time></trkpt><trkpt lat="42.1731083" lon="14.6406567"><ele>14.0</ele><time>2026-04-14T08:38:57.866Z</time></trkpt><trkpt lat="42.1731833" lon="14.6406433"><ele>14.0</ele><time>2026-04-14T08:38:59.867Z</time></trkpt><trkpt lat="42.1732667" lon="14.64064"><ele>14.000000000000002</ele><time>2026-04-14T08:39:01.866Z</time></trkpt><trkpt lat="42.1733467" lon="14.6406217"><ele>14.0</ele><time>2026-04-14T08:39:03.866Z</time></trkpt><trkpt lat="42.1734233" lon="14.64061"><ele>13.6</ele><time>2026-04-14T08:39:05.867Z</time></trkpt><trkpt lat="42.1735133" lon="14.640625"><ele>13.2</ele><time>2026-04-14T08:39:07.867Z</time></trkpt><trkpt lat="42.17361" lon="14.6406583"><ele>12.799999999999999</ele><time>2026-04-14T08:39:09.867Z</time></trkpt><trkpt lat="42.173705" lon="14.6406967"><ele>12.399999999999999</ele><time>2026-04-14T08:39:11.867Z</time></trkpt><trkpt lat="42.1737983" lon="14.6407183"><ele>12.0</ele><time>2026-04-14T08:39:13.866Z</time></trkpt><trkpt lat="42.1739" lon="14.6407383"><ele>12.0</ele><time>2026-04-14T08:39:15.866Z</time></trkpt><trkpt lat="42.173995" lon="14.64076"><ele>12.0</ele><time>2026-04-14T08:39:17.866Z</time></trkpt><trkpt lat="42.1740867" lon="14.640795"><ele>12.0</ele><time>2026-04-14T08:39:19.867Z</time></trkpt><trkpt lat="42.17418" lon="14.6408267"><ele>12.0</ele><time>2026-04-14T08:39:21.867Z</time></trkpt><trkpt lat="42.1742717" lon="14.6408483"><ele>12.0</ele><time>2026-04-14T08:39:23.866Z</time></trkpt><trkpt lat="42.174355" lon="14.6408767"><ele>11.8</ele><time>2026-04-14T08:39:25.867Z</time></trkpt><trkpt lat="42.17444" lon="14.640915"><ele>11.6</ele><time>2026-04-14T08:39:27.867Z</time></trkpt><trkpt lat="42.17453" lon="14.64096"><ele>11.4</ele><time>2026-04-14T08:39:29.867Z</time></trkpt><trkpt lat="42.1746217" lon="14.6409983"><ele>11.200000000000001</ele><time>2026-04-14T08:39:31.867Z</time></trkpt><trkpt lat="42.17471" lon="14.6410367"><ele>11.0</ele><time>2026-04-14T08:39:33.867Z</time></trkpt><trkpt lat="42.1747983" lon="14.6410817"><ele>11.200000000000001</ele><time>2026-04-14T08:39:35.867Z</time></trkpt><trkpt lat="42.1748867" lon="14.64114"><ele>11.4</ele><time>2026-04-14T08:39:37.866Z</time></trkpt><trkpt lat="42.17497" lon="14.641195"><ele>11.6</ele><time>2026-04-14T08:39:39.866Z</time></trkpt><trkpt lat="42.1750383" lon="14.6412617"><ele>11.8</ele><time>2026-04-14T08:39:41.867Z</time></trkpt><trkpt lat="42.17511" lon="14.6413267"><ele>12.0</ele><time>2026-04-14T08:39:43.867Z</time></trkpt><trkpt lat="42.1751883" lon="14.64139"><ele>12.0</ele><time>2026-04-14T08:39:45.867Z</time></trkpt><trkpt lat="42.1752667" lon="14.6414533"><ele>12.0</ele><time>2026-04-14T08:39:47.867Z</time></trkpt><trkpt lat="42.1753333" lon="14.6415167"><ele>12.0</ele><time>2026-04-14T08:39:49.866Z</time></trkpt><trkpt lat="42.175405" lon="14.641595"><ele>12.0</ele><time>2026-04-14T08:39:51.867Z</time></trkpt><trkpt lat="42.1754817" lon="14.6416733"><ele>12.0</ele><time>2026-04-14T08:39:53.867Z</time></trkpt><trkpt lat="42.1755583" lon="14.6417533"><ele>12.0</ele><time>2026-04-14T08:39:55.867Z</time></trkpt><trkpt lat="42.1756317" lon="14.64183"><ele>12.0</ele><time>2026-04-14T08:39:57.866Z</time></trkpt><trkpt lat="42.1757033" lon="14.6419117"><ele>12.0</ele><time>2026-04-14T08:39:59.867Z</time></trkpt><trkpt lat="42.17577" lon="14.642005"><ele>12.0</ele><time>2026-04-14T08:40:01.866Z</time></trkpt><trkpt lat="42.1758417" lon="14.6420917"><ele>12.0</ele><time>2026-04-14T08:40:03.867Z</time></trkpt><trkpt lat="42.17592" lon="14.64219"><ele>11.833333333333334</ele><time>2026-04-14T08:40:05.867Z</time></trkpt><trkpt lat="42.17598" lon="14.6422867"><ele>11.666666666666666</ele><time>2026-04-14T08:40:07.867Z</time></trkpt><trkpt lat="42.17603" lon="14.6423867"><ele>11.5</ele><time>2026-04-14T08:40:09.866Z</time></trkpt><trkpt lat="42.1760867" lon="14.6424867"><ele>11.333333333333332</ele><time>2026-04-14T08:40:11.867Z</time></trkpt><trkpt lat="42.17614" lon="14.6425767"><ele>11.166666666666666</ele><time>2026-04-14T08:40:13.867Z</time></trkpt><trkpt lat="42.17619" lon="14.6426617"><ele>11.0</ele><time>2026-04-14T08:40:15.866Z</time></trkpt><trkpt lat="42.1762367" lon="14.6427417"><ele>11.0</ele><time>2026-04-14T08:40:17.867Z</time></trkpt><trkpt lat="42.1762817" lon="14.6428283"><ele>11.0</ele><time>2026-04-14T08:40:19.867Z</time></trkpt><trkpt lat="42.176335" lon="14.642935"><ele>11.0</ele><time>2026-04-14T08:40:21.866Z</time></trkpt><trkpt lat="42.176395" lon="14.6430517"><ele>11.0</ele><time>2026-04-14T08:40:23.867Z</time></trkpt><trkpt lat="42.1764567" lon="14.6431717"><ele>11.0</ele><time>2026-04-14T08:40:25.866Z</time></trkpt><trkpt lat="42.176515" lon="14.6433"><ele>11.0</ele><time>2026-04-14T08:40:27.867Z</time></trkpt><trkpt lat="42.176555" lon="14.6434233"><ele>11.0</ele><time>2026-04-14T08:40:29.866Z</time></trkpt><trkpt lat="42.1765917" lon="14.6435517"><ele>11.0</ele><time>2026-04-14T08:40:31.867Z</time></trkpt><trkpt lat="42.1766333" lon="14.6436733"><ele>11.0</ele><time>2026-04-14T08:40:33.867Z</time></trkpt><trkpt lat="42.17667" lon="14.6437833"><ele>11.0</ele><time>2026-04-14T08:40:35.866Z</time></trkpt><trkpt lat="42.1767033" lon="14.6439"><ele>10.600000000000001</ele><time>2026-04-14T08:40:37.867Z</time></trkpt><trkpt lat="42.176735" lon="14.6440233"><ele>10.200000000000001</ele><time>2026-04-14T08:40:39.866Z</time></trkpt><trkpt lat="42.1767583" lon="14.6441467"><ele>9.8</ele><time>2026-04-14T08:40:41.866Z</time></trkpt><trkpt lat="42.1767933" lon="14.6442667"><ele>9.4</ele><time>2026-04-14T08:40:43.867Z</time></trkpt><trkpt lat="42.176835" lon="14.6443867"><ele>9.0</ele><time>2026-04-14T08:40:45.866Z</time></trkpt><trkpt lat="42.1768733" lon="14.6445067"><ele>8.8</ele><time>2026-04-14T08:40:47.867Z</time></trkpt><trkpt lat="42.1769167" lon="14.6446233"><ele>8.600000000000001</ele><time>2026-04-14T08:40:49.867Z</time></trkpt><trkpt lat="42.1769533" lon="14.644745"><ele>8.4</ele><time>2026-04-14T08:40:51.867Z</time></trkpt><trkpt lat="42.176985" lon="14.644865"><ele>8.200000000000001</ele><time>2026-04-14T08:40:53.867Z</time></trkpt><trkpt lat="42.177015" lon="14.6449867"><ele>8.0</ele><time>2026-04-14T08:40:55.867Z</time></trkpt><trkpt lat="42.1770417" lon="14.6451133"><ele>8.0</ele><time>2026-04-14T08:40:57.867Z</time></trkpt><trkpt lat="42.177075" lon="14.6452333"><ele>8.0</ele><time>2026-04-14T08:40:59.867Z</time></trkpt><trkpt lat="42.177105" lon="14.64535"><ele>8.0</ele><time>2026-04-14T08:41:01.867Z</time></trkpt><trkpt lat="42.177135" lon="14.6454633"><ele>8.0</ele><time>2026-04-14T08:41:03.867Z</time></trkpt><trkpt lat="42.177165" lon="14.6455717"><ele>8.0</ele><time>2026-04-14T08:41:05.866Z</time></trkpt><trkpt lat="42.1771967" lon="14.6456833"><ele>7.833333333333333</ele><time>2026-04-14T08:41:07.866Z</time></trkpt><trkpt lat="42.1772333" lon="14.6458"><ele>7.666666666666666</ele><time>2026-04-14T08:41:09.867Z</time></trkpt><trkpt lat="42.1772733" lon="14.6458917"><ele>7.5</ele><time>2026-04-14T08:41:11.867Z</time></trkpt><trkpt lat="42.1773117" lon="14.645975"><ele>7.333333333333334</ele><time>2026-04-14T08:41:13.867Z</time></trkpt><trkpt lat="42.177365" lon="14.646065"><ele>7.166666666666667</ele><time>2026-04-14T08:41:15.866Z</time></trkpt><trkpt lat="42.1774183" lon="14.64615"><ele>7.0</ele><time>2026-04-14T08:41:17.867Z</time></trkpt><trkpt lat="42.177475" lon="14.64625"><ele>6.857142857142857</ele><time>2026-04-14T08:41:19.867Z</time></trkpt><trkpt lat="42.1775383" lon="14.6463383"><ele>6.714285714285714</ele><time>2026-04-14T08:41:21.867Z</time></trkpt><trkpt lat="42.1775933" lon="14.6463883"><ele>6.571428571428571</ele><time>2026-04-14T08:41:23.867Z</time></trkpt><trkpt lat="42.1776567" lon="14.6464283"><ele>6.428571428571429</ele><time>2026-04-14T08:41:26.867Z</time></trkpt><trkpt lat="42.1777183" lon="14.646455"><ele>6.285714285714286</ele><time>2026-04-14T08:41:29.866Z</time></trkpt><trkpt lat="42.177795" lon="14.6464983"><ele>6.142857142857142</ele><time>2026-04-14T08:41:34.866Z</time></trkpt><trkpt lat="42.17786" lon="14.64654"><ele>6.0</ele><time>2026-04-14T08:41:37.866Z</time></trkpt><trkpt lat="42.177945" lon="14.6465933"><ele>6.0</ele><time>2026-04-14T08:41:40.867Z</time></trkpt><trkpt lat="42.17801" lon="14.6466217"><ele>6.0</ele><time>2026-04-14T08:41:42.866Z</time></trkpt><trkpt lat="42.17809" lon="14.6466333"><ele>6.0</ele><time>2026-04-14T08:41:44.867Z</time></trkpt><trkpt lat="42.1781683" lon="14.6466633"><ele>6.0</ele><time>2026-04-14T08:41:46.867Z</time></trkpt><trkpt lat="42.17825" lon="14.6466883"><ele>6.0</ele><time>2026-04-14T08:41:48.867Z</time></trkpt><trkpt lat="42.1783283" lon="14.64671"><ele>6.0</ele><time>2026-04-14T08:41:50.867Z</time></trkpt><trkpt lat="42.1784067" lon="14.646735"><ele>6.166666666666667</ele><time>2026-04-14T08:41:52.866Z</time></trkpt><trkpt lat="42.1784917" lon="14.646765"><ele>6.333333333333334</ele><time>2026-04-14T08:41:55.867Z</time></trkpt><trkpt lat="42.1785683" lon="14.64678"><ele>6.5</ele><time>2026-04-14T08:41:58.867Z</time></trkpt><trkpt lat="42.1786533" lon="14.6467983"><ele>6.666666666666667</ele><time>2026-04-14T08:42:01.867Z</time></trkpt><trkpt lat="42.1787167" lon="14.646815"><ele>6.833333333333334</ele><time>2026-04-14T08:42:03.867Z</time></trkpt><trkpt lat="42.1787883" lon="14.6468433"><ele>7.0</ele><time>2026-04-14T08:42:05.867Z</time></trkpt><trkpt lat="42.1788583" lon="14.6468717"><ele>7.0</ele><time>2026-04-14T08:42:07.867Z</time></trkpt><trkpt lat="42.1789267" lon="14.6469183"><ele>7.0</ele><time>2026-04-14T08:42:09.866Z</time></trkpt><trkpt lat="42.17899" lon="14.6469483"><ele>7.0</ele><time>2026-04-14T08:42:11.866Z</time></trkpt><trkpt lat="42.1790567" lon="14.6469783"><ele>7.0</ele><time>2026-04-14T08:42:13.866Z</time></trkpt><trkpt lat="42.179125" lon="14.6470067"><ele>7.0</ele><time>2026-04-14T08:42:15.866Z</time></trkpt><trkpt lat="42.1792" lon="14.6470367"><ele>7.0</ele><time>2026-04-14T08:42:19.867Z</time></trkpt><trkpt lat="42.17926" lon="14.6470733"><ele>7.0</ele><time>2026-04-14T08:42:23.866Z</time></trkpt><trkpt lat="42.1793267" lon="14.6471083"><ele>6.833333333333334</ele><time>2026-04-14T08:42:26.866Z</time></trkpt><trkpt lat="42.179385" lon="14.6471417"><ele>6.666666666666667</ele><time>2026-04-14T08:42:28.867Z</time></trkpt><trkpt lat="42.1794467" lon="14.647185"><ele>6.5</ele><time>2026-04-14T08:42:30.867Z</time></trkpt><trkpt lat="42.179515" lon="14.6472367"><ele>6.333333333333334</ele><time>2026-04-14T08:42:32.867Z</time></trkpt><trkpt lat="42.1795867" lon="14.6472917"><ele>6.166666666666667</ele><time>2026-04-14T08:42:34.867Z</time></trkpt><trkpt lat="42.179655" lon="14.6473483"><ele>6.0</ele><time>2026-04-14T08:42:36.866Z</time></trkpt><trkpt lat="42.1797317" lon="14.647405"><ele>6.0</ele><time>2026-04-14T08:42:38.867Z</time></trkpt><trkpt lat="42.179795" lon="14.6474583"><ele>6.0</ele><time>2026-04-14T08:42:40.867Z</time></trkpt><trkpt lat="42.1798533" lon="14.6475183"><ele>6.0</ele><time>2026-04-14T08:42:43.866Z</time></trkpt><trkpt lat="42.1799133" lon="14.6475633"><ele>6.0</ele><time>2026-04-14T08:42:48.866Z</time></trkpt><trkpt lat="42.1799733" lon="14.6476167"><ele>6.0</ele><time>2026-04-14T08:42:52.867Z</time></trkpt><trkpt lat="42.1800333" lon="14.647685"><ele>6.0</ele><time>2026-04-14T08:42:55.866Z</time></trkpt><trkpt lat="42.1801083" lon="14.64776"><ele>6.142857142857142</ele><time>2026-04-14T08:42:58.867Z</time></trkpt><trkpt lat="42.18017" lon="14.64784"><ele>6.285714285714286</ele><time>2026-04-14T08:43:01.867Z</time></trkpt><trkpt lat="42.18021" lon="14.6479133"><ele>6.428571428571429</ele><time>2026-04-14T08:43:04.867Z</time></trkpt><trkpt lat="42.18026" lon="14.647975"><ele>6.571428571428571</ele><time>2026-04-14T08:43:07.867Z</time></trkpt><trkpt lat="42.1803167" lon="14.6480417"><ele>6.714285714285714</ele><time>2026-04-14T08:43:11.867Z</time></trkpt><trkpt lat="42.180365" lon="14.6481117"><ele>6.857142857142857</ele><time>2026-04-14T08:43:14.867Z</time></trkpt><trkpt lat="42.180405" lon="14.6481783"><ele>7.0</ele><time>2026-04-14T08:43:16.866Z</time></trkpt><trkpt lat="42.1804667" lon="14.6482733"><ele>7.000000000000001</ele><time>2026-04-14T08:43:19.867Z</time></trkpt><trkpt lat="42.1805133" lon="14.6483483"><ele>7.0</ele><time>2026-04-14T08:43:21.867Z</time></trkpt><trkpt lat="42.180555" lon="14.6484183"><ele>7.0</ele><time>2026-04-14T08:43:23.867Z</time></trkpt><trkpt lat="42.1805967" lon="14.648495"><ele>7.0</ele><time>2026-04-14T08:43:25.867Z</time></trkpt><trkpt lat="42.1806483" lon="14.6485833"><ele>7.000000000000001</ele><time>2026-04-14T08:43:27.866Z</time></trkpt><trkpt lat="42.1806933" lon="14.6486667"><ele>7.0</ele><time>2026-04-14T08:43:29.867Z</time></trkpt><trkpt lat="42.1807467" lon="14.64875"><ele>6.833333333333334</ele><time>2026-04-14T08:43:31.867Z</time></trkpt><trkpt lat="42.1808017" lon="14.6488317"><ele>6.666666666666667</ele><time>2026-04-14T08:43:33.866Z</time></trkpt><trkpt lat="42.18084" lon="14.648915"><ele>6.5</ele><time>2026-04-14T08:43:35.867Z</time></trkpt><trkpt lat="42.18088" lon="14.649"><ele>6.333333333333334</ele><time>2026-04-14T08:43:37.866Z</time></trkpt><trkpt lat="42.1809383" lon="14.6490867"><ele>6.166666666666667</ele><time>2026-04-14T08:43:39.867Z</time></trkpt><trkpt lat="42.1810033" lon="14.6491817"><ele>6.0</ele><time>2026-04-14T08:43:41.867Z</time></trkpt><trkpt lat="42.18106" lon="14.649275"><ele>6.0</ele><time>2026-04-14T08:43:43.866Z</time></trkpt><trkpt lat="42.18112" lon="14.6493683"><ele>6.0</ele><time>2026-04-14T08:43:45.866Z</time></trkpt><trkpt lat="42.18118" lon="14.6494567"><ele>6.0</ele><time>2026-04-14T08:43:47.867Z</time></trkpt><trkpt lat="42.181235" lon="14.649535"><ele>6.0</ele><time>2026-04-14T08:43:49.867Z</time></trkpt><trkpt lat="42.181305" lon="14.6496217"><ele>6.0</ele><time>2026-04-14T08:43:51.867Z</time></trkpt><trkpt lat="42.1813733" lon="14.6496983"><ele>6.0</ele><time>2026-04-14T08:43:53.867Z</time></trkpt><trkpt lat="42.1814617" lon="14.64977"><ele>5.8</ele><time>2026-04-14T08:43:55.867Z</time></trkpt><trkpt lat="42.1815483" lon="14.64982"><ele>5.6</ele><time>2026-04-14T08:43:57.867Z</time></trkpt><trkpt lat="42.1816333" lon="14.6498683"><ele>5.4</ele><time>2026-04-14T08:43:59.866Z</time></trkpt><trkpt lat="42.1817217" lon="14.6499183"><ele>5.2</ele><time>2026-04-14T08:44:01.867Z</time></trkpt><trkpt lat="42.181805" lon="14.6499517"><ele>5.0</ele><time>2026-04-14T08:44:03.866Z</time></trkpt><trkpt lat="42.18189" lon="14.6499717"><ele>5.0</ele><time>2026-04-14T08:44:05.866Z</time></trkpt><trkpt lat="42.1819567" lon="14.6499917"><ele>5.0</ele><time>2026-04-14T08:44:07.867Z</time></trkpt><trkpt lat="42.18203" lon="14.6500133"><ele>5.0</ele><time>2026-04-14T08:44:09.866Z</time></trkpt><trkpt lat="42.1821217" lon="14.65002"><ele>5.0</ele><time>2026-04-14T08:44:11.867Z</time></trkpt><trkpt lat="42.1822283" lon="14.6500117"><ele>5.0</ele><time>2026-04-14T08:44:13.867Z</time></trkpt><trkpt lat="42.1823383" lon="14.6500017"><ele>5.0</ele><time>2026-04-14T08:44:15.867Z</time></trkpt><trkpt lat="42.182435" lon="14.6499783"><ele>5.0</ele><time>2026-04-14T08:44:17.866Z</time></trkpt><trkpt lat="42.1825333" lon="14.64996"><ele>5.0</ele><time>2026-04-14T08:44:19.866Z</time></trkpt><trkpt lat="42.1826183" lon="14.64995"><ele>5.0</ele><time>2026-04-14T08:44:21.866Z</time></trkpt><trkpt lat="42.1826833" lon="14.6499183"><ele>5.0</ele><time>2026-04-14T08:44:23.867Z</time></trkpt><trkpt lat="42.18276" lon="14.6498583"><ele>5.0</ele><time>2026-04-14T08:44:25.867Z</time></trkpt><trkpt lat="42.182845" lon="14.6497933"><ele>5.0</ele><time>2026-04-14T08:44:27.867Z</time></trkpt><trkpt lat="42.182925" lon="14.6497217"><ele>5.0</ele><time>2026-04-14T08:44:29.867Z</time></trkpt><trkpt lat="42.1830067" lon="14.6496633"><ele>5.0</ele><time>2026-04-14T08:44:31.867Z</time></trkpt><trkpt lat="42.1830983" lon="14.6495967"><ele>5.0</ele><time>2026-04-14T08:44:33.866Z</time></trkpt><trkpt lat="42.183175" lon="14.6495183"><ele>5.0</ele><time>2026-04-14T08:44:35.867Z</time></trkpt><trkpt lat="42.183255" lon="14.649435"><ele>4.8</ele><time>2026-04-14T08:44:37.866Z</time></trkpt><trkpt lat="42.1833467" lon="14.6493533"><ele>4.6</ele><time>2026-04-14T08:44:39.866Z</time></trkpt><trkpt lat="42.183435" lon="14.649275"><ele>4.4</ele><time>2026-04-14T08:44:41.867Z</time></trkpt><trkpt lat="42.1835217" lon="14.6491983"><ele>4.2</ele><time>2026-04-14T08:44:43.867Z</time></trkpt><trkpt lat="42.1836067" lon="14.6491217"><ele>4.0</ele><time>2026-04-14T08:44:45.867Z</time></trkpt><trkpt lat="42.18369" lon="14.64905"><ele>4.0</ele><time>2026-04-14T08:44:47.867Z</time></trkpt><trkpt lat="42.183765" lon="14.6489717"><ele>4.0</ele><time>2026-04-14T08:44:49.867Z</time></trkpt><trkpt lat="42.1838483" lon="14.6488933"><ele>4.0</ele><time>2026-04-14T08:44:51.867Z</time></trkpt><trkpt lat="42.1839317" lon="14.6488133"><ele>4.0</ele><time>2026-04-14T08:44:53.867Z</time></trkpt><trkpt lat="42.1840133" lon="14.6487283"><ele>4.0</ele><time>2026-04-14T08:44:55.867Z</time></trkpt><trkpt lat="42.1840933" lon="14.648645"><ele>3.8000000000000003</ele><time>2026-04-14T08:44:57.867Z</time></trkpt><trkpt lat="42.184175" lon="14.6485567"><ele>3.6000000000000005</ele><time>2026-04-14T08:44:59.867Z</time></trkpt><trkpt lat="42.18425" lon="14.6484683"><ele>3.4</ele><time>2026-04-14T08:45:01.867Z</time></trkpt><trkpt lat="42.18433" lon="14.6483817"><ele>3.2</ele><time>2026-04-14T08:45:03.866Z</time></trkpt><trkpt lat="42.18441" lon="14.6482933"><ele>3.0</ele><time>2026-04-14T08:45:05.867Z</time></trkpt><trkpt lat="42.1845" lon="14.6482067"><ele>3.0</ele><time>2026-04-14T08:45:07.866Z</time></trkpt><trkpt lat="42.184575" lon="14.6481267"><ele>3.0</ele><time>2026-04-14T08:45:09.866Z</time></trkpt><trkpt lat="42.1846383" lon="14.6480467"><ele>3.0</ele><time>2026-04-14T08:45:11.867Z</time></trkpt><trkpt lat="42.18469" lon="14.647985"><ele>3.0</ele><time>2026-04-14T08:45:13.866Z</time></trkpt><trkpt lat="42.1847567" lon="14.6479217"><ele>3.0</ele><time>2026-04-14T08:45:17.867Z</time></trkpt><trkpt lat="42.1848283" lon="14.6478483"><ele>3.0</ele><time>2026-04-14T08:45:20.867Z</time></trkpt><trkpt lat="42.1848817" lon="14.64779"><ele>3.0</ele><time>2026-04-14T08:45:22.866Z</time></trkpt><trkpt lat="42.1849433" lon="14.647725"><ele>3.0</ele><time>2026-04-14T08:45:24.866Z</time></trkpt><trkpt lat="42.185015" lon="14.64766"><ele>3.0</ele><time>2026-04-14T08:45:26.867Z</time></trkpt><trkpt lat="42.185085" lon="14.64761"><ele>3.0</ele><time>2026-04-14T08:45:28.867Z</time></trkpt><trkpt lat="42.1851533" lon="14.647545"><ele>3.0</ele><time>2026-04-14T08:45:30.867Z</time></trkpt><trkpt lat="42.1852283" lon="14.647485"><ele>3.0</ele><time>2026-04-14T08:45:32.866Z</time></trkpt><trkpt lat="42.18531" lon="14.6474167"><ele>3.0</ele><time>2026-04-14T08:45:34.867Z</time></trkpt><trkpt lat="42.1853917" lon="14.6473483"><ele>3.0</ele><time>2026-04-14T08:45:36.867Z</time></trkpt><trkpt lat="42.185465" lon="14.6472933"><ele>3.0</ele><time>2026-04-14T08:45:38.866Z</time></trkpt><trkpt lat="42.185535" lon="14.6472417"><ele>3.0</ele><time>2026-04-14T08:45:40.867Z</time></trkpt><trkpt lat="42.185615" lon="14.6471833"><ele>3.0</ele><time>2026-04-14T08:45:42.867Z</time></trkpt><trkpt lat="42.1857017" lon="14.6471317"><ele>3.0</ele><time>2026-04-14T08:45:44.867Z</time></trkpt><trkpt lat="42.1857917" lon="14.6470767"><ele>3.0</ele><time>2026-04-14T08:45:46.867Z</time></trkpt><trkpt lat="42.185875" lon="14.647035"><ele>3.0</ele><time>2026-04-14T08:45:48.867Z</time></trkpt><trkpt lat="42.1859583" lon="14.6469983"><ele>3.0</ele><time>2026-04-14T08:45:50.866Z</time></trkpt><trkpt lat="42.1860367" lon="14.6469567"><ele>3.0</ele><time>2026-04-14T08:45:52.866Z</time></trkpt><trkpt lat="42.18611" lon="14.646925"><ele>3.0</ele><time>2026-04-14T08:45:54.867Z</time></trkpt><trkpt lat="42.1861867" lon="14.6468867"><ele>3.0</ele><time>2026-04-14T08:45:56.866Z</time></trkpt><trkpt lat="42.1862633" lon="14.6468517"><ele>3.0</ele><time>2026-04-14T08:45:58.866Z</time></trkpt><trkpt lat="42.186335" lon="14.64682"><ele>3.0</ele><time>2026-04-14T08:46:00.866Z</time></trkpt><trkpt lat="42.1864183" lon="14.6467817"><ele>3.0</ele><time>2026-04-14T08:46:03.866Z</time></trkpt><trkpt lat="42.1864933" lon="14.6467667"><ele>3.0</ele><time>2026-04-14T08:46:06.867Z</time></trkpt><trkpt lat="42.18657" lon="14.6467333"><ele>3.0</ele><time>2026-04-14T08:46:09.867Z</time></trkpt><trkpt lat="42.1866317" lon="14.64671"><ele>3.0</ele><time>2026-04-14T08:46:11.866Z</time></trkpt><trkpt lat="42.1867067" lon="14.646685"><ele>2.8333333333333335</ele><time>2026-04-14T08:46:13.867Z</time></trkpt><trkpt lat="42.1867817" lon="14.6466617"><ele>2.6666666666666665</ele><time>2026-04-14T08:46:15.867Z</time></trkpt><trkpt lat="42.186855" lon="14.6466383"><ele>2.5</ele><time>2026-04-14T08:46:17.867Z</time></trkpt><trkpt lat="42.1869267" lon="14.6466217"><ele>2.333333333333333</ele><time>2026-04-14T08:46:19.866Z</time></trkpt><trkpt lat="42.18701" lon="14.6466067"><ele>2.1666666666666665</ele><time>2026-04-14T08:46:21.867Z</time></trkpt><trkpt lat="42.1870833" lon="14.6465867"><ele>2.0</ele><time>2026-04-14T08:46:23.867Z</time></trkpt><trkpt lat="42.18714" lon="14.6465283"><ele>2.0</ele><time>2026-04-14T08:46:25.867Z</time></trkpt><trkpt lat="42.1871633" lon="14.6464467"><ele>1.9999999999999998</ele><time>2026-04-14T08:46:27.867Z</time></trkpt><trkpt lat="42.1871733" lon="14.6463533"><ele>2.0</ele><time>2026-04-14T08:46:29.866Z</time></trkpt><trkpt lat="42.1871783" lon="14.646265"><ele>2.0</ele><time>2026-04-14T08:46:31.867Z</time></trkpt><trkpt lat="42.1871883" lon="14.646175"><ele>1.9999999999999998</ele><time>2026-04-14T08:46:33.867Z</time></trkpt><trkpt lat="42.1872083" lon="14.6460883"><ele>2.0</ele><time>2026-04-14T08:46:36.867Z</time></trkpt><trkpt lat="42.18724" lon="14.6460067"><ele>2.0</ele><time>2026-04-14T08:46:40.866Z</time></trkpt><trkpt lat="42.1871967" lon="14.6460917"><ele>2.0</ele><time>2026-04-14T08:46:55.867Z</time></trkpt><trkpt lat="42.18717" lon="14.64617"><ele>1.9999999999999998</ele><time>2026-04-14T08:47:00.867Z</time></trkpt><trkpt lat="42.1872" lon="14.6460917"><ele>2.0</ele><time>2026-04-14T08:47:09.866Z</time></trkpt><trkpt lat="42.1872367" lon="14.64601"><ele>2.0</ele><time>2026-04-14T08:47:13.867Z</time></trkpt><trkpt lat="42.1872733" lon="14.64591"><ele>1.9999999999999998</ele><time>2026-04-14T08:47:17.867Z</time></trkpt><trkpt lat="42.1873033" lon="14.6458017"><ele>2.0</ele><time>2026-04-14T08:47:20.867Z</time></trkpt><trkpt lat="42.1873267" lon="14.64572"><ele>2.0</ele><time>2026-04-14T08:47:22.866Z</time></trkpt><trkpt lat="42.187355" lon="14.6456317"><ele>1.9999999999999998</ele><time>2026-04-14T08:47:24.867Z</time></trkpt><trkpt lat="42.1873833" lon="14.6455467"><ele>2.0</ele><time>2026-04-14T08:47:26.867Z</time></trkpt><trkpt lat="42.18741" lon="14.6454483"><ele>2.0</ele><time>2026-04-14T08:47:28.867Z</time></trkpt><trkpt lat="42.1874467" lon="14.6453483"><ele>2.0</ele><time>2026-04-14T08:47:30.867Z</time></trkpt><trkpt lat="42.1874717" lon="14.6452567"><ele>1.9999999999999998</ele><time>2026-04-14T08:47:32.866Z</time></trkpt><trkpt lat="42.1874933" lon="14.6451617"><ele>2.0</ele><time>2026-04-14T08:47:34.867Z</time></trkpt><trkpt lat="42.187515" lon="14.645055"><ele>2.1666666666666665</ele><time>2026-04-14T08:47:36.867Z</time></trkpt><trkpt lat="42.1875183" lon="14.644945"><ele>2.333333333333333</ele><time>2026-04-14T08:47:38.867Z</time></trkpt><trkpt lat="42.1875183" lon="14.644855"><ele>2.5</ele><time>2026-04-14T08:47:40.867Z</time></trkpt><trkpt lat="42.1875267" lon="14.6447433"><ele>2.6666666666666665</ele><time>2026-04-14T08:47:43.867Z</time></trkpt><trkpt lat="42.187605" lon="14.64471"><ele>2.8333333333333335</ele><time>2026-04-14T08:47:47.867Z</time></trkpt><trkpt lat="42.1876767" lon="14.6447167"><ele>3.0</ele><time>2026-04-14T08:47:49.866Z</time></trkpt><trkpt lat="42.1877667" lon="14.6447167"><ele>3.0</ele><time>2026-04-14T08:47:51.866Z</time></trkpt><trkpt lat="42.1878483" lon="14.6447117"><ele>3.0</ele><time>2026-04-14T08:47:53.867Z</time></trkpt><trkpt lat="42.1879267" lon="14.6447117"><ele>3.0</ele><time>2026-04-14T08:47:55.867Z</time></trkpt><trkpt lat="42.188015" lon="14.6447017"><ele>3.0</ele><time>2026-04-14T08:47:57.866Z</time></trkpt><trkpt lat="42.1880983" lon="14.6446933"><ele>3.0</ele><time>2026-04-14T08:47:59.867Z</time></trkpt><trkpt lat="42.1881833" lon="14.6447"><ele>3.0</ele><time>2026-04-14T08:48:01.867Z</time></trkpt><trkpt lat="42.1882633" lon="14.6446983"><ele>2.8333333333333335</ele><time>2026-04-14T08:48:03.867Z</time></trkpt><trkpt lat="42.1883367" lon="14.6446917"><ele>2.6666666666666665</ele><time>2026-04-14T08:48:05.867Z</time></trkpt><trkpt lat="42.1884233" lon="14.6446867"><ele>2.5</ele><time>2026-04-14T08:48:07.867Z</time></trkpt><trkpt lat="42.1885117" lon="14.64468"><ele>2.333333333333333</ele><time>2026-04-14T08:48:09.867Z</time></trkpt><trkpt lat="42.1886033" lon="14.6446817"><ele>2.1666666666666665</ele><time>2026-04-14T08:48:11.867Z</time></trkpt><trkpt lat="42.18869" lon="14.6446717"><ele>2.0</ele><time>2026-04-14T08:48:13.867Z</time></trkpt><trkpt lat="42.1887783" lon="14.6446717"><ele>1.9999999999999998</ele><time>2026-04-14T08:48:15.866Z</time></trkpt><trkpt lat="42.1888667" lon="14.6446683"><ele>2.0</ele><time>2026-04-14T08:48:17.867Z</time></trkpt><trkpt lat="42.1889567" lon="14.6446667"><ele>2.0</ele><time>2026-04-14T08:48:19.866Z</time></trkpt><trkpt lat="42.1890417" lon="14.6446667"><ele>2.0</ele><time>2026-04-14T08:48:21.866Z</time></trkpt><trkpt lat="42.1891317" lon="14.64467"><ele>1.9999999999999998</ele><time>2026-04-14T08:48:23.867Z</time></trkpt><trkpt lat="42.189225" lon="14.6446617"><ele>2.0</ele><time>2026-04-14T08:48:25.867Z</time></trkpt><trkpt lat="42.1893167" lon="14.6446483"><ele>1.8333333333333333</ele><time>2026-04-14T08:48:27.866Z</time></trkpt><trkpt lat="42.1894017" lon="14.6446233"><ele>1.6666666666666665</ele><time>2026-04-14T08:48:29.867Z</time></trkpt><trkpt lat="42.18949" lon="14.64459"><ele>1.5</ele><time>2026-04-14T08:48:31.867Z</time></trkpt><trkpt lat="42.1895717" lon="14.6445533"><ele>1.3333333333333333</ele><time>2026-04-14T08:48:33.867Z</time></trkpt><trkpt lat="42.18964" lon="14.64453"><ele>1.1666666666666665</ele><time>2026-04-14T08:48:35.867Z</time></trkpt><trkpt lat="42.189705" lon="14.6445217"><ele>1.0</ele><time>2026-04-14T08:48:37.867Z</time></trkpt><trkpt lat="42.1897833" lon="14.644545"><ele>1.3333333333333333</ele><time>2026-04-14T08:48:40.867Z</time></trkpt><trkpt lat="42.1898633" lon="14.6445717"><ele>1.6666666666666665</ele><time>2026-04-14T08:48:43.867Z</time></trkpt><trkpt lat="42.189965" lon="14.6445933"><ele>2.0</ele><time>2026-04-14T08:48:46.867Z</time></trkpt><trkpt lat="42.1900633" lon="14.64464"><ele>2.3333333333333335</ele><time>2026-04-14T08:48:47.867Z</time></trkpt><trkpt lat="42.19013" lon="14.6446517"><ele>2.6666666666666665</ele><time>2026-04-14T08:48:50.866Z</time></trkpt><trkpt lat="42.1902117" lon="14.6446283"><ele>3.0</ele><time>2026-04-14T08:48:52.867Z</time></trkpt><trkpt lat="42.19029" lon="14.6446"><ele>3.0</ele><time>2026-04-14T08:48:54.867Z</time></trkpt><trkpt lat="42.190365" lon="14.6445767"><ele>3.0</ele><time>2026-04-14T08:48:56.866Z</time></trkpt><trkpt lat="42.1904383" lon="14.6445567"><ele>3.0</ele><time>2026-04-14T08:48:58.867Z</time></trkpt><trkpt lat="42.190515" lon="14.64453"><ele>3.0</ele><time>2026-04-14T08:49:00.866Z</time></trkpt><trkpt lat="42.1905933" lon="14.6445067"><ele>3.0</ele><time>2026-04-14T08:49:02.866Z</time></trkpt><trkpt lat="42.1906783" lon="14.6444733"><ele>3.0</ele><time>2026-04-14T08:49:04.867Z</time></trkpt><trkpt lat="42.1907667" lon="14.644445"><ele>2.8333333333333335</ele><time>2026-04-14T08:49:06.866Z</time></trkpt><trkpt lat="42.1908417" lon="14.64442"><ele>2.6666666666666665</ele><time>2026-04-14T08:49:08.867Z</time></trkpt><trkpt lat="42.1909217" lon="14.6443967"><ele>2.5</ele><time>2026-04-14T08:49:10.867Z</time></trkpt><trkpt lat="42.1910033" lon="14.6443683"><ele>2.333333333333333</ele><time>2026-04-14T08:49:12.867Z</time></trkpt><trkpt lat="42.1910833" lon="14.64436"><ele>2.1666666666666665</ele><time>2026-04-14T08:49:14.866Z</time></trkpt><trkpt lat="42.1911767" lon="14.6443867"><ele>2.0</ele><time>2026-04-14T08:49:16.867Z</time></trkpt><trkpt lat="42.191265" lon="14.6444217"><ele>1.9999999999999998</ele><time>2026-04-14T08:49:18.867Z</time></trkpt><trkpt lat="42.191345" lon="14.6444517"><ele>2.0</ele><time>2026-04-14T08:49:20.866Z</time></trkpt><trkpt lat="42.191425" lon="14.644485"><ele>2.0</ele><time>2026-04-14T08:49:22.867Z</time></trkpt><trkpt lat="42.1915017" lon="14.64455"><ele>2.0</ele><time>2026-04-14T08:49:24.867Z</time></trkpt><trkpt lat="42.1915783" lon="14.6446083"><ele>1.9999999999999998</ele><time>2026-04-14T08:49:26.867Z</time></trkpt><trkpt lat="42.1916583" lon="14.6446533"><ele>2.0</ele><time>2026-04-14T08:49:28.867Z</time></trkpt><trkpt lat="42.1917217" lon="14.6446983"><ele>1.9999999999999998</ele><time>2026-04-14T08:49:30.866Z</time></trkpt><trkpt lat="42.19178" lon="14.6447383"><ele>2.0</ele><time>2026-04-14T08:49:32.866Z</time></trkpt><trkpt lat="42.1918317" lon="14.6448117"><ele>2.0</ele><time>2026-04-14T08:49:35.867Z</time></trkpt><trkpt lat="42.19182" lon="14.6449033"><ele>2.0</ele><time>2026-04-14T08:49:39.867Z</time></trkpt><trkpt lat="42.191855" lon="14.6448317"><ele>1.9999999999999998</ele><time>2026-04-14T08:49:45.867Z</time></trkpt><trkpt lat="42.1919433" lon="14.6446567"><ele>2.0</ele><time>2026-04-14T08:50:50.868Z</time></trkpt><trkpt lat="42.1919017" lon="14.644725"><ele>1.9999999999999998</ele><time>2026-04-14T08:50:51.868Z</time></trkpt><trkpt lat="42.191835" lon="14.644715"><ele>2.0</ele><time>2026-04-14T08:54:40.865Z</time></trkpt><trkpt lat="42.19185" lon="14.6446017"><ele>2.0</ele><time>2026-04-14T08:55:35.865Z</time></trkpt><trkpt lat="42.1918667" lon="14.6445033"><ele>2.0</ele><time>2026-04-14T08:55:37.865Z</time></trkpt><trkpt lat="42.1918883" lon="14.64437"><ele>1.9999999999999998</ele><time>2026-04-14T08:55:39.864Z</time></trkpt><trkpt lat="42.191915" lon="14.6442233"><ele>2.0</ele><time>2026-04-14T08:55:41.864Z</time></trkpt><trkpt lat="42.1919417" lon="14.6440733"><ele>1.6</ele><time>2026-04-14T08:55:43.865Z</time></trkpt><trkpt lat="42.19197" lon="14.6439183"><ele>1.2000000000000002</ele><time>2026-04-14T08:55:45.865Z</time></trkpt><trkpt lat="42.1919983" lon="14.6437633"><ele>0.8</ele><time>2026-04-14T08:55:47.865Z</time></trkpt><trkpt lat="42.192025" lon="14.643605"><ele>0.4</ele><time>2026-04-14T08:55:49.864Z</time></trkpt><trkpt lat="42.1920383" lon="14.6435183"><ele>0.0</ele><time>2026-04-14T08:55:50.865Z</time></trkpt><trkpt lat="42.192065" lon="14.6433683"><ele>0.0</ele><time>2026-04-14T08:55:52.864Z</time></trkpt><trkpt lat="42.1920883" lon="14.6432283"><ele>0.0</ele><time>2026-04-14T08:55:54.864Z</time></trkpt><trkpt lat="42.1921133" lon="14.64309"><ele>0.0</ele><time>2026-04-14T08:55:56.864Z</time></trkpt><trkpt lat="42.19214" lon="14.6429583"><ele>0.0</ele><time>2026-04-14T08:55:58.864Z</time></trkpt><trkpt lat="42.192175" lon="14.6428467"><ele>0.0</ele><time>2026-04-14T08:56:00.865Z</time></trkpt><trkpt lat="42.1922067" lon="14.6427467"><ele>0.0</ele><time>2026-04-14T08:56:03.864Z</time></trkpt><trkpt lat="42.1922667" lon="14.642675"><ele>0.0</ele><time>2026-04-14T08:56:06.865Z</time></trkpt><trkpt lat="42.1923017" lon="14.642575"><ele>0.0</ele><time>2026-04-14T08:56:08.865Z</time></trkpt><trkpt lat="42.19234" lon="14.64245"><ele>0.0</ele><time>2026-04-14T08:56:10.864Z</time></trkpt><trkpt lat="42.19238" lon="14.642305"><ele>0.0</ele><time>2026-04-14T08:56:12.865Z</time></trkpt><trkpt lat="42.1924017" lon="14.64222"><ele>0.0</ele><time>2026-04-14T08:56:13.864Z</time></trkpt><trkpt lat="42.19244" lon="14.64207"><ele>0.0</ele><time>2026-04-14T08:56:15.864Z</time></trkpt><trkpt lat="42.1924817" lon="14.6419233"><ele>0.0</ele><time>2026-04-14T08:56:17.864Z</time></trkpt><trkpt lat="42.1925233" lon="14.6417833"><ele>0.0</ele><time>2026-04-14T08:56:19.864Z</time></trkpt><trkpt lat="42.1925667" lon="14.6416367"><ele>0.0</ele><time>2026-04-14T08:56:21.865Z</time></trkpt><trkpt lat="42.1926033" lon="14.6414917"><ele>0.0</ele><time>2026-04-14T08:56:23.864Z</time></trkpt><trkpt lat="42.1926383" lon="14.6413467"><ele>0.0</ele><time>2026-04-14T08:56:25.864Z</time></trkpt><trkpt lat="42.1926683" lon="14.6411983"><ele>0.0</ele><time>2026-04-14T08:56:27.864Z</time></trkpt><trkpt lat="42.1927067" lon="14.6410533"><ele>0.0</ele><time>2026-04-14T08:56:29.865Z</time></trkpt><trkpt lat="42.1927433" lon="14.64091"><ele>0.0</ele><time>2026-04-14T08:56:31.865Z</time></trkpt><trkpt lat="42.1927817" lon="14.64076"><ele>0.0</ele><time>2026-04-14T08:56:33.864Z</time></trkpt><trkpt lat="42.19282" lon="14.6406133"><ele>0.0</ele><time>2026-04-14T08:56:35.864Z</time></trkpt><trkpt lat="42.1928583" lon="14.6404717"><ele>0.0</ele><time>2026-04-14T08:56:37.865Z</time></trkpt><trkpt lat="42.192895" lon="14.6403283"><ele>-0.25</ele><time>2026-04-14T08:56:39.864Z</time></trkpt><trkpt lat="42.1929333" lon="14.6401867"><ele>-0.5</ele><time>2026-04-14T08:56:41.865Z</time></trkpt><trkpt lat="42.1929717" lon="14.6400417"><ele>-0.75</ele><time>2026-04-14T08:56:43.865Z</time></trkpt><trkpt lat="42.1930117" lon="14.6399"><ele>-1.0</ele><time>2026-04-14T08:56:45.865Z</time></trkpt><trkpt lat="42.1930467" lon="14.6397483"><ele>-1.0</ele><time>2026-04-14T08:56:47.865Z</time></trkpt><trkpt lat="42.1930783" lon="14.6396"><ele>-1.0</ele><time>2026-04-14T08:56:49.864Z</time></trkpt><trkpt lat="42.193115" lon="14.6394567"><ele>-1.0</ele><time>2026-04-14T08:56:51.865Z</time></trkpt><trkpt lat="42.1931533" lon="14.6393117"><ele>-1.0</ele><time>2026-04-14T08:56:53.865Z</time></trkpt><trkpt lat="42.19319" lon="14.6391683"><ele>-1.0</ele><time>2026-04-14T08:56:55.865Z</time></trkpt><trkpt lat="42.19323" lon="14.6390283"><ele>-1.0</ele><time>2026-04-14T08:56:57.864Z</time></trkpt><trkpt lat="42.19327" lon="14.6388867"><ele>-1.0</ele><time>2026-04-14T08:56:59.865Z</time></trkpt><trkpt lat="42.1933083" lon="14.6387417"><ele>-1.0</ele><time>2026-04-14T08:57:01.865Z</time></trkpt><trkpt lat="42.193345" lon="14.6385967"><ele>-0.5</ele><time>2026-04-14T08:57:03.864Z</time></trkpt><trkpt lat="42.193385" lon="14.6384567"><ele>0.0</ele><time>2026-04-14T08:57:05.864Z</time></trkpt><trkpt lat="42.1934233" lon="14.638315"><ele>0.5</ele><time>2026-04-14T08:57:07.864Z</time></trkpt><trkpt lat="42.1934617" lon="14.6381717"><ele>1.0</ele><time>2026-04-14T08:57:09.864Z</time></trkpt><trkpt lat="42.1935" lon="14.638025"><ele>1.0</ele><time>2026-04-14T08:57:11.864Z</time></trkpt><trkpt lat="42.1935417" lon="14.6378867"><ele>1.0</ele><time>2026-04-14T08:57:13.864Z</time></trkpt><trkpt lat="42.1935817" lon="14.63774"><ele>1.0</ele><time>2026-04-14T08:57:15.865Z</time></trkpt><trkpt lat="42.1936217" lon="14.6375917"><ele>1.0</ele><time>2026-04-14T08:57:17.864Z</time></trkpt><trkpt lat="42.193665" lon="14.6374467"><ele>1.0</ele><time>2026-04-14T08:57:19.865Z</time></trkpt><trkpt lat="42.1937033" lon="14.6372983"><ele>1.0</ele><time>2026-04-14T08:57:21.864Z</time></trkpt><trkpt lat="42.193735" lon="14.6371533"><ele>1.0</ele><time>2026-04-14T08:57:23.864Z</time></trkpt><trkpt lat="42.1937633" lon="14.6370133"><ele>1.0</ele><time>2026-04-14T08:57:25.865Z</time></trkpt><trkpt lat="42.1938117" lon="14.6368783"><ele>1.0</ele><time>2026-04-14T08:57:27.864Z</time></trkpt><trkpt lat="42.193855" lon="14.6367383"><ele>1.0</ele><time>2026-04-14T08:57:29.865Z</time></trkpt><trkpt lat="42.1938983" lon="14.6365983"><ele>1.0</ele><time>2026-04-14T08:57:31.865Z</time></trkpt><trkpt lat="42.1939433" lon="14.6364667"><ele>1.0</ele><time>2026-04-14T08:57:33.865Z</time></trkpt><trkpt lat="42.1939833" lon="14.6363333"><ele>1.0</ele><time>2026-04-14T08:57:35.865Z</time></trkpt><trkpt lat="42.19402" lon="14.6361967"><ele>1.0</ele><time>2026-04-14T08:57:37.864Z</time></trkpt><trkpt lat="42.1940583" lon="14.63606"><ele>1.0</ele><time>2026-04-14T08:57:39.865Z</time></trkpt><trkpt lat="42.194095" lon="14.6359217"><ele>1.0</ele><time>2026-04-14T08:57:41.864Z</time></trkpt><trkpt lat="42.1941267" lon="14.635785"><ele>1.0</ele><time>2026-04-14T08:57:43.865Z</time></trkpt><trkpt lat="42.194165" lon="14.63565"><ele>1.0</ele><time>2026-04-14T08:57:45.864Z</time></trkpt><trkpt lat="42.1942033" lon="14.6355167"><ele>1.0</ele><time>2026-04-14T08:57:47.865Z</time></trkpt><trkpt lat="42.1942383" lon="14.6353833"><ele>1.2000000000000002</ele><time>2026-04-14T08:57:49.865Z</time></trkpt><trkpt lat="42.1942767" lon="14.635245"><ele>1.4000000000000001</ele><time>2026-04-14T08:57:51.865Z</time></trkpt><trkpt lat="42.1943083" lon="14.635105"><ele>1.6</ele><time>2026-04-14T08:57:53.865Z</time></trkpt><trkpt lat="42.1943417" lon="14.6349717"><ele>1.8</ele><time>2026-04-14T08:57:55.864Z</time></trkpt><trkpt lat="42.1943883" lon="14.634845"><ele>2.0</ele><time>2026-04-14T08:57:57.865Z</time></trkpt><trkpt lat="42.194435" lon="14.634725"><ele>1.9999999999999998</ele><time>2026-04-14T08:57:59.865Z</time></trkpt><trkpt lat="42.1944767" lon="14.6346017"><ele>2.0</ele><time>2026-04-14T08:58:01.864Z</time></trkpt><trkpt lat="42.1945133" lon="14.6344717"><ele>2.0</ele><time>2026-04-14T08:58:03.865Z</time></trkpt><trkpt lat="42.194545" lon="14.634355"><ele>2.0</ele><time>2026-04-14T08:58:05.865Z</time></trkpt><trkpt lat="42.1945767" lon="14.6342533"><ele>1.9999999999999998</ele><time>2026-04-14T08:58:07.864Z</time></trkpt><trkpt lat="42.1946067" lon="14.6341667"><ele>2.0</ele><time>2026-04-14T08:58:09.865Z</time></trkpt><trkpt lat="42.194635" lon="14.6340617"><ele>2.333333333333333</ele><time>2026-04-14T08:58:11.865Z</time></trkpt><trkpt lat="42.1946617" lon="14.6339533"><ele>2.6666666666666665</ele><time>2026-04-14T08:58:13.865Z</time></trkpt><trkpt lat="42.194685" lon="14.633855"><ele>3.0</ele><time>2026-04-14T08:58:15.865Z</time></trkpt><trkpt lat="42.1947067" lon="14.6337683"><ele>3.333333333333333</ele><time>2026-04-14T08:58:17.864Z</time></trkpt><trkpt lat="42.1947317" lon="14.6336667"><ele>3.6666666666666665</ele><time>2026-04-14T08:58:19.865Z</time></trkpt><trkpt lat="42.1947483" lon="14.63357"><ele>4.0</ele><time>2026-04-14T08:58:21.865Z</time></trkpt><trkpt lat="42.1947633" lon="14.6334767"><ele>4.333333333333333</ele><time>2026-04-14T08:58:23.865Z</time></trkpt><trkpt lat="42.194795" lon="14.6333733"><ele>4.666666666666666</ele><time>2026-04-14T08:58:26.865Z</time></trkpt><trkpt lat="42.1947317" lon="14.63336"><ele>5.0</ele><time>2026-04-14T09:00:23.866Z</time></trkpt><trkpt lat="42.19468" lon="14.633305"><ele>5.333333333333333</ele><time>2026-04-14T09:02:03.866Z</time></trkpt><trkpt lat="42.1947817" lon="14.633265"><ele>5.666666666666667</ele><time>2026-04-14T09:02:41.866Z</time></trkpt><trkpt lat="42.1947132" lon="14.633261"><ele>6.0</ele><time>2026-04-14T09:03:15.865Z</time></trkpt><trkpt lat="42.1947138" lon="14.6333518"><ele>6.0</ele><time>2026-04-14T09:03:41.865Z</time></trkpt><trkpt lat="42.1947578" lon="14.6332877"><ele>6.0</ele><time>2026-04-14T09:27:38.867Z</time></trkpt><trkpt lat="42.1947923" lon="14.6331873"><ele>6.0</ele><time>2026-04-14T09:28:38.866Z</time></trkpt><trkpt lat="42.1947593" lon="14.633113"><ele>6.0</ele><time>2026-04-14T09:28:47.866Z</time></trkpt><trkpt lat="42.1946952" lon="14.6332119"><ele>6.0</ele><time>2026-04-14T09:29:08.867Z</time></trkpt><trkpt lat="42.1947304" lon="14.6333083"><ele>6.0</ele><time>2026-04-14T09:29:25.867Z</time></trkpt><trkpt lat="42.1948087" lon="14.6333244"><ele>5.857142857142857</ele><time>2026-04-14T09:29:33.867Z</time></trkpt><trkpt lat="42.1948436" lon="14.6332457"><ele>5.714285714285714</ele><time>2026-04-14T09:29:37.866Z</time></trkpt><trkpt lat="42.1948716" lon="14.6331566"><ele>5.571428571428571</ele><time>2026-04-14T09:29:40.867Z</time></trkpt><trkpt lat="42.1949039" lon="14.6330666"><ele>5.428571428571429</ele><time>2026-04-14T09:29:43.866Z</time></trkpt><trkpt lat="42.1949543" lon="14.6329686"><ele>5.285714285714286</ele><time>2026-04-14T09:29:46.867Z</time></trkpt><trkpt lat="42.1949817" lon="14.6328907"><ele>5.142857142857142</ele><time>2026-04-14T09:29:48.867Z</time></trkpt><trkpt lat="42.1950086" lon="14.6328067"><ele>5.0</ele><time>2026-04-14T09:29:50.867Z</time></trkpt><trkpt lat="42.1950355" lon="14.632718"><ele>5.0</ele><time>2026-04-14T09:29:52.867Z</time></trkpt><trkpt lat="42.1950621" lon="14.632623"><ele>5.0</ele><time>2026-04-14T09:29:54.867Z</time></trkpt><trkpt lat="42.1950929" lon="14.6325298"><ele>5.0</ele><time>2026-04-14T09:29:56.867Z</time></trkpt><trkpt lat="42.1951215" lon="14.6324354"><ele>5.0</ele><time>2026-04-14T09:29:58.867Z</time></trkpt><trkpt lat="42.195148" lon="14.6323345"><ele>5.0</ele><time>2026-04-14T09:30:00.867Z</time></trkpt><trkpt lat="42.1951732" lon="14.6322315"><ele>5.0</ele><time>2026-04-14T09:30:02.867Z</time></trkpt><trkpt lat="42.1952038" lon="14.6321318"><ele>5.0</ele><time>2026-04-14T09:30:04.866Z</time></trkpt><trkpt lat="42.1952309" lon="14.6320318"><ele>5.0</ele><time>2026-04-14T09:30:06.866Z</time></trkpt><trkpt lat="42.195262" lon="14.6319238"><ele>5.0</ele><time>2026-04-14T09:30:08.866Z</time></trkpt><trkpt lat="42.195293" lon="14.631819"><ele>5.0</ele><time>2026-04-14T09:30:10.867Z</time></trkpt><trkpt lat="42.1953267" lon="14.6317117"><ele>5.0</ele><time>2026-04-14T09:30:12.866Z</time></trkpt><trkpt lat="42.1953567" lon="14.6316083"><ele>5.0</ele><time>2026-04-14T09:30:14.866Z</time></trkpt><trkpt lat="42.19539" lon="14.6315033"><ele>4.833333333333334</ele><time>2026-04-14T09:30:16.867Z</time></trkpt><trkpt lat="42.1954183" lon="14.631405"><ele>4.666666666666667</ele><time>2026-04-14T09:30:18.867Z</time></trkpt><trkpt lat="42.1954433" lon="14.6312967"><ele>4.5</ele><time>2026-04-14T09:30:20.866Z</time></trkpt><trkpt lat="42.1954767" lon="14.6311917"><ele>4.333333333333333</ele><time>2026-04-14T09:30:22.866Z</time></trkpt><trkpt lat="42.1955" lon="14.6310833"><ele>4.166666666666666</ele><time>2026-04-14T09:30:24.867Z</time></trkpt><trkpt lat="42.195525" lon="14.63097"><ele>4.0</ele><time>2026-04-14T09:30:26.867Z</time></trkpt><trkpt lat="42.1955583" lon="14.630855"><ele>4.0</ele><time>2026-04-14T09:30:28.867Z</time></trkpt><trkpt lat="42.1955967" lon="14.6307433"><ele>4.0</ele><time>2026-04-14T09:30:30.867Z</time></trkpt><trkpt lat="42.1956283" lon="14.6306283"><ele>4.0</ele><time>2026-04-14T09:30:32.867Z</time></trkpt><trkpt lat="42.1956633" lon="14.6305083"><ele>4.0</ele><time>2026-04-14T09:30:34.866Z</time></trkpt><trkpt lat="42.1956967" lon="14.6303917"><ele>4.0</ele><time>2026-04-14T09:30:36.866Z</time></trkpt><trkpt lat="42.19573" lon="14.6302783"><ele>3.8000000000000003</ele><time>2026-04-14T09:30:38.866Z</time></trkpt><trkpt lat="42.19576" lon="14.6301683"><ele>3.6000000000000005</ele><time>2026-04-14T09:30:40.867Z</time></trkpt><trkpt lat="42.1957867" lon="14.6300567"><ele>3.4</ele><time>2026-04-14T09:30:42.866Z</time></trkpt><trkpt lat="42.1958217" lon="14.6299367"><ele>3.2</ele><time>2026-04-14T09:30:44.867Z</time></trkpt><trkpt lat="42.195855" lon="14.6298233"><ele>3.0</ele><time>2026-04-14T09:30:46.866Z</time></trkpt><trkpt lat="42.1958883" lon="14.6297083"><ele>3.0</ele><time>2026-04-14T09:30:48.867Z</time></trkpt><trkpt lat="42.1959233" lon="14.6295883"><ele>3.0</ele><time>2026-04-14T09:30:50.866Z</time></trkpt><trkpt lat="42.195965" lon="14.6294733"><ele>3.0</ele><time>2026-04-14T09:30:52.867Z</time></trkpt><trkpt lat="42.1960117" lon="14.629365"><ele>3.0</ele><time>2026-04-14T09:30:54.866Z</time></trkpt><trkpt lat="42.1960517" lon="14.6292467"><ele>3.0</ele><time>2026-04-14T09:30:56.866Z</time></trkpt><trkpt lat="42.19607" lon="14.62912"><ele>3.2</ele><time>2026-04-14T09:30:58.867Z</time></trkpt><trkpt lat="42.1960733" lon="14.6289933"><ele>3.4</ele><time>2026-04-14T09:31:00.867Z</time></trkpt><trkpt lat="42.1960833" lon="14.6288617"><ele>3.6000000000000005</ele><time>2026-04-14T09:31:02.867Z</time></trkpt><trkpt lat="42.1961033" lon="14.6287417"><ele>3.8000000000000003</ele><time>2026-04-14T09:31:04.867Z</time></trkpt><trkpt lat="42.1961267" lon="14.6286333"><ele>4.0</ele><time>2026-04-14T09:31:06.867Z</time></trkpt><trkpt lat="42.1961583" lon="14.6285233"><ele>4.0</ele><time>2026-04-14T09:31:08.867Z</time></trkpt><trkpt lat="42.19619" lon="14.6284067"><ele>4.0</ele><time>2026-04-14T09:31:10.866Z</time></trkpt><trkpt lat="42.1962283" lon="14.6282967"><ele>4.0</ele><time>2026-04-14T09:31:12.867Z</time></trkpt><trkpt lat="42.1962717" lon="14.6281833"><ele>4.0</ele><time>2026-04-14T09:31:14.867Z</time></trkpt><trkpt lat="42.1963117" lon="14.6280683"><ele>4.0</ele><time>2026-04-14T09:31:16.867Z</time></trkpt><trkpt lat="42.1963533" lon="14.62795"><ele>4.0</ele><time>2026-04-14T09:31:18.866Z</time></trkpt><trkpt lat="42.1964017" lon="14.6278117"><ele>4.0</ele><time>2026-04-14T09:31:20.866Z</time></trkpt><trkpt lat="42.1964483" lon="14.6276817"><ele>4.0</ele><time>2026-04-14T09:31:22.867Z</time></trkpt><trkpt lat="42.1964933" lon="14.6275517"><ele>4.0</ele><time>2026-04-14T09:31:24.867Z</time></trkpt><trkpt lat="42.1965383" lon="14.6274233"><ele>4.0</ele><time>2026-04-14T09:31:26.867Z</time></trkpt><trkpt lat="42.1965883" lon="14.62729"><ele>3.6</ele><time>2026-04-14T09:31:28.867Z</time></trkpt><trkpt lat="42.1966333" lon="14.6271617"><ele>3.2</ele><time>2026-04-14T09:31:30.866Z</time></trkpt><trkpt lat="42.1966783" lon="14.6270333"><ele>2.8000000000000003</ele><time>2026-04-14T09:31:32.867Z</time></trkpt><trkpt lat="42.1967217" lon="14.6269017"><ele>2.4000000000000004</ele><time>2026-04-14T09:31:34.867Z</time></trkpt><trkpt lat="42.19677" lon="14.6267717"><ele>2.0</ele><time>2026-04-14T09:31:36.867Z</time></trkpt><trkpt lat="42.1968183" lon="14.6266433"><ele>1.6</ele><time>2026-04-14T09:31:38.867Z</time></trkpt><trkpt lat="42.196865" lon="14.6265183"><ele>1.2000000000000002</ele><time>2026-04-14T09:31:40.867Z</time></trkpt><trkpt lat="42.1969117" lon="14.6263933"><ele>0.8</ele><time>2026-04-14T09:31:42.867Z</time></trkpt><trkpt lat="42.1969517" lon="14.6262717"><ele>0.4</ele><time>2026-04-14T09:31:44.867Z</time></trkpt><trkpt lat="42.1969983" lon="14.626145"><ele>0.0</ele><time>2026-04-14T09:31:46.867Z</time></trkpt><trkpt lat="42.1970433" lon="14.6260017"><ele>1.4</ele><time>2026-04-14T09:31:48.866Z</time></trkpt><trkpt lat="42.1970867" lon="14.6258767"><ele>2.8</ele><time>2026-04-14T09:31:50.866Z</time></trkpt><trkpt lat="42.1971317" lon="14.62575"><ele>4.199999999999999</ele><time>2026-04-14T09:31:52.866Z</time></trkpt><trkpt lat="42.19718" lon="14.6256167"><ele>5.6</ele><time>2026-04-14T09:31:54.867Z</time></trkpt><trkpt lat="42.1972233" lon="14.6254883"><ele>7.0</ele><time>2026-04-14T09:31:56.867Z</time></trkpt><trkpt lat="42.1972683" lon="14.62536"><ele>6.6</ele><time>2026-04-14T09:31:58.867Z</time></trkpt><trkpt lat="42.197315" lon="14.62523"><ele>6.199999999999999</ele><time>2026-04-14T09:32:00.866Z</time></trkpt><trkpt lat="42.1973633" lon="14.6250983"><ele>5.8</ele><time>2026-04-14T09:32:02.866Z</time></trkpt><trkpt lat="42.1974117" lon="14.6249517"><ele>5.4</ele><time>2026-04-14T09:32:04.867Z</time></trkpt><trkpt lat="42.1974533" lon="14.6248267"><ele>5.0</ele><time>2026-04-14T09:32:06.866Z</time></trkpt><trkpt lat="42.1975017" lon="14.6247"><ele>5.0</ele><time>2026-04-14T09:32:08.867Z</time></trkpt><trkpt lat="42.19754" lon="14.6245717"><ele>5.0</ele><time>2026-04-14T09:32:10.867Z</time></trkpt><trkpt lat="42.1975783" lon="14.6244483"><ele>5.0</ele><time>2026-04-14T09:32:12.867Z</time></trkpt><trkpt lat="42.1976217" lon="14.624315"><ele>5.0</ele><time>2026-04-14T09:32:14.867Z</time></trkpt><trkpt lat="42.197665" lon="14.624185"><ele>5.0</ele><time>2026-04-14T09:32:16.867Z</time></trkpt><trkpt lat="42.1977067" lon="14.6240517"><ele>5.8</ele><time>2026-04-14T09:32:18.867Z</time></trkpt><trkpt lat="42.1977517" lon="14.6239167"><ele>6.6</ele><time>2026-04-14T09:32:20.867Z</time></trkpt><trkpt lat="42.1977883" lon="14.6237833"><ele>7.4</ele><time>2026-04-14T09:32:22.867Z</time></trkpt><trkpt lat="42.1978233" lon="14.6236483"><ele>8.2</ele><time>2026-04-14T09:32:24.867Z</time></trkpt><trkpt lat="42.1978567" lon="14.6235167"><ele>9.0</ele><time>2026-04-14T09:32:26.867Z</time></trkpt><trkpt lat="42.197885" lon="14.6233833"><ele>9.4</ele><time>2026-04-14T09:32:28.866Z</time></trkpt><trkpt lat="42.1979083" lon="14.6232467"><ele>9.8</ele><time>2026-04-14T09:32:30.866Z</time></trkpt><trkpt lat="42.1979417" lon="14.623115"><ele>10.200000000000001</ele><time>2026-04-14T09:32:32.867Z</time></trkpt><trkpt lat="42.198" lon="14.6229983"><ele>10.600000000000001</ele><time>2026-04-14T09:32:34.867Z</time></trkpt><trkpt lat="42.198055" lon="14.6228817"><ele>11.0</ele><time>2026-04-14T09:32:36.867Z</time></trkpt><trkpt lat="42.198095" lon="14.6227517"><ele>11.600000000000001</ele><time>2026-04-14T09:32:38.867Z</time></trkpt><trkpt lat="42.198135" lon="14.6226117"><ele>12.2</ele><time>2026-04-14T09:32:40.866Z</time></trkpt><trkpt lat="42.198175" lon="14.622465"><ele>12.799999999999999</ele><time>2026-04-14T09:32:42.867Z</time></trkpt><trkpt lat="42.1982117" lon="14.6223317"><ele>13.399999999999999</ele><time>2026-04-14T09:32:44.866Z</time></trkpt><trkpt lat="42.1982483" lon="14.622195"><ele>14.0</ele><time>2026-04-14T09:32:46.866Z</time></trkpt><trkpt lat="42.19829" lon="14.6220583"><ele>12.799999999999999</ele><time>2026-04-14T09:32:48.867Z</time></trkpt><trkpt lat="42.1983283" lon="14.6219267"><ele>11.599999999999998</ele><time>2026-04-14T09:32:50.867Z</time></trkpt><trkpt lat="42.19837" lon="14.6217867"><ele>10.4</ele><time>2026-04-14T09:32:52.867Z</time></trkpt><trkpt lat="42.19841" lon="14.6216633"><ele>9.2</ele><time>2026-04-14T09:32:54.866Z</time></trkpt><trkpt lat="42.1984483" lon="14.6215233"><ele>8.0</ele><time>2026-04-14T09:32:56.866Z</time></trkpt><trkpt lat="42.1984833" lon="14.621405"><ele>8.0</ele><time>2026-04-14T09:32:58.867Z</time></trkpt><trkpt lat="42.1985233" lon="14.6212717"><ele>8.0</ele><time>2026-04-14T09:33:00.867Z</time></trkpt><trkpt lat="42.198565" lon="14.6211233"><ele>8.0</ele><time>2026-04-14T09:33:02.866Z</time></trkpt><trkpt lat="42.1986" lon="14.6209983"><ele>8.0</ele><time>2026-04-14T09:33:04.866Z</time></trkpt><trkpt lat="42.1986333" lon="14.6208617"><ele>8.0</ele><time>2026-04-14T09:33:06.866Z</time></trkpt><trkpt lat="42.1986683" lon="14.6207483"><ele>8.200000000000001</ele><time>2026-04-14T09:33:08.867Z</time></trkpt><trkpt lat="42.1987067" lon="14.620605"><ele>8.4</ele><time>2026-04-14T09:33:10.866Z</time></trkpt><trkpt lat="42.1987433" lon="14.6204817"><ele>8.600000000000001</ele><time>2026-04-14T09:33:12.867Z</time></trkpt><trkpt lat="42.1987817" lon="14.6203433"><ele>8.8</ele><time>2026-04-14T09:33:14.867Z</time></trkpt><trkpt lat="42.1988167" lon="14.6202183"><ele>9.0</ele><time>2026-04-14T09:33:16.866Z</time></trkpt><trkpt lat="42.198855" lon="14.6200917"><ele>9.0</ele><time>2026-04-14T09:33:18.867Z</time></trkpt><trkpt lat="42.1988967" lon="14.61996"><ele>9.0</ele><time>2026-04-14T09:33:20.867Z</time></trkpt><trkpt lat="42.1989367" lon="14.61983"><ele>9.0</ele><time>2026-04-14T09:33:22.867Z</time></trkpt><trkpt lat="42.198975" lon="14.6197017"><ele>9.0</ele><time>2026-04-14T09:33:24.867Z</time></trkpt><trkpt lat="42.1990167" lon="14.6195667"><ele>9.0</ele><time>2026-04-14T09:33:26.867Z</time></trkpt><trkpt lat="42.199055" lon="14.619435"><ele>7.6000000000000005</ele><time>2026-04-14T09:33:28.867Z</time></trkpt><trkpt lat="42.199095" lon="14.6193133"><ele>6.2</ele><time>2026-04-14T09:33:30.866Z</time></trkpt><trkpt lat="42.1991367" lon="14.6191817"><ele>4.800000000000001</ele><time>2026-04-14T09:33:32.867Z</time></trkpt><trkpt lat="42.1991833" lon="14.6190567"><ele>3.4000000000000004</ele><time>2026-04-14T09:33:34.867Z</time></trkpt><trkpt lat="42.1992267" lon="14.6189283"><ele>2.0</ele><time>2026-04-14T09:33:36.866Z</time></trkpt><trkpt lat="42.1992733" lon="14.6188017"><ele>2.0</ele><time>2026-04-14T09:33:38.867Z</time></trkpt><trkpt lat="42.1993133" lon="14.6186833"><ele>2.0</ele><time>2026-04-14T09:33:40.867Z</time></trkpt><trkpt lat="42.1993517" lon="14.618555"><ele>2.0</ele><time>2026-04-14T09:33:42.867Z</time></trkpt><trkpt lat="42.1993967" lon="14.6184217"><ele>2.0</ele><time>2026-04-14T09:33:44.867Z</time></trkpt><trkpt lat="42.1994433" lon="14.618295"><ele>2.0</ele><time>2026-04-14T09:33:46.867Z</time></trkpt><trkpt lat="42.199485" lon="14.6181683"><ele>2.2</ele><time>2026-04-14T09:33:48.867Z</time></trkpt><trkpt lat="42.199525" lon="14.61805"><ele>2.4000000000000004</ele><time>2026-04-14T09:33:50.867Z</time></trkpt><trkpt lat="42.1995683" lon="14.617935"><ele>2.5999999999999996</ele><time>2026-04-14T09:33:52.866Z</time></trkpt><trkpt lat="42.1996083" lon="14.6178167"><ele>2.8</ele><time>2026-04-14T09:33:54.866Z</time></trkpt><trkpt lat="42.19965" lon="14.6177033"><ele>3.0</ele><time>2026-04-14T09:33:56.867Z</time></trkpt><trkpt lat="42.19969" lon="14.6175933"><ele>2.6</ele><time>2026-04-14T09:33:58.867Z</time></trkpt><trkpt lat="42.1997283" lon="14.6174817"><ele>2.1999999999999997</ele><time>2026-04-14T09:34:00.866Z</time></trkpt><trkpt lat="42.1997667" lon="14.6173683"><ele>1.8</ele><time>2026-04-14T09:34:02.866Z</time></trkpt><trkpt lat="42.1998083" lon="14.6172483"><ele>1.4</ele><time>2026-04-14T09:34:04.866Z</time></trkpt><trkpt lat="42.199845" lon="14.6171317"><ele>1.0</ele><time>2026-04-14T09:34:06.867Z</time></trkpt><trkpt lat="42.1998833" lon="14.61702"><ele>0.9999999999999999</ele><time>2026-04-14T09:34:08.866Z</time></trkpt><trkpt lat="42.1999217" lon="14.6169083"><ele>1.0</ele><time>2026-04-14T09:34:10.866Z</time></trkpt><trkpt lat="42.1999617" lon="14.6168"><ele>1.0</ele><time>2026-04-14T09:34:12.866Z</time></trkpt><trkpt lat="42.1999983" lon="14.6166933"><ele>1.0</ele><time>2026-04-14T09:34:14.866Z</time></trkpt><trkpt lat="42.200035" lon="14.6165833"><ele>0.9999999999999999</ele><time>2026-04-14T09:34:16.866Z</time></trkpt><trkpt lat="42.20007" lon="14.616475"><ele>1.0</ele><time>2026-04-14T09:34:18.867Z</time></trkpt><trkpt lat="42.200105" lon="14.61636"><ele>0.9999999999999999</ele><time>2026-04-14T09:34:20.867Z</time></trkpt><trkpt lat="42.2001417" lon="14.61625"><ele>1.0</ele><time>2026-04-14T09:34:22.866Z</time></trkpt><trkpt lat="42.2001767" lon="14.6161417"><ele>1.0</ele><time>2026-04-14T09:34:24.866Z</time></trkpt><trkpt lat="42.2002133" lon="14.6160317"><ele>1.0</ele><time>2026-04-14T09:34:26.867Z</time></trkpt><trkpt lat="42.2002467" lon="14.615925"><ele>0.9999999999999999</ele><time>2026-04-14T09:34:28.867Z</time></trkpt><trkpt lat="42.2002817" lon="14.6158217"><ele>1.0</ele><time>2026-04-14T09:34:30.867Z</time></trkpt><trkpt lat="42.200325" lon="14.6157067"><ele>1.5</ele><time>2026-04-14T09:34:32.867Z</time></trkpt><trkpt lat="42.200375" lon="14.6156017"><ele>2.0</ele><time>2026-04-14T09:34:34.867Z</time></trkpt><trkpt lat="42.200425" lon="14.61551"><ele>2.5</ele><time>2026-04-14T09:34:36.867Z</time></trkpt><trkpt lat="42.2004767" lon="14.6154183"><ele>3.0</ele><time>2026-04-14T09:34:38.866Z</time></trkpt><trkpt lat="42.20052" lon="14.6153233"><ele>3.4999999999999996</ele><time>2026-04-14T09:34:40.867Z</time></trkpt><trkpt lat="42.20058" lon="14.6152233"><ele>4.0</ele><time>2026-04-14T09:34:42.867Z</time></trkpt><trkpt lat="42.2006417" lon="14.615115"><ele>3.8000000000000003</ele><time>2026-04-14T09:34:44.867Z</time></trkpt><trkpt lat="42.2006983" lon="14.6149967"><ele>3.6000000000000005</ele><time>2026-04-14T09:34:46.867Z</time></trkpt><trkpt lat="42.2007167" lon="14.614865"><ele>3.4</ele><time>2026-04-14T09:34:48.867Z</time></trkpt><trkpt lat="42.2007017" lon="14.6147333"><ele>3.2</ele><time>2026-04-14T09:34:50.867Z</time></trkpt><trkpt lat="42.2007" lon="14.6146117"><ele>3.0</ele><time>2026-04-14T09:34:52.867Z</time></trkpt><trkpt lat="42.2007117" lon="14.6145067"><ele>3.4</ele><time>2026-04-14T09:34:54.866Z</time></trkpt><trkpt lat="42.2007533" lon="14.6144017"><ele>3.8</ele><time>2026-04-14T09:34:56.867Z</time></trkpt><trkpt lat="42.2007967" lon="14.6142783"><ele>4.2</ele><time>2026-04-14T09:34:58.867Z</time></trkpt><trkpt lat="42.20083" lon="14.6141517"><ele>4.6</ele><time>2026-04-14T09:35:00.866Z</time></trkpt><trkpt lat="42.2008533" lon="14.614025"><ele>5.0</ele><time>2026-04-14T09:35:02.867Z</time></trkpt><trkpt lat="42.2008867" lon="14.613895"><ele>5.0</ele><time>2026-04-14T09:35:04.866Z</time></trkpt><trkpt lat="42.20093" lon="14.613765"><ele>5.0</ele><time>2026-04-14T09:35:06.866Z</time></trkpt><trkpt lat="42.2009683" lon="14.6136317"><ele>5.0</ele><time>2026-04-14T09:35:08.867Z</time></trkpt><trkpt lat="42.2010117" lon="14.6135033"><ele>5.0</ele><time>2026-04-14T09:35:10.867Z</time></trkpt><trkpt lat="42.2010533" lon="14.613355"><ele>5.0</ele><time>2026-04-14T09:35:12.867Z</time></trkpt><trkpt lat="42.2010883" lon="14.6132083"><ele>5.25</ele><time>2026-04-14T09:35:14.866Z</time></trkpt><trkpt lat="42.201145" lon="14.6130683"><ele>5.5</ele><time>2026-04-14T09:35:16.866Z</time></trkpt><trkpt lat="42.201185" lon="14.6129183"><ele>5.75</ele><time>2026-04-14T09:35:18.867Z</time></trkpt><trkpt lat="42.201225" lon="14.6127667"><ele>6.0</ele><time>2026-04-14T09:35:20.867Z</time></trkpt><trkpt lat="42.2012717" lon="14.6126067"><ele>6.0</ele><time>2026-04-14T09:35:22.867Z</time></trkpt><trkpt lat="42.2012967" lon="14.6125233"><ele>6.0</ele><time>2026-04-14T09:35:23.866Z</time></trkpt><trkpt lat="42.2013217" lon="14.612445"><ele>6.0</ele><time>2026-04-14T09:35:24.866Z</time></trkpt><trkpt lat="42.201365" lon="14.6122983"><ele>6.0</ele><time>2026-04-14T09:35:26.867Z</time></trkpt><trkpt lat="42.2014117" lon="14.6121533"><ele>6.0</ele><time>2026-04-14T09:35:28.867Z</time></trkpt><trkpt lat="42.20146" lon="14.6120033"><ele>5.8</ele><time>2026-04-14T09:35:30.867Z</time></trkpt><trkpt lat="42.2015017" lon="14.61186"><ele>5.6</ele><time>2026-04-14T09:35:32.867Z</time></trkpt><trkpt lat="42.2015483" lon="14.6117217"><ele>5.4</ele><time>2026-04-14T09:35:34.866Z</time></trkpt><trkpt lat="42.201595" lon="14.61158"><ele>5.2</ele><time>2026-04-14T09:35:36.867Z</time></trkpt><trkpt lat="42.2016417" lon="14.6114567"><ele>5.0</ele><time>2026-04-14T09:35:38.867Z</time></trkpt><trkpt lat="42.2016833" lon="14.6113233"><ele>5.0</ele><time>2026-04-14T09:35:40.867Z</time></trkpt><trkpt lat="42.20173" lon="14.6111917"><ele>5.0</ele><time>2026-04-14T09:35:42.867Z</time></trkpt><trkpt lat="42.2017733" lon="14.61106"><ele>5.0</ele><time>2026-04-14T09:35:44.867Z</time></trkpt><trkpt lat="42.2018183" lon="14.6109217"><ele>5.0</ele><time>2026-04-14T09:35:46.867Z</time></trkpt><trkpt lat="42.2018683" lon="14.6107833"><ele>5.0</ele><time>2026-04-14T09:35:48.866Z</time></trkpt><trkpt lat="42.2019133" lon="14.610655"><ele>5.0</ele><time>2026-04-14T09:35:50.867Z</time></trkpt><trkpt lat="42.201955" lon="14.6105233"><ele>5.0</ele><time>2026-04-14T09:35:52.867Z</time></trkpt><trkpt lat="42.201975" lon="14.6103917"><ele>5.0</ele><time>2026-04-14T09:35:54.866Z</time></trkpt><trkpt lat="42.201975" lon="14.61026"><ele>5.0</ele><time>2026-04-14T09:35:56.867Z</time></trkpt><trkpt lat="42.2019767" lon="14.6101367"><ele>5.0</ele><time>2026-04-14T09:35:58.867Z</time></trkpt><trkpt lat="42.2019717" lon="14.6100283"><ele>4.666666666666667</ele><time>2026-04-14T09:36:00.866Z</time></trkpt><trkpt lat="42.2019817" lon="14.609925"><ele>4.333333333333334</ele><time>2026-04-14T09:36:02.867Z</time></trkpt><trkpt lat="42.2020067" lon="14.6098367"><ele>4.0</ele><time>2026-04-14T09:36:04.867Z</time></trkpt><trkpt lat="42.2020283" lon="14.6097517"><ele>3.666666666666667</ele><time>2026-04-14T09:36:06.867Z</time></trkpt><trkpt lat="42.202065" lon="14.60966"><ele>3.3333333333333335</ele><time>2026-04-14T09:36:08.866Z</time></trkpt><trkpt lat="42.2021033" lon="14.609565"><ele>3.0</ele><time>2026-04-14T09:36:10.866Z</time></trkpt><trkpt lat="42.2021433" lon="14.6094567"><ele>3.0</ele><time>2026-04-14T09:36:12.867Z</time></trkpt><trkpt lat="42.2021917" lon="14.6093483"><ele>3.0</ele><time>2026-04-14T09:36:14.867Z</time></trkpt><trkpt lat="42.2022417" lon="14.6092367"><ele>3.0</ele><time>2026-04-14T09:36:16.867Z</time></trkpt><trkpt lat="42.2022833" lon="14.609115"><ele>3.0</ele><time>2026-04-14T09:36:18.867Z</time></trkpt><trkpt lat="42.2023333" lon="14.6089933"><ele>3.0</ele><time>2026-04-14T09:36:20.867Z</time></trkpt><trkpt lat="42.2023783" lon="14.608875"><ele>3.2</ele><time>2026-04-14T09:36:22.867Z</time></trkpt><trkpt lat="42.2024267" lon="14.608755"><ele>3.4</ele><time>2026-04-14T09:36:24.867Z</time></trkpt><trkpt lat="42.20248" lon="14.6086317"><ele>3.6000000000000005</ele><time>2026-04-14T09:36:26.866Z</time></trkpt><trkpt lat="42.2025317" lon="14.60851"><ele>3.8000000000000003</ele><time>2026-04-14T09:36:28.867Z</time></trkpt><trkpt lat="42.20259" lon="14.60838"><ele>4.0</ele><time>2026-04-14T09:36:30.867Z</time></trkpt><trkpt lat="42.2026417" lon="14.608255"><ele>4.0</ele><time>2026-04-14T09:36:32.867Z</time></trkpt><trkpt lat="42.2026917" lon="14.6081217"><ele>4.0</ele><time>2026-04-14T09:36:34.867Z</time></trkpt><trkpt lat="42.202745" lon="14.6080017"><ele>4.0</ele><time>2026-04-14T09:36:36.866Z</time></trkpt><trkpt lat="42.2027967" lon="14.6078817"><ele>4.0</ele><time>2026-04-14T09:36:38.866Z</time></trkpt><trkpt lat="42.202855" lon="14.60775"><ele>4.0</ele><time>2026-04-14T09:36:40.867Z</time></trkpt><trkpt lat="42.2029083" lon="14.6076233"><ele>3.8000000000000003</ele><time>2026-04-14T09:36:42.866Z</time></trkpt><trkpt lat="42.2029617" lon="14.6074917"><ele>3.6000000000000005</ele><time>2026-04-14T09:36:44.867Z</time></trkpt><trkpt lat="42.2030167" lon="14.607365"><ele>3.4</ele><time>2026-04-14T09:36:46.867Z</time></trkpt><trkpt lat="42.2030733" lon="14.607235"><ele>3.2</ele><time>2026-04-14T09:36:48.867Z</time></trkpt><trkpt lat="42.20313" lon="14.6070983"><ele>3.0</ele><time>2026-04-14T09:36:50.866Z</time></trkpt><trkpt lat="42.20319" lon="14.606965"><ele>2.5</ele><time>2026-04-14T09:36:52.867Z</time></trkpt><trkpt lat="42.2032467" lon="14.606835"><ele>2.0</ele><time>2026-04-14T09:36:54.867Z</time></trkpt><trkpt lat="42.2033067" lon="14.606705"><ele>1.5</ele><time>2026-04-14T09:36:56.867Z</time></trkpt><trkpt lat="42.2033667" lon="14.606575"><ele>1.0</ele><time>2026-04-14T09:36:58.866Z</time></trkpt><trkpt lat="42.2034267" lon="14.6064417"><ele>1.0</ele><time>2026-04-14T09:37:00.867Z</time></trkpt><trkpt lat="42.203485" lon="14.60631"><ele>1.0</ele><time>2026-04-14T09:37:02.866Z</time></trkpt><trkpt lat="42.20354" lon="14.60618"><ele>1.0</ele><time>2026-04-14T09:37:04.866Z</time></trkpt><trkpt lat="42.2035933" lon="14.6060517"><ele>1.0</ele><time>2026-04-14T09:37:06.866Z</time></trkpt><trkpt lat="42.2036483" lon="14.6059267"><ele>1.0</ele><time>2026-04-14T09:37:08.866Z</time></trkpt><trkpt lat="42.2037033" lon="14.605795"><ele>1.0</ele><time>2026-04-14T09:37:10.866Z</time></trkpt><trkpt lat="42.20376" lon="14.60567"><ele>1.0</ele><time>2026-04-14T09:37:12.866Z</time></trkpt><trkpt lat="42.203815" lon="14.60554"><ele>1.0</ele><time>2026-04-14T09:37:14.867Z</time></trkpt><trkpt lat="42.2038767" lon="14.605405"><ele>1.0</ele><time>2026-04-14T09:37:16.866Z</time></trkpt><trkpt lat="42.203935" lon="14.60527"><ele>1.0</ele><time>2026-04-14T09:37:18.867Z</time></trkpt><trkpt lat="42.2039933" lon="14.605135"><ele>1.0</ele><time>2026-04-14T09:37:20.866Z</time></trkpt><trkpt lat="42.2040467" lon="14.605005"><ele>1.0</ele><time>2026-04-14T09:37:22.866Z</time></trkpt><trkpt lat="42.2041017" lon="14.6048733"><ele>1.0</ele><time>2026-04-14T09:37:24.867Z</time></trkpt><trkpt lat="42.20416" lon="14.6047383"><ele>1.0</ele><time>2026-04-14T09:37:26.867Z</time></trkpt><trkpt lat="42.2042183" lon="14.6046067"><ele>1.0</ele><time>2026-04-14T09:37:28.867Z</time></trkpt><trkpt lat="42.2042783" lon="14.60447"><ele>1.0</ele><time>2026-04-14T09:37:30.866Z</time></trkpt><trkpt lat="42.2043383" lon="14.604335"><ele>1.0</ele><time>2026-04-14T09:37:32.866Z</time></trkpt><trkpt lat="42.204395" lon="14.6041983"><ele>0.75</ele><time>2026-04-14T09:37:34.866Z</time></trkpt><trkpt lat="42.204455" lon="14.6040633"><ele>0.5</ele><time>2026-04-14T09:37:36.867Z</time></trkpt><trkpt lat="42.20451" lon="14.6039283"><ele>0.25</ele><time>2026-04-14T09:37:38.866Z</time></trkpt><trkpt lat="42.20457" lon="14.6038"><ele>0.0</ele><time>2026-04-14T09:37:40.866Z</time></trkpt><trkpt lat="42.2046417" lon="14.6036833"><ele>0.25</ele><time>2026-04-14T09:37:42.867Z</time></trkpt><trkpt lat="42.2047183" lon="14.6035667"><ele>0.5</ele><time>2026-04-14T09:37:44.867Z</time></trkpt><trkpt lat="42.2047833" lon="14.603435"><ele>0.75</ele><time>2026-04-14T09:37:46.867Z</time></trkpt><trkpt lat="42.2048383" lon="14.6033017"><ele>1.0</ele><time>2026-04-14T09:37:48.867Z</time></trkpt><trkpt lat="42.204895" lon="14.6031633"><ele>1.75</ele><time>2026-04-14T09:37:50.866Z</time></trkpt><trkpt lat="42.2049483" lon="14.6030417"><ele>2.5</ele><time>2026-04-14T09:37:52.867Z</time></trkpt><trkpt lat="42.2050033" lon="14.6029117"><ele>3.25</ele><time>2026-04-14T09:37:54.867Z</time></trkpt><trkpt lat="42.2050683" lon="14.6027667"><ele>4.0</ele><time>2026-04-14T09:37:56.867Z</time></trkpt><trkpt lat="42.2051333" lon="14.602635"><ele>4.75</ele><time>2026-04-14T09:37:58.866Z</time></trkpt><trkpt lat="42.2051933" lon="14.6025"><ele>5.5</ele><time>2026-04-14T09:38:00.867Z</time></trkpt><trkpt lat="42.2052533" lon="14.6023683"><ele>6.25</ele><time>2026-04-14T09:38:02.866Z</time></trkpt><trkpt lat="42.205305" lon="14.6022317"><ele>7.0</ele><time>2026-04-14T09:38:04.867Z</time></trkpt><trkpt lat="42.2053617" lon="14.60211"><ele>8.0</ele><time>2026-04-14T09:38:06.866Z</time></trkpt><trkpt lat="42.205415" lon="14.6019833"><ele>9.0</ele><time>2026-04-14T09:38:08.867Z</time></trkpt><trkpt lat="42.2054783" lon="14.60185"><ele>10.0</ele><time>2026-04-14T09:38:10.867Z</time></trkpt><trkpt lat="42.20554" lon="14.6017067"><ele>11.0</ele><time>2026-04-14T09:38:12.866Z</time></trkpt><trkpt lat="42.2056083" lon="14.6015717"><ele>11.0</ele><time>2026-04-14T09:38:14.866Z</time></trkpt><trkpt lat="42.2056417" lon="14.6014967"><ele>11.0</ele><time>2026-04-14T09:38:15.866Z</time></trkpt><trkpt lat="42.2057" lon="14.60136"><ele>11.0</ele><time>2026-04-14T09:38:17.867Z</time></trkpt><trkpt lat="42.2057617" lon="14.6012267"><ele>11.0</ele><time>2026-04-14T09:38:19.867Z</time></trkpt><trkpt lat="42.2058167" lon="14.6010867"><ele>11.0</ele><time>2026-04-14T09:38:21.867Z</time></trkpt><trkpt lat="42.2058767" lon="14.6009517"><ele>10.25</ele><time>2026-04-14T09:38:23.867Z</time></trkpt><trkpt lat="42.2059333" lon="14.6008167"><ele>9.5</ele><time>2026-04-14T09:38:25.867Z</time></trkpt><trkpt lat="42.20598" lon="14.6006717"><ele>8.75</ele><time>2026-04-14T09:38:27.867Z</time></trkpt><trkpt lat="42.2060383" lon="14.6005433"><ele>8.0</ele><time>2026-04-14T09:38:29.867Z</time></trkpt><trkpt lat="42.2061017" lon="14.6004167"><ele>8.75</ele><time>2026-04-14T09:38:31.867Z</time></trkpt><trkpt lat="42.20616" lon="14.60028"><ele>9.5</ele><time>2026-04-14T09:38:33.866Z</time></trkpt><trkpt lat="42.20622" lon="14.60015"><ele>10.25</ele><time>2026-04-14T09:38:35.867Z</time></trkpt><trkpt lat="42.20628" lon="14.6000183"><ele>11.0</ele><time>2026-04-14T09:38:37.867Z</time></trkpt><trkpt lat="42.2063367" lon="14.5998833"><ele>11.0</ele><time>2026-04-14T09:38:39.866Z</time></trkpt><trkpt lat="42.2063933" lon="14.5997617"><ele>11.0</ele><time>2026-04-14T09:38:41.867Z</time></trkpt><trkpt lat="42.20645" lon="14.5996333"><ele>11.0</ele><time>2026-04-14T09:38:43.867Z</time></trkpt><trkpt lat="42.206505" lon="14.59951"><ele>11.0</ele><time>2026-04-14T09:38:45.866Z</time></trkpt><trkpt lat="42.2065583" lon="14.59936"><ele>11.0</ele><time>2026-04-14T09:38:47.867Z</time></trkpt><trkpt lat="42.2066167" lon="14.5992267"><ele>10.25</ele><time>2026-04-14T09:38:49.867Z</time></trkpt><trkpt lat="42.2066783" lon="14.5990917"><ele>9.5</ele><time>2026-04-14T09:38:51.866Z</time></trkpt><trkpt lat="42.20674" lon="14.5989517"><ele>8.75</ele><time>2026-04-14T09:38:53.867Z</time></trkpt><trkpt lat="42.2068017" lon="14.598825"><ele>8.0</ele><time>2026-04-14T09:38:55.867Z</time></trkpt><trkpt lat="42.2068683" lon="14.598685"><ele>9.4</ele><time>2026-04-14T09:38:57.867Z</time></trkpt><trkpt lat="42.2069217" lon="14.5985583"><ele>10.8</ele><time>2026-04-14T09:38:59.867Z</time></trkpt><trkpt lat="42.206975" lon="14.5984283"><ele>12.2</ele><time>2026-04-14T09:39:01.866Z</time></trkpt><trkpt lat="42.2070333" lon="14.598295"><ele>13.6</ele><time>2026-04-14T09:39:03.867Z</time></trkpt><trkpt lat="42.2070867" lon="14.5981583"><ele>15.0</ele><time>2026-04-14T09:39:05.867Z</time></trkpt><trkpt lat="42.20715" lon="14.5980317"><ele>15.0</ele><time>2026-04-14T09:39:07.867Z</time></trkpt><trkpt lat="42.20721" lon="14.597905"><ele>15.0</ele><time>2026-04-14T09:39:09.867Z</time></trkpt><trkpt lat="42.2072717" lon="14.597785"><ele>15.0</ele><time>2026-04-14T09:39:11.866Z</time></trkpt><trkpt lat="42.2073267" lon="14.5976533"><ele>15.0</ele><time>2026-04-14T09:39:13.867Z</time></trkpt><trkpt lat="42.20738" lon="14.5975267"><ele>15.0</ele><time>2026-04-14T09:39:15.867Z</time></trkpt><trkpt lat="42.207435" lon="14.5973983"><ele>14.8</ele><time>2026-04-14T09:39:17.867Z</time></trkpt><trkpt lat="42.2074967" lon="14.5972583"><ele>14.6</ele><time>2026-04-14T09:39:19.867Z</time></trkpt><trkpt lat="42.2075533" lon="14.597125"><ele>14.399999999999999</ele><time>2026-04-14T09:39:21.866Z</time></trkpt><trkpt lat="42.207595" lon="14.5969883"><ele>14.2</ele><time>2026-04-14T09:39:23.867Z</time></trkpt><trkpt lat="42.20763" lon="14.596855"><ele>14.0</ele><time>2026-04-14T09:39:25.867Z</time></trkpt><trkpt lat="42.2076767" lon="14.5967333"><ele>14.0</ele><time>2026-04-14T09:39:27.867Z</time></trkpt><trkpt lat="42.207735" lon="14.596615"><ele>14.0</ele><time>2026-04-14T09:39:29.867Z</time></trkpt><trkpt lat="42.2077967" lon="14.5964917"><ele>14.0</ele><time>2026-04-14T09:39:31.867Z</time></trkpt><trkpt lat="42.2078483" lon="14.59635"><ele>14.0</ele><time>2026-04-14T09:39:33.867Z</time></trkpt><trkpt lat="42.2079067" lon="14.5962117"><ele>14.799999999999999</ele><time>2026-04-14T09:39:35.867Z</time></trkpt><trkpt lat="42.2079733" lon="14.59608"><ele>15.599999999999998</ele><time>2026-04-14T09:39:37.867Z</time></trkpt><trkpt lat="42.2080383" lon="14.5959583"><ele>16.4</ele><time>2026-04-14T09:39:39.867Z</time></trkpt><trkpt lat="42.2080933" lon="14.59583"><ele>17.2</ele><time>2026-04-14T09:39:41.867Z</time></trkpt><trkpt lat="42.2081517" lon="14.59571"><ele>18.0</ele><time>2026-04-14T09:39:43.867Z</time></trkpt><trkpt lat="42.208215" lon="14.5955883"><ele>17.0</ele><time>2026-04-14T09:39:45.866Z</time></trkpt><trkpt lat="42.2082833" lon="14.59546"><ele>16.0</ele><time>2026-04-14T09:39:47.866Z</time></trkpt><trkpt lat="42.20835" lon="14.595335"><ele>15.0</ele><time>2026-04-14T09:39:49.866Z</time></trkpt><trkpt lat="42.2084133" lon="14.5952117"><ele>14.0</ele><time>2026-04-14T09:39:51.867Z</time></trkpt><trkpt lat="42.2084783" lon="14.5950917"><ele>14.0</ele><time>2026-04-14T09:39:53.867Z</time></trkpt><trkpt lat="42.2085467" lon="14.5949733"><ele>13.999999999999998</ele><time>2026-04-14T09:39:55.867Z</time></trkpt><trkpt lat="42.2086133" lon="14.5948567"><ele>13.999999999999998</ele><time>2026-04-14T09:39:57.867Z</time></trkpt><trkpt lat="42.20868" lon="14.5947417"><ele>14.0</ele><time>2026-04-14T09:39:59.866Z</time></trkpt><trkpt lat="42.2087483" lon="14.5946217"><ele>14.0</ele><time>2026-04-14T09:40:01.866Z</time></trkpt><trkpt lat="42.20882" lon="14.5945067"><ele>14.799999999999999</ele><time>2026-04-14T09:40:03.867Z</time></trkpt><trkpt lat="42.2088917" lon="14.59439"><ele>15.599999999999998</ele><time>2026-04-14T09:40:05.866Z</time></trkpt><trkpt lat="42.2089617" lon="14.5942783"><ele>16.4</ele><time>2026-04-14T09:40:07.867Z</time></trkpt><trkpt lat="42.2090317" lon="14.59417"><ele>17.2</ele><time>2026-04-14T09:40:09.867Z</time></trkpt><trkpt lat="42.2091017" lon="14.5940583"><ele>18.0</ele><time>2026-04-14T09:40:11.867Z</time></trkpt><trkpt lat="42.20917" lon="14.5939433"><ele>17.0</ele><time>2026-04-14T09:40:13.866Z</time></trkpt><trkpt lat="42.20924" lon="14.5938317"><ele>16.0</ele><time>2026-04-14T09:40:15.867Z</time></trkpt><trkpt lat="42.2093067" lon="14.593705"><ele>15.0</ele><time>2026-04-14T09:40:17.867Z</time></trkpt><trkpt lat="42.209375" lon="14.5935883"><ele>14.0</ele><time>2026-04-14T09:40:19.867Z</time></trkpt><trkpt lat="42.2094417" lon="14.5934667"><ele>13.0</ele><time>2026-04-14T09:40:21.866Z</time></trkpt><trkpt lat="42.2095083" lon="14.5933417"><ele>13.0</ele><time>2026-04-14T09:40:23.866Z</time></trkpt><trkpt lat="42.2095733" lon="14.59322"><ele>13.0</ele><time>2026-04-14T09:40:25.866Z</time></trkpt><trkpt lat="42.2096333" lon="14.5931067"><ele>13.0</ele><time>2026-04-14T09:40:27.866Z</time></trkpt><trkpt lat="42.2096967" lon="14.5929933"><ele>13.0</ele><time>2026-04-14T09:40:29.866Z</time></trkpt><trkpt lat="42.2097583" lon="14.5928783"><ele>13.0</ele><time>2026-04-14T09:40:31.867Z</time></trkpt><trkpt lat="42.2098267" lon="14.5927617"><ele>11.8</ele><time>2026-04-14T09:40:33.866Z</time></trkpt><trkpt lat="42.2098933" lon="14.5926417"><ele>10.600000000000001</ele><time>2026-04-14T09:40:35.867Z</time></trkpt><trkpt lat="42.2099633" lon="14.5925267"><ele>9.399999999999999</ele><time>2026-04-14T09:40:37.867Z</time></trkpt><trkpt lat="42.2100317" lon="14.5924133"><ele>8.2</ele><time>2026-04-14T09:40:39.867Z</time></trkpt><trkpt lat="42.21009" lon="14.59229"><ele>7.0</ele><time>2026-04-14T09:40:41.867Z</time></trkpt><trkpt lat="42.2101483" lon="14.5921617"><ele>7.0</ele><time>2026-04-14T09:40:43.866Z</time></trkpt><trkpt lat="42.2102083" lon="14.5920333"><ele>6.999999999999999</ele><time>2026-04-14T09:40:45.866Z</time></trkpt><trkpt lat="42.2102683" lon="14.5919017"><ele>6.999999999999999</ele><time>2026-04-14T09:40:47.866Z</time></trkpt><trkpt lat="42.2103283" lon="14.5917717"><ele>7.0</ele><time>2026-04-14T09:40:49.866Z</time></trkpt><trkpt lat="42.2103867" lon="14.59165"><ele>7.0</ele><time>2026-04-14T09:40:51.867Z</time></trkpt><trkpt lat="42.2104417" lon="14.59152"><ele>6.6</ele><time>2026-04-14T09:40:53.867Z</time></trkpt><trkpt lat="42.2105" lon="14.5913867"><ele>6.199999999999999</ele><time>2026-04-14T09:40:55.867Z</time></trkpt><trkpt lat="42.2105517" lon="14.59126"><ele>5.8</ele><time>2026-04-14T09:40:57.867Z</time></trkpt><trkpt lat="42.210605" lon="14.5911317"><ele>5.4</ele><time>2026-04-14T09:40:59.867Z</time></trkpt><trkpt lat="42.210655" lon="14.5909983"><ele>5.0</ele><time>2026-04-14T09:41:01.867Z</time></trkpt><trkpt lat="42.2107067" lon="14.5908667"><ele>5.0</ele><time>2026-04-14T09:41:03.866Z</time></trkpt><trkpt lat="42.2107583" lon="14.5907283"><ele>5.0</ele><time>2026-04-14T09:41:05.866Z</time></trkpt><trkpt lat="42.2108083" lon="14.5905933"><ele>5.0</ele><time>2026-04-14T09:41:07.866Z</time></trkpt><trkpt lat="42.2108617" lon="14.590455"><ele>5.0</ele><time>2026-04-14T09:41:09.867Z</time></trkpt><trkpt lat="42.2109133" lon="14.5903217"><ele>6.8</ele><time>2026-04-14T09:41:11.867Z</time></trkpt><trkpt lat="42.2109683" lon="14.5901983"><ele>8.6</ele><time>2026-04-14T09:41:13.867Z</time></trkpt><trkpt lat="42.2110217" lon="14.5900833"><ele>10.399999999999999</ele><time>2026-04-14T09:41:15.867Z</time></trkpt><trkpt lat="42.211075" lon="14.5899667"><ele>12.2</ele><time>2026-04-14T09:41:17.866Z</time></trkpt><trkpt lat="42.211125" lon="14.5898433"><ele>14.0</ele><time>2026-04-14T09:41:19.867Z</time></trkpt><trkpt lat="42.2111817" lon="14.589705"><ele>14.0</ele><time>2026-04-14T09:41:21.866Z</time></trkpt><trkpt lat="42.21123" lon="14.589585"><ele>13.999999999999998</ele><time>2026-04-14T09:41:23.867Z</time></trkpt><trkpt lat="42.2112833" lon="14.5894483"><ele>13.999999999999998</ele><time>2026-04-14T09:41:25.866Z</time></trkpt><trkpt lat="42.211325" lon="14.5893133"><ele>14.0</ele><time>2026-04-14T09:41:27.867Z</time></trkpt><trkpt lat="42.2113783" lon="14.5891767"><ele>14.0</ele><time>2026-04-14T09:41:29.867Z</time></trkpt><trkpt lat="42.21144" lon="14.58906"><ele>14.2</ele><time>2026-04-14T09:41:31.866Z</time></trkpt><trkpt lat="42.2114983" lon="14.5889333"><ele>14.399999999999999</ele><time>2026-04-14T09:41:33.867Z</time></trkpt><trkpt lat="42.2115517" lon="14.5888133"><ele>14.6</ele><time>2026-04-14T09:41:35.866Z</time></trkpt><trkpt lat="42.21162" lon="14.5886867"><ele>14.8</ele><time>2026-04-14T09:41:37.867Z</time></trkpt><trkpt lat="42.21168" lon="14.588575"><ele>15.0</ele><time>2026-04-14T09:41:39.867Z</time></trkpt><trkpt lat="42.2117417" lon="14.588465"><ele>15.0</ele><time>2026-04-14T09:41:41.866Z</time></trkpt><trkpt lat="42.2117967" lon="14.5883617"><ele>15.0</ele><time>2026-04-14T09:41:43.867Z</time></trkpt><trkpt lat="42.2118583" lon="14.5882533"><ele>15.0</ele><time>2026-04-14T09:41:45.866Z</time></trkpt><trkpt lat="42.21189" lon="14.5881783"><ele>15.0</ele><time>2026-04-14T09:41:46.866Z</time></trkpt><trkpt lat="42.2119433" lon="14.5880467"><ele>15.0</ele><time>2026-04-14T09:41:48.866Z</time></trkpt><trkpt lat="42.212005" lon="14.5879067"><ele>16.25</ele><time>2026-04-14T09:41:50.867Z</time></trkpt><trkpt lat="42.2120633" lon="14.5877683"><ele>17.5</ele><time>2026-04-14T09:41:52.867Z</time></trkpt><trkpt lat="42.2121217" lon="14.5876417"><ele>18.75</ele><time>2026-04-14T09:41:54.866Z</time></trkpt><trkpt lat="42.2121767" lon="14.5875133"><ele>20.0</ele><time>2026-04-14T09:41:56.866Z</time></trkpt><trkpt lat="42.212235" lon="14.5873767"><ele>20.0</ele><time>2026-04-14T09:41:58.866Z</time></trkpt><trkpt lat="42.2122967" lon="14.587245"><ele>20.0</ele><time>2026-04-14T09:42:00.867Z</time></trkpt><trkpt lat="42.212365" lon="14.5871"><ele>20.0</ele><time>2026-04-14T09:42:02.867Z</time></trkpt><trkpt lat="42.2124017" lon="14.5870267"><ele>20.0</ele><time>2026-04-14T09:42:03.866Z</time></trkpt><trkpt lat="42.212435" lon="14.5869517"><ele>20.0</ele><time>2026-04-14T09:42:04.867Z</time></trkpt><trkpt lat="42.2124983" lon="14.58682"><ele>17.8</ele><time>2026-04-14T09:42:06.867Z</time></trkpt><trkpt lat="42.2125583" lon="14.5866883"><ele>15.6</ele><time>2026-04-14T09:42:08.866Z</time></trkpt><trkpt lat="42.21262" lon="14.5865633"><ele>13.4</ele><time>2026-04-14T09:42:10.866Z</time></trkpt><trkpt lat="42.2126733" lon="14.5864367"><ele>11.2</ele><time>2026-04-14T09:42:12.866Z</time></trkpt><trkpt lat="42.2127417" lon="14.5863117"><ele>9.0</ele><time>2026-04-14T09:42:14.866Z</time></trkpt><trkpt lat="42.2128033" lon="14.5861833"><ele>10.4</ele><time>2026-04-14T09:42:16.866Z</time></trkpt><trkpt lat="42.2128667" lon="14.5860583"><ele>11.8</ele><time>2026-04-14T09:42:18.866Z</time></trkpt><trkpt lat="42.2129317" lon="14.585935"><ele>13.200000000000001</ele><time>2026-04-14T09:42:20.867Z</time></trkpt><trkpt lat="42.2129883" lon="14.5858067"><ele>14.600000000000001</ele><time>2026-04-14T09:42:22.867Z</time></trkpt><trkpt lat="42.2130533" lon="14.58568"><ele>16.0</ele><time>2026-04-14T09:42:24.866Z</time></trkpt><trkpt lat="42.2131167" lon="14.585555"><ele>15.200000000000001</ele><time>2026-04-14T09:42:26.867Z</time></trkpt><trkpt lat="42.2131817" lon="14.585435"><ele>14.400000000000002</ele><time>2026-04-14T09:42:28.866Z</time></trkpt><trkpt lat="42.213245" lon="14.58531"><ele>13.6</ele><time>2026-04-14T09:42:30.867Z</time></trkpt><trkpt lat="42.2133083" lon="14.5851867"><ele>12.8</ele><time>2026-04-14T09:42:32.867Z</time></trkpt><trkpt lat="42.2133717" lon="14.5850667"><ele>12.0</ele><time>2026-04-14T09:42:34.867Z</time></trkpt><trkpt lat="42.213435" lon="14.5849467"><ele>12.0</ele><time>2026-04-14T09:42:36.867Z</time></trkpt><trkpt lat="42.213505" lon="14.5848333"><ele>12.0</ele><time>2026-04-14T09:42:38.866Z</time></trkpt><trkpt lat="42.2135733" lon="14.5847133"><ele>12.0</ele><time>2026-04-14T09:42:40.866Z</time></trkpt><trkpt lat="42.213645" lon="14.5845917"><ele>12.0</ele><time>2026-04-14T09:42:42.867Z</time></trkpt><trkpt lat="42.2137133" lon="14.5844733"><ele>12.0</ele><time>2026-04-14T09:42:44.867Z</time></trkpt><trkpt lat="42.2137817" lon="14.584355"><ele>11.0</ele><time>2026-04-14T09:42:46.867Z</time></trkpt><trkpt lat="42.2138483" lon="14.58424"><ele>10.0</ele><time>2026-04-14T09:42:48.867Z</time></trkpt><trkpt lat="42.2139167" lon="14.5841283"><ele>9.0</ele><time>2026-04-14T09:42:50.867Z</time></trkpt><trkpt lat="42.2139933" lon="14.58402"><ele>8.0</ele><time>2026-04-14T09:42:52.866Z</time></trkpt><trkpt lat="42.214065" lon="14.58391"><ele>7.0</ele><time>2026-04-14T09:42:54.866Z</time></trkpt><trkpt lat="42.214135" lon="14.5838"><ele>7.0</ele><time>2026-04-14T09:42:56.867Z</time></trkpt><trkpt lat="42.214205" lon="14.583695"><ele>6.999999999999999</ele><time>2026-04-14T09:42:58.867Z</time></trkpt><trkpt lat="42.2142733" lon="14.5835883"><ele>6.999999999999999</ele><time>2026-04-14T09:43:00.866Z</time></trkpt><trkpt lat="42.2143417" lon="14.5834817"><ele>7.0</ele><time>2026-04-14T09:43:02.866Z</time></trkpt><trkpt lat="42.21441" lon="14.5833683"><ele>7.0</ele><time>2026-04-14T09:43:04.866Z</time></trkpt><trkpt lat="42.214485" lon="14.583245"><ele>8.6</ele><time>2026-04-14T09:43:06.866Z</time></trkpt><trkpt lat="42.214555" lon="14.5831217"><ele>10.2</ele><time>2026-04-14T09:43:08.867Z</time></trkpt><trkpt lat="42.214605" lon="14.5829967"><ele>11.8</ele><time>2026-04-14T09:43:10.867Z</time></trkpt><trkpt lat="42.2146683" lon="14.582885"><ele>13.4</ele><time>2026-04-14T09:43:12.867Z</time></trkpt><trkpt lat="42.2147317" lon="14.58277"><ele>15.0</ele><time>2026-04-14T09:43:14.866Z</time></trkpt><trkpt lat="42.21479" lon="14.5826717"><ele>14.333333333333334</ele><time>2026-04-14T09:43:16.867Z</time></trkpt><trkpt lat="42.2148467" lon="14.58259"><ele>13.666666666666666</ele><time>2026-04-14T09:43:18.866Z</time></trkpt><trkpt lat="42.21489" lon="14.5825033"><ele>13.0</ele><time>2026-04-14T09:43:20.867Z</time></trkpt><trkpt lat="42.2149133" lon="14.5824133"><ele>12.333333333333332</ele><time>2026-04-14T09:43:22.867Z</time></trkpt><trkpt lat="42.2149567" lon="14.5823317"><ele>11.666666666666666</ele><time>2026-04-14T09:43:24.867Z</time></trkpt><trkpt lat="42.2150133" lon="14.5822617"><ele>11.0</ele><time>2026-04-14T09:43:26.867Z</time></trkpt><trkpt lat="42.21507" lon="14.5821917"><ele>11.0</ele><time>2026-04-14T09:43:28.867Z</time></trkpt><trkpt lat="42.215115" lon="14.5821017"><ele>11.0</ele><time>2026-04-14T09:43:30.866Z</time></trkpt><trkpt lat="42.2151483" lon="14.58201"><ele>11.0</ele><time>2026-04-14T09:43:32.867Z</time></trkpt><trkpt lat="42.21519" lon="14.5819067"><ele>11.0</ele><time>2026-04-14T09:43:34.866Z</time></trkpt><trkpt lat="42.21524" lon="14.5817983"><ele>11.0</ele><time>2026-04-14T09:43:36.867Z</time></trkpt><trkpt lat="42.21528" lon="14.581725"><ele>11.0</ele><time>2026-04-14T09:43:38.867Z</time></trkpt><trkpt lat="42.2153217" lon="14.5816367"><ele>11.5</ele><time>2026-04-14T09:43:40.867Z</time></trkpt><trkpt lat="42.215365" lon="14.5815383"><ele>12.0</ele><time>2026-04-14T09:43:42.866Z</time></trkpt><trkpt lat="42.2154083" lon="14.5814483"><ele>12.5</ele><time>2026-04-14T09:43:44.867Z</time></trkpt><trkpt lat="42.215455" lon="14.5813617"><ele>13.0</ele><time>2026-04-14T09:43:46.866Z</time></trkpt><trkpt lat="42.2155017" lon="14.5812717"><ele>13.500000000000002</ele><time>2026-04-14T09:43:48.866Z</time></trkpt><trkpt lat="42.21555" lon="14.5811683"><ele>14.0</ele><time>2026-04-14T09:43:50.866Z</time></trkpt><trkpt lat="42.2155983" lon="14.5810533"><ele>14.833333333333334</ele><time>2026-04-14T09:43:52.867Z</time></trkpt><trkpt lat="42.2156433" lon="14.5809467"><ele>15.666666666666668</ele><time>2026-04-14T09:43:54.866Z</time></trkpt><trkpt lat="42.2156867" lon="14.580855"><ele>16.5</ele><time>2026-04-14T09:43:56.867Z</time></trkpt><trkpt lat="42.2157233" lon="14.5807583"><ele>17.333333333333332</ele><time>2026-04-14T09:43:58.867Z</time></trkpt><trkpt lat="42.2157533" lon="14.5806683"><ele>18.166666666666664</ele><time>2026-04-14T09:44:00.866Z</time></trkpt><trkpt lat="42.2157967" lon="14.5805833"><ele>19.0</ele><time>2026-04-14T09:44:02.867Z</time></trkpt><trkpt lat="42.2158383" lon="14.5804967"><ele>18.166666666666664</ele><time>2026-04-14T09:44:04.867Z</time></trkpt><trkpt lat="42.21588" lon="14.580405"><ele>17.333333333333332</ele><time>2026-04-14T09:44:06.867Z</time></trkpt><trkpt lat="42.2159267" lon="14.580305"><ele>16.5</ele><time>2026-04-14T09:44:08.867Z</time></trkpt><trkpt lat="42.21597" lon="14.580205"><ele>15.666666666666668</ele><time>2026-04-14T09:44:10.867Z</time></trkpt><trkpt lat="42.21601" lon="14.5801167"><ele>14.833333333333334</ele><time>2026-04-14T09:44:12.866Z</time></trkpt><trkpt lat="42.216055" lon="14.580015"><ele>14.0</ele><time>2026-04-14T09:44:14.866Z</time></trkpt><trkpt lat="42.2161" lon="14.5799233"><ele>14.000000000000002</ele><time>2026-04-14T09:44:16.867Z</time></trkpt><trkpt lat="42.21614" lon="14.57983"><ele>14.0</ele><time>2026-04-14T09:44:18.866Z</time></trkpt><trkpt lat="42.2161817" lon="14.579725"><ele>14.0</ele><time>2026-04-14T09:44:20.866Z</time></trkpt><trkpt lat="42.2162233" lon="14.579625"><ele>14.0</ele><time>2026-04-14T09:44:22.867Z</time></trkpt><trkpt lat="42.2162583" lon="14.579525"><ele>14.000000000000002</ele><time>2026-04-14T09:44:24.866Z</time></trkpt><trkpt lat="42.2162967" lon="14.5794333"><ele>14.0</ele><time>2026-04-14T09:44:26.867Z</time></trkpt><trkpt lat="42.2163417" lon="14.579345"><ele>15.000000000000002</ele><time>2026-04-14T09:44:28.867Z</time></trkpt><trkpt lat="42.2163833" lon="14.5792517"><ele>16.0</ele><time>2026-04-14T09:44:30.867Z</time></trkpt><trkpt lat="42.21642" lon="14.5791583"><ele>17.0</ele><time>2026-04-14T09:44:32.866Z</time></trkpt><trkpt lat="42.2164533" lon="14.579055"><ele>18.0</ele><time>2026-04-14T09:44:34.867Z</time></trkpt><trkpt lat="42.216485" lon="14.57898"><ele>19.0</ele><time>2026-04-14T09:44:38.866Z</time></trkpt><trkpt lat="42.2165183" lon="14.57887"><ele>20.0</ele><time>2026-04-14T09:45:52.867Z</time></trkpt><trkpt lat="42.2165667" lon="14.5787683"><ele>18.833333333333336</ele><time>2026-04-14T09:45:56.867Z</time></trkpt><trkpt lat="42.2166217" lon="14.5786717"><ele>17.666666666666668</ele><time>2026-04-14T09:45:59.866Z</time></trkpt><trkpt lat="42.2166583" lon="14.5785967"><ele>16.5</ele><time>2026-04-14T09:46:01.866Z</time></trkpt><trkpt lat="42.2167017" lon="14.5785183"><ele>15.333333333333332</ele><time>2026-04-14T09:46:03.866Z</time></trkpt><trkpt lat="42.2167417" lon="14.578435"><ele>14.166666666666666</ele><time>2026-04-14T09:46:05.866Z</time></trkpt><trkpt lat="42.2167867" lon="14.578345"><ele>13.0</ele><time>2026-04-14T09:46:07.866Z</time></trkpt><trkpt lat="42.2168267" lon="14.578255"><ele>12.999999999999998</ele><time>2026-04-14T09:46:09.867Z</time></trkpt><trkpt lat="42.2168667" lon="14.5781583"><ele>13.0</ele><time>2026-04-14T09:46:11.867Z</time></trkpt><trkpt lat="42.2169117" lon="14.5780567"><ele>13.0</ele><time>2026-04-14T09:46:13.867Z</time></trkpt><trkpt lat="42.216955" lon="14.5779567"><ele>13.0</ele><time>2026-04-14T09:46:15.867Z</time></trkpt><trkpt lat="42.21699" lon="14.5778517"><ele>12.999999999999998</ele><time>2026-04-14T09:46:17.866Z</time></trkpt><trkpt lat="42.21702" lon="14.5777683"><ele>13.0</ele><time>2026-04-14T09:46:19.867Z</time></trkpt><trkpt lat="42.21705" lon="14.5776833"><ele>14.166666666666666</ele><time>2026-04-14T09:46:21.866Z</time></trkpt><trkpt lat="42.2171" lon="14.5776"><ele>15.333333333333332</ele><time>2026-04-14T09:46:23.866Z</time></trkpt><trkpt lat="42.2171467" lon="14.577525"><ele>16.5</ele><time>2026-04-14T09:46:25.867Z</time></trkpt><trkpt lat="42.2171933" lon="14.577425"><ele>17.666666666666668</ele><time>2026-04-14T09:46:27.866Z</time></trkpt><trkpt lat="42.2172417" lon="14.57733"><ele>18.833333333333336</ele><time>2026-04-14T09:46:29.866Z</time></trkpt><trkpt lat="42.21728" lon="14.5772483"><ele>20.0</ele><time>2026-04-14T09:46:31.867Z</time></trkpt><trkpt lat="42.2173133" lon="14.5771633"><ele>18.857142857142858</ele><time>2026-04-14T09:46:33.867Z</time></trkpt><trkpt lat="42.2173517" lon="14.57708"><ele>17.714285714285715</ele><time>2026-04-14T09:46:35.866Z</time></trkpt><trkpt lat="42.2173883" lon="14.577005"><ele>16.57142857142857</ele><time>2026-04-14T09:46:37.866Z</time></trkpt><trkpt lat="42.2174233" lon="14.576925"><ele>15.428571428571427</ele><time>2026-04-14T09:46:39.866Z</time></trkpt><trkpt lat="42.2174617" lon="14.5768433"><ele>14.285714285714285</ele><time>2026-04-14T09:46:41.867Z</time></trkpt><trkpt lat="42.2175067" lon="14.5767667"><ele>13.142857142857142</ele><time>2026-04-14T09:46:43.866Z</time></trkpt><trkpt lat="42.217545" lon="14.576685"><ele>12.0</ele><time>2026-04-14T09:46:45.867Z</time></trkpt><trkpt lat="42.2175817" lon="14.5766067"><ele>11.999999999999998</ele><time>2026-04-14T09:46:47.867Z</time></trkpt><trkpt lat="42.2176217" lon="14.5765017"><ele>12.0</ele><time>2026-04-14T09:46:50.866Z</time></trkpt><trkpt lat="42.2176567" lon="14.576415"><ele>12.0</ele><time>2026-04-14T09:46:52.867Z</time></trkpt><trkpt lat="42.21769" lon="14.5763317"><ele>12.0</ele><time>2026-04-14T09:46:54.866Z</time></trkpt><trkpt lat="42.217725" lon="14.5762567"><ele>12.0</ele><time>2026-04-14T09:46:56.867Z</time></trkpt><trkpt lat="42.2177633" lon="14.5761833"><ele>11.999999999999998</ele><time>2026-04-14T09:46:58.867Z</time></trkpt><trkpt lat="42.2178033" lon="14.576105"><ele>12.0</ele><time>2026-04-14T09:47:00.867Z</time></trkpt><trkpt lat="42.2178383" lon="14.5760233"><ele>12.666666666666666</ele><time>2026-04-14T09:47:02.866Z</time></trkpt><trkpt lat="42.217875" lon="14.5759483"><ele>13.333333333333332</ele><time>2026-04-14T09:47:04.866Z</time></trkpt><trkpt lat="42.2179317" lon="14.5758483"><ele>14.0</ele><time>2026-04-14T09:47:07.867Z</time></trkpt><trkpt lat="42.21798" lon="14.575755"><ele>14.666666666666666</ele><time>2026-04-14T09:47:10.866Z</time></trkpt><trkpt lat="42.2180183" lon="14.5756733"><ele>15.333333333333332</ele><time>2026-04-14T09:47:12.867Z</time></trkpt><trkpt lat="42.218055" lon="14.5755917"><ele>16.0</ele><time>2026-04-14T09:47:14.866Z</time></trkpt><trkpt lat="42.2181067" lon="14.5754817"><ele>15.999999999999998</ele><time>2026-04-14T09:47:16.866Z</time></trkpt><trkpt lat="42.218145" lon="14.575385"><ele>16.0</ele><time>2026-04-14T09:47:18.867Z</time></trkpt><trkpt lat="42.2181767" lon="14.5753017"><ele>16.0</ele><time>2026-04-14T09:47:20.866Z</time></trkpt><trkpt lat="42.2182283" lon="14.5751983"><ele>16.0</ele><time>2026-04-14T09:47:23.866Z</time></trkpt><trkpt lat="42.2182533" lon="14.5751067"><ele>15.999999999999998</ele><time>2026-04-14T09:47:26.866Z</time></trkpt><trkpt lat="42.2182383" lon="14.5750083"><ele>16.0</ele><time>2026-04-14T09:47:30.867Z</time></trkpt><trkpt lat="42.2182317" lon="14.5749"><ele>15.999999999999998</ele><time>2026-04-14T09:47:34.867Z</time></trkpt><trkpt lat="42.2182483" lon="14.5748033"><ele>16.0</ele><time>2026-04-14T09:47:38.867Z</time></trkpt><trkpt lat="42.218285" lon="14.5747067"><ele>16.0</ele><time>2026-04-14T09:47:41.867Z</time></trkpt><trkpt lat="42.218325" lon="14.57462"><ele>16.0</ele><time>2026-04-14T09:47:44.867Z</time></trkpt><trkpt lat="42.2183667" lon="14.5745233"><ele>15.999999999999998</ele><time>2026-04-14T09:47:47.867Z</time></trkpt><trkpt lat="42.2184217" lon="14.5744417"><ele>16.0</ele><time>2026-04-14T09:47:50.867Z</time></trkpt><trkpt lat="42.21845" lon="14.5743567"><ele>15.999999999999998</ele><time>2026-04-14T09:47:53.867Z</time></trkpt><trkpt lat="42.2185017" lon="14.5742733"><ele>16.0</ele><time>2026-04-14T09:47:56.866Z</time></trkpt><trkpt lat="42.2185583" lon="14.57418"><ele>16.0</ele><time>2026-04-14T09:47:59.867Z</time></trkpt><trkpt lat="42.2186067" lon="14.57408"><ele>16.0</ele><time>2026-04-14T09:48:02.866Z</time></trkpt><trkpt lat="42.2186483" lon="14.5740133"><ele>15.999999999999998</ele><time>2026-04-14T09:48:04.867Z</time></trkpt><trkpt lat="42.2186867" lon="14.57394"><ele>16.0</ele><time>2026-04-14T09:48:06.866Z</time></trkpt><trkpt lat="42.21872" lon="14.5738433"><ele>16.0</ele><time>2026-04-14T09:48:09.867Z</time></trkpt><trkpt lat="42.2187467" lon="14.5737517"><ele>15.999999999999998</ele><time>2026-04-14T09:48:12.866Z</time></trkpt><trkpt lat="42.2187633" lon="14.573665"><ele>16.0</ele><time>2026-04-14T09:48:15.866Z</time></trkpt><trkpt lat="42.2188033" lon="14.5735883"><ele>16.0</ele><time>2026-04-14T09:48:18.866Z</time></trkpt><trkpt lat="42.2188467" lon="14.5735"><ele>15.999999999999998</ele><time>2026-04-14T09:48:21.866Z</time></trkpt><trkpt lat="42.21889" lon="14.5734367"><ele>16.0</ele><time>2026-04-14T09:48:24.866Z</time></trkpt><trkpt lat="42.2189233" lon="14.57336"><ele>16.0</ele><time>2026-04-14T09:48:27.867Z</time></trkpt><trkpt lat="42.2189683" lon="14.5732617"><ele>15.499999999999998</ele><time>2026-04-14T09:48:31.867Z</time></trkpt><trkpt lat="42.21901" lon="14.5731833"><ele>15.0</ele><time>2026-04-14T09:48:34.866Z</time></trkpt><trkpt lat="42.2190433" lon="14.573105"><ele>14.5</ele><time>2026-04-14T09:48:37.867Z</time></trkpt><trkpt lat="42.2190833" lon="14.573015"><ele>14.0</ele><time>2026-04-14T09:48:40.867Z</time></trkpt><trkpt lat="42.2191233" lon="14.5729333"><ele>13.499999999999998</ele><time>2026-04-14T09:48:43.866Z</time></trkpt><trkpt lat="42.2191733" lon="14.57285"><ele>13.0</ele><time>2026-04-14T09:48:46.867Z</time></trkpt><trkpt lat="42.2192217" lon="14.5727433"><ele>12.999999999999998</ele><time>2026-04-14T09:48:49.867Z</time></trkpt><trkpt lat="42.2192467" lon="14.5726617"><ele>13.0</ele><time>2026-04-14T09:48:51.867Z</time></trkpt><trkpt lat="42.2192567" lon="14.5725767"><ele>13.0</ele><time>2026-04-14T09:48:53.867Z</time></trkpt><trkpt lat="42.2192683" lon="14.5724817"><ele>13.0</ele><time>2026-04-14T09:48:57.866Z</time></trkpt><trkpt lat="42.219345" lon="14.572415"><ele>12.999999999999998</ele><time>2026-04-14T09:49:00.867Z</time></trkpt><trkpt lat="42.2194083" lon="14.5723733"><ele>13.0</ele><time>2026-04-14T09:49:02.866Z</time></trkpt><trkpt lat="42.2194717" lon="14.5722817"><ele>13.0</ele><time>2026-04-14T09:49:05.866Z</time></trkpt><trkpt lat="42.219515" lon="14.5722"><ele>13.0</ele><time>2026-04-14T09:49:08.867Z</time></trkpt><trkpt lat="42.2195833" lon="14.5721733"><ele>13.0</ele><time>2026-04-14T09:49:14.867Z</time></trkpt><trkpt lat="42.2196483" lon="14.572155"><ele>13.0</ele><time>2026-04-14T09:54:49.864Z</time></trkpt><trkpt lat="42.2197117" lon="14.572115"><ele>13.0</ele><time>2026-04-14T09:56:31.867Z</time></trkpt><trkpt lat="42.2197567" lon="14.5720183"><ele>13.0</ele><time>2026-04-14T09:56:34.867Z</time></trkpt><trkpt lat="42.2198017" lon="14.571925"><ele>13.0</ele><time>2026-04-14T09:56:37.867Z</time></trkpt><trkpt lat="42.2198483" lon="14.5718283"><ele>11.999999999999998</ele><time>2026-04-14T09:56:40.866Z</time></trkpt><trkpt lat="42.2198967" lon="14.5717183"><ele>11.0</ele><time>2026-04-14T09:56:43.866Z</time></trkpt><trkpt lat="42.2199383" lon="14.5716117"><ele>10.0</ele><time>2026-04-14T09:56:46.867Z</time></trkpt><trkpt lat="42.2199833" lon="14.5715117"><ele>9.0</ele><time>2026-04-14T09:56:49.867Z</time></trkpt><trkpt lat="42.220025" lon="14.5714117"><ele>8.0</ele><time>2026-04-14T09:56:52.867Z</time></trkpt><trkpt lat="42.2200633" lon="14.57132"><ele>7.0</ele><time>2026-04-14T09:56:55.866Z</time></trkpt><trkpt lat="42.2201" lon="14.5712183"><ele>8.0</ele><time>2026-04-14T09:56:58.867Z</time></trkpt><trkpt lat="42.2201383" lon="14.571115"><ele>9.0</ele><time>2026-04-14T09:57:01.867Z</time></trkpt><trkpt lat="42.2201733" lon="14.5710183"><ele>10.0</ele><time>2026-04-14T09:57:04.867Z</time></trkpt><trkpt lat="42.2202067" lon="14.57091"><ele>11.0</ele><time>2026-04-14T09:57:07.867Z</time></trkpt><trkpt lat="42.2202317" lon="14.570825"><ele>11.999999999999998</ele><time>2026-04-14T09:57:09.867Z</time></trkpt><trkpt lat="42.2202667" lon="14.5707433"><ele>13.0</ele><time>2026-04-14T09:57:11.867Z</time></trkpt><trkpt lat="42.2203033" lon="14.5706567"><ele>12.999999999999998</ele><time>2026-04-14T09:57:13.867Z</time></trkpt><trkpt lat="42.2203417" lon="14.5705633"><ele>13.0</ele><time>2026-04-14T09:57:15.867Z</time></trkpt><trkpt lat="42.2203767" lon="14.5704633"><ele>13.0</ele><time>2026-04-14T09:57:17.867Z</time></trkpt><trkpt lat="42.22041" lon="14.5703617"><ele>13.0</ele><time>2026-04-14T09:57:19.867Z</time></trkpt><trkpt lat="42.22045" lon="14.5702483"><ele>12.999999999999998</ele><time>2026-04-14T09:57:21.866Z</time></trkpt><trkpt lat="42.2204917" lon="14.5701267"><ele>13.0</ele><time>2026-04-14T09:57:23.866Z</time></trkpt><trkpt lat="42.2205267" lon="14.5700117"><ele>12.499999999999998</ele><time>2026-04-14T09:57:25.867Z</time></trkpt><trkpt lat="42.22056" lon="14.5699017"><ele>12.0</ele><time>2026-04-14T09:57:27.867Z</time></trkpt><trkpt lat="42.2205917" lon="14.5697883"><ele>11.5</ele><time>2026-04-14T09:57:29.866Z</time></trkpt><trkpt lat="42.2206283" lon="14.5696767"><ele>11.0</ele><time>2026-04-14T09:57:31.867Z</time></trkpt><trkpt lat="42.220665" lon="14.5695633"><ele>10.5</ele><time>2026-04-14T09:57:33.867Z</time></trkpt><trkpt lat="42.2207033" lon="14.569455"><ele>10.0</ele><time>2026-04-14T09:57:35.866Z</time></trkpt><trkpt lat="42.2207383" lon="14.56935"><ele>10.0</ele><time>2026-04-14T09:57:37.866Z</time></trkpt><trkpt lat="42.2207717" lon="14.56925"><ele>10.0</ele><time>2026-04-14T09:57:39.866Z</time></trkpt><trkpt lat="42.2208133" lon="14.5691467"><ele>10.0</ele><time>2026-04-14T09:57:41.867Z</time></trkpt><trkpt lat="42.22085" lon="14.5690417"><ele>10.0</ele><time>2026-04-14T09:57:43.867Z</time></trkpt><trkpt lat="42.2208917" lon="14.5689433"><ele>10.0</ele><time>2026-04-14T09:57:45.866Z</time></trkpt><trkpt lat="42.2209317" lon="14.5688367"><ele>10.0</ele><time>2026-04-14T09:57:47.867Z</time></trkpt><trkpt lat="42.2209733" lon="14.5687333"><ele>10.5</ele><time>2026-04-14T09:57:49.866Z</time></trkpt><trkpt lat="42.221015" lon="14.5686267"><ele>11.0</ele><time>2026-04-14T09:57:51.867Z</time></trkpt><trkpt lat="42.2210567" lon="14.56852"><ele>11.5</ele><time>2026-04-14T09:57:53.866Z</time></trkpt><trkpt lat="42.2210917" lon="14.5684167"><ele>12.0</ele><time>2026-04-14T09:57:55.867Z</time></trkpt><trkpt lat="42.221135" lon="14.568315"><ele>12.499999999999998</ele><time>2026-04-14T09:57:57.867Z</time></trkpt><trkpt lat="42.221175" lon="14.5682167"><ele>13.0</ele><time>2026-04-14T09:57:59.867Z</time></trkpt><trkpt lat="42.22122" lon="14.568115"><ele>12.999999999999998</ele><time>2026-04-14T09:58:01.866Z</time></trkpt><trkpt lat="42.2212633" lon="14.5680083"><ele>13.0</ele><time>2026-04-14T09:58:03.866Z</time></trkpt><trkpt lat="42.2213133" lon="14.5679117"><ele>13.0</ele><time>2026-04-14T09:58:05.866Z</time></trkpt><trkpt lat="42.22135" lon="14.5678033"><ele>13.0</ele><time>2026-04-14T09:58:07.867Z</time></trkpt><trkpt lat="42.2213933" lon="14.5677117"><ele>12.999999999999998</ele><time>2026-04-14T09:58:09.866Z</time></trkpt><trkpt lat="42.221435" lon="14.5676167"><ele>13.0</ele><time>2026-04-14T09:58:11.867Z</time></trkpt><trkpt lat="42.2214733" lon="14.567525"><ele>12.166666666666666</ele><time>2026-04-14T09:58:13.867Z</time></trkpt><trkpt lat="42.221515" lon="14.5674267"><ele>11.333333333333332</ele><time>2026-04-14T09:58:15.867Z</time></trkpt><trkpt lat="42.2215617" lon="14.5673283"><ele>10.5</ele><time>2026-04-14T09:58:17.867Z</time></trkpt><trkpt lat="42.2216133" lon="14.5672283"><ele>9.666666666666666</ele><time>2026-04-14T09:58:19.867Z</time></trkpt><trkpt lat="42.2216633" lon="14.5671317"><ele>8.833333333333332</ele><time>2026-04-14T09:58:21.867Z</time></trkpt><trkpt lat="42.2217117" lon="14.567035"><ele>8.0</ele><time>2026-04-14T09:58:23.867Z</time></trkpt><trkpt lat="42.221755" lon="14.5669383"><ele>7.999999999999999</ele><time>2026-04-14T09:58:25.866Z</time></trkpt><trkpt lat="42.2217983" lon="14.566845"><ele>8.0</ele><time>2026-04-14T09:58:27.866Z</time></trkpt><trkpt lat="42.2218417" lon="14.5667517"><ele>8.0</ele><time>2026-04-14T09:58:29.867Z</time></trkpt><trkpt lat="42.2218833" lon="14.5666533"><ele>8.0</ele><time>2026-04-14T09:58:31.866Z</time></trkpt><trkpt lat="42.2219283" lon="14.5665517"><ele>7.999999999999999</ele><time>2026-04-14T09:58:33.866Z</time></trkpt><trkpt lat="42.2219733" lon="14.5664533"><ele>8.0</ele><time>2026-04-14T09:58:35.867Z</time></trkpt><trkpt lat="42.22202" lon="14.566355"><ele>7.999999999999999</ele><time>2026-04-14T09:58:37.867Z</time></trkpt><trkpt lat="42.2220617" lon="14.566255"><ele>8.0</ele><time>2026-04-14T09:58:39.866Z</time></trkpt><trkpt lat="42.2221083" lon="14.5661633"><ele>8.0</ele><time>2026-04-14T09:58:41.866Z</time></trkpt><trkpt lat="42.2221517" lon="14.56607"><ele>8.0</ele><time>2026-04-14T09:58:43.867Z</time></trkpt><trkpt lat="42.2221917" lon="14.565975"><ele>7.999999999999999</ele><time>2026-04-14T09:58:45.866Z</time></trkpt><trkpt lat="42.2222367" lon="14.5658817"><ele>8.0</ele><time>2026-04-14T09:58:47.867Z</time></trkpt><trkpt lat="42.2222883" lon="14.56578"><ele>7.499999999999999</ele><time>2026-04-14T09:58:49.867Z</time></trkpt><trkpt lat="42.2223367" lon="14.5656867"><ele>7.0</ele><time>2026-04-14T09:58:51.866Z</time></trkpt><trkpt lat="42.2223833" lon="14.5656033"><ele>6.5</ele><time>2026-04-14T09:58:53.867Z</time></trkpt><trkpt lat="42.22243" lon="14.5655167"><ele>6.0</ele><time>2026-04-14T09:58:55.866Z</time></trkpt><trkpt lat="42.22247" lon="14.5654133"><ele>5.5</ele><time>2026-04-14T09:58:57.867Z</time></trkpt><trkpt lat="42.22251" lon="14.5653233"><ele>5.0</ele><time>2026-04-14T09:58:59.867Z</time></trkpt><trkpt lat="42.222555" lon="14.5652367"><ele>6.5</ele><time>2026-04-14T09:59:01.866Z</time></trkpt><trkpt lat="42.2226017" lon="14.565145"><ele>8.0</ele><time>2026-04-14T09:59:03.867Z</time></trkpt><trkpt lat="42.222645" lon="14.565055"><ele>9.5</ele><time>2026-04-14T09:59:05.866Z</time></trkpt><trkpt lat="42.2226867" lon="14.5649617"><ele>11.0</ele><time>2026-04-14T09:59:07.867Z</time></trkpt><trkpt lat="42.2227233" lon="14.5648717"><ele>12.500000000000002</ele><time>2026-04-14T09:59:09.867Z</time></trkpt><trkpt lat="42.2227633" lon="14.564785"><ele>14.0</ele><time>2026-04-14T09:59:11.867Z</time></trkpt><trkpt lat="42.2228083" lon="14.5646917"><ele>14.000000000000002</ele><time>2026-04-14T09:59:13.866Z</time></trkpt><trkpt lat="42.2228567" lon="14.564605"><ele>14.0</ele><time>2026-04-14T09:59:15.867Z</time></trkpt><trkpt lat="42.2228983" lon="14.5645117"><ele>14.0</ele><time>2026-04-14T09:59:17.867Z</time></trkpt><trkpt lat="42.2229417" lon="14.5644183"><ele>14.0</ele><time>2026-04-14T09:59:19.866Z</time></trkpt><trkpt lat="42.2229867" lon="14.5643283"><ele>14.000000000000002</ele><time>2026-04-14T09:59:21.867Z</time></trkpt><trkpt lat="42.2230333" lon="14.56424"><ele>14.0</ele><time>2026-04-14T09:59:23.867Z</time></trkpt><trkpt lat="42.22308" lon="14.564145"><ele>14.666666666666668</ele><time>2026-04-14T09:59:25.867Z</time></trkpt><trkpt lat="42.2231217" lon="14.5640517"><ele>15.333333333333334</ele><time>2026-04-14T09:59:27.866Z</time></trkpt><trkpt lat="42.2231633" lon="14.56396"><ele>16.0</ele><time>2026-04-14T09:59:29.867Z</time></trkpt><trkpt lat="42.2232133" lon="14.5638667"><ele>16.666666666666668</ele><time>2026-04-14T09:59:31.867Z</time></trkpt><trkpt lat="42.2232583" lon="14.56377"><ele>17.333333333333332</ele><time>2026-04-14T09:59:33.867Z</time></trkpt><trkpt lat="42.2233" lon="14.5636783"><ele>18.0</ele><time>2026-04-14T09:59:35.866Z</time></trkpt><trkpt lat="42.22335" lon="14.5635867"><ele>16.5</ele><time>2026-04-14T09:59:37.867Z</time></trkpt><trkpt lat="42.2233967" lon="14.5634933"><ele>15.0</ele><time>2026-04-14T09:59:39.867Z</time></trkpt><trkpt lat="42.2234417" lon="14.5633983"><ele>13.5</ele><time>2026-04-14T09:59:41.866Z</time></trkpt><trkpt lat="42.2234817" lon="14.5633067"><ele>12.0</ele><time>2026-04-14T09:59:43.866Z</time></trkpt><trkpt lat="42.223525" lon="14.5632133"><ele>10.5</ele><time>2026-04-14T09:59:45.867Z</time></trkpt><trkpt lat="42.2235717" lon="14.56312"><ele>9.0</ele><time>2026-04-14T09:59:47.867Z</time></trkpt><trkpt lat="42.223615" lon="14.5630283"><ele>9.0</ele><time>2026-04-14T09:59:49.867Z</time></trkpt><trkpt lat="42.2236567" lon="14.5629367"><ele>9.0</ele><time>2026-04-14T09:59:51.866Z</time></trkpt><trkpt lat="42.2237" lon="14.56284"><ele>9.0</ele><time>2026-04-14T09:59:53.867Z</time></trkpt><trkpt lat="42.2237433" lon="14.56275"><ele>9.0</ele><time>2026-04-14T09:59:55.866Z</time></trkpt><trkpt lat="42.2237917" lon="14.5626517"><ele>9.0</ele><time>2026-04-14T09:59:57.867Z</time></trkpt><trkpt lat="42.223835" lon="14.5625617"><ele>9.0</ele><time>2026-04-14T09:59:59.867Z</time></trkpt><trkpt lat="42.2238783" lon="14.562465"><ele>8.666666666666666</ele><time>2026-04-14T10:00:01.866Z</time></trkpt><trkpt lat="42.22392" lon="14.56237"><ele>8.333333333333334</ele><time>2026-04-14T10:00:03.867Z</time></trkpt><trkpt lat="42.223965" lon="14.5622767"><ele>8.0</ele><time>2026-04-14T10:00:05.867Z</time></trkpt><trkpt lat="42.2240067" lon="14.5621883"><ele>7.666666666666667</ele><time>2026-04-14T10:00:07.867Z</time></trkpt><trkpt lat="42.224045" lon="14.5621017"><ele>7.333333333333334</ele><time>2026-04-14T10:00:09.866Z</time></trkpt><trkpt lat="42.22409" lon="14.562015"><ele>7.0</ele><time>2026-04-14T10:00:11.867Z</time></trkpt><trkpt lat="42.2241317" lon="14.561925"><ele>7.000000000000001</ele><time>2026-04-14T10:00:13.867Z</time></trkpt><trkpt lat="42.224175" lon="14.561835"><ele>7.0</ele><time>2026-04-14T10:00:15.867Z</time></trkpt><trkpt lat="42.224215" lon="14.5617433"><ele>7.0</ele><time>2026-04-14T10:00:17.867Z</time></trkpt><trkpt lat="42.2242583" lon="14.561645"><ele>7.0</ele><time>2026-04-14T10:00:19.866Z</time></trkpt><trkpt lat="42.2242983" lon="14.5615533"><ele>7.000000000000001</ele><time>2026-04-14T10:00:21.866Z</time></trkpt><trkpt lat="42.2243383" lon="14.56146"><ele>7.0</ele><time>2026-04-14T10:00:23.866Z</time></trkpt><trkpt lat="42.2243767" lon="14.5613717"><ele>7.000000000000001</ele><time>2026-04-14T10:00:25.866Z</time></trkpt><trkpt lat="42.2244117" lon="14.56129"><ele>7.0</ele><time>2026-04-14T10:00:27.866Z</time></trkpt><trkpt lat="42.2244583" lon="14.561185"><ele>7.0</ele><time>2026-04-14T10:00:30.867Z</time></trkpt><trkpt lat="42.224505" lon="14.561075"><ele>7.0</ele><time>2026-04-14T10:00:33.867Z</time></trkpt><trkpt lat="42.224555" lon="14.5609767"><ele>7.000000000000001</ele><time>2026-04-14T10:00:36.867Z</time></trkpt><trkpt lat="42.2245983" lon="14.560895"><ele>7.0</ele><time>2026-04-14T10:00:39.866Z</time></trkpt><trkpt lat="42.22462" lon="14.5607933"><ele>8.142857142857142</ele><time>2026-04-14T10:02:58.865Z</time></trkpt><trkpt lat="42.224555" lon="14.5607483"><ele>9.285714285714285</ele><time>2026-04-14T10:03:03.865Z</time></trkpt><trkpt lat="42.22449" lon="14.5607667"><ele>10.428571428571429</ele><time>2026-04-14T10:03:07.865Z</time></trkpt><trkpt lat="42.22442" lon="14.5608333"><ele>11.571428571428571</ele><time>2026-04-14T10:03:11.866Z</time></trkpt><trkpt lat="42.2243667" lon="14.5609167"><ele>12.714285714285714</ele><time>2026-04-14T10:03:14.866Z</time></trkpt><trkpt lat="42.22432" lon="14.5609967"><ele>13.857142857142858</ele><time>2026-04-14T10:03:17.865Z</time></trkpt><trkpt lat="42.2242817" lon="14.5610667"><ele>15.0</ele><time>2026-04-14T10:03:21.866Z</time></trkpt><trkpt lat="42.22423" lon="14.561145"><ele>16.166666666666668</ele><time>2026-04-14T10:03:32.865Z</time></trkpt><trkpt lat="42.2241667" lon="14.56123"><ele>17.333333333333332</ele><time>2026-04-14T10:03:35.865Z</time></trkpt><trkpt lat="42.2241183" lon="14.5613333"><ele>18.5</ele><time>2026-04-14T10:03:38.865Z</time></trkpt><trkpt lat="42.2240917" lon="14.561445"><ele>19.666666666666664</ele><time>2026-04-14T10:03:41.866Z</time></trkpt><trkpt lat="42.224045" lon="14.561535"><ele>20.833333333333332</ele><time>2026-04-14T10:03:44.865Z</time></trkpt><trkpt lat="42.22397" lon="14.5615517"><ele>22.0</ele><time>2026-04-14T10:03:47.866Z</time></trkpt><trkpt lat="42.223895" lon="14.56154"><ele>22.0</ele><time>2026-04-14T10:03:50.866Z</time></trkpt><trkpt lat="42.2238217" lon="14.5615283"><ele>22.0</ele><time>2026-04-14T10:03:54.866Z</time></trkpt><trkpt lat="42.2237567" lon="14.56148"><ele>22.0</ele><time>2026-04-14T10:03:59.865Z</time></trkpt><trkpt lat="42.2236967" lon="14.5614267"><ele>22.0</ele><time>2026-04-14T10:04:02.865Z</time></trkpt><trkpt lat="42.2236283" lon="14.5613817"><ele>22.0</ele><time>2026-04-14T10:04:05.865Z</time></trkpt><trkpt lat="42.2235633" lon="14.5613733"><ele>22.0</ele><time>2026-04-14T10:04:09.865Z</time></trkpt><trkpt lat="42.2235067" lon="14.5614133"><ele>22.0</ele><time>2026-04-14T10:04:14.866Z</time></trkpt><trkpt lat="42.223445" lon="14.561455"><ele>22.0</ele><time>2026-04-14T10:04:18.866Z</time></trkpt><trkpt lat="42.2233817" lon="14.561485"><ele>22.0</ele><time>2026-04-14T10:04:22.866Z</time></trkpt><trkpt lat="42.22331" lon="14.5615133"><ele>22.0</ele><time>2026-04-14T10:04:25.865Z</time></trkpt><trkpt lat="42.22324" lon="14.5615167"><ele>22.0</ele><time>2026-04-14T10:04:28.866Z</time></trkpt><trkpt lat="42.223175" lon="14.561505"><ele>22.0</ele><time>2026-04-14T10:04:31.866Z</time></trkpt><trkpt lat="42.2231083" lon="14.5614883"><ele>22.0</ele><time>2026-04-14T10:04:36.866Z</time></trkpt><trkpt lat="42.2230317" lon="14.5614733"><ele>22.0</ele><time>2026-04-14T10:04:40.866Z</time></trkpt><trkpt lat="42.222965" lon="14.56147"><ele>23.857142857142858</ele><time>2026-04-14T10:04:43.866Z</time></trkpt><trkpt lat="42.2229017" lon="14.5614717"><ele>25.714285714285715</ele><time>2026-04-14T10:04:45.866Z</time></trkpt><trkpt lat="42.2228383" lon="14.5614833"><ele>27.57142857142857</ele><time>2026-04-14T10:04:48.866Z</time></trkpt><trkpt lat="42.2227717" lon="14.5615083"><ele>29.42857142857143</ele><time>2026-04-14T10:04:51.866Z</time></trkpt><trkpt lat="42.2227067" lon="14.561535"><ele>31.285714285714285</ele><time>2026-04-14T10:04:54.865Z</time></trkpt><trkpt lat="42.2226367" lon="14.5615817"><ele>33.142857142857146</ele><time>2026-04-14T10:04:57.866Z</time></trkpt><trkpt lat="42.2225817" lon="14.5616267"><ele>35.0</ele><time>2026-04-14T10:05:00.865Z</time></trkpt><trkpt lat="42.2225483" lon="14.561705"><ele>35.0</ele><time>2026-04-14T10:05:04.866Z</time></trkpt><trkpt lat="42.2225133" lon="14.5617783"><ele>35.0</ele><time>2026-04-14T10:05:07.866Z</time></trkpt><trkpt lat="42.2224667" lon="14.5618567"><ele>35.0</ele><time>2026-04-14T10:05:10.866Z</time></trkpt><trkpt lat="42.2224417" lon="14.5619417"><ele>35.0</ele><time>2026-04-14T10:05:13.865Z</time></trkpt><trkpt lat="42.2223967" lon="14.5620067"><ele>35.0</ele><time>2026-04-14T10:05:16.865Z</time></trkpt><trkpt lat="42.22233" lon="14.5620583"><ele>35.0</ele><time>2026-04-14T10:05:20.866Z</time></trkpt><trkpt lat="42.2222667" lon="14.56209"><ele>35.0</ele><time>2026-04-14T10:05:23.866Z</time></trkpt><trkpt lat="42.2221883" lon="14.56213"><ele>36.0</ele><time>2026-04-14T10:05:27.865Z</time></trkpt><trkpt lat="42.2221183" lon="14.5621583"><ele>37.0</ele><time>2026-04-14T10:05:31.866Z</time></trkpt><trkpt lat="42.222045" lon="14.56218"><ele>38.0</ele><time>2026-04-14T10:05:35.865Z</time></trkpt><trkpt lat="42.22198" lon="14.5621917"><ele>39.0</ele><time>2026-04-14T10:05:39.866Z</time></trkpt><trkpt lat="42.2219" lon="14.5622317"><ele>40.0</ele><time>2026-04-14T10:05:44.865Z</time></trkpt><trkpt lat="42.2218317" lon="14.5622833"><ele>41.0</ele><time>2026-04-14T10:05:49.865Z</time></trkpt><trkpt lat="42.2217633" lon="14.5622967"><ele>42.0</ele><time>2026-04-14T10:05:53.865Z</time></trkpt><trkpt lat="42.22168" lon="14.5623033"><ele>42.0</ele><time>2026-04-14T10:05:56.865Z</time></trkpt><trkpt lat="42.2215967" lon="14.5623083"><ele>42.0</ele><time>2026-04-14T10:05:59.866Z</time></trkpt><trkpt lat="42.2215217" lon="14.5623"><ele>42.0</ele><time>2026-04-14T10:06:03.865Z</time></trkpt><trkpt lat="42.221445" lon="14.562295"><ele>42.0</ele><time>2026-04-14T10:06:07.865Z</time></trkpt><trkpt lat="42.2213783" lon="14.56229"><ele>42.0</ele><time>2026-04-14T10:06:10.866Z</time></trkpt><trkpt lat="42.2213133" lon="14.5622817"><ele>42.0</ele><time>2026-04-14T10:06:13.865Z</time></trkpt><trkpt lat="42.22125" lon="14.56226"><ele>42.0</ele><time>2026-04-14T10:06:16.866Z</time></trkpt><trkpt lat="42.2211783" lon="14.5622183"><ele>44.0</ele><time>2026-04-14T10:06:20.866Z</time></trkpt><trkpt lat="42.2211017" lon="14.5621683"><ele>46.0</ele><time>2026-04-14T10:06:24.866Z</time></trkpt><trkpt lat="42.2210233" lon="14.5621317"><ele>48.0</ele><time>2026-04-14T10:06:27.866Z</time></trkpt><trkpt lat="42.2209583" lon="14.5620967"><ele>50.0</ele><time>2026-04-14T10:06:31.866Z</time></trkpt><trkpt lat="42.22089" lon="14.5620467"><ele>52.0</ele><time>2026-04-14T10:06:35.866Z</time></trkpt><trkpt lat="42.2208383" lon="14.5619967"><ele>54.0</ele><time>2026-04-14T10:06:38.866Z</time></trkpt><trkpt lat="42.22076" lon="14.56194"><ele>54.666666666666664</ele><time>2026-04-14T10:06:41.866Z</time></trkpt><trkpt lat="42.2206783" lon="14.5619"><ele>55.33333333333333</ele><time>2026-04-14T10:06:44.865Z</time></trkpt><trkpt lat="42.22062" lon="14.5618317"><ele>56.0</ele><time>2026-04-14T10:06:48.866Z</time></trkpt><trkpt lat="42.22057" lon="14.56177"><ele>56.666666666666664</ele><time>2026-04-14T10:06:52.866Z</time></trkpt><trkpt lat="42.2205167" lon="14.5617167"><ele>57.33333333333333</ele><time>2026-04-14T10:06:55.865Z</time></trkpt><trkpt lat="42.2204733" lon="14.561635"><ele>58.0</ele><time>2026-04-14T10:06:59.866Z</time></trkpt><trkpt lat="42.220425" lon="14.5615533"><ele>59.83333333333333</ele><time>2026-04-14T10:07:03.865Z</time></trkpt><trkpt lat="42.220375" lon="14.5614883"><ele>61.666666666666664</ele><time>2026-04-14T10:07:06.866Z</time></trkpt><trkpt lat="42.220335" lon="14.5613983"><ele>63.5</ele><time>2026-04-14T10:07:10.866Z</time></trkpt><trkpt lat="42.2203083" lon="14.56132"><ele>65.33333333333333</ele><time>2026-04-14T10:07:13.865Z</time></trkpt><trkpt lat="42.2202417" lon="14.56123"><ele>67.16666666666667</ele><time>2026-04-14T10:07:16.866Z</time></trkpt><trkpt lat="42.22019" lon="14.56117"><ele>69.0</ele><time>2026-04-14T10:07:18.866Z</time></trkpt><trkpt lat="42.2201133" lon="14.5611217"><ele>70.33333333333333</ele><time>2026-04-14T10:07:21.865Z</time></trkpt><trkpt lat="42.2200367" lon="14.5611083"><ele>71.66666666666667</ele><time>2026-04-14T10:07:25.866Z</time></trkpt><trkpt lat="42.2199733" lon="14.5611167"><ele>73.0</ele><time>2026-04-14T10:07:29.865Z</time></trkpt><trkpt lat="42.2199033" lon="14.5611417"><ele>74.33333333333334</ele><time>2026-04-14T10:07:32.866Z</time></trkpt><trkpt lat="42.21984" lon="14.5611617"><ele>75.66666666666667</ele><time>2026-04-14T10:07:34.865Z</time></trkpt><trkpt lat="42.2197533" lon="14.5611917"><ele>77.0</ele><time>2026-04-14T10:07:37.866Z</time></trkpt><trkpt lat="42.21967" lon="14.561225"><ele>77.66666666666667</ele><time>2026-04-14T10:07:40.865Z</time></trkpt><trkpt lat="42.2195883" lon="14.5612733"><ele>78.33333333333334</ele><time>2026-04-14T10:07:43.866Z</time></trkpt><trkpt lat="42.2195167" lon="14.5613283"><ele>79.0</ele><time>2026-04-14T10:07:45.866Z</time></trkpt><trkpt lat="42.21944" lon="14.561385"><ele>79.66666666666667</ele><time>2026-04-14T10:07:47.865Z</time></trkpt><trkpt lat="42.219385" lon="14.5614267"><ele>80.33333333333333</ele><time>2026-04-14T10:07:49.866Z</time></trkpt><trkpt lat="42.219325" lon="14.5614833"><ele>81.0</ele><time>2026-04-14T10:07:51.865Z</time></trkpt><trkpt lat="42.219265" lon="14.5615583"><ele>81.0</ele><time>2026-04-14T10:07:54.865Z</time></trkpt><trkpt lat="42.2192217" lon="14.5616483"><ele>81.0</ele><time>2026-04-14T10:07:58.865Z</time></trkpt><trkpt lat="42.21918" lon="14.5617317"><ele>81.0</ele><time>2026-04-14T10:08:01.865Z</time></trkpt><trkpt lat="42.2191467" lon="14.5618167"><ele>81.0</ele><time>2026-04-14T10:08:03.866Z</time></trkpt><trkpt lat="42.2191017" lon="14.56189"><ele>81.0</ele><time>2026-04-14T10:08:05.866Z</time></trkpt><trkpt lat="42.2190567" lon="14.5619567"><ele>81.0</ele><time>2026-04-14T10:08:08.866Z</time></trkpt><trkpt lat="42.219045" lon="14.56187"><ele>81.0</ele><time>2026-04-14T10:08:14.865Z</time></trkpt><trkpt lat="42.2190483" lon="14.5617833"><ele>81.0</ele><time>2026-04-14T10:08:17.866Z</time></trkpt><trkpt lat="42.2190317" lon="14.5616967"><ele>81.0</ele><time>2026-04-14T10:08:20.866Z</time></trkpt><trkpt lat="42.2190333" lon="14.5615967"><ele>81.0</ele><time>2026-04-14T10:08:24.866Z</time></trkpt><trkpt lat="42.2190417" lon="14.5614983"><ele>81.0</ele><time>2026-04-14T10:08:28.866Z</time></trkpt><trkpt lat="42.2190567" lon="14.561415"><ele>81.0</ele><time>2026-04-14T10:08:32.866Z</time></trkpt><trkpt lat="42.2190667" lon="14.561315"><ele>81.0</ele><time>2026-04-14T10:08:35.865Z</time></trkpt><trkpt lat="42.2190783" lon="14.561225"><ele>81.0</ele><time>2026-04-14T10:08:37.866Z</time></trkpt><trkpt lat="42.219075" lon="14.5611233"><ele>82.0</ele><time>2026-04-14T10:08:39.865Z</time></trkpt><trkpt lat="42.2190717" lon="14.5610083"><ele>83.0</ele><time>2026-04-14T10:08:42.866Z</time></trkpt><trkpt lat="42.21908" lon="14.5609"><ele>84.0</ele><time>2026-04-14T10:08:45.866Z</time></trkpt><trkpt lat="42.21909" lon="14.5607983"><ele>85.0</ele><time>2026-04-14T10:08:48.866Z</time></trkpt><trkpt lat="42.2191183" lon="14.5606833"><ele>86.0</ele><time>2026-04-14T10:08:51.866Z</time></trkpt><trkpt lat="42.2191467" lon="14.5605833"><ele>87.0</ele><time>2026-04-14T10:08:54.865Z</time></trkpt><trkpt lat="42.2191767" lon="14.5604767"><ele>88.33333333333333</ele><time>2026-04-14T10:08:57.866Z</time></trkpt><trkpt lat="42.2192083" lon="14.5603633"><ele>89.66666666666667</ele><time>2026-04-14T10:09:00.865Z</time></trkpt><trkpt lat="42.219235" lon="14.5602517"><ele>91.0</ele><time>2026-04-14T10:09:03.866Z</time></trkpt><trkpt lat="42.2192683" lon="14.560135"><ele>92.33333333333334</ele><time>2026-04-14T10:09:06.865Z</time></trkpt><trkpt lat="42.2192933" lon="14.560055"><ele>93.66666666666667</ele><time>2026-04-14T10:09:08.865Z</time></trkpt><trkpt lat="42.2193217" lon="14.5599767"><ele>95.0</ele><time>2026-04-14T10:09:10.865Z</time></trkpt><trkpt lat="42.2193567" lon="14.5599"><ele>95.0</ele><time>2026-04-14T10:09:12.866Z</time></trkpt><trkpt lat="42.2194" lon="14.5598317"><ele>95.0</ele><time>2026-04-14T10:09:14.865Z</time></trkpt><trkpt lat="42.21944" lon="14.5597617"><ele>95.0</ele><time>2026-04-14T10:09:16.866Z</time></trkpt><trkpt lat="42.2195" lon="14.5596583"><ele>95.0</ele><time>2026-04-14T10:09:19.866Z</time></trkpt><trkpt lat="42.2195633" lon="14.559565"><ele>95.0</ele><time>2026-04-14T10:09:22.866Z</time></trkpt><trkpt lat="42.2196083" lon="14.559495"><ele>95.0</ele><time>2026-04-14T10:09:24.866Z</time></trkpt><trkpt lat="42.21963" lon="14.5593883"><ele>95.33333333333334</ele><time>2026-04-14T10:09:27.866Z</time></trkpt><trkpt lat="42.219595" lon="14.5592967"><ele>95.66666666666667</ele><time>2026-04-14T10:09:30.865Z</time></trkpt><trkpt lat="42.2195317" lon="14.5592183"><ele>96.0</ele><time>2026-04-14T10:09:33.866Z</time></trkpt><trkpt lat="42.2194517" lon="14.5591483"><ele>96.33333333333334</ele><time>2026-04-14T10:09:36.866Z</time></trkpt><trkpt lat="42.219395" lon="14.5591"><ele>96.66666666666667</ele><time>2026-04-14T10:09:38.865Z</time></trkpt><trkpt lat="42.2193367" lon="14.55905"><ele>97.0</ele><time>2026-04-14T10:09:40.865Z</time></trkpt><trkpt lat="42.2192733" lon="14.5590033"><ele>97.00000000000001</ele><time>2026-04-14T10:09:42.866Z</time></trkpt><trkpt lat="42.21921" lon="14.558955"><ele>97.0</ele><time>2026-04-14T10:09:44.866Z</time></trkpt><trkpt lat="42.2191467" lon="14.558905"><ele>97.0</ele><time>2026-04-14T10:09:46.866Z</time></trkpt><trkpt lat="42.21908" lon="14.5588483"><ele>97.0</ele><time>2026-04-14T10:09:48.866Z</time></trkpt><trkpt lat="42.2190233" lon="14.55878"><ele>97.00000000000001</ele><time>2026-04-14T10:09:50.865Z</time></trkpt><trkpt lat="42.21896" lon="14.5587267"><ele>97.0</ele><time>2026-04-14T10:09:52.866Z</time></trkpt><trkpt lat="42.2188933" lon="14.55867"><ele>96.50000000000001</ele><time>2026-04-14T10:09:54.866Z</time></trkpt><trkpt lat="42.2188283" lon="14.5586117"><ele>96.0</ele><time>2026-04-14T10:09:56.866Z</time></trkpt><trkpt lat="42.2187633" lon="14.558555"><ele>95.5</ele><time>2026-04-14T10:09:58.866Z</time></trkpt><trkpt lat="42.2186967" lon="14.5585"><ele>95.0</ele><time>2026-04-14T10:10:00.865Z</time></trkpt><trkpt lat="42.2186283" lon="14.5584433"><ele>94.5</ele><time>2026-04-14T10:10:02.865Z</time></trkpt><trkpt lat="42.2185617" lon="14.5583867"><ele>94.0</ele><time>2026-04-14T10:10:04.865Z</time></trkpt><trkpt lat="42.2184967" lon="14.5583283"><ele>94.0</ele><time>2026-04-14T10:10:06.865Z</time></trkpt><trkpt lat="42.2184317" lon="14.5582717"><ele>94.0</ele><time>2026-04-14T10:10:08.865Z</time></trkpt><trkpt lat="42.2183667" lon="14.5582133"><ele>94.0</ele><time>2026-04-14T10:10:10.866Z</time></trkpt><trkpt lat="42.2183033" lon="14.5581633"><ele>94.0</ele><time>2026-04-14T10:10:12.866Z</time></trkpt><trkpt lat="42.2182417" lon="14.55811"><ele>94.0</ele><time>2026-04-14T10:10:14.865Z</time></trkpt><trkpt lat="42.2181783" lon="14.5580567"><ele>94.0</ele><time>2026-04-14T10:10:16.866Z</time></trkpt><trkpt lat="42.2180983" lon="14.5579967"><ele>93.6</ele><time>2026-04-14T10:10:18.866Z</time></trkpt><trkpt lat="42.2180083" lon="14.55789"><ele>93.2</ele><time>2026-04-14T10:10:20.866Z</time></trkpt><trkpt lat="42.2179533" lon="14.55783"><ele>92.8</ele><time>2026-04-14T10:10:21.866Z</time></trkpt><trkpt lat="42.2178933" lon="14.55778"><ele>92.39999999999999</ele><time>2026-04-14T10:10:22.866Z</time></trkpt><trkpt lat="42.217795" lon="14.5577017"><ele>92.0</ele><time>2026-04-14T10:10:24.865Z</time></trkpt><trkpt lat="42.2177267" lon="14.5576617"><ele>92.66666666666667</ele><time>2026-04-14T10:10:26.866Z</time></trkpt><trkpt lat="42.2176667" lon="14.55762"><ele>93.33333333333334</ele><time>2026-04-14T10:10:28.866Z</time></trkpt><trkpt lat="42.217585" lon="14.5575667"><ele>94.0</ele><time>2026-04-14T10:10:31.866Z</time></trkpt><trkpt lat="42.21751" lon="14.5575083"><ele>94.66666666666667</ele><time>2026-04-14T10:10:34.865Z</time></trkpt><trkpt lat="42.2174533" lon="14.5574533"><ele>95.33333333333333</ele><time>2026-04-14T10:10:36.866Z</time></trkpt><trkpt lat="42.2173833" lon="14.5573867"><ele>96.0</ele><time>2026-04-14T10:10:39.865Z</time></trkpt><trkpt lat="42.21731" lon="14.5573117"><ele>96.16666666666667</ele><time>2026-04-14T10:10:42.865Z</time></trkpt><trkpt lat="42.2172567" lon="14.557265"><ele>96.33333333333334</ele><time>2026-04-14T10:10:44.866Z</time></trkpt><trkpt lat="42.2171883" lon="14.5572217"><ele>96.5</ele><time>2026-04-14T10:10:46.865Z</time></trkpt><trkpt lat="42.217125" lon="14.5571733"><ele>96.66666666666667</ele><time>2026-04-14T10:10:48.866Z</time></trkpt><trkpt lat="42.2170467" lon="14.5571"><ele>96.83333333333334</ele><time>2026-04-14T10:10:51.865Z</time></trkpt><trkpt lat="42.216985" lon="14.557055"><ele>97.0</ele><time>2026-04-14T10:10:53.866Z</time></trkpt><trkpt lat="42.216915" lon="14.5569967"><ele>97.16666666666667</ele><time>2026-04-14T10:10:55.866Z</time></trkpt><trkpt lat="42.21684" lon="14.556945"><ele>97.33333333333334</ele><time>2026-04-14T10:10:57.865Z</time></trkpt><trkpt lat="42.2167817" lon="14.556885"><ele>97.5</ele><time>2026-04-14T10:10:59.866Z</time></trkpt><trkpt lat="42.2167183" lon="14.5568233"><ele>97.66666666666666</ele><time>2026-04-14T10:11:01.865Z</time></trkpt><trkpt lat="42.21665" lon="14.556765"><ele>97.83333333333333</ele><time>2026-04-14T10:11:03.866Z</time></trkpt><trkpt lat="42.2165867" lon="14.5567117"><ele>98.0</ele><time>2026-04-14T10:11:05.865Z</time></trkpt><trkpt lat="42.216525" lon="14.55665"><ele>97.99999999999999</ele><time>2026-04-14T10:11:07.866Z</time></trkpt><trkpt lat="42.2164667" lon="14.5565883"><ele>98.0</ele><time>2026-04-14T10:11:09.866Z</time></trkpt><trkpt lat="42.2163967" lon="14.5565333"><ele>98.0</ele><time>2026-04-14T10:11:11.866Z</time></trkpt><trkpt lat="42.2163283" lon="14.556485"><ele>98.0</ele><time>2026-04-14T10:11:13.866Z</time></trkpt><trkpt lat="42.2162717" lon="14.556415"><ele>97.99999999999999</ele><time>2026-04-14T10:11:15.866Z</time></trkpt><trkpt lat="42.2162033" lon="14.5563467"><ele>98.0</ele><time>2026-04-14T10:11:17.866Z</time></trkpt><trkpt lat="42.2161383" lon="14.5562767"><ele>97.99999999999999</ele><time>2026-04-14T10:11:19.866Z</time></trkpt><trkpt lat="42.2160717" lon="14.556215"><ele>98.0</ele><time>2026-04-14T10:11:21.866Z</time></trkpt><trkpt lat="42.21601" lon="14.5561467"><ele>98.0</ele><time>2026-04-14T10:11:23.866Z</time></trkpt><trkpt lat="42.2159317" lon="14.55609"><ele>98.0</ele><time>2026-04-14T10:11:25.865Z</time></trkpt><trkpt lat="42.21585" lon="14.5560317"><ele>97.99999999999999</ele><time>2026-04-14T10:11:27.865Z</time></trkpt><trkpt lat="42.2157683" lon="14.5559633"><ele>98.0</ele><time>2026-04-14T10:11:29.865Z</time></trkpt><trkpt lat="42.2156883" lon="14.5559033"><ele>97.4</ele><time>2026-04-14T10:11:31.865Z</time></trkpt><trkpt lat="42.215615" lon="14.5558417"><ele>96.80000000000001</ele><time>2026-04-14T10:11:33.865Z</time></trkpt><trkpt lat="42.2155367" lon="14.5557767"><ele>96.2</ele><time>2026-04-14T10:11:35.866Z</time></trkpt><trkpt lat="42.2154533" lon="14.555705"><ele>95.6</ele><time>2026-04-14T10:11:37.866Z</time></trkpt><trkpt lat="42.2153767" lon="14.555625"><ele>95.0</ele><time>2026-04-14T10:11:39.865Z</time></trkpt><trkpt lat="42.2153017" lon="14.55556"><ele>95.0</ele><time>2026-04-14T10:11:41.865Z</time></trkpt><trkpt lat="42.21522" lon="14.5554933"><ele>95.0</ele><time>2026-04-14T10:11:43.865Z</time></trkpt><trkpt lat="42.2151517" lon="14.5554383"><ele>95.0</ele><time>2026-04-14T10:11:45.866Z</time></trkpt><trkpt lat="42.2150683" lon="14.5553583"><ele>95.0</ele><time>2026-04-14T10:11:47.865Z</time></trkpt><trkpt lat="42.2149683" lon="14.55528"><ele>95.0</ele><time>2026-04-14T10:11:49.865Z</time></trkpt><trkpt lat="42.2148633" lon="14.5551883"><ele>93.8</ele><time>2026-04-14T10:11:51.866Z</time></trkpt><trkpt lat="42.214775" lon="14.5550967"><ele>92.6</ele><time>2026-04-14T10:11:53.866Z</time></trkpt><trkpt lat="42.2147017" lon="14.5550083"><ele>91.4</ele><time>2026-04-14T10:11:55.866Z</time></trkpt><trkpt lat="42.2146233" lon="14.554935"><ele>90.2</ele><time>2026-04-14T10:11:57.865Z</time></trkpt><trkpt lat="42.214545" lon="14.5548767"><ele>89.0</ele><time>2026-04-14T10:11:59.866Z</time></trkpt><trkpt lat="42.214475" lon="14.5548233"><ele>89.0</ele><time>2026-04-14T10:12:01.866Z</time></trkpt><trkpt lat="42.214395" lon="14.5547683"><ele>89.0</ele><time>2026-04-14T10:12:03.866Z</time></trkpt><trkpt lat="42.21432" lon="14.5547133"><ele>89.0</ele><time>2026-04-14T10:12:05.866Z</time></trkpt><trkpt lat="42.2142567" lon="14.5546567"><ele>89.0</ele><time>2026-04-14T10:12:07.866Z</time></trkpt><trkpt lat="42.2142" lon="14.5546067"><ele>89.0</ele><time>2026-04-14T10:12:09.865Z</time></trkpt><trkpt lat="42.2141433" lon="14.5545617"><ele>89.0</ele><time>2026-04-14T10:12:11.865Z</time></trkpt><trkpt lat="42.2140667" lon="14.5544917"><ele>89.71428571428571</ele><time>2026-04-14T10:12:14.866Z</time></trkpt><trkpt lat="42.21401" lon="14.554445"><ele>90.42857142857143</ele><time>2026-04-14T10:12:16.865Z</time></trkpt><trkpt lat="42.2139483" lon="14.5543983"><ele>91.14285714285714</ele><time>2026-04-14T10:12:18.865Z</time></trkpt><trkpt lat="42.2138917" lon="14.5543583"><ele>91.85714285714286</ele><time>2026-04-14T10:12:20.866Z</time></trkpt><trkpt lat="42.2138183" lon="14.554295"><ele>92.57142857142857</ele><time>2026-04-14T10:12:23.865Z</time></trkpt><trkpt lat="42.2137617" lon="14.5542517"><ele>93.28571428571428</ele><time>2026-04-14T10:12:25.865Z</time></trkpt><trkpt lat="42.2136983" lon="14.55421"><ele>94.0</ele><time>2026-04-14T10:12:27.865Z</time></trkpt><trkpt lat="42.2136433" lon="14.5541683"><ele>94.16666666666666</ele><time>2026-04-14T10:12:29.866Z</time></trkpt><trkpt lat="42.2135567" lon="14.5541183"><ele>94.33333333333333</ele><time>2026-04-14T10:12:32.865Z</time></trkpt><trkpt lat="42.2135" lon="14.55407"><ele>94.5</ele><time>2026-04-14T10:12:34.866Z</time></trkpt><trkpt lat="42.2134383" lon="14.5540233"><ele>94.66666666666667</ele><time>2026-04-14T10:12:36.866Z</time></trkpt><trkpt lat="42.2133733" lon="14.5539767"><ele>94.83333333333334</ele><time>2026-04-14T10:12:38.865Z</time></trkpt><trkpt lat="42.2133067" lon="14.5539283"><ele>95.0</ele><time>2026-04-14T10:12:40.865Z</time></trkpt><trkpt lat="42.2132433" lon="14.5538817"><ele>95.0</ele><time>2026-04-14T10:12:42.866Z</time></trkpt><trkpt lat="42.2131883" lon="14.5538333"><ele>95.0</ele><time>2026-04-14T10:12:44.866Z</time></trkpt><trkpt lat="42.2131067" lon="14.5537733"><ele>95.0</ele><time>2026-04-14T10:12:47.866Z</time></trkpt><trkpt lat="42.2130467" lon="14.5537367"><ele>95.0</ele><time>2026-04-14T10:12:49.866Z</time></trkpt><trkpt lat="42.2129833" lon="14.5536967"><ele>95.0</ele><time>2026-04-14T10:12:51.866Z</time></trkpt><trkpt lat="42.2129183" lon="14.5536633"><ele>95.0</ele><time>2026-04-14T10:12:53.865Z</time></trkpt><trkpt lat="42.212855" lon="14.5536283"><ele>95.0</ele><time>2026-04-14T10:12:55.866Z</time></trkpt><trkpt lat="42.2127833" lon="14.5535917"><ele>93.0</ele><time>2026-04-14T10:12:57.866Z</time></trkpt><trkpt lat="42.21271" lon="14.5535617"><ele>91.0</ele><time>2026-04-14T10:12:59.865Z</time></trkpt><trkpt lat="42.2126233" lon="14.553525"><ele>89.0</ele><time>2026-04-14T10:13:01.866Z</time></trkpt><trkpt lat="42.2125217" lon="14.55349"><ele>87.0</ele><time>2026-04-14T10:13:03.866Z</time></trkpt><trkpt lat="42.2124183" lon="14.5534533"><ele>85.0</ele><time>2026-04-14T10:13:05.865Z</time></trkpt><trkpt lat="42.2123317" lon="14.5534233"><ele>85.0</ele><time>2026-04-14T10:13:07.866Z</time></trkpt><trkpt lat="42.2122667" lon="14.55341"><ele>85.0</ele><time>2026-04-14T10:13:09.866Z</time></trkpt><trkpt lat="42.21226" lon="14.553315"><ele>85.0</ele><time>2026-04-14T10:13:12.866Z</time></trkpt><trkpt lat="42.2123067" lon="14.5532067"><ele>85.0</ele><time>2026-04-14T10:13:15.865Z</time></trkpt><trkpt lat="42.2123267" lon="14.55311"><ele>85.0</ele><time>2026-04-14T10:13:17.866Z</time></trkpt><trkpt lat="42.21235" lon="14.55301"><ele>85.0</ele><time>2026-04-14T10:13:19.865Z</time></trkpt><trkpt lat="42.212375" lon="14.5529233"><ele>84.0</ele><time>2026-04-14T10:13:21.865Z</time></trkpt><trkpt lat="42.2124233" lon="14.5528117"><ele>83.0</ele><time>2026-04-14T10:13:24.866Z</time></trkpt><trkpt lat="42.2124533" lon="14.5527167"><ele>82.0</ele><time>2026-04-14T10:13:26.865Z</time></trkpt><trkpt lat="42.212495" lon="14.552635"><ele>81.0</ele><time>2026-04-14T10:13:28.865Z</time></trkpt><trkpt lat="42.2125317" lon="14.55254"><ele>80.0</ele><time>2026-04-14T10:13:30.865Z</time></trkpt><trkpt lat="42.21256" lon="14.5524383"><ele>79.0</ele><time>2026-04-14T10:13:32.865Z</time></trkpt><trkpt lat="42.21259" lon="14.5523283"><ele>79.0</ele><time>2026-04-14T10:13:34.866Z</time></trkpt><trkpt lat="42.2126067" lon="14.5522167"><ele>79.0</ele><time>2026-04-14T10:13:36.865Z</time></trkpt><trkpt lat="42.21258" lon="14.5520817"><ele>79.0</ele><time>2026-04-14T10:14:30.865Z</time></trkpt><trkpt lat="42.2125467" lon="14.55199"><ele>79.0</ele><time>2026-04-14T10:14:34.866Z</time></trkpt><trkpt lat="42.2125367" lon="14.551865"><ele>79.0</ele><time>2026-04-14T10:14:37.866Z</time></trkpt><trkpt lat="42.212525" lon="14.5517433"><ele>79.0</ele><time>2026-04-14T10:14:39.866Z</time></trkpt><trkpt lat="42.2124917" lon="14.551635"><ele>78.4</ele><time>2026-04-14T10:14:41.865Z</time></trkpt><trkpt lat="42.2124517" lon="14.5515083"><ele>77.80000000000001</ele><time>2026-04-14T10:14:43.865Z</time></trkpt><trkpt lat="42.2124233" lon="14.5513767"><ele>77.19999999999999</ele><time>2026-04-14T10:14:45.866Z</time></trkpt><trkpt lat="42.2123867" lon="14.5512733"><ele>76.6</ele><time>2026-04-14T10:14:47.866Z</time></trkpt><trkpt lat="42.21236" lon="14.55115"><ele>76.0</ele><time>2026-04-14T10:14:50.866Z</time></trkpt><trkpt lat="42.2123333" lon="14.5510467"><ele>72.8</ele><time>2026-04-14T10:14:53.865Z</time></trkpt><trkpt lat="42.2123183" lon="14.5509367"><ele>69.6</ele><time>2026-04-14T10:14:55.866Z</time></trkpt><trkpt lat="42.2122967" lon="14.5508133"><ele>66.4</ele><time>2026-04-14T10:14:57.865Z</time></trkpt><trkpt lat="42.212275" lon="14.55069"><ele>63.2</ele><time>2026-04-14T10:14:59.866Z</time></trkpt><trkpt lat="42.2122467" lon="14.5505633"><ele>60.0</ele><time>2026-04-14T10:15:01.865Z</time></trkpt><trkpt lat="42.21221" lon="14.550465"><ele>60.0</ele><time>2026-04-14T10:15:03.865Z</time></trkpt><trkpt lat="42.2121633" lon="14.5503867"><ele>60.0</ele><time>2026-04-14T10:15:05.865Z</time></trkpt><trkpt lat="42.2120983" lon="14.55033"><ele>60.0</ele><time>2026-04-14T10:15:07.865Z</time></trkpt><trkpt lat="42.2120267" lon="14.5502983"><ele>60.0</ele><time>2026-04-14T10:15:09.866Z</time></trkpt><trkpt lat="42.211935" lon="14.550285"><ele>60.0</ele><time>2026-04-14T10:15:11.865Z</time></trkpt><trkpt lat="42.2118217" lon="14.5502767"><ele>60.0</ele><time>2026-04-14T10:15:13.865Z</time></trkpt><trkpt lat="42.2116983" lon="14.5502683"><ele>59.0</ele><time>2026-04-14T10:15:15.866Z</time></trkpt><trkpt lat="42.211575" lon="14.55026"><ele>58.0</ele><time>2026-04-14T10:15:17.866Z</time></trkpt><trkpt lat="42.211455" lon="14.5502483"><ele>57.0</ele><time>2026-04-14T10:15:19.866Z</time></trkpt><trkpt lat="42.211335" lon="14.5502483"><ele>56.0</ele><time>2026-04-14T10:15:21.866Z</time></trkpt><trkpt lat="42.21127" lon="14.5502467"><ele>55.0</ele><time>2026-04-14T10:15:22.866Z</time></trkpt><trkpt lat="42.2111967" lon="14.5502383"><ele>53.71428571428571</ele><time>2026-04-14T10:15:23.866Z</time></trkpt><trkpt lat="42.211125" lon="14.5502267"><ele>52.42857142857143</ele><time>2026-04-14T10:15:24.866Z</time></trkpt><trkpt lat="42.2110583" lon="14.5502117"><ele>51.14285714285714</ele><time>2026-04-14T10:15:25.866Z</time></trkpt><trkpt lat="42.2109883" lon="14.550195"><ele>49.857142857142854</ele><time>2026-04-14T10:15:26.865Z</time></trkpt><trkpt lat="42.2109233" lon="14.5501817"><ele>48.57142857142857</ele><time>2026-04-14T10:15:27.866Z</time></trkpt><trkpt lat="42.2108467" lon="14.5501667"><ele>47.285714285714285</ele><time>2026-04-14T10:15:28.866Z</time></trkpt><trkpt lat="42.2107783" lon="14.5501533"><ele>46.0</ele><time>2026-04-14T10:15:29.866Z</time></trkpt><trkpt lat="42.2107083" lon="14.550135"><ele>45.16666666666667</ele><time>2026-04-14T10:15:30.866Z</time></trkpt><trkpt lat="42.2106333" lon="14.550115"><ele>44.333333333333336</ele><time>2026-04-14T10:15:31.865Z</time></trkpt><trkpt lat="42.21056" lon="14.550105"><ele>43.5</ele><time>2026-04-14T10:15:32.865Z</time></trkpt><trkpt lat="42.2104867" lon="14.550085"><ele>42.666666666666664</ele><time>2026-04-14T10:15:33.865Z</time></trkpt><trkpt lat="42.2104" lon="14.55006"><ele>41.83333333333333</ele><time>2026-04-14T10:15:34.866Z</time></trkpt><trkpt lat="42.210325" lon="14.55004"><ele>41.0</ele><time>2026-04-14T10:15:35.865Z</time></trkpt><trkpt lat="42.210255" lon="14.550015"><ele>41.0</ele><time>2026-04-14T10:15:36.866Z</time></trkpt><trkpt lat="42.2101567" lon="14.54996"><ele>41.0</ele><time>2026-04-14T10:15:38.865Z</time></trkpt><trkpt lat="42.2100967" lon="14.54992"><ele>41.0</ele><time>2026-04-14T10:15:41.865Z</time></trkpt><trkpt lat="42.2100267" lon="14.5499"><ele>41.0</ele><time>2026-04-14T10:15:44.865Z</time></trkpt><trkpt lat="42.20995" lon="14.5499117"><ele>41.0</ele><time>2026-04-14T10:15:46.866Z</time></trkpt><trkpt lat="42.20982" lon="14.5499033"><ele>39.99999999999999</ele><time>2026-04-14T10:15:48.866Z</time></trkpt><trkpt lat="42.2097483" lon="14.54989"><ele>39.0</ele><time>2026-04-14T10:15:49.866Z</time></trkpt><trkpt lat="42.2096733" lon="14.5498767"><ele>38.0</ele><time>2026-04-14T10:15:50.865Z</time></trkpt><trkpt lat="42.2096017" lon="14.5498617"><ele>37.0</ele><time>2026-04-14T10:15:51.865Z</time></trkpt><trkpt lat="42.2095233" lon="14.5498433"><ele>36.0</ele><time>2026-04-14T10:15:52.865Z</time></trkpt><trkpt lat="42.20945" lon="14.54983"><ele>34.99999999999999</ele><time>2026-04-14T10:15:53.866Z</time></trkpt><trkpt lat="42.209375" lon="14.5498417"><ele>34.0</ele><time>2026-04-14T10:15:54.865Z</time></trkpt><trkpt lat="42.2093117" lon="14.5498783"><ele>33.99999999999999</ele><time>2026-04-14T10:15:55.866Z</time></trkpt><trkpt lat="42.2092567" lon="14.54994"><ele>34.0</ele><time>2026-04-14T10:15:56.865Z</time></trkpt><trkpt lat="42.2092067" lon="14.5500017"><ele>34.0</ele><time>2026-04-14T10:15:57.866Z</time></trkpt><trkpt lat="42.2091617" lon="14.5500667"><ele>34.0</ele><time>2026-04-14T10:15:58.866Z</time></trkpt><trkpt lat="42.2091183" lon="14.5501283"><ele>34.0</ele><time>2026-04-14T10:15:59.865Z</time></trkpt><trkpt lat="42.2090717" lon="14.5501933"><ele>33.99999999999999</ele><time>2026-04-14T10:16:00.866Z</time></trkpt><trkpt lat="42.20903" lon="14.5502633"><ele>34.0</ele><time>2026-04-14T10:16:01.865Z</time></trkpt><trkpt lat="42.2089867" lon="14.55033"><ele>33.25</ele><time>2026-04-14T10:16:02.865Z</time></trkpt><trkpt lat="42.2089033" lon="14.55045"><ele>32.5</ele><time>2026-04-14T10:16:04.866Z</time></trkpt><trkpt lat="42.208825" lon="14.5505717"><ele>31.75</ele><time>2026-04-14T10:16:06.865Z</time></trkpt><trkpt lat="42.208745" lon="14.5506983"><ele>31.0</ele><time>2026-04-14T10:16:08.865Z</time></trkpt><trkpt lat="42.20867" lon="14.5508167"><ele>31.000000000000004</ele><time>2026-04-14T10:16:10.865Z</time></trkpt><trkpt lat="42.2086233" lon="14.55088"><ele>31.0</ele><time>2026-04-14T10:16:11.865Z</time></trkpt><trkpt lat="42.2085817" lon="14.5509483"><ele>31.0</ele><time>2026-04-14T10:16:12.865Z</time></trkpt><trkpt lat="42.2085367" lon="14.5510167"><ele>31.0</ele><time>2026-04-14T10:16:13.865Z</time></trkpt><trkpt lat="42.2084567" lon="14.5511383"><ele>31.000000000000004</ele><time>2026-04-14T10:16:15.866Z</time></trkpt><trkpt lat="42.2083817" lon="14.55126"><ele>31.0</ele><time>2026-04-14T10:16:17.866Z</time></trkpt><trkpt lat="42.2083117" lon="14.551375"><ele>31.0</ele><time>2026-04-14T10:16:19.866Z</time></trkpt><trkpt lat="42.2082467" lon="14.5514833"><ele>31.0</ele><time>2026-04-14T10:16:21.866Z</time></trkpt><trkpt lat="42.2081783" lon="14.5515883"><ele>31.0</ele><time>2026-04-14T10:16:23.866Z</time></trkpt><trkpt lat="42.2081167" lon="14.55169"><ele>31.0</ele><time>2026-04-14T10:16:25.866Z</time></trkpt><trkpt lat="42.2080617" lon="14.55179"><ele>31.0</ele><time>2026-04-14T10:16:27.866Z</time></trkpt><trkpt lat="42.207995" lon="14.5518833"><ele>31.0</ele><time>2026-04-14T10:16:29.866Z</time></trkpt><trkpt lat="42.2079283" lon="14.5519817"><ele>31.0</ele><time>2026-04-14T10:16:31.866Z</time></trkpt><trkpt lat="42.2078633" lon="14.5520817"><ele>31.0</ele><time>2026-04-14T10:16:33.866Z</time></trkpt><trkpt lat="42.2077917" lon="14.5521717"><ele>31.0</ele><time>2026-04-14T10:16:35.866Z</time></trkpt><trkpt lat="42.207715" lon="14.552265"><ele>31.0</ele><time>2026-04-14T10:16:37.866Z</time></trkpt><trkpt lat="42.20765" lon="14.5523717"><ele>31.0</ele><time>2026-04-14T10:16:39.866Z</time></trkpt><trkpt lat="42.20758" lon="14.55248"><ele>31.0</ele><time>2026-04-14T10:16:41.865Z</time></trkpt><trkpt lat="42.2075017" lon="14.552575"><ele>31.0</ele><time>2026-04-14T10:16:43.865Z</time></trkpt><trkpt lat="42.2074217" lon="14.5526583"><ele>31.0</ele><time>2026-04-14T10:16:45.865Z</time></trkpt><trkpt lat="42.20734" lon="14.552735"><ele>31.0</ele><time>2026-04-14T10:16:47.866Z</time></trkpt><trkpt lat="42.2072717" lon="14.5528233"><ele>31.0</ele><time>2026-04-14T10:16:49.866Z</time></trkpt><trkpt lat="42.2071983" lon="14.552925"><ele>31.0</ele><time>2026-04-14T10:16:51.866Z</time></trkpt><trkpt lat="42.2071183" lon="14.5530267"><ele>31.0</ele><time>2026-04-14T10:16:53.865Z</time></trkpt><trkpt lat="42.2070333" lon="14.5531267"><ele>31.0</ele><time>2026-04-14T10:16:55.866Z</time></trkpt><trkpt lat="42.20694" lon="14.5532233"><ele>31.0</ele><time>2026-04-14T10:16:57.866Z</time></trkpt><trkpt lat="42.2068617" lon="14.5533283"><ele>31.0</ele><time>2026-04-14T10:16:59.865Z</time></trkpt><trkpt lat="42.2067867" lon="14.5534367"><ele>31.0</ele><time>2026-04-14T10:17:01.865Z</time></trkpt><trkpt lat="42.2067117" lon="14.5535417"><ele>31.0</ele><time>2026-04-14T10:17:03.866Z</time></trkpt><trkpt lat="42.206635" lon="14.553645"><ele>31.0</ele><time>2026-04-14T10:17:05.866Z</time></trkpt><trkpt lat="42.2065683" lon="14.5537383"><ele>31.0</ele><time>2026-04-14T10:17:07.866Z</time></trkpt><trkpt lat="42.2064983" lon="14.5538433"><ele>30.8</ele><time>2026-04-14T10:17:09.866Z</time></trkpt><trkpt lat="42.2064217" lon="14.55395"><ele>30.6</ele><time>2026-04-14T10:17:11.866Z</time></trkpt><trkpt lat="42.206335" lon="14.5540417"><ele>30.4</ele><time>2026-04-14T10:17:13.865Z</time></trkpt><trkpt lat="42.206255" lon="14.554135"><ele>30.2</ele><time>2026-04-14T10:17:15.866Z</time></trkpt><trkpt lat="42.20618" lon="14.5542367"><ele>30.0</ele><time>2026-04-14T10:17:17.866Z</time></trkpt><trkpt lat="42.2061183" lon="14.55434"><ele>30.0</ele><time>2026-04-14T10:17:19.865Z</time></trkpt><trkpt lat="42.2060617" lon="14.554435"><ele>30.0</ele><time>2026-04-14T10:17:21.866Z</time></trkpt><trkpt lat="42.2059883" lon="14.554515"><ele>30.0</ele><time>2026-04-14T10:17:23.866Z</time></trkpt><trkpt lat="42.205905" lon="14.554605"><ele>30.0</ele><time>2026-04-14T10:17:25.866Z</time></trkpt><trkpt lat="42.2058267" lon="14.5546983"><ele>30.0</ele><time>2026-04-14T10:17:27.866Z</time></trkpt><trkpt lat="42.2057583" lon="14.5548"><ele>29.8</ele><time>2026-04-14T10:17:29.866Z</time></trkpt><trkpt lat="42.20571" lon="14.5548917"><ele>29.6</ele><time>2026-04-14T10:17:31.865Z</time></trkpt><trkpt lat="42.2056633" lon="14.5549783"><ele>29.4</ele><time>2026-04-14T10:17:33.866Z</time></trkpt><trkpt lat="42.20561" lon="14.5550733"><ele>29.2</ele><time>2026-04-14T10:17:35.866Z</time></trkpt><trkpt lat="42.2055433" lon="14.5551767"><ele>29.0</ele><time>2026-04-14T10:17:37.866Z</time></trkpt><trkpt lat="42.20548" lon="14.5552917"><ele>28.999999999999996</ele><time>2026-04-14T10:17:39.866Z</time></trkpt><trkpt lat="42.2054167" lon="14.5553967"><ele>29.0</ele><time>2026-04-14T10:17:41.865Z</time></trkpt><trkpt lat="42.2053733" lon="14.555515"><ele>29.0</ele><time>2026-04-14T10:17:43.866Z</time></trkpt><trkpt lat="42.2053483" lon="14.5555983"><ele>29.0</ele><time>2026-04-14T10:17:45.865Z</time></trkpt><trkpt lat="42.2053267" lon="14.5556933"><ele>28.999999999999996</ele><time>2026-04-14T10:17:49.866Z</time></trkpt><trkpt lat="42.2052883" lon="14.5557817"><ele>29.0</ele><time>2026-04-14T10:17:51.866Z</time></trkpt><trkpt lat="42.2052417" lon="14.5558733"><ele>28.999999999999996</ele><time>2026-04-14T10:17:53.865Z</time></trkpt><trkpt lat="42.2051883" lon="14.55597"><ele>29.0</ele><time>2026-04-14T10:17:55.865Z</time></trkpt><trkpt lat="42.20514" lon="14.5560333"><ele>29.0</ele><time>2026-04-14T10:17:57.866Z</time></trkpt><trkpt lat="42.2050917" lon="14.5561117"><ele>29.0</ele><time>2026-04-14T10:18:01.866Z</time></trkpt><trkpt lat="42.2050617" lon="14.5561983"><ele>28.999999999999996</ele><time>2026-04-14T10:18:05.866Z</time></trkpt><trkpt lat="42.20503" lon="14.55629"><ele>29.0</ele><time>2026-04-14T10:18:09.866Z</time></trkpt><trkpt lat="42.205045" lon="14.55641"><ele>28.666666666666664</ele><time>2026-04-14T10:18:15.865Z</time></trkpt><trkpt lat="42.205085" lon="14.5564933"><ele>28.333333333333332</ele><time>2026-04-14T10:18:18.866Z</time></trkpt><trkpt lat="42.20512" lon="14.5565967"><ele>28.0</ele><time>2026-04-14T10:18:21.865Z</time></trkpt><trkpt lat="42.205125" lon="14.5566867"><ele>27.666666666666664</ele><time>2026-04-14T10:18:23.866Z</time></trkpt><trkpt lat="42.205135" lon="14.556805"><ele>27.333333333333332</ele><time>2026-04-14T10:18:26.866Z</time></trkpt><trkpt lat="42.2051483" lon="14.5569217"><ele>27.0</ele><time>2026-04-14T10:18:29.865Z</time></trkpt><trkpt lat="42.2051683" lon="14.55705"><ele>26.6</ele><time>2026-04-14T10:18:32.865Z</time></trkpt><trkpt lat="42.2051967" lon="14.5571617"><ele>26.200000000000003</ele><time>2026-04-14T10:18:34.866Z</time></trkpt><trkpt lat="42.2052367" lon="14.5572667"><ele>25.8</ele><time>2026-04-14T10:18:36.866Z</time></trkpt><trkpt lat="42.2052867" lon="14.5573783"><ele>25.4</ele><time>2026-04-14T10:18:38.866Z</time></trkpt><trkpt lat="42.2053517" lon="14.5574883"><ele>25.0</ele><time>2026-04-14T10:18:40.865Z</time></trkpt><trkpt lat="42.2054267" lon="14.55759"><ele>25.000000000000004</ele><time>2026-04-14T10:18:42.865Z</time></trkpt><trkpt lat="42.2055117" lon="14.557665"><ele>25.0</ele><time>2026-04-14T10:18:44.866Z</time></trkpt><trkpt lat="42.2055833" lon="14.5576933"><ele>25.0</ele><time>2026-04-14T10:18:46.866Z</time></trkpt><trkpt lat="42.2056567" lon="14.5577017"><ele>25.0</ele><time>2026-04-14T10:18:49.865Z</time></trkpt><trkpt lat="42.2057317" lon="14.5577533"><ele>25.000000000000004</ele><time>2026-04-14T10:18:52.866Z</time></trkpt><trkpt lat="42.2057533" lon="14.5578383"><ele>25.0</ele><time>2026-04-14T10:18:57.866Z</time></trkpt><trkpt lat="42.2057483" lon="14.557925"><ele>25.166666666666668</ele><time>2026-04-14T10:19:00.866Z</time></trkpt><trkpt lat="42.2058183" lon="14.55806"><ele>25.333333333333336</ele><time>2026-04-14T10:19:36.865Z</time></trkpt><trkpt lat="42.205845" lon="14.5579583"><ele>25.5</ele><time>2026-04-14T10:19:52.866Z</time></trkpt><trkpt lat="42.2058833" lon="14.557885"><ele>25.666666666666664</ele><time>2026-04-14T10:19:56.866Z</time></trkpt><trkpt lat="42.2059567" lon="14.5578567"><ele>25.833333333333332</ele><time>2026-04-14T10:20:03.866Z</time></trkpt><trkpt lat="42.20604" lon="14.5578683"><ele>26.0</ele><time>2026-04-14T10:20:07.865Z</time></trkpt><trkpt lat="42.2061217" lon="14.557865"><ele>25.999999999999996</ele><time>2026-04-14T10:20:10.866Z</time></trkpt><trkpt lat="42.2061967" lon="14.5578583"><ele>26.0</ele><time>2026-04-14T10:20:13.866Z</time></trkpt><trkpt lat="42.2062767" lon="14.5578617"><ele>26.0</ele><time>2026-04-14T10:20:16.865Z</time></trkpt><trkpt lat="42.2063533" lon="14.5578683"><ele>26.0</ele><time>2026-04-14T10:20:19.865Z</time></trkpt><trkpt lat="42.20643" lon="14.5578783"><ele>25.999999999999996</ele><time>2026-04-14T10:20:22.866Z</time></trkpt><trkpt lat="42.2065117" lon="14.55788"><ele>26.0</ele><time>2026-04-14T10:20:25.865Z</time></trkpt><trkpt lat="42.206595" lon="14.5578667"><ele>26.285714285714285</ele><time>2026-04-14T10:20:28.865Z</time></trkpt><trkpt lat="42.206685" lon="14.5578367"><ele>26.571428571428573</ele><time>2026-04-14T10:20:31.866Z</time></trkpt><trkpt lat="42.2067467" lon="14.55781"><ele>26.857142857142858</ele><time>2026-04-14T10:20:33.866Z</time></trkpt><trkpt lat="42.2068217" lon="14.5577833"><ele>27.142857142857142</ele><time>2026-04-14T10:20:36.866Z</time></trkpt><trkpt lat="42.2068417" lon="14.557865"><ele>27.42857142857143</ele><time>2026-04-14T10:20:44.865Z</time></trkpt><trkpt lat="42.20681" lon="14.5579533"><ele>27.714285714285715</ele><time>2026-04-14T10:20:46.866Z</time></trkpt><trkpt lat="42.206775" lon="14.5580367"><ele>28.0</ele><time>2026-04-14T10:20:48.866Z</time></trkpt><trkpt lat="42.206745" lon="14.5581133"><ele>28.000000000000004</ele><time>2026-04-14T10:20:50.866Z</time></trkpt><trkpt lat="42.2067033" lon="14.5582167"><ele>28.0</ele><time>2026-04-14T10:20:53.865Z</time></trkpt><trkpt lat="42.20667" lon="14.5582967"><ele>28.0</ele><time>2026-04-14T10:20:55.866Z</time></trkpt><trkpt lat="42.2066417" lon="14.5583917"><ele>28.0</ele><time>2026-04-14T10:20:57.865Z</time></trkpt><trkpt lat="42.2066133" lon="14.5584867"><ele>28.000000000000004</ele><time>2026-04-14T10:20:59.866Z</time></trkpt><trkpt lat="42.2065917" lon="14.55859"><ele>28.0</ele><time>2026-04-14T10:21:01.865Z</time></trkpt><trkpt lat="42.2065683" lon="14.5586867"><ele>28.0</ele><time>2026-04-14T10:21:03.866Z</time></trkpt><trkpt lat="42.2065417" lon="14.5587717"><ele>28.0</ele><time>2026-04-14T10:21:05.866Z</time></trkpt><trkpt lat="42.2065133" lon="14.558885"><ele>28.0</ele><time>2026-04-14T10:21:08.866Z</time></trkpt><trkpt lat="42.2064933" lon="14.5589667"><ele>28.0</ele><time>2026-04-14T10:21:10.865Z</time></trkpt><trkpt lat="42.206475" lon="14.5590567"><ele>28.0</ele><time>2026-04-14T10:21:12.866Z</time></trkpt><trkpt lat="42.20645" lon="14.559145"><ele>28.0</ele><time>2026-04-14T10:21:14.866Z</time></trkpt><trkpt lat="42.2064217" lon="14.5592333"><ele>28.0</ele><time>2026-04-14T10:21:16.865Z</time></trkpt><trkpt lat="42.2064083" lon="14.55935"><ele>27.833333333333336</ele><time>2026-04-14T10:21:19.866Z</time></trkpt><trkpt lat="42.2064017" lon="14.5594483"><ele>27.666666666666668</ele><time>2026-04-14T10:21:23.865Z</time></trkpt><trkpt lat="42.206365" lon="14.5595483"><ele>27.5</ele><time>2026-04-14T10:21:26.865Z</time></trkpt><trkpt lat="42.2063067" lon="14.5596183"><ele>27.333333333333336</ele><time>2026-04-14T10:21:29.865Z</time></trkpt><trkpt lat="42.2062617" lon="14.55968"><ele>27.166666666666668</ele><time>2026-04-14T10:21:32.866Z</time></trkpt><trkpt lat="42.2061733" lon="14.5596917"><ele>27.0</ele><time>2026-04-14T10:21:36.865Z</time></trkpt><trkpt lat="42.2060867" lon="14.559675"><ele>27.0</ele><time>2026-04-14T10:21:39.865Z</time></trkpt><trkpt lat="42.205995" lon="14.5596617"><ele>27.0</ele><time>2026-04-14T10:21:42.865Z</time></trkpt><trkpt lat="42.2059167" lon="14.5596483"><ele>27.0</ele><time>2026-04-14T10:21:45.865Z</time></trkpt><trkpt lat="42.2058583" lon="14.5596983"><ele>27.0</ele><time>2026-04-14T10:21:48.865Z</time></trkpt><trkpt lat="42.2058133" lon="14.5598067"><ele>27.0</ele><time>2026-04-14T10:21:51.866Z</time></trkpt><trkpt lat="42.2057983" lon="14.5599083"><ele>27.0</ele><time>2026-04-14T10:21:53.866Z</time></trkpt><trkpt lat="42.2057833" lon="14.560045"><ele>27.0</ele><time>2026-04-14T10:21:55.865Z</time></trkpt><trkpt lat="42.205765" lon="14.56017"><ele>27.0</ele><time>2026-04-14T10:21:57.866Z</time></trkpt><trkpt lat="42.2057367" lon="14.5602617"><ele>27.0</ele><time>2026-04-14T10:21:59.866Z</time></trkpt><trkpt lat="42.2056983" lon="14.5603383"><ele>27.0</ele><time>2026-04-14T10:22:01.865Z</time></trkpt><trkpt lat="42.2056367" lon="14.5604067"><ele>27.0</ele><time>2026-04-14T10:22:03.866Z</time></trkpt><trkpt lat="42.2055867" lon="14.560475"><ele>27.0</ele><time>2026-04-14T10:22:05.866Z</time></trkpt><trkpt lat="42.2055367" lon="14.5606"><ele>26.8</ele><time>2026-04-14T10:22:08.866Z</time></trkpt><trkpt lat="42.2054917" lon="14.5607367"><ele>26.6</ele><time>2026-04-14T10:22:10.865Z</time></trkpt><trkpt lat="42.2054683" lon="14.56086"><ele>26.400000000000002</ele><time>2026-04-14T10:22:12.866Z</time></trkpt><trkpt lat="42.2054533" lon="14.5609917"><ele>26.200000000000003</ele><time>2026-04-14T10:22:14.866Z</time></trkpt><trkpt lat="42.2054483" lon="14.56113"><ele>26.0</ele><time>2026-04-14T10:22:16.865Z</time></trkpt><trkpt lat="42.2054467" lon="14.5612633"><ele>25.999999999999996</ele><time>2026-04-14T10:22:18.865Z</time></trkpt><trkpt lat="42.20544" lon="14.5613833"><ele>26.0</ele><time>2026-04-14T10:22:20.865Z</time></trkpt><trkpt lat="42.20544" lon="14.5614917"><ele>26.0</ele><time>2026-04-14T10:22:22.865Z</time></trkpt><trkpt lat="42.2054433" lon="14.5615933"><ele>26.0</ele><time>2026-04-14T10:22:24.865Z</time></trkpt><trkpt lat="42.205435" lon="14.5616883"><ele>25.999999999999996</ele><time>2026-04-14T10:22:26.866Z</time></trkpt><trkpt lat="42.2054167" lon="14.561785"><ele>26.0</ele><time>2026-04-14T10:22:28.865Z</time></trkpt><trkpt lat="42.2054" lon="14.56188"><ele>25.999999999999996</ele><time>2026-04-14T10:22:30.866Z</time></trkpt><trkpt lat="42.2053933" lon="14.561975"><ele>26.0</ele><time>2026-04-14T10:22:32.866Z</time></trkpt><trkpt lat="42.2053867" lon="14.5620667"><ele>26.0</ele><time>2026-04-14T10:22:34.865Z</time></trkpt><trkpt lat="42.205365" lon="14.5621517"><ele>26.0</ele><time>2026-04-14T10:22:36.865Z</time></trkpt><trkpt lat="42.2053217" lon="14.5622417"><ele>25.999999999999996</ele><time>2026-04-14T10:22:38.866Z</time></trkpt><trkpt lat="42.205265" lon="14.562335"><ele>26.0</ele><time>2026-04-14T10:22:40.866Z</time></trkpt><trkpt lat="42.205205" lon="14.56242"><ele>25.499999999999996</ele><time>2026-04-14T10:22:42.866Z</time></trkpt><trkpt lat="42.2051483" lon="14.562495"><ele>25.0</ele><time>2026-04-14T10:22:44.866Z</time></trkpt><trkpt lat="42.2050983" lon="14.5625617"><ele>24.5</ele><time>2026-04-14T10:22:46.866Z</time></trkpt><trkpt lat="42.2050367" lon="14.56264"><ele>24.0</ele><time>2026-04-14T10:22:49.866Z</time></trkpt><trkpt lat="42.2049783" lon="14.5626967"><ele>23.5</ele><time>2026-04-14T10:22:52.866Z</time></trkpt><trkpt lat="42.2049733" lon="14.5627833"><ele>23.0</ele><time>2026-04-14T10:22:55.865Z</time></trkpt><trkpt lat="42.2050617" lon="14.5628167"><ele>23.0</ele><time>2026-04-14T10:22:59.865Z</time></trkpt><trkpt lat="42.2051233" lon="14.562845"><ele>23.0</ele><time>2026-04-14T10:23:01.866Z</time></trkpt><trkpt lat="42.205185" lon="14.56287"><ele>23.0</ele><time>2026-04-14T10:23:03.866Z</time></trkpt><trkpt lat="42.2052467" lon="14.5628983"><ele>23.0</ele><time>2026-04-14T10:23:05.866Z</time></trkpt><trkpt lat="42.205305" lon="14.5629383"><ele>23.0</ele><time>2026-04-14T10:23:07.866Z</time></trkpt><trkpt lat="42.2053617" lon="14.5629833"><ele>23.0</ele><time>2026-04-14T10:23:09.866Z</time></trkpt><trkpt lat="42.2054133" lon="14.5630383"><ele>23.0</ele><time>2026-04-14T10:23:11.866Z</time></trkpt><trkpt lat="42.2054667" lon="14.563105"><ele>23.0</ele><time>2026-04-14T10:23:13.866Z</time></trkpt><trkpt lat="42.2055233" lon="14.5632"><ele>23.0</ele><time>2026-04-14T10:23:15.865Z</time></trkpt><trkpt lat="42.2055767" lon="14.5632983"><ele>23.0</ele><time>2026-04-14T10:23:17.865Z</time></trkpt><trkpt lat="42.2056267" lon="14.5633883"><ele>23.0</ele><time>2026-04-14T10:23:19.866Z</time></trkpt><trkpt lat="42.2056833" lon="14.5634717"><ele>23.0</ele><time>2026-04-14T10:23:21.865Z</time></trkpt><trkpt lat="42.2057217" lon="14.563565"><ele>23.0</ele><time>2026-04-14T10:23:23.866Z</time></trkpt><trkpt lat="42.2057417" lon="14.5636633"><ele>23.166666666666668</ele><time>2026-04-14T10:23:25.866Z</time></trkpt><trkpt lat="42.2057617" lon="14.5637667"><ele>23.333333333333336</ele><time>2026-04-14T10:23:27.866Z</time></trkpt><trkpt lat="42.2057767" lon="14.5638883"><ele>23.5</ele><time>2026-04-14T10:23:29.865Z</time></trkpt><trkpt lat="42.2057933" lon="14.5640083"><ele>23.666666666666668</ele><time>2026-04-14T10:23:31.866Z</time></trkpt><trkpt lat="42.2058" lon="14.564115"><ele>23.833333333333332</ele><time>2026-04-14T10:23:33.865Z</time></trkpt><trkpt lat="42.205805" lon="14.5642167"><ele>24.0</ele><time>2026-04-14T10:23:35.865Z</time></trkpt><trkpt lat="42.2057933" lon="14.5643133"><ele>24.0</ele><time>2026-04-14T10:23:37.865Z</time></trkpt><trkpt lat="42.2057833" lon="14.5644"><ele>24.0</ele><time>2026-04-14T10:23:39.865Z</time></trkpt><trkpt lat="42.2057667" lon="14.5645017"><ele>24.0</ele><time>2026-04-14T10:23:42.865Z</time></trkpt><trkpt lat="42.20575" lon="14.5646083"><ele>24.0</ele><time>2026-04-14T10:23:45.866Z</time></trkpt><trkpt lat="42.2057333" lon="14.564715"><ele>24.0</ele><time>2026-04-14T10:23:48.866Z</time></trkpt><trkpt lat="42.2056983" lon="14.5648183"><ele>24.0</ele><time>2026-04-14T10:23:51.866Z</time></trkpt><trkpt lat="42.20564" lon="14.56491"><ele>24.0</ele><time>2026-04-14T10:23:54.865Z</time></trkpt><trkpt lat="42.2055933" lon="14.5649767"><ele>24.0</ele><time>2026-04-14T10:23:56.865Z</time></trkpt><trkpt lat="42.2055433" lon="14.56504"><ele>24.0</ele><time>2026-04-14T10:23:58.866Z</time></trkpt><trkpt lat="42.2054883" lon="14.5651"><ele>24.0</ele><time>2026-04-14T10:24:00.866Z</time></trkpt><trkpt lat="42.2054433" lon="14.5651767"><ele>24.0</ele><time>2026-04-14T10:24:03.866Z</time></trkpt><trkpt lat="42.20542" lon="14.5652917"><ele>24.0</ele><time>2026-04-14T10:24:07.866Z</time></trkpt><trkpt lat="42.20535" lon="14.56539"><ele>23.6</ele><time>2026-04-14T10:24:10.866Z</time></trkpt><trkpt lat="42.2052783" lon="14.565465"><ele>23.2</ele><time>2026-04-14T10:24:12.865Z</time></trkpt><trkpt lat="42.20518" lon="14.5655467"><ele>22.8</ele><time>2026-04-14T10:24:14.866Z</time></trkpt><trkpt lat="42.205095" lon="14.5656383"><ele>22.400000000000002</ele><time>2026-04-14T10:24:16.865Z</time></trkpt><trkpt lat="42.2050217" lon="14.5657333"><ele>22.0</ele><time>2026-04-14T10:24:18.865Z</time></trkpt><trkpt lat="42.20497" lon="14.56584"><ele>22.0</ele><time>2026-04-14T10:24:20.866Z</time></trkpt><trkpt lat="42.204935" lon="14.5659517"><ele>22.0</ele><time>2026-04-14T10:24:22.866Z</time></trkpt><trkpt lat="42.204945" lon="14.5660533"><ele>22.0</ele><time>2026-04-14T10:24:24.865Z</time></trkpt><trkpt lat="42.20499" lon="14.56615"><ele>22.0</ele><time>2026-04-14T10:24:26.865Z</time></trkpt><trkpt lat="42.205035" lon="14.566245"><ele>22.0</ele><time>2026-04-14T10:24:28.866Z</time></trkpt><trkpt lat="42.2050633" lon="14.5663233"><ele>22.0</ele><time>2026-04-14T10:24:29.865Z</time></trkpt><trkpt lat="42.2051017" lon="14.5664067"><ele>21.8</ele><time>2026-04-14T10:24:30.866Z</time></trkpt><trkpt lat="42.2051783" lon="14.566535"><ele>21.6</ele><time>2026-04-14T10:24:32.865Z</time></trkpt><trkpt lat="42.2052483" lon="14.5666533"><ele>21.400000000000002</ele><time>2026-04-14T10:24:34.865Z</time></trkpt><trkpt lat="42.2053167" lon="14.5667583"><ele>21.200000000000003</ele><time>2026-04-14T10:24:36.865Z</time></trkpt><trkpt lat="42.2053767" lon="14.5668533"><ele>21.0</ele><time>2026-04-14T10:24:38.865Z</time></trkpt><trkpt lat="42.2054317" lon="14.566945"><ele>21.333333333333332</ele><time>2026-04-14T10:24:40.866Z</time></trkpt><trkpt lat="42.2054817" lon="14.5670383"><ele>21.666666666666668</ele><time>2026-04-14T10:24:42.865Z</time></trkpt><trkpt lat="42.2055283" lon="14.5671483"><ele>22.0</ele><time>2026-04-14T10:24:44.865Z</time></trkpt><trkpt lat="42.2055633" lon="14.567255"><ele>22.333333333333336</ele><time>2026-04-14T10:24:46.866Z</time></trkpt><trkpt lat="42.20559" lon="14.56736"><ele>22.666666666666668</ele><time>2026-04-14T10:24:48.866Z</time></trkpt><trkpt lat="42.2056083" lon="14.5674533"><ele>23.0</ele><time>2026-04-14T10:24:50.865Z</time></trkpt><trkpt lat="42.2056517" lon="14.5675567"><ele>23.166666666666668</ele><time>2026-04-14T10:24:52.866Z</time></trkpt><trkpt lat="42.2057" lon="14.5676817"><ele>23.333333333333336</ele><time>2026-04-14T10:24:54.865Z</time></trkpt><trkpt lat="42.2057267" lon="14.5678017"><ele>23.5</ele><time>2026-04-14T10:24:56.865Z</time></trkpt><trkpt lat="42.2057467" lon="14.5679033"><ele>23.666666666666668</ele><time>2026-04-14T10:24:58.866Z</time></trkpt><trkpt lat="42.2057483" lon="14.5680283"><ele>23.833333333333332</ele><time>2026-04-14T10:25:01.865Z</time></trkpt><trkpt lat="42.2057483" lon="14.5681183"><ele>24.0</ele><time>2026-04-14T10:25:03.865Z</time></trkpt><trkpt lat="42.2057317" lon="14.568235"><ele>24.142857142857142</ele><time>2026-04-14T10:25:06.865Z</time></trkpt><trkpt lat="42.2057167" lon="14.5683183"><ele>24.285714285714285</ele><time>2026-04-14T10:25:08.866Z</time></trkpt><trkpt lat="42.2057083" lon="14.5684267"><ele>24.42857142857143</ele><time>2026-04-14T10:25:10.866Z</time></trkpt><trkpt lat="42.2056933" lon="14.56852"><ele>24.57142857142857</ele><time>2026-04-14T10:25:13.866Z</time></trkpt><trkpt lat="42.2056617" lon="14.5686067"><ele>24.714285714285715</ele><time>2026-04-14T10:25:17.865Z</time></trkpt><trkpt lat="42.20564" lon="14.5686933"><ele>24.857142857142858</ele><time>2026-04-14T10:25:20.866Z</time></trkpt><trkpt lat="42.205605" lon="14.5687733"><ele>25.0</ele><time>2026-04-14T10:25:23.865Z</time></trkpt><trkpt lat="42.2055617" lon="14.5688417"><ele>24.500000000000004</ele><time>2026-04-14T10:25:27.866Z</time></trkpt><trkpt lat="42.205525" lon="14.5689167"><ele>24.0</ele><time>2026-04-14T10:25:31.866Z</time></trkpt><trkpt lat="42.2054633" lon="14.5689733"><ele>23.5</ele><time>2026-04-14T10:25:35.865Z</time></trkpt><trkpt lat="42.205395" lon="14.569015"><ele>23.0</ele><time>2026-04-14T10:25:38.865Z</time></trkpt><trkpt lat="42.20534" lon="14.5690717"><ele>22.5</ele><time>2026-04-14T10:25:41.866Z</time></trkpt><trkpt lat="42.2052683" lon="14.5691483"><ele>22.0</ele><time>2026-04-14T10:25:47.865Z</time></trkpt><trkpt lat="42.2052133" lon="14.56926"><ele>22.0</ele><time>2026-04-14T10:25:52.866Z</time></trkpt><trkpt lat="42.2051733" lon="14.5693583"><ele>22.0</ele><time>2026-04-14T10:25:55.866Z</time></trkpt><trkpt lat="42.205145" lon="14.5694733"><ele>22.0</ele><time>2026-04-14T10:25:58.865Z</time></trkpt><trkpt lat="42.20509" lon="14.5695717"><ele>22.0</ele><time>2026-04-14T10:26:01.865Z</time></trkpt><trkpt lat="42.2050533" lon="14.5696467"><ele>22.0</ele><time>2026-04-14T10:26:03.866Z</time></trkpt><trkpt lat="42.20501" lon="14.56972"><ele>22.0</ele><time>2026-04-14T10:26:05.866Z</time></trkpt><trkpt lat="42.204975" lon="14.5698167"><ele>22.142857142857142</ele><time>2026-04-14T10:26:08.866Z</time></trkpt><trkpt lat="42.204945" lon="14.569915"><ele>22.285714285714285</ele><time>2026-04-14T10:26:11.866Z</time></trkpt><trkpt lat="42.2049333" lon="14.5700183"><ele>22.42857142857143</ele><time>2026-04-14T10:26:14.866Z</time></trkpt><trkpt lat="42.2049217" lon="14.570125"><ele>22.57142857142857</ele><time>2026-04-14T10:26:17.866Z</time></trkpt><trkpt lat="42.204915" lon="14.57023"><ele>22.71428571428571</ele><time>2026-04-14T10:26:20.866Z</time></trkpt><trkpt lat="42.2048967" lon="14.5703167"><ele>22.857142857142858</ele><time>2026-04-14T10:26:23.866Z</time></trkpt><trkpt lat="42.20488" lon="14.5704"><ele>23.0</ele><time>2026-04-14T10:26:26.865Z</time></trkpt><trkpt lat="42.2048583" lon="14.5704833"><ele>22.833333333333336</ele><time>2026-04-14T10:26:29.866Z</time></trkpt><trkpt lat="42.2048017" lon="14.5705217"><ele>22.666666666666668</ele><time>2026-04-14T10:26:33.865Z</time></trkpt><trkpt lat="42.2047167" lon="14.5704817"><ele>22.5</ele><time>2026-04-14T10:26:36.866Z</time></trkpt><trkpt lat="42.2046317" lon="14.57044"><ele>22.333333333333332</ele><time>2026-04-14T10:26:39.865Z</time></trkpt><trkpt lat="42.2045533" lon="14.5704017"><ele>22.166666666666664</ele><time>2026-04-14T10:26:41.866Z</time></trkpt><trkpt lat="42.20448" lon="14.5703683"><ele>22.0</ele><time>2026-04-14T10:26:43.866Z</time></trkpt><trkpt lat="42.2044117" lon="14.5703367"><ele>21.714285714285715</ele><time>2026-04-14T10:26:45.866Z</time></trkpt><trkpt lat="42.2043467" lon="14.57031"><ele>21.428571428571427</ele><time>2026-04-14T10:26:47.866Z</time></trkpt><trkpt lat="42.2042833" lon="14.5702783"><ele>21.142857142857142</ele><time>2026-04-14T10:26:49.866Z</time></trkpt><trkpt lat="42.2042217" lon="14.57025"><ele>20.857142857142858</ele><time>2026-04-14T10:26:51.866Z</time></trkpt><trkpt lat="42.2041533" lon="14.5702233"><ele>20.571428571428573</ele><time>2026-04-14T10:26:53.865Z</time></trkpt><trkpt lat="42.2040717" lon="14.5702167"><ele>20.285714285714285</ele><time>2026-04-14T10:26:56.866Z</time></trkpt><trkpt lat="42.20402" lon="14.57027"><ele>20.0</ele><time>2026-04-14T10:26:58.866Z</time></trkpt><trkpt lat="42.20398" lon="14.5703517"><ele>20.285714285714285</ele><time>2026-04-14T10:27:00.865Z</time></trkpt><trkpt lat="42.2039467" lon="14.5704333"><ele>20.571428571428573</ele><time>2026-04-14T10:27:02.866Z</time></trkpt><trkpt lat="42.2039217" lon="14.5705117"><ele>20.857142857142858</ele><time>2026-04-14T10:27:04.866Z</time></trkpt><trkpt lat="42.2038983" lon="14.5705933"><ele>21.142857142857142</ele><time>2026-04-14T10:27:06.866Z</time></trkpt><trkpt lat="42.20389" lon="14.5706883"><ele>21.428571428571427</ele><time>2026-04-14T10:27:08.865Z</time></trkpt><trkpt lat="42.2038933" lon="14.5707733"><ele>21.714285714285715</ele><time>2026-04-14T10:27:10.866Z</time></trkpt><trkpt lat="42.2038967" lon="14.5708883"><ele>22.0</ele><time>2026-04-14T10:27:12.865Z</time></trkpt><trkpt lat="42.2038917" lon="14.5710133"><ele>22.0</ele><time>2026-04-14T10:27:14.865Z</time></trkpt><trkpt lat="42.2038833" lon="14.5711233"><ele>22.0</ele><time>2026-04-14T10:27:16.866Z</time></trkpt><trkpt lat="42.2038667" lon="14.57123"><ele>22.0</ele><time>2026-04-14T10:27:18.865Z</time></trkpt><trkpt lat="42.2038533" lon="14.57133"><ele>22.0</ele><time>2026-04-14T10:27:20.865Z</time></trkpt><trkpt lat="42.20383" lon="14.5714217"><ele>22.0</ele><time>2026-04-14T10:27:22.866Z</time></trkpt><trkpt lat="42.203805" lon="14.5715133"><ele>22.0</ele><time>2026-04-14T10:27:24.865Z</time></trkpt><trkpt lat="42.2037767" lon="14.57161"><ele>21.666666666666664</ele><time>2026-04-14T10:27:26.865Z</time></trkpt><trkpt lat="42.2037417" lon="14.5716967"><ele>21.333333333333332</ele><time>2026-04-14T10:27:28.866Z</time></trkpt><trkpt lat="42.203715" lon="14.5717833"><ele>21.0</ele><time>2026-04-14T10:27:30.865Z</time></trkpt><trkpt lat="42.2036783" lon="14.57187"><ele>20.666666666666668</ele><time>2026-04-14T10:27:32.866Z</time></trkpt><trkpt lat="42.2036383" lon="14.5719667"><ele>20.333333333333336</ele><time>2026-04-14T10:27:34.866Z</time></trkpt><trkpt lat="42.2035933" lon="14.57205"><ele>20.0</ele><time>2026-04-14T10:27:36.865Z</time></trkpt><trkpt lat="42.20355" lon="14.5721483"><ele>20.0</ele><time>2026-04-14T10:27:38.866Z</time></trkpt><trkpt lat="42.2035017" lon="14.572235"><ele>20.0</ele><time>2026-04-14T10:27:40.866Z</time></trkpt><trkpt lat="42.2034517" lon="14.57232"><ele>20.0</ele><time>2026-04-14T10:27:42.865Z</time></trkpt><trkpt lat="42.2034183" lon="14.5724033"><ele>20.0</ele><time>2026-04-14T10:27:44.865Z</time></trkpt><trkpt lat="42.2033833" lon="14.57249"><ele>20.0</ele><time>2026-04-14T10:27:46.866Z</time></trkpt><trkpt lat="42.2033417" lon="14.5725667"><ele>20.0</ele><time>2026-04-14T10:27:48.865Z</time></trkpt><trkpt lat="42.2032883" lon="14.572665"><ele>20.0</ele><time>2026-04-14T10:27:50.866Z</time></trkpt><trkpt lat="42.2032383" lon="14.57276"><ele>20.0</ele><time>2026-04-14T10:27:52.866Z</time></trkpt><trkpt lat="42.2031983" lon="14.5728283"><ele>20.0</ele><time>2026-04-14T10:27:54.865Z</time></trkpt><trkpt lat="42.2031333" lon="14.5729583"><ele>20.0</ele><time>2026-04-14T10:28:02.866Z</time></trkpt><trkpt lat="42.2030917" lon="14.5730517"><ele>20.0</ele><time>2026-04-14T10:28:06.866Z</time></trkpt><trkpt lat="42.203055" lon="14.5731383"><ele>20.0</ele><time>2026-04-14T10:28:09.866Z</time></trkpt><trkpt lat="42.2030233" lon="14.5732433"><ele>20.0</ele><time>2026-04-14T10:28:12.866Z</time></trkpt><trkpt lat="42.20301" lon="14.5733383"><ele>20.0</ele><time>2026-04-14T10:28:15.865Z</time></trkpt><trkpt lat="42.2029967" lon="14.573445"><ele>20.0</ele><time>2026-04-14T10:28:18.865Z</time></trkpt><trkpt lat="42.20299" lon="14.5735667"><ele>20.0</ele><time>2026-04-14T10:28:21.866Z</time></trkpt><trkpt lat="42.2029883" lon="14.573665"><ele>20.0</ele><time>2026-04-14T10:28:23.866Z</time></trkpt><trkpt lat="42.2029833" lon="14.5737667"><ele>20.0</ele><time>2026-04-14T10:28:25.865Z</time></trkpt><trkpt lat="42.202965" lon="14.57387"><ele>19.666666666666668</ele><time>2026-04-14T10:28:27.865Z</time></trkpt><trkpt lat="42.202945" lon="14.5739717"><ele>19.333333333333336</ele><time>2026-04-14T10:28:29.865Z</time></trkpt><trkpt lat="42.20293" lon="14.5740783"><ele>19.0</ele><time>2026-04-14T10:28:31.865Z</time></trkpt><trkpt lat="42.202925" lon="14.5741867"><ele>18.666666666666668</ele><time>2026-04-14T10:28:33.865Z</time></trkpt><trkpt lat="42.20291" lon="14.5743033"><ele>18.333333333333332</ele><time>2026-04-14T10:28:35.865Z</time></trkpt><trkpt lat="42.2028817" lon="14.5744383"><ele>18.0</ele><time>2026-04-14T10:28:37.866Z</time></trkpt><trkpt lat="42.2028583" lon="14.5745967"><ele>17.8</ele><time>2026-04-14T10:28:39.866Z</time></trkpt><trkpt lat="42.20285" lon="14.5746833"><ele>17.6</ele><time>2026-04-14T10:28:40.866Z</time></trkpt><trkpt lat="42.202835" lon="14.5748417"><ele>17.4</ele><time>2026-04-14T10:28:42.866Z</time></trkpt><trkpt lat="42.2028267" lon="14.574985"><ele>17.2</ele><time>2026-04-14T10:28:44.866Z</time></trkpt><trkpt lat="42.2028217" lon="14.5751183"><ele>17.0</ele><time>2026-04-14T10:28:46.866Z</time></trkpt><trkpt lat="42.2028117" lon="14.5752183"><ele>17.0</ele><time>2026-04-14T10:28:48.865Z</time></trkpt><trkpt lat="42.2027967" lon="14.5753067"><ele>17.0</ele><time>2026-04-14T10:28:50.866Z</time></trkpt><trkpt lat="42.2027783" lon="14.5754067"><ele>17.0</ele><time>2026-04-14T10:28:52.866Z</time></trkpt><trkpt lat="42.2027617" lon="14.5755083"><ele>17.0</ele><time>2026-04-14T10:28:54.866Z</time></trkpt><trkpt lat="42.20274" lon="14.5756033"><ele>17.0</ele><time>2026-04-14T10:28:56.866Z</time></trkpt><trkpt lat="42.2027183" lon="14.575725"><ele>17.0</ele><time>2026-04-14T10:28:58.866Z</time></trkpt><trkpt lat="42.2027033" lon="14.575855"><ele>17.0</ele><time>2026-04-14T10:29:00.865Z</time></trkpt><trkpt lat="42.2027017" lon="14.5759817"><ele>17.0</ele><time>2026-04-14T10:29:02.865Z</time></trkpt><trkpt lat="42.2027017" lon="14.5761067"><ele>17.0</ele><time>2026-04-14T10:29:04.866Z</time></trkpt><trkpt lat="42.2026933" lon="14.5762283"><ele>17.0</ele><time>2026-04-14T10:29:06.866Z</time></trkpt><trkpt lat="42.2026833" lon="14.5763583"><ele>17.0</ele><time>2026-04-14T10:29:08.866Z</time></trkpt><trkpt lat="42.2026817" lon="14.5764867"><ele>17.0</ele><time>2026-04-14T10:29:10.866Z</time></trkpt><trkpt lat="42.202675" lon="14.5766033"><ele>17.0</ele><time>2026-04-14T10:29:12.866Z</time></trkpt><trkpt lat="42.2026767" lon="14.5767083"><ele>17.0</ele><time>2026-04-14T10:29:14.866Z</time></trkpt><trkpt lat="42.202685" lon="14.576795"><ele>17.0</ele><time>2026-04-14T10:29:16.866Z</time></trkpt><trkpt lat="42.2026867" lon="14.5769033"><ele>17.0</ele><time>2026-04-14T10:29:19.866Z</time></trkpt><trkpt lat="42.2027067" lon="14.5770017"><ele>17.0</ele><time>2026-04-14T10:29:23.865Z</time></trkpt><trkpt lat="42.2027367" lon="14.577165"><ele>17.166666666666668</ele><time>2026-04-14T10:29:51.866Z</time></trkpt><trkpt lat="42.202735" lon="14.5772783"><ele>17.333333333333336</ele><time>2026-04-14T10:29:58.865Z</time></trkpt><trkpt lat="42.2027617" lon="14.577375"><ele>17.5</ele><time>2026-04-14T10:30:02.866Z</time></trkpt><trkpt lat="42.2027883" lon="14.57747"><ele>17.666666666666668</ele><time>2026-04-14T10:30:05.866Z</time></trkpt><trkpt lat="42.2028117" lon="14.57758"><ele>17.833333333333332</ele><time>2026-04-14T10:30:08.866Z</time></trkpt><trkpt lat="42.2028383" lon="14.57766"><ele>18.0</ele><time>2026-04-14T10:30:10.866Z</time></trkpt><trkpt lat="42.202885" lon="14.57776"><ele>18.0</ele><time>2026-04-14T10:30:13.865Z</time></trkpt><trkpt lat="42.2029033" lon="14.5778433"><ele>18.0</ele><time>2026-04-14T10:30:15.866Z</time></trkpt><trkpt lat="42.20295" lon="14.5779467"><ele>18.0</ele><time>2026-04-14T10:30:18.866Z</time></trkpt><trkpt lat="42.2029783" lon="14.5780283"><ele>18.0</ele><time>2026-04-14T10:30:20.866Z</time></trkpt><trkpt lat="42.2030117" lon="14.5781233"><ele>18.0</ele><time>2026-04-14T10:30:23.865Z</time></trkpt><trkpt lat="42.2030767" lon="14.5782667"><ele>18.0</ele><time>2026-04-14T10:30:30.866Z</time></trkpt><trkpt lat="42.2031233" lon="14.5783533"><ele>18.0</ele><time>2026-04-14T10:30:35.866Z</time></trkpt><trkpt lat="42.2031667" lon="14.57856"><ele>18.0</ele><time>2026-04-14T10:30:47.865Z</time></trkpt><trkpt lat="42.2031983" lon="14.5787433"><ele>18.0</ele><time>2026-04-14T10:30:57.866Z</time></trkpt><trkpt lat="42.2032083" lon="14.578835"><ele>18.0</ele><time>2026-04-14T10:31:00.865Z</time></trkpt><trkpt lat="42.203235" lon="14.5789133"><ele>18.0</ele><time>2026-04-14T10:31:02.866Z</time></trkpt><trkpt lat="42.20327" lon="14.5790217"><ele>18.0</ele><time>2026-04-14T10:31:05.865Z</time></trkpt><trkpt lat="42.2033017" lon="14.579115"><ele>18.0</ele><time>2026-04-14T10:31:08.866Z</time></trkpt><trkpt lat="42.2033483" lon="14.5792017"><ele>18.0</ele><time>2026-04-14T10:31:12.865Z</time></trkpt><trkpt lat="42.2034" lon="14.57928"><ele>18.0</ele><time>2026-04-14T10:31:15.865Z</time></trkpt><trkpt lat="42.20343" lon="14.5793967"><ele>18.0</ele><time>2026-04-14T10:31:17.866Z</time></trkpt><trkpt lat="42.2034567" lon="14.5794867"><ele>18.0</ele><time>2026-04-14T10:31:19.865Z</time></trkpt><trkpt lat="42.2034817" lon="14.57957"><ele>17.833333333333332</ele><time>2026-04-14T10:31:21.866Z</time></trkpt><trkpt lat="42.2034717" lon="14.5796917"><ele>17.666666666666668</ele><time>2026-04-14T10:31:24.866Z</time></trkpt><trkpt lat="42.20343" lon="14.5797933"><ele>17.5</ele><time>2026-04-14T10:31:27.865Z</time></trkpt><trkpt lat="42.2034017" lon="14.5798883"><ele>17.333333333333336</ele><time>2026-04-14T10:31:29.866Z</time></trkpt><trkpt lat="42.2033817" lon="14.5799933"><ele>17.166666666666668</ele><time>2026-04-14T10:31:31.866Z</time></trkpt><trkpt lat="42.2033717" lon="14.5800783"><ele>17.0</ele><time>2026-04-14T10:31:33.866Z</time></trkpt><trkpt lat="42.2033417" lon="14.580165"><ele>17.0</ele><time>2026-04-14T10:31:36.866Z</time></trkpt><trkpt lat="42.203325" lon="14.58025"><ele>17.0</ele><time>2026-04-14T10:31:41.865Z</time></trkpt><trkpt lat="42.2033033" lon="14.58033"><ele>17.0</ele><time>2026-04-14T10:31:45.865Z</time></trkpt><trkpt lat="42.2032533" lon="14.580395"><ele>17.0</ele><time>2026-04-14T10:31:49.866Z</time></trkpt><trkpt lat="42.203165" lon="14.5804967"><ele>17.0</ele><time>2026-04-14T10:32:22.866Z</time></trkpt><trkpt lat="42.203105" lon="14.580545"><ele>17.0</ele><time>2026-04-14T10:32:27.866Z</time></trkpt><trkpt lat="42.2030367" lon="14.58059"><ele>16.71428571428571</ele><time>2026-04-14T10:32:31.866Z</time></trkpt><trkpt lat="42.2029717" lon="14.58063"><ele>16.428571428571427</ele><time>2026-04-14T10:32:35.865Z</time></trkpt><trkpt lat="42.20291" lon="14.58069"><ele>16.142857142857142</ele><time>2026-04-14T10:32:38.866Z</time></trkpt><trkpt lat="42.2028433" lon="14.5807483"><ele>15.857142857142856</ele><time>2026-04-14T10:32:41.865Z</time></trkpt><trkpt lat="42.202785" lon="14.5807933"><ele>15.57142857142857</ele><time>2026-04-14T10:32:43.866Z</time></trkpt><trkpt lat="42.20273" lon="14.58084"><ele>15.285714285714286</ele><time>2026-04-14T10:32:45.866Z</time></trkpt><trkpt lat="42.202665" lon="14.5809233"><ele>15.0</ele><time>2026-04-14T10:32:48.866Z</time></trkpt><trkpt lat="42.2026317" lon="14.5809967"><ele>15.0</ele><time>2026-04-14T10:32:51.866Z</time></trkpt><trkpt lat="42.2026167" lon="14.5811083"><ele>15.0</ele><time>2026-04-14T10:32:55.866Z</time></trkpt><trkpt lat="42.20265" lon="14.5812133"><ele>15.0</ele><time>2026-04-14T10:32:58.866Z</time></trkpt><trkpt lat="42.2027" lon="14.5813317"><ele>15.0</ele><time>2026-04-14T10:33:01.866Z</time></trkpt><trkpt lat="42.2027417" lon="14.58143"><ele>15.0</ele><time>2026-04-14T10:33:03.866Z</time></trkpt><trkpt lat="42.202785" lon="14.5815117"><ele>15.0</ele><time>2026-04-14T10:33:05.866Z</time></trkpt><trkpt lat="42.2028267" lon="14.5816067"><ele>15.0</ele><time>2026-04-14T10:33:07.865Z</time></trkpt><trkpt lat="42.2028683" lon="14.5816967"><ele>15.0</ele><time>2026-04-14T10:33:09.866Z</time></trkpt><trkpt lat="42.2029133" lon="14.581775"><ele>15.0</ele><time>2026-04-14T10:33:11.865Z</time></trkpt><trkpt lat="42.202955" lon="14.5818483"><ele>15.0</ele><time>2026-04-14T10:33:13.866Z</time></trkpt><trkpt lat="42.2030083" lon="14.5819533"><ele>15.0</ele><time>2026-04-14T10:33:16.865Z</time></trkpt><trkpt lat="42.2030733" lon="14.5820417"><ele>15.0</ele><time>2026-04-14T10:33:19.866Z</time></trkpt><trkpt lat="42.2031367" lon="14.5821283"><ele>14.714285714285715</ele><time>2026-04-14T10:33:22.866Z</time></trkpt><trkpt lat="42.2031717" lon="14.5822017"><ele>14.428571428571427</ele><time>2026-04-14T10:33:24.866Z</time></trkpt><trkpt lat="42.2032117" lon="14.5822683"><ele>14.142857142857142</ele><time>2026-04-14T10:33:26.865Z</time></trkpt><trkpt lat="42.2032533" lon="14.5823467"><ele>13.857142857142858</ele><time>2026-04-14T10:33:28.865Z</time></trkpt><trkpt lat="42.2032917" lon="14.582425"><ele>13.571428571428573</ele><time>2026-04-14T10:33:30.866Z</time></trkpt><trkpt lat="42.2033367" lon="14.5825083"><ele>13.285714285714285</ele><time>2026-04-14T10:33:32.866Z</time></trkpt><trkpt lat="42.2033783" lon="14.5825917"><ele>13.0</ele><time>2026-04-14T10:33:34.866Z</time></trkpt><trkpt lat="42.2034183" lon="14.5826717"><ele>12.999999999999998</ele><time>2026-04-14T10:33:36.865Z</time></trkpt><trkpt lat="42.2034467" lon="14.5827617"><ele>13.0</ele><time>2026-04-14T10:33:38.865Z</time></trkpt><trkpt lat="42.20348" lon="14.582865"><ele>13.0</ele><time>2026-04-14T10:33:40.865Z</time></trkpt><trkpt lat="42.20352" lon="14.582965"><ele>13.0</ele><time>2026-04-14T10:33:42.865Z</time></trkpt><trkpt lat="42.203555" lon="14.58307"><ele>12.999999999999998</ele><time>2026-04-14T10:33:44.866Z</time></trkpt><trkpt lat="42.2035917" lon="14.5831783"><ele>13.0</ele><time>2026-04-14T10:33:46.866Z</time></trkpt><trkpt lat="42.20362" lon="14.58328"><ele>12.833333333333332</ele><time>2026-04-14T10:33:48.866Z</time></trkpt><trkpt lat="42.20364" lon="14.583365"><ele>12.666666666666666</ele><time>2026-04-14T10:33:50.865Z</time></trkpt><trkpt lat="42.20366" lon="14.5834533"><ele>12.5</ele><time>2026-04-14T10:33:53.866Z</time></trkpt><trkpt lat="42.20368" lon="14.5835383"><ele>12.333333333333332</ele><time>2026-04-14T10:33:57.865Z</time></trkpt><trkpt lat="42.203695" lon="14.5836217"><ele>12.166666666666666</ele><time>2026-04-14T10:34:00.866Z</time></trkpt><trkpt lat="42.2037017" lon="14.583715"><ele>12.0</ele><time>2026-04-14T10:34:03.866Z</time></trkpt><trkpt lat="42.2037083" lon="14.58388"><ele>11.666666666666666</ele><time>2026-04-14T10:34:11.865Z</time></trkpt><trkpt lat="42.2037117" lon="14.5839783"><ele>11.333333333333334</ele><time>2026-04-14T10:34:15.866Z</time></trkpt><trkpt lat="42.2037" lon="14.5840817"><ele>11.0</ele><time>2026-04-14T10:34:19.866Z</time></trkpt><trkpt lat="42.20367" lon="14.5842133"><ele>10.666666666666668</ele><time>2026-04-14T10:34:25.866Z</time></trkpt><trkpt lat="42.2036367" lon="14.584315"><ele>10.333333333333334</ele><time>2026-04-14T10:34:29.865Z</time></trkpt><trkpt lat="42.2036117" lon="14.5844"><ele>10.0</ele><time>2026-04-14T10:34:33.865Z</time></trkpt><trkpt lat="42.20354" lon="14.58439"><ele>10.0</ele><time>2026-04-14T10:34:39.865Z</time></trkpt><trkpt lat="42.2034717" lon="14.5843367"><ele>10.0</ele><time>2026-04-14T10:34:43.866Z</time></trkpt><trkpt lat="42.20341" lon="14.5842983"><ele>10.0</ele><time>2026-04-14T10:34:46.866Z</time></trkpt><trkpt lat="42.203335" lon="14.5842717"><ele>10.0</ele><time>2026-04-14T10:34:49.866Z</time></trkpt><trkpt lat="42.20324" lon="14.58427"><ele>10.0</ele><time>2026-04-14T10:34:51.866Z</time></trkpt><trkpt lat="42.2031483" lon="14.5843467"><ele>10.0</ele><time>2026-04-14T10:34:53.865Z</time></trkpt><trkpt lat="42.2030667" lon="14.584465"><ele>10.2</ele><time>2026-04-14T10:34:55.865Z</time></trkpt><trkpt lat="42.2029783" lon="14.5845783"><ele>10.4</ele><time>2026-04-14T10:34:57.866Z</time></trkpt><trkpt lat="42.2028883" lon="14.5846483"><ele>10.600000000000001</ele><time>2026-04-14T10:34:59.866Z</time></trkpt><trkpt lat="42.2028017" lon="14.5846967"><ele>10.8</ele><time>2026-04-14T10:35:01.865Z</time></trkpt><trkpt lat="42.202725" lon="14.5847367"><ele>11.0</ele><time>2026-04-14T10:35:03.866Z</time></trkpt><trkpt lat="42.2026567" lon="14.58477"><ele>11.0</ele><time>2026-04-14T10:35:05.866Z</time></trkpt><trkpt lat="42.2025917" lon="14.5848117"><ele>11.0</ele><time>2026-04-14T10:35:07.865Z</time></trkpt><trkpt lat="42.2025067" lon="14.5848717"><ele>11.0</ele><time>2026-04-14T10:35:10.865Z</time></trkpt><trkpt lat="42.20242" lon="14.5849183"><ele>11.0</ele><time>2026-04-14T10:35:13.866Z</time></trkpt><trkpt lat="42.2023583" lon="14.5849667"><ele>11.0</ele><time>2026-04-14T10:35:15.866Z</time></trkpt><trkpt lat="42.202295" lon="14.5850267"><ele>11.0</ele><time>2026-04-14T10:35:17.866Z</time></trkpt><trkpt lat="42.2022317" lon="14.5850933"><ele>11.166666666666666</ele><time>2026-04-14T10:35:19.866Z</time></trkpt><trkpt lat="42.2021767" lon="14.585155"><ele>11.333333333333332</ele><time>2026-04-14T10:35:21.866Z</time></trkpt><trkpt lat="42.2021133" lon="14.5852183"><ele>11.5</ele><time>2026-04-14T10:35:23.866Z</time></trkpt><trkpt lat="42.2020517" lon="14.585295"><ele>11.666666666666666</ele><time>2026-04-14T10:35:25.866Z</time></trkpt><trkpt lat="42.2020017" lon="14.585375"><ele>11.833333333333334</ele><time>2026-04-14T10:35:27.866Z</time></trkpt><trkpt lat="42.20195" lon="14.5854667"><ele>12.0</ele><time>2026-04-14T10:35:29.866Z</time></trkpt><trkpt lat="42.2019" lon="14.5855617"><ele>12.0</ele><time>2026-04-14T10:35:31.866Z</time></trkpt><trkpt lat="42.2018567" lon="14.5856567"><ele>12.0</ele><time>2026-04-14T10:35:33.866Z</time></trkpt><trkpt lat="42.2018167" lon="14.58575"><ele>12.0</ele><time>2026-04-14T10:35:35.865Z</time></trkpt><trkpt lat="42.2017767" lon="14.5858417"><ele>12.0</ele><time>2026-04-14T10:35:37.866Z</time></trkpt><trkpt lat="42.2017433" lon="14.5859383"><ele>12.0</ele><time>2026-04-14T10:35:39.866Z</time></trkpt><trkpt lat="42.2017117" lon="14.5860417"><ele>12.0</ele><time>2026-04-14T10:35:41.865Z</time></trkpt><trkpt lat="42.2016867" lon="14.586155"><ele>12.166666666666666</ele><time>2026-04-14T10:35:43.865Z</time></trkpt><trkpt lat="42.2016633" lon="14.5862667"><ele>12.333333333333332</ele><time>2026-04-14T10:35:45.866Z</time></trkpt><trkpt lat="42.2016417" lon="14.5863783"><ele>12.5</ele><time>2026-04-14T10:35:47.865Z</time></trkpt><trkpt lat="42.2016217" lon="14.5864817"><ele>12.666666666666666</ele><time>2026-04-14T10:35:49.866Z</time></trkpt><trkpt lat="42.2015867" lon="14.586575"><ele>12.833333333333332</ele><time>2026-04-14T10:35:51.866Z</time></trkpt><trkpt lat="42.2015733" lon="14.586685"><ele>13.0</ele><time>2026-04-14T10:35:53.865Z</time></trkpt><trkpt lat="42.2015583" lon="14.586795"><ele>12.999999999999998</ele><time>2026-04-14T10:35:55.866Z</time></trkpt><trkpt lat="42.201545" lon="14.5869117"><ele>13.0</ele><time>2026-04-14T10:35:57.866Z</time></trkpt><trkpt lat="42.2015333" lon="14.58703"><ele>13.0</ele><time>2026-04-14T10:35:59.866Z</time></trkpt><trkpt lat="42.2015167" lon="14.58714"><ele>13.0</ele><time>2026-04-14T10:36:01.866Z</time></trkpt><trkpt lat="42.2014967" lon="14.5872367"><ele>12.999999999999998</ele><time>2026-04-14T10:36:03.866Z</time></trkpt><trkpt lat="42.2014717" lon="14.58733"><ele>13.0</ele><time>2026-04-14T10:36:05.865Z</time></trkpt><trkpt lat="42.20144" lon="14.587425"><ele>12.666666666666666</ele><time>2026-04-14T10:36:07.866Z</time></trkpt><trkpt lat="42.2014117" lon="14.5875383"><ele>12.333333333333332</ele><time>2026-04-14T10:36:09.866Z</time></trkpt><trkpt lat="42.2013883" lon="14.5876633"><ele>12.0</ele><time>2026-04-14T10:36:11.865Z</time></trkpt><trkpt lat="42.20136" lon="14.5877767"><ele>11.666666666666666</ele><time>2026-04-14T10:36:13.866Z</time></trkpt><trkpt lat="42.2013233" lon="14.587855"><ele>11.333333333333332</ele><time>2026-04-14T10:36:15.866Z</time></trkpt><trkpt lat="42.201255" lon="14.587855"><ele>11.0</ele><time>2026-04-14T10:36:19.866Z</time></trkpt><trkpt lat="42.2012483" lon="14.58777"><ele>11.0</ele><time>2026-04-14T10:36:22.866Z</time></trkpt><trkpt lat="42.2012333" lon="14.5876683"><ele>11.0</ele><time>2026-04-14T10:36:25.866Z</time></trkpt><trkpt lat="42.201215" lon="14.5875533"><ele>11.0</ele><time>2026-04-14T10:36:28.866Z</time></trkpt><trkpt lat="42.20119" lon="14.587445"><ele>11.0</ele><time>2026-04-14T10:36:31.866Z</time></trkpt><trkpt lat="42.20115" lon="14.5873533"><ele>11.0</ele><time>2026-04-14T10:36:34.865Z</time></trkpt><trkpt lat="42.2011067" lon="14.5872717"><ele>11.0</ele><time>2026-04-14T10:36:37.866Z</time></trkpt><trkpt lat="42.2010433" lon="14.5872067"><ele>11.0</ele><time>2026-04-14T10:36:40.865Z</time></trkpt><trkpt lat="42.2009683" lon="14.58713"><ele>11.0</ele><time>2026-04-14T10:36:43.865Z</time></trkpt><trkpt lat="42.20091" lon="14.5870917"><ele>11.0</ele><time>2026-04-14T10:36:45.866Z</time></trkpt><trkpt lat="42.2008467" lon="14.5870433"><ele>11.0</ele><time>2026-04-14T10:36:47.865Z</time></trkpt><trkpt lat="42.2007833" lon="14.5870017"><ele>11.0</ele><time>2026-04-14T10:36:49.866Z</time></trkpt><trkpt lat="42.2007233" lon="14.58696"><ele>11.0</ele><time>2026-04-14T10:36:51.865Z</time></trkpt><trkpt lat="42.20066" lon="14.5869183"><ele>11.0</ele><time>2026-04-14T10:36:53.866Z</time></trkpt><trkpt lat="42.2005983" lon="14.586875"><ele>11.0</ele><time>2026-04-14T10:36:55.866Z</time></trkpt><trkpt lat="42.2005217" lon="14.586825"><ele>11.0</ele><time>2026-04-14T10:36:58.866Z</time></trkpt><trkpt lat="42.200455" lon="14.5867783"><ele>11.0</ele><time>2026-04-14T10:37:01.865Z</time></trkpt><trkpt lat="42.20038" lon="14.5867133"><ele>11.0</ele><time>2026-04-14T10:37:04.866Z</time></trkpt><trkpt lat="42.2003083" lon="14.58665"><ele>11.0</ele><time>2026-04-14T10:37:07.866Z</time></trkpt><trkpt lat="42.2002633" lon="14.5865683"><ele>11.0</ele><time>2026-04-14T10:37:10.866Z</time></trkpt><trkpt lat="42.20023" lon="14.586475"><ele>11.0</ele><time>2026-04-14T10:37:13.866Z</time></trkpt><trkpt lat="42.2002267" lon="14.5863583"><ele>11.0</ele><time>2026-04-14T10:37:16.866Z</time></trkpt><trkpt lat="42.2002383" lon="14.586245"><ele>11.0</ele><time>2026-04-14T10:37:19.866Z</time></trkpt><trkpt lat="42.2002667" lon="14.586155"><ele>11.0</ele><time>2026-04-14T10:37:22.867Z</time></trkpt><trkpt lat="42.2002783" lon="14.5860383"><ele>11.0</ele><time>2026-04-14T10:37:25.867Z</time></trkpt><trkpt lat="42.2002617" lon="14.5859333"><ele>11.0</ele><time>2026-04-14T10:37:28.867Z</time></trkpt><trkpt lat="42.2002217" lon="14.5858267"><ele>11.0</ele><time>2026-04-14T10:37:31.867Z</time></trkpt><trkpt lat="42.20018" lon="14.5857317"><ele>11.0</ele><time>2026-04-14T10:37:34.867Z</time></trkpt><trkpt lat="42.2001367" lon="14.58563"><ele>11.0</ele><time>2026-04-14T10:37:37.866Z</time></trkpt><trkpt lat="42.200105" lon="14.5855233"><ele>11.0</ele><time>2026-04-14T10:37:40.866Z</time></trkpt><trkpt lat="42.2000833" lon="14.5854183"><ele>11.0</ele><time>2026-04-14T10:37:43.866Z</time></trkpt><trkpt lat="42.200055" lon="14.58533"><ele>11.0</ele><time>2026-04-14T10:37:46.867Z</time></trkpt><trkpt lat="42.20003" lon="14.58525"><ele>11.0</ele><time>2026-04-14T10:37:49.867Z</time></trkpt><trkpt lat="42.1999567" lon="14.5852383"><ele>11.0</ele><time>2026-04-14T10:38:09.867Z</time></trkpt><trkpt lat="42.19989" lon="14.5852417"><ele>11.0</ele><time>2026-04-14T10:38:12.866Z</time></trkpt><trkpt lat="42.1998217" lon="14.5852533"><ele>11.0</ele><time>2026-04-14T10:38:15.866Z</time></trkpt><trkpt lat="42.1997467" lon="14.5852583"><ele>11.0</ele><time>2026-04-14T10:38:18.867Z</time></trkpt><trkpt lat="42.1996767" lon="14.5852683"><ele>11.0</ele><time>2026-04-14T10:38:21.867Z</time></trkpt><trkpt lat="42.199595" lon="14.5852733"><ele>11.0</ele><time>2026-04-14T10:38:25.867Z</time></trkpt><trkpt lat="42.1995283" lon="14.5852817"><ele>11.857142857142858</ele><time>2026-04-14T10:38:28.867Z</time></trkpt><trkpt lat="42.19946" lon="14.5852917"><ele>12.714285714285714</ele><time>2026-04-14T10:38:31.866Z</time></trkpt><trkpt lat="42.1993833" lon="14.5853"><ele>13.57142857142857</ele><time>2026-04-14T10:38:34.867Z</time></trkpt><trkpt lat="42.1993117" lon="14.58531"><ele>14.428571428571427</ele><time>2026-04-14T10:38:37.866Z</time></trkpt><trkpt lat="42.1992383" lon="14.5853217"><ele>15.285714285714285</ele><time>2026-04-14T10:38:40.867Z</time></trkpt><trkpt lat="42.1991617" lon="14.5853317"><ele>16.142857142857142</ele><time>2026-04-14T10:38:43.867Z</time></trkpt><trkpt lat="42.1990883" lon="14.585345"><ele>17.0</ele><time>2026-04-14T10:38:46.866Z</time></trkpt><trkpt lat="42.199005" lon="14.5853533"><ele>18.142857142857142</ele><time>2026-04-14T10:38:50.867Z</time></trkpt><trkpt lat="42.1989517" lon="14.5854133"><ele>19.285714285714285</ele><time>2026-04-14T10:38:53.866Z</time></trkpt><trkpt lat="42.1989233" lon="14.5855083"><ele>20.42857142857143</ele><time>2026-04-14T10:38:56.866Z</time></trkpt><trkpt lat="42.1989067" lon="14.5856017"><ele>21.57142857142857</ele><time>2026-04-14T10:38:59.867Z</time></trkpt><trkpt lat="42.19887" lon="14.5856983"><ele>22.714285714285715</ele><time>2026-04-14T10:39:03.867Z</time></trkpt><trkpt lat="42.198815" lon="14.5857483"><ele>23.857142857142858</ele><time>2026-04-14T10:39:07.866Z</time></trkpt><trkpt lat="42.1987417" lon="14.5857583"><ele>25.0</ele><time>2026-04-14T10:39:10.866Z</time></trkpt><trkpt lat="42.19867" lon="14.585775"><ele>25.000000000000004</ele><time>2026-04-14T10:39:13.866Z</time></trkpt><trkpt lat="42.19859" lon="14.58579"><ele>25.0</ele><time>2026-04-14T10:39:16.867Z</time></trkpt><trkpt lat="42.19852" lon="14.5857917"><ele>25.0</ele><time>2026-04-14T10:39:19.867Z</time></trkpt><trkpt lat="42.19844" lon="14.585805"><ele>25.0</ele><time>2026-04-14T10:39:22.867Z</time></trkpt><trkpt lat="42.1983633" lon="14.58581"><ele>25.000000000000004</ele><time>2026-04-14T10:39:25.867Z</time></trkpt><trkpt lat="42.1982883" lon="14.5858133"><ele>25.0</ele><time>2026-04-14T10:39:28.867Z</time></trkpt><trkpt lat="42.1982083" lon="14.5858217"><ele>26.142857142857146</ele><time>2026-04-14T10:39:31.867Z</time></trkpt><trkpt lat="42.19813" lon="14.5858367"><ele>27.285714285714285</ele><time>2026-04-14T10:39:34.866Z</time></trkpt><trkpt lat="42.1980517" lon="14.5858517"><ele>28.42857142857143</ele><time>2026-04-14T10:39:37.867Z</time></trkpt><trkpt lat="42.1979733" lon="14.58587"><ele>29.571428571428573</ele><time>2026-04-14T10:39:40.866Z</time></trkpt><trkpt lat="42.197905" lon="14.585885"><ele>30.714285714285715</ele><time>2026-04-14T10:39:43.866Z</time></trkpt><trkpt lat="42.1978367" lon="14.5858917"><ele>31.857142857142858</ele><time>2026-04-14T10:39:46.867Z</time></trkpt><trkpt lat="42.1977667" lon="14.5858967"><ele>33.0</ele><time>2026-04-14T10:39:49.866Z</time></trkpt><trkpt lat="42.1976933" lon="14.5859083"><ele>33.0</ele><time>2026-04-14T10:39:52.867Z</time></trkpt><trkpt lat="42.1976167" lon="14.5859133"><ele>33.0</ele><time>2026-04-14T10:39:55.867Z</time></trkpt><trkpt lat="42.1975467" lon="14.58591"><ele>33.0</ele><time>2026-04-14T10:39:58.866Z</time></trkpt><trkpt lat="42.1974783" lon="14.5859267"><ele>33.0</ele><time>2026-04-14T10:40:01.866Z</time></trkpt><trkpt lat="42.1974017" lon="14.5859417"><ele>33.0</ele><time>2026-04-14T10:40:04.866Z</time></trkpt><trkpt lat="42.1973333" lon="14.585945"><ele>33.0</ele><time>2026-04-14T10:40:07.867Z</time></trkpt><trkpt lat="42.1972567" lon="14.58595"><ele>33.0</ele><time>2026-04-14T10:40:10.867Z</time></trkpt><trkpt lat="42.197185" lon="14.58596"><ele>35.0</ele><time>2026-04-14T10:40:13.866Z</time></trkpt><trkpt lat="42.197115" lon="14.5859733"><ele>37.0</ele><time>2026-04-14T10:40:16.867Z</time></trkpt><trkpt lat="42.1970383" lon="14.585985"><ele>39.0</ele><time>2026-04-14T10:40:19.866Z</time></trkpt><trkpt lat="42.1969733" lon="14.586035"><ele>41.0</ele><time>2026-04-14T10:40:22.866Z</time></trkpt><trkpt lat="42.1969283" lon="14.5861217"><ele>43.0</ele><time>2026-04-14T10:40:25.867Z</time></trkpt><trkpt lat="42.1968817" lon="14.5862067"><ele>45.0</ele><time>2026-04-14T10:40:28.866Z</time></trkpt><trkpt lat="42.1968433" lon="14.5863017"><ele>45.0</ele><time>2026-04-14T10:40:32.867Z</time></trkpt><trkpt lat="42.1968117" lon="14.5863967"><ele>45.0</ele><time>2026-04-14T10:40:35.866Z</time></trkpt><trkpt lat="42.196785" lon="14.5864917"><ele>45.0</ele><time>2026-04-14T10:40:38.867Z</time></trkpt><trkpt lat="42.19676" lon="14.586585"><ele>45.0</ele><time>2026-04-14T10:40:41.867Z</time></trkpt><trkpt lat="42.1967383" lon="14.58668"><ele>45.0</ele><time>2026-04-14T10:40:44.866Z</time></trkpt><trkpt lat="42.19672" lon="14.586795"><ele>45.0</ele><time>2026-04-14T10:40:47.866Z</time></trkpt><trkpt lat="42.1966883" lon="14.5869067"><ele>44.857142857142854</ele><time>2026-04-14T10:40:50.866Z</time></trkpt><trkpt lat="42.1966567" lon="14.5870267"><ele>44.714285714285715</ele><time>2026-04-14T10:40:53.867Z</time></trkpt><trkpt lat="42.1966367" lon="14.5871117"><ele>44.57142857142857</ele><time>2026-04-14T10:40:55.866Z</time></trkpt><trkpt lat="42.196615" lon="14.587205"><ele>44.42857142857143</ele><time>2026-04-14T10:40:57.867Z</time></trkpt><trkpt lat="42.196595" lon="14.5872983"><ele>44.285714285714285</ele><time>2026-04-14T10:40:59.867Z</time></trkpt><trkpt lat="42.1965783" lon="14.5873867"><ele>44.142857142857146</ele><time>2026-04-14T10:41:01.866Z</time></trkpt><trkpt lat="42.1965567" lon="14.5874667"><ele>44.0</ele><time>2026-04-14T10:41:03.867Z</time></trkpt><trkpt lat="42.196535" lon="14.587555"><ele>44.0</ele><time>2026-04-14T10:41:05.867Z</time></trkpt><trkpt lat="42.19652" lon="14.58764"><ele>44.0</ele><time>2026-04-14T10:41:07.866Z</time></trkpt><trkpt lat="42.1965067" lon="14.587725"><ele>44.0</ele><time>2026-04-14T10:41:09.867Z</time></trkpt><trkpt lat="42.19648" lon="14.587845"><ele>44.0</ele><time>2026-04-14T10:41:12.867Z</time></trkpt><trkpt lat="42.196445" lon="14.5879433"><ele>44.0</ele><time>2026-04-14T10:41:15.867Z</time></trkpt><trkpt lat="42.1963967" lon="14.5880333"><ele>44.0</ele><time>2026-04-14T10:41:18.867Z</time></trkpt><trkpt lat="42.1963567" lon="14.58813"><ele>47.33333333333333</ele><time>2026-04-14T10:41:21.866Z</time></trkpt><trkpt lat="42.1963133" lon="14.5882167"><ele>50.666666666666664</ele><time>2026-04-14T10:41:24.866Z</time></trkpt><trkpt lat="42.196275" lon="14.5883"><ele>54.0</ele><time>2026-04-14T10:41:27.866Z</time></trkpt><trkpt lat="42.19623" lon="14.5883633"><ele>57.33333333333333</ele><time>2026-04-14T10:41:30.867Z</time></trkpt><trkpt lat="42.196155" lon="14.58832"><ele>60.666666666666664</ele><time>2026-04-14T10:41:35.867Z</time></trkpt><trkpt lat="42.19608" lon="14.58828"><ele>64.0</ele><time>2026-04-14T10:41:38.866Z</time></trkpt><trkpt lat="42.1960133" lon="14.5882283"><ele>64.0</ele><time>2026-04-14T10:41:41.866Z</time></trkpt><trkpt lat="42.19595" lon="14.5881717"><ele>63.99999999999999</ele><time>2026-04-14T10:41:44.867Z</time></trkpt><trkpt lat="42.1958867" lon="14.5881067"><ele>64.0</ele><time>2026-04-14T10:41:47.867Z</time></trkpt><trkpt lat="42.195825" lon="14.5880467"><ele>64.0</ele><time>2026-04-14T10:41:50.867Z</time></trkpt><trkpt lat="42.1957617" lon="14.5879883"><ele>63.99999999999999</ele><time>2026-04-14T10:41:53.866Z</time></trkpt><trkpt lat="42.1957067" lon="14.587925"><ele>64.0</ele><time>2026-04-14T10:41:56.867Z</time></trkpt><trkpt lat="42.195655" lon="14.58787"><ele>64.0</ele><time>2026-04-14T10:41:59.867Z</time></trkpt><trkpt lat="42.1955983" lon="14.5877967"><ele>68.75</ele><time>2026-04-14T10:42:02.867Z</time></trkpt><trkpt lat="42.1955533" lon="14.58773"><ele>73.5</ele><time>2026-04-14T10:42:05.866Z</time></trkpt><trkpt lat="42.19554" lon="14.5876383"><ele>78.25</ele><time>2026-04-14T10:42:09.866Z</time></trkpt><trkpt lat="42.1954767" lon="14.58746"><ele>83.0</ele><time>2026-04-14T10:42:21.867Z</time></trkpt><trkpt lat="42.19531" lon="14.5873917"><ele>83.0</ele><time>2026-04-14T10:42:22.867Z</time></trkpt><trkpt lat="42.1952317" lon="14.5873917"><ele>83.0</ele><time>2026-04-14T10:42:23.867Z</time></trkpt><trkpt lat="42.1951783" lon="14.5874467"><ele>83.0</ele><time>2026-04-14T10:42:26.867Z</time></trkpt><trkpt lat="42.1951617" lon="14.5875383"><ele>83.0</ele><time>2026-04-14T10:42:33.867Z</time></trkpt><trkpt lat="42.195155" lon="14.5876233"><ele>83.0</ele><time>2026-04-14T10:42:36.866Z</time></trkpt><trkpt lat="42.1951283" lon="14.587715"><ele>83.0</ele><time>2026-04-14T10:42:39.867Z</time></trkpt><trkpt lat="42.1951033" lon="14.5877983"><ele>83.0</ele><time>2026-04-14T10:42:41.866Z</time></trkpt><trkpt lat="42.1950833" lon="14.5878917"><ele>83.16666666666667</ele><time>2026-04-14T10:42:44.867Z</time></trkpt><trkpt lat="42.1950933" lon="14.5879833"><ele>83.33333333333334</ele><time>2026-04-14T10:42:47.867Z</time></trkpt><trkpt lat="42.19511" lon="14.5880667"><ele>83.5</ele><time>2026-04-14T10:42:49.867Z</time></trkpt><trkpt lat="42.195115" lon="14.588165"><ele>83.66666666666667</ele><time>2026-04-14T10:42:51.867Z</time></trkpt><trkpt lat="42.1951067" lon="14.5882683"><ele>83.83333333333333</ele><time>2026-04-14T10:42:53.867Z</time></trkpt><trkpt lat="42.19509" lon="14.5883933"><ele>84.0</ele><time>2026-04-14T10:42:55.867Z</time></trkpt><trkpt lat="42.1950833" lon="14.58851"><ele>84.0</ele><time>2026-04-14T10:42:57.867Z</time></trkpt><trkpt lat="42.1950767" lon="14.5886333"><ele>84.0</ele><time>2026-04-14T10:42:59.866Z</time></trkpt><trkpt lat="42.1950617" lon="14.588725"><ele>84.0</ele><time>2026-04-14T10:43:01.867Z</time></trkpt><trkpt lat="42.1950317" lon="14.5888083"><ele>84.0</ele><time>2026-04-14T10:43:03.866Z</time></trkpt><trkpt lat="42.194995" lon="14.588885"><ele>84.0</ele><time>2026-04-14T10:43:05.866Z</time></trkpt><trkpt lat="42.1949217" lon="14.5889117"><ele>84.0</ele><time>2026-04-14T10:43:08.866Z</time></trkpt><trkpt lat="42.19484" lon="14.58889"><ele>85.16666666666667</ele><time>2026-04-14T10:43:11.867Z</time></trkpt><trkpt lat="42.1947533" lon="14.58887"><ele>86.33333333333333</ele><time>2026-04-14T10:43:14.866Z</time></trkpt><trkpt lat="42.1946883" lon="14.5888467"><ele>87.5</ele><time>2026-04-14T10:43:16.867Z</time></trkpt><trkpt lat="42.1945933" lon="14.588825"><ele>88.66666666666666</ele><time>2026-04-14T10:43:19.867Z</time></trkpt><trkpt lat="42.194525" lon="14.5888083"><ele>89.83333333333333</ele><time>2026-04-14T10:43:21.866Z</time></trkpt><trkpt lat="42.1944517" lon="14.5887967"><ele>91.0</ele><time>2026-04-14T10:43:23.866Z</time></trkpt><trkpt lat="42.1943817" lon="14.58878"><ele>91.0</ele><time>2026-04-14T10:43:25.867Z</time></trkpt><trkpt lat="42.1943067" lon="14.5887617"><ele>91.0</ele><time>2026-04-14T10:43:27.867Z</time></trkpt><trkpt lat="42.194225" lon="14.5887417"><ele>91.0</ele><time>2026-04-14T10:43:29.867Z</time></trkpt><trkpt lat="42.1941367" lon="14.5887167"><ele>91.0</ele><time>2026-04-14T10:43:31.866Z</time></trkpt><trkpt lat="42.1940567" lon="14.5886983"><ele>91.0</ele><time>2026-04-14T10:43:33.866Z</time></trkpt><trkpt lat="42.1939867" lon="14.5886683"><ele>91.0</ele><time>2026-04-14T10:43:35.866Z</time></trkpt><trkpt lat="42.1939" lon="14.5886483"><ele>91.16666666666666</ele><time>2026-04-14T10:43:38.867Z</time></trkpt><trkpt lat="42.1938367" lon="14.5886133"><ele>91.33333333333333</ele><time>2026-04-14T10:43:40.866Z</time></trkpt><trkpt lat="42.193765" lon="14.5885867"><ele>91.5</ele><time>2026-04-14T10:43:42.866Z</time></trkpt><trkpt lat="42.19369" lon="14.5885767"><ele>91.66666666666667</ele><time>2026-04-14T10:43:44.867Z</time></trkpt><trkpt lat="42.193625" lon="14.5885533"><ele>91.83333333333334</ele><time>2026-04-14T10:43:46.866Z</time></trkpt><trkpt lat="42.193545" lon="14.5885233"><ele>92.0</ele><time>2026-04-14T10:43:49.867Z</time></trkpt><trkpt lat="42.1934567" lon="14.5885017"><ele>92.0</ele><time>2026-04-14T10:43:52.867Z</time></trkpt><trkpt lat="42.193395" lon="14.5884833"><ele>92.0</ele><time>2026-04-14T10:43:54.867Z</time></trkpt><trkpt lat="42.1933083" lon="14.5884483"><ele>92.0</ele><time>2026-04-14T10:43:57.867Z</time></trkpt><trkpt lat="42.193225" lon="14.5884333"><ele>92.0</ele><time>2026-04-14T10:44:00.867Z</time></trkpt><trkpt lat="42.1931583" lon="14.5884267"><ele>92.0</ele><time>2026-04-14T10:44:02.867Z</time></trkpt><trkpt lat="42.1930667" lon="14.5883967"><ele>92.0</ele><time>2026-04-14T10:44:05.867Z</time></trkpt><trkpt lat="42.1929917" lon="14.5883833"><ele>91.39999999999999</ele><time>2026-04-14T10:44:07.867Z</time></trkpt><trkpt lat="42.1929033" lon="14.5883583"><ele>90.8</ele><time>2026-04-14T10:44:09.866Z</time></trkpt><trkpt lat="42.19281" lon="14.588325"><ele>90.2</ele><time>2026-04-14T10:44:11.866Z</time></trkpt><trkpt lat="42.1927133" lon="14.5882883"><ele>89.6</ele><time>2026-04-14T10:44:13.867Z</time></trkpt><trkpt lat="42.1926133" lon="14.58826"><ele>89.0</ele><time>2026-04-14T10:44:15.867Z</time></trkpt><trkpt lat="42.1925133" lon="14.58824"><ele>89.0</ele><time>2026-04-14T10:44:17.866Z</time></trkpt><trkpt lat="42.1924083" lon="14.588215"><ele>89.0</ele><time>2026-04-14T10:44:19.866Z</time></trkpt><trkpt lat="42.1923" lon="14.5882133"><ele>89.0</ele><time>2026-04-14T10:44:21.867Z</time></trkpt><trkpt lat="42.1922033" lon="14.588215"><ele>89.0</ele><time>2026-04-14T10:44:23.867Z</time></trkpt><trkpt lat="42.19209" lon="14.588215"><ele>89.0</ele><time>2026-04-14T10:44:25.867Z</time></trkpt><trkpt lat="42.19196" lon="14.588225"><ele>87.33333333333334</ele><time>2026-04-14T10:44:27.867Z</time></trkpt><trkpt lat="42.191885" lon="14.5882267"><ele>85.66666666666667</ele><time>2026-04-14T10:44:28.867Z</time></trkpt><trkpt lat="42.1918083" lon="14.5882267"><ele>84.0</ele><time>2026-04-14T10:44:29.867Z</time></trkpt><trkpt lat="42.1917267" lon="14.5882333"><ele>82.33333333333333</ele><time>2026-04-14T10:44:30.866Z</time></trkpt><trkpt lat="42.19164" lon="14.5882383"><ele>80.66666666666666</ele><time>2026-04-14T10:44:31.867Z</time></trkpt><trkpt lat="42.1915517" lon="14.5882467"><ele>79.0</ele><time>2026-04-14T10:44:32.866Z</time></trkpt><trkpt lat="42.1914617" lon="14.588245"><ele>77.5</ele><time>2026-04-14T10:44:33.866Z</time></trkpt><trkpt lat="42.1913733" lon="14.588245"><ele>76.0</ele><time>2026-04-14T10:44:34.867Z</time></trkpt><trkpt lat="42.191285" lon="14.588245"><ele>74.5</ele><time>2026-04-14T10:44:35.867Z</time></trkpt><trkpt lat="42.1911983" lon="14.58824"><ele>73.0</ele><time>2026-04-14T10:44:36.867Z</time></trkpt><trkpt lat="42.1911233" lon="14.5882367"><ele>71.5</ele><time>2026-04-14T10:44:37.867Z</time></trkpt><trkpt lat="42.1910567" lon="14.5882283"><ele>70.0</ele><time>2026-04-14T10:44:38.866Z</time></trkpt><trkpt lat="42.19095" lon="14.5882133"><ele>70.0</ele><time>2026-04-14T10:44:40.866Z</time></trkpt><trkpt lat="42.19087" lon="14.5882033"><ele>70.0</ele><time>2026-04-14T10:44:42.867Z</time></trkpt><trkpt lat="42.1907983" lon="14.5881983"><ele>70.0</ele><time>2026-04-14T10:44:44.867Z</time></trkpt><trkpt lat="42.1907217" lon="14.58818"><ele>70.0</ele><time>2026-04-14T10:44:47.867Z</time></trkpt><trkpt lat="42.190645" lon="14.5881617"><ele>70.0</ele><time>2026-04-14T10:44:51.867Z</time></trkpt><trkpt lat="42.19059" lon="14.588225"><ele>70.0</ele><time>2026-04-14T10:44:55.867Z</time></trkpt><trkpt lat="42.1905283" lon="14.588305"><ele>71.28571428571429</ele><time>2026-04-14T10:44:58.866Z</time></trkpt><trkpt lat="42.1904617" lon="14.5883267"><ele>72.57142857142857</ele><time>2026-04-14T10:45:00.866Z</time></trkpt><trkpt lat="42.1903967" lon="14.5883317"><ele>73.85714285714286</ele><time>2026-04-14T10:45:02.867Z</time></trkpt><trkpt lat="42.190315" lon="14.588325"><ele>75.14285714285714</ele><time>2026-04-14T10:45:05.866Z</time></trkpt><trkpt lat="42.19025" lon="14.588305"><ele>76.42857142857143</ele><time>2026-04-14T10:45:07.867Z</time></trkpt><trkpt lat="42.1901667" lon="14.5882983"><ele>77.71428571428572</ele><time>2026-04-14T10:45:10.866Z</time></trkpt><trkpt lat="42.1901017" lon="14.58827"><ele>79.0</ele><time>2026-04-14T10:45:12.866Z</time></trkpt><trkpt lat="42.1900283" lon="14.5882333"><ele>79.0</ele><time>2026-04-14T10:45:15.866Z</time></trkpt><trkpt lat="42.1899433" lon="14.5881833"><ele>79.0</ele><time>2026-04-14T10:45:18.867Z</time></trkpt><trkpt lat="42.1898867" lon="14.5881167"><ele>79.0</ele><time>2026-04-14T10:45:21.867Z</time></trkpt><trkpt lat="42.1898317" lon="14.5880617"><ele>79.0</ele><time>2026-04-14T10:45:25.867Z</time></trkpt><trkpt lat="42.1897617" lon="14.5880033"><ele>79.0</ele><time>2026-04-14T10:45:28.866Z</time></trkpt><trkpt lat="42.1897083" lon="14.5879483"><ele>79.0</ele><time>2026-04-14T10:45:30.867Z</time></trkpt><trkpt lat="42.18963" lon="14.5878917"><ele>80.57142857142858</ele><time>2026-04-14T10:45:33.867Z</time></trkpt><trkpt lat="42.1895617" lon="14.5878617"><ele>82.14285714285714</ele><time>2026-04-14T10:45:35.866Z</time></trkpt><trkpt lat="42.1895017" lon="14.5878133"><ele>83.71428571428572</ele><time>2026-04-14T10:45:37.867Z</time></trkpt><trkpt lat="42.1894333" lon="14.58777"><ele>85.28571428571429</ele><time>2026-04-14T10:45:39.866Z</time></trkpt><trkpt lat="42.18938" lon="14.5877217"><ele>86.85714285714286</ele><time>2026-04-14T10:45:41.867Z</time></trkpt><trkpt lat="42.18932" lon="14.58767"><ele>88.42857142857143</ele><time>2026-04-14T10:45:43.867Z</time></trkpt><trkpt lat="42.1892717" lon="14.58761"><ele>90.0</ele><time>2026-04-14T10:45:45.866Z</time></trkpt><trkpt lat="42.1892117" lon="14.58753"><ele>90.0</ele><time>2026-04-14T10:45:48.866Z</time></trkpt><trkpt lat="42.18915" lon="14.5874433"><ele>90.0</ele><time>2026-04-14T10:45:51.866Z</time></trkpt><trkpt lat="42.1891" lon="14.58738"><ele>90.0</ele><time>2026-04-14T10:45:53.867Z</time></trkpt><trkpt lat="42.18903" lon="14.5873183"><ele>90.0</ele><time>2026-04-14T10:45:55.866Z</time></trkpt><trkpt lat="42.18898" lon="14.5872567"><ele>90.0</ele><time>2026-04-14T10:45:57.867Z</time></trkpt><trkpt lat="42.1889267" lon="14.587195"><ele>90.0</ele><time>2026-04-14T10:46:00.867Z</time></trkpt><trkpt lat="42.18885" lon="14.587145"><ele>90.83333333333333</ele><time>2026-04-14T10:46:04.867Z</time></trkpt><trkpt lat="42.18878" lon="14.587105"><ele>91.66666666666667</ele><time>2026-04-14T10:46:06.867Z</time></trkpt><trkpt lat="42.1887067" lon="14.5870667"><ele>92.5</ele><time>2026-04-14T10:46:08.867Z</time></trkpt><trkpt lat="42.1886367" lon="14.587025"><ele>93.33333333333334</ele><time>2026-04-14T10:46:10.867Z</time></trkpt><trkpt lat="42.18856" lon="14.5869867"><ele>94.16666666666667</ele><time>2026-04-14T10:46:12.867Z</time></trkpt><trkpt lat="42.1884967" lon="14.58695"><ele>95.0</ele><time>2026-04-14T10:46:14.866Z</time></trkpt><trkpt lat="42.1884367" lon="14.58688"><ele>95.0</ele><time>2026-04-14T10:46:17.867Z</time></trkpt><trkpt lat="42.188365" lon="14.5868133"><ele>95.0</ele><time>2026-04-14T10:46:20.867Z</time></trkpt><trkpt lat="42.18827" lon="14.5867567"><ele>95.0</ele><time>2026-04-14T10:46:23.867Z</time></trkpt><trkpt lat="42.1881717" lon="14.586735"><ele>95.0</ele><time>2026-04-14T10:46:25.867Z</time></trkpt><trkpt lat="42.1881067" lon="14.58669"><ele>95.0</ele><time>2026-04-14T10:46:27.867Z</time></trkpt><trkpt lat="42.1880467" lon="14.5866467"><ele>95.0</ele><time>2026-04-14T10:46:29.867Z</time></trkpt><trkpt lat="42.1879817" lon="14.5865967"><ele>95.5</ele><time>2026-04-14T10:46:31.866Z</time></trkpt><trkpt lat="42.1879183" lon="14.5865417"><ele>96.0</ele><time>2026-04-14T10:46:33.866Z</time></trkpt><trkpt lat="42.18784" lon="14.5865167"><ele>96.5</ele><time>2026-04-14T10:46:35.867Z</time></trkpt><trkpt lat="42.1877617" lon="14.5864833"><ele>97.0</ele><time>2026-04-14T10:46:37.866Z</time></trkpt><trkpt lat="42.187695" lon="14.586445"><ele>97.49999999999999</ele><time>2026-04-14T10:46:39.866Z</time></trkpt><trkpt lat="42.18764" lon="14.586395"><ele>98.0</ele><time>2026-04-14T10:46:41.867Z</time></trkpt><trkpt lat="42.1875767" lon="14.586295"><ele>97.99999999999999</ele><time>2026-04-14T10:46:44.867Z</time></trkpt><trkpt lat="42.187525" lon="14.5862383"><ele>98.0</ele><time>2026-04-14T10:46:46.866Z</time></trkpt><trkpt lat="42.1874817" lon="14.5861733"><ele>98.0</ele><time>2026-04-14T10:46:48.866Z</time></trkpt><trkpt lat="42.1874283" lon="14.5860883"><ele>98.0</ele><time>2026-04-14T10:46:51.867Z</time></trkpt><trkpt lat="42.1873667" lon="14.5860117"><ele>97.99999999999999</ele><time>2026-04-14T10:46:54.866Z</time></trkpt><trkpt lat="42.1873117" lon="14.585945"><ele>98.0</ele><time>2026-04-14T10:46:57.867Z</time></trkpt><trkpt lat="42.1872483" lon="14.5858767"><ele>98.83333333333333</ele><time>2026-04-14T10:47:01.866Z</time></trkpt><trkpt lat="42.1871867" lon="14.5858333"><ele>99.66666666666666</ele><time>2026-04-14T10:47:04.867Z</time></trkpt><trkpt lat="42.1871083" lon="14.5857867"><ele>100.5</ele><time>2026-04-14T10:47:07.867Z</time></trkpt><trkpt lat="42.18705" lon="14.5857317"><ele>101.33333333333334</ele><time>2026-04-14T10:47:10.867Z</time></trkpt><trkpt lat="42.1869817" lon="14.5857017"><ele>102.16666666666667</ele><time>2026-04-14T10:47:12.867Z</time></trkpt><trkpt lat="42.186925" lon="14.58563"><ele>103.0</ele><time>2026-04-14T10:47:15.867Z</time></trkpt><trkpt lat="42.1868617" lon="14.585565"><ele>103.0</ele><time>2026-04-14T10:47:19.867Z</time></trkpt><trkpt lat="42.1868067" lon="14.5855017"><ele>103.0</ele><time>2026-04-14T10:47:22.867Z</time></trkpt><trkpt lat="42.1867317" lon="14.5854183"><ele>103.0</ele><time>2026-04-14T10:47:25.867Z</time></trkpt><trkpt lat="42.1866567" lon="14.5853483"><ele>103.0</ele><time>2026-04-14T10:47:28.867Z</time></trkpt><trkpt lat="42.186555" lon="14.58529"><ele>103.0</ele><time>2026-04-14T10:47:30.867Z</time></trkpt><trkpt lat="42.1864517" lon="14.5852317"><ele>103.16666666666667</ele><time>2026-04-14T10:47:32.866Z</time></trkpt><trkpt lat="42.1863667" lon="14.585185"><ele>103.33333333333334</ele><time>2026-04-14T10:47:34.867Z</time></trkpt><trkpt lat="42.186285" lon="14.5851433"><ele>103.5</ele><time>2026-04-14T10:47:36.867Z</time></trkpt><trkpt lat="42.1862217" lon="14.5851083"><ele>103.66666666666666</ele><time>2026-04-14T10:47:38.867Z</time></trkpt><trkpt lat="42.186165" lon="14.5850483"><ele>103.83333333333333</ele><time>2026-04-14T10:47:43.867Z</time></trkpt><trkpt lat="42.186055" lon="14.5850417"><ele>104.0</ele><time>2026-04-14T10:47:51.867Z</time></trkpt><trkpt lat="42.185925" lon="14.585015"><ele>103.99999999999999</ele><time>2026-04-14T10:48:06.867Z</time></trkpt><trkpt lat="42.1858683" lon="14.584925"><ele>104.0</ele><time>2026-04-14T10:48:17.867Z</time></trkpt><trkpt lat="42.1858233" lon="14.584845"><ele>104.0</ele><time>2026-04-14T10:48:21.867Z</time></trkpt><trkpt lat="42.18576" lon="14.5848183"><ele>104.0</ele><time>2026-04-14T10:48:23.867Z</time></trkpt><trkpt lat="42.18567" lon="14.5848067"><ele>103.99999999999999</ele><time>2026-04-14T10:48:25.866Z</time></trkpt><trkpt lat="42.185605" lon="14.5847733"><ele>104.0</ele><time>2026-04-14T10:48:27.867Z</time></trkpt><trkpt lat="42.1855367" lon="14.5847383"><ele>104.33333333333333</ele><time>2026-04-14T10:48:29.866Z</time></trkpt><trkpt lat="42.1854833" lon="14.5846883"><ele>104.66666666666666</ele><time>2026-04-14T10:48:31.866Z</time></trkpt><trkpt lat="42.1854083" lon="14.5846183"><ele>105.0</ele><time>2026-04-14T10:48:34.867Z</time></trkpt><trkpt lat="42.1853367" lon="14.5845533"><ele>105.33333333333334</ele><time>2026-04-14T10:48:36.867Z</time></trkpt><trkpt lat="42.185275" lon="14.5845017"><ele>105.66666666666667</ele><time>2026-04-14T10:48:38.867Z</time></trkpt><trkpt lat="42.185205" lon="14.5844517"><ele>106.0</ele><time>2026-04-14T10:48:41.867Z</time></trkpt><trkpt lat="42.1851433" lon="14.5844217"><ele>106.00000000000001</ele><time>2026-04-14T10:48:43.867Z</time></trkpt><trkpt lat="42.1850717" lon="14.5843883"><ele>106.0</ele><time>2026-04-14T10:48:45.867Z</time></trkpt><trkpt lat="42.185" lon="14.5843567"><ele>106.0</ele><time>2026-04-14T10:48:47.866Z</time></trkpt><trkpt lat="42.184935" lon="14.5843267"><ele>106.0</ele><time>2026-04-14T10:48:50.866Z</time></trkpt><trkpt lat="42.1849" lon="14.5842417"><ele>106.00000000000001</ele><time>2026-04-14T10:48:54.867Z</time></trkpt><trkpt lat="42.1848083" lon="14.5841933"><ele>106.0</ele><time>2026-04-14T10:48:57.866Z</time></trkpt><trkpt lat="42.1847333" lon="14.5841817"><ele>106.6</ele><time>2026-04-14T10:48:59.867Z</time></trkpt><trkpt lat="42.1846317" lon="14.5841917"><ele>107.19999999999999</ele><time>2026-04-14T10:49:01.867Z</time></trkpt><trkpt lat="42.1845467" lon="14.584205"><ele>107.80000000000001</ele><time>2026-04-14T10:49:03.867Z</time></trkpt><trkpt lat="42.18446" lon="14.5842"><ele>108.4</ele><time>2026-04-14T10:49:06.867Z</time></trkpt><trkpt lat="42.1843967" lon="14.5841767"><ele>109.0</ele><time>2026-04-14T10:49:09.867Z</time></trkpt><trkpt lat="42.184265" lon="14.58415"><ele>109.0</ele><time>2026-04-14T10:49:19.867Z</time></trkpt><trkpt lat="42.184135" lon="14.584145"><ele>109.0</ele><time>2026-04-14T10:49:32.867Z</time></trkpt><trkpt lat="42.1840333" lon="14.5841583"><ele>109.0</ele><time>2026-04-14T10:49:49.866Z</time></trkpt><trkpt lat="42.1839833" lon="14.5841033"><ele>109.0</ele><time>2026-04-14T10:50:21.867Z</time></trkpt><trkpt lat="42.1839383" lon="14.584015"><ele>109.0</ele><time>2026-04-14T10:50:25.867Z</time></trkpt><trkpt lat="42.1838633" lon="14.5839417"><ele>109.83333333333334</ele><time>2026-04-14T10:50:28.867Z</time></trkpt><trkpt lat="42.1837767" lon="14.5839"><ele>110.66666666666667</ele><time>2026-04-14T10:50:31.867Z</time></trkpt><trkpt lat="42.1837067" lon="14.5838883"><ele>111.5</ele><time>2026-04-14T10:50:33.866Z</time></trkpt><trkpt lat="42.1836217" lon="14.58387"><ele>112.33333333333334</ele><time>2026-04-14T10:50:36.867Z</time></trkpt><trkpt lat="42.1835317" lon="14.583855"><ele>113.16666666666667</ele><time>2026-04-14T10:50:39.867Z</time></trkpt><trkpt lat="42.183455" lon="14.583845"><ele>114.0</ele><time>2026-04-14T10:50:42.867Z</time></trkpt><trkpt lat="42.1833617" lon="14.5838417"><ele>114.0</ele><time>2026-04-14T10:50:45.867Z</time></trkpt><trkpt lat="42.1832983" lon="14.5838383"><ele>114.0</ele><time>2026-04-14T10:50:47.867Z</time></trkpt><trkpt lat="42.183215" lon="14.583845"><ele>114.0</ele><time>2026-04-14T10:50:49.866Z</time></trkpt><trkpt lat="42.1831317" lon="14.583855"><ele>114.0</ele><time>2026-04-14T10:50:51.866Z</time></trkpt><trkpt lat="42.1830533" lon="14.5838783"><ele>114.0</ele><time>2026-04-14T10:50:53.867Z</time></trkpt><trkpt lat="42.182975" lon="14.5838883"><ele>114.0</ele><time>2026-04-14T10:50:56.866Z</time></trkpt><trkpt lat="42.1828983" lon="14.583895"><ele>114.33333333333333</ele><time>2026-04-14T10:50:58.866Z</time></trkpt><trkpt lat="42.1828133" lon="14.5839117"><ele>114.66666666666666</ele><time>2026-04-14T10:51:00.866Z</time></trkpt><trkpt lat="42.182725" lon="14.58394"><ele>115.0</ele><time>2026-04-14T10:51:02.867Z</time></trkpt><trkpt lat="42.1826633" lon="14.5839683"><ele>115.33333333333333</ele><time>2026-04-14T10:51:04.867Z</time></trkpt><trkpt lat="42.1826" lon="14.583995"><ele>115.66666666666666</ele><time>2026-04-14T10:51:06.867Z</time></trkpt><trkpt lat="42.1825283" lon="14.584025"><ele>116.0</ele><time>2026-04-14T10:51:09.866Z</time></trkpt><trkpt lat="42.1824467" lon="14.5840483"><ele>115.99999999999999</ele><time>2026-04-14T10:51:12.867Z</time></trkpt><trkpt lat="42.1823633" lon="14.58404"><ele>116.0</ele><time>2026-04-14T10:51:15.867Z</time></trkpt><trkpt lat="42.182275" lon="14.5840467"><ele>116.0</ele><time>2026-04-14T10:51:18.866Z</time></trkpt><trkpt lat="42.1822" lon="14.58405"><ele>116.0</ele><time>2026-04-14T10:51:20.866Z</time></trkpt><trkpt lat="42.1821383" lon="14.58407"><ele>115.99999999999999</ele><time>2026-04-14T10:51:22.866Z</time></trkpt><trkpt lat="42.1820717" lon="14.5840983"><ele>116.0</ele><time>2026-04-14T10:51:25.867Z</time></trkpt><trkpt lat="42.1819783" lon="14.5841433"><ele>116.66666666666666</ele><time>2026-04-14T10:51:30.867Z</time></trkpt><trkpt lat="42.1819017" lon="14.584165"><ele>117.33333333333333</ele><time>2026-04-14T10:51:33.866Z</time></trkpt><trkpt lat="42.1818367" lon="14.584175"><ele>118.0</ele><time>2026-04-14T10:51:35.867Z</time></trkpt><trkpt lat="42.18175" lon="14.5842017"><ele>118.66666666666666</ele><time>2026-04-14T10:51:38.867Z</time></trkpt><trkpt lat="42.1816667" lon="14.5842367"><ele>119.33333333333333</ele><time>2026-04-14T10:51:40.867Z</time></trkpt><trkpt lat="42.1815933" lon="14.584265"><ele>120.0</ele><time>2026-04-14T10:51:42.867Z</time></trkpt><trkpt lat="42.1815067" lon="14.5843"><ele>120.0</ele><time>2026-04-14T10:51:44.867Z</time></trkpt><trkpt lat="42.1814317" lon="14.5843283"><ele>120.0</ele><time>2026-04-14T10:51:46.867Z</time></trkpt><trkpt lat="42.1813717" lon="14.584355"><ele>120.0</ele><time>2026-04-14T10:51:48.867Z</time></trkpt><trkpt lat="42.1812967" lon="14.584385"><ele>120.0</ele><time>2026-04-14T10:51:51.866Z</time></trkpt><trkpt lat="42.1812333" lon="14.584405"><ele>120.0</ele><time>2026-04-14T10:51:54.867Z</time></trkpt><trkpt lat="42.181125" lon="14.5844317"><ele>120.0</ele><time>2026-04-14T10:51:57.867Z</time></trkpt><trkpt lat="42.1810417" lon="14.5844633"><ele>120.0</ele><time>2026-04-14T10:52:00.867Z</time></trkpt><trkpt lat="42.180985" lon="14.5845067"><ele>120.0</ele><time>2026-04-14T10:52:02.866Z</time></trkpt><trkpt lat="42.180935" lon="14.584575"><ele>120.0</ele><time>2026-04-14T10:52:04.867Z</time></trkpt><trkpt lat="42.1808967" lon="14.58466"><ele>120.0</ele><time>2026-04-14T10:52:07.866Z</time></trkpt><trkpt lat="42.180875" lon="14.5847533"><ele>120.0</ele><time>2026-04-14T10:52:10.866Z</time></trkpt><trkpt lat="42.1808717" lon="14.58487"><ele>120.0</ele><time>2026-04-14T10:52:13.867Z</time></trkpt><trkpt lat="42.1808733" lon="14.5849583"><ele>120.0</ele><time>2026-04-14T10:52:15.866Z</time></trkpt><trkpt lat="42.180875" lon="14.5850467"><ele>120.0</ele><time>2026-04-14T10:52:17.866Z</time></trkpt><trkpt lat="42.1808767" lon="14.5851333"><ele>120.0</ele><time>2026-04-14T10:52:19.866Z</time></trkpt><trkpt lat="42.1808817" lon="14.5852267"><ele>120.0</ele><time>2026-04-14T10:52:21.866Z</time></trkpt><trkpt lat="42.1808917" lon="14.5853183"><ele>120.0</ele><time>2026-04-14T10:52:23.867Z</time></trkpt><trkpt lat="42.180895" lon="14.58541"><ele>120.0</ele><time>2026-04-14T10:52:25.866Z</time></trkpt><trkpt lat="42.1808733" lon="14.5855017"><ele>120.0</ele><time>2026-04-14T10:52:28.867Z</time></trkpt><trkpt lat="42.1808317" lon="14.585575"><ele>120.0</ele><time>2026-04-14T10:52:31.867Z</time></trkpt><trkpt lat="42.18082" lon="14.5856967"><ele>120.5</ele><time>2026-04-14T10:52:35.867Z</time></trkpt><trkpt lat="42.1808183" lon="14.5857883"><ele>121.0</ele><time>2026-04-14T10:52:38.867Z</time></trkpt><trkpt lat="42.1808017" lon="14.5859033"><ele>121.5</ele><time>2026-04-14T10:52:41.867Z</time></trkpt><trkpt lat="42.1807533" lon="14.5859867"><ele>122.0</ele><time>2026-04-14T10:52:45.866Z</time></trkpt><trkpt lat="42.1806617" lon="14.58598"><ele>122.5</ele><time>2026-04-14T10:52:48.867Z</time></trkpt><trkpt lat="42.1805683" lon="14.585975"><ele>123.0</ele><time>2026-04-14T10:52:50.867Z</time></trkpt><trkpt lat="42.1804667" lon="14.5859717"><ele>123.0</ele><time>2026-04-14T10:52:52.866Z</time></trkpt><trkpt lat="42.1803667" lon="14.585975"><ele>123.00000000000001</ele><time>2026-04-14T10:52:54.866Z</time></trkpt><trkpt lat="42.1802667" lon="14.585985"><ele>123.00000000000001</ele><time>2026-04-14T10:52:56.867Z</time></trkpt><trkpt lat="42.1801567" lon="14.5859917"><ele>123.0</ele><time>2026-04-14T10:52:58.867Z</time></trkpt><trkpt lat="42.180045" lon="14.5860033"><ele>123.0</ele><time>2026-04-14T10:53:00.867Z</time></trkpt><trkpt lat="42.179935" lon="14.5860283"><ele>123.0</ele><time>2026-04-14T10:53:02.867Z</time></trkpt><trkpt lat="42.1798233" lon="14.5860617"><ele>123.0</ele><time>2026-04-14T10:53:04.867Z</time></trkpt><trkpt lat="42.179705" lon="14.5860867"><ele>123.0</ele><time>2026-04-14T10:53:06.866Z</time></trkpt><trkpt lat="42.1795917" lon="14.58612"><ele>123.0</ele><time>2026-04-14T10:53:08.867Z</time></trkpt><trkpt lat="42.1794783" lon="14.58614"><ele>123.0</ele><time>2026-04-14T10:53:10.867Z</time></trkpt><trkpt lat="42.17936" lon="14.5861667"><ele>123.00000000000001</ele><time>2026-04-14T10:53:12.867Z</time></trkpt><trkpt lat="42.1792967" lon="14.5861817"><ele>123.00000000000001</ele><time>2026-04-14T10:53:13.867Z</time></trkpt><trkpt lat="42.179175" lon="14.586205"><ele>123.0</ele><time>2026-04-14T10:53:15.866Z</time></trkpt><trkpt lat="42.1790667" lon="14.5862367"><ele>123.0</ele><time>2026-04-14T10:53:17.866Z</time></trkpt><trkpt lat="42.1789583" lon="14.5862633"><ele>123.4</ele><time>2026-04-14T10:53:19.867Z</time></trkpt><trkpt lat="42.178855" lon="14.5862833"><ele>123.80000000000001</ele><time>2026-04-14T10:53:21.866Z</time></trkpt><trkpt lat="42.1787417" lon="14.5863083"><ele>124.2</ele><time>2026-04-14T10:53:23.866Z</time></trkpt><trkpt lat="42.1786317" lon="14.5863317"><ele>124.6</ele><time>2026-04-14T10:53:25.867Z</time></trkpt><trkpt lat="42.1785217" lon="14.5863617"><ele>125.0</ele><time>2026-04-14T10:53:27.867Z</time></trkpt><trkpt lat="42.1784167" lon="14.5863917"><ele>125.0</ele><time>2026-04-14T10:53:29.867Z</time></trkpt><trkpt lat="42.1783" lon="14.586425"><ele>125.0</ele><time>2026-04-14T10:53:31.866Z</time></trkpt><trkpt lat="42.178185" lon="14.58646"><ele>125.0</ele><time>2026-04-14T10:53:33.867Z</time></trkpt><trkpt lat="42.1780733" lon="14.5864917"><ele>125.0</ele><time>2026-04-14T10:53:35.866Z</time></trkpt><trkpt lat="42.17796" lon="14.5865267"><ele>125.75</ele><time>2026-04-14T10:53:37.867Z</time></trkpt><trkpt lat="42.1778417" lon="14.58656"><ele>126.5</ele><time>2026-04-14T10:53:39.866Z</time></trkpt><trkpt lat="42.17773" lon="14.5865783"><ele>127.25</ele><time>2026-04-14T10:53:41.867Z</time></trkpt><trkpt lat="42.1776133" lon="14.5865883"><ele>128.0</ele><time>2026-04-14T10:53:43.866Z</time></trkpt><trkpt lat="42.1775033" lon="14.5865817"><ele>128.0</ele><time>2026-04-14T10:53:45.867Z</time></trkpt><trkpt lat="42.177385" lon="14.5865717"><ele>128.0</ele><time>2026-04-14T10:53:47.867Z</time></trkpt><trkpt lat="42.177275" lon="14.5865583"><ele>128.0</ele><time>2026-04-14T10:53:49.867Z</time></trkpt><trkpt lat="42.17717" lon="14.5865367"><ele>128.0</ele><time>2026-04-14T10:53:51.867Z</time></trkpt><trkpt lat="42.17706" lon="14.5865067"><ele>128.0</ele><time>2026-04-14T10:53:53.866Z</time></trkpt><trkpt lat="42.1769583" lon="14.5864717"><ele>128.4</ele><time>2026-04-14T10:53:55.866Z</time></trkpt><trkpt lat="42.176845" lon="14.5864233"><ele>128.8</ele><time>2026-04-14T10:53:57.867Z</time></trkpt><trkpt lat="42.17674" lon="14.58637"><ele>129.2</ele><time>2026-04-14T10:53:59.866Z</time></trkpt><trkpt lat="42.17664" lon="14.5863217"><ele>129.6</ele><time>2026-04-14T10:54:01.867Z</time></trkpt><trkpt lat="42.17655" lon="14.58627"><ele>130.0</ele><time>2026-04-14T10:54:03.866Z</time></trkpt><trkpt lat="42.1764633" lon="14.5862033"><ele>130.0</ele><time>2026-04-14T10:54:05.866Z</time></trkpt><trkpt lat="42.1763733" lon="14.5861483"><ele>130.0</ele><time>2026-04-14T10:54:07.867Z</time></trkpt><trkpt lat="42.1762617" lon="14.5861017"><ele>130.0</ele><time>2026-04-14T10:54:09.867Z</time></trkpt><trkpt lat="42.176145" lon="14.586065"><ele>130.0</ele><time>2026-04-14T10:54:11.867Z</time></trkpt><trkpt lat="42.17603" lon="14.5860417"><ele>130.0</ele><time>2026-04-14T10:54:13.867Z</time></trkpt><trkpt lat="42.1759117" lon="14.5860217"><ele>130.0</ele><time>2026-04-14T10:54:15.867Z</time></trkpt><trkpt lat="42.175805" lon="14.586"><ele>130.0</ele><time>2026-04-14T10:54:17.867Z</time></trkpt><trkpt lat="42.1756967" lon="14.585975"><ele>130.0</ele><time>2026-04-14T10:54:19.866Z</time></trkpt><trkpt lat="42.175585" lon="14.585945"><ele>130.8</ele><time>2026-04-14T10:54:21.867Z</time></trkpt><trkpt lat="42.1754767" lon="14.5859033"><ele>131.6</ele><time>2026-04-14T10:54:23.867Z</time></trkpt><trkpt lat="42.1753667" lon="14.5858583"><ele>132.4</ele><time>2026-04-14T10:54:25.866Z</time></trkpt><trkpt lat="42.1752617" lon="14.5858067"><ele>133.2</ele><time>2026-04-14T10:54:27.867Z</time></trkpt><trkpt lat="42.1751567" lon="14.5857633"><ele>134.0</ele><time>2026-04-14T10:54:29.867Z</time></trkpt><trkpt lat="42.1750567" lon="14.585725"><ele>134.0</ele><time>2026-04-14T10:54:31.867Z</time></trkpt><trkpt lat="42.17498" lon="14.5856783"><ele>134.0</ele><time>2026-04-14T10:54:33.866Z</time></trkpt><trkpt lat="42.1749133" lon="14.585635"><ele>134.0</ele><time>2026-04-14T10:54:36.867Z</time></trkpt><trkpt lat="42.174845" lon="14.5856167"><ele>134.0</ele><time>2026-04-14T10:55:14.866Z</time></trkpt><trkpt lat="42.1747633" lon="14.5855783"><ele>134.0</ele><time>2026-04-14T10:55:17.867Z</time></trkpt><trkpt lat="42.1746883" lon="14.585555"><ele>134.0</ele><time>2026-04-14T10:55:19.867Z</time></trkpt><trkpt lat="42.1745967" lon="14.5855233"><ele>134.4</ele><time>2026-04-14T10:55:21.866Z</time></trkpt><trkpt lat="42.174495" lon="14.5854883"><ele>134.8</ele><time>2026-04-14T10:55:23.867Z</time></trkpt><trkpt lat="42.17439" lon="14.5854583"><ele>135.2</ele><time>2026-04-14T10:55:25.867Z</time></trkpt><trkpt lat="42.174325" lon="14.5854433"><ele>135.6</ele><time>2026-04-14T10:55:26.867Z</time></trkpt><trkpt lat="42.17421" lon="14.5854067"><ele>136.0</ele><time>2026-04-14T10:55:28.866Z</time></trkpt><trkpt lat="42.1741017" lon="14.5853733"><ele>136.5</ele><time>2026-04-14T10:55:30.866Z</time></trkpt><trkpt lat="42.1739817" lon="14.5853417"><ele>137.0</ele><time>2026-04-14T10:55:32.867Z</time></trkpt><trkpt lat="42.1738667" lon="14.5852883"><ele>137.5</ele><time>2026-04-14T10:55:34.866Z</time></trkpt><trkpt lat="42.1737633" lon="14.5852267"><ele>138.0</ele><time>2026-04-14T10:55:36.867Z</time></trkpt><trkpt lat="42.17366" lon="14.5851717"><ele>138.0</ele><time>2026-04-14T10:55:38.867Z</time></trkpt><trkpt lat="42.1735533" lon="14.585115"><ele>138.0</ele><time>2026-04-14T10:55:40.866Z</time></trkpt><trkpt lat="42.1734483" lon="14.5850567"><ele>138.0</ele><time>2026-04-14T10:55:42.866Z</time></trkpt><trkpt lat="42.1733467" lon="14.585"><ele>138.0</ele><time>2026-04-14T10:55:44.866Z</time></trkpt><trkpt lat="42.1732483" lon="14.5849367"><ele>138.0</ele><time>2026-04-14T10:55:46.866Z</time></trkpt><trkpt lat="42.17315" lon="14.58488"><ele>138.75</ele><time>2026-04-14T10:55:48.867Z</time></trkpt><trkpt lat="42.1730433" lon="14.58483"><ele>139.5</ele><time>2026-04-14T10:55:50.866Z</time></trkpt><trkpt lat="42.1729383" lon="14.5847733"><ele>140.25</ele><time>2026-04-14T10:55:52.867Z</time></trkpt><trkpt lat="42.1728367" lon="14.584695"><ele>141.0</ele><time>2026-04-14T10:55:54.867Z</time></trkpt><trkpt lat="42.1727433" lon="14.58462"><ele>141.0</ele><time>2026-04-14T10:55:56.867Z</time></trkpt><trkpt lat="42.172655" lon="14.58454"><ele>141.0</ele><time>2026-04-14T10:55:58.867Z</time></trkpt><trkpt lat="42.172565" lon="14.5844633"><ele>141.0</ele><time>2026-04-14T10:56:00.867Z</time></trkpt><trkpt lat="42.1724783" lon="14.5843767"><ele>141.0</ele><time>2026-04-14T10:56:02.867Z</time></trkpt><trkpt lat="42.1723783" lon="14.5843"><ele>141.0</ele><time>2026-04-14T10:56:04.867Z</time></trkpt><trkpt lat="42.17232" lon="14.5842667"><ele>141.2</ele><time>2026-04-14T10:56:05.867Z</time></trkpt><trkpt lat="42.1722183" lon="14.5842117"><ele>141.39999999999998</ele><time>2026-04-14T10:56:07.866Z</time></trkpt><trkpt lat="42.1721283" lon="14.5841717"><ele>141.6</ele><time>2026-04-14T10:56:09.866Z</time></trkpt><trkpt lat="42.1720417" lon="14.5841383"><ele>141.79999999999998</ele><time>2026-04-14T10:56:11.867Z</time></trkpt><trkpt lat="42.17196" lon="14.5841033"><ele>142.0</ele><time>2026-04-14T10:56:13.866Z</time></trkpt><trkpt lat="42.1718733" lon="14.5840883"><ele>142.0</ele><time>2026-04-14T10:56:15.866Z</time></trkpt><trkpt lat="42.1717917" lon="14.5840833"><ele>142.0</ele><time>2026-04-14T10:56:17.866Z</time></trkpt><trkpt lat="42.1716867" lon="14.5841017"><ele>142.0</ele><time>2026-04-14T10:56:19.866Z</time></trkpt><trkpt lat="42.171625" lon="14.5841217"><ele>142.0</ele><time>2026-04-14T10:56:20.866Z</time></trkpt><trkpt lat="42.1715617" lon="14.584145"><ele>142.0</ele><time>2026-04-14T10:56:21.867Z</time></trkpt><trkpt lat="42.1715017" lon="14.5841767"><ele>142.0</ele><time>2026-04-14T10:56:22.867Z</time></trkpt><trkpt lat="42.1713867" lon="14.5842317"><ele>141.42857142857142</ele><time>2026-04-14T10:56:24.867Z</time></trkpt><trkpt lat="42.1713267" lon="14.5842617"><ele>140.85714285714283</ele><time>2026-04-14T10:56:25.866Z</time></trkpt><trkpt lat="42.1712617" lon="14.5842867"><ele>140.28571428571428</ele><time>2026-04-14T10:56:26.866Z</time></trkpt><trkpt lat="42.1711967" lon="14.5843117"><ele>139.71428571428572</ele><time>2026-04-14T10:56:27.867Z</time></trkpt><trkpt lat="42.17113" lon="14.5843417"><ele>139.14285714285717</ele><time>2026-04-14T10:56:28.866Z</time></trkpt><trkpt lat="42.1710717" lon="14.5843817"><ele>138.57142857142858</ele><time>2026-04-14T10:56:29.866Z</time></trkpt><trkpt lat="42.1710033" lon="14.5844133"><ele>138.0</ele><time>2026-04-14T10:56:30.866Z</time></trkpt><trkpt lat="42.1709383" lon="14.5844433"><ele>138.0</ele><time>2026-04-14T10:56:31.866Z</time></trkpt><trkpt lat="42.17084" lon="14.5844883"><ele>138.0</ele><time>2026-04-14T10:56:33.867Z</time></trkpt><trkpt lat="42.170735" lon="14.5845483"><ele>138.0</ele><time>2026-04-14T10:56:35.867Z</time></trkpt><trkpt lat="42.170635" lon="14.584595"><ele>138.0</ele><time>2026-04-14T10:56:37.867Z</time></trkpt><trkpt lat="42.17053" lon="14.5846317"><ele>138.0</ele><time>2026-04-14T10:56:39.867Z</time></trkpt><trkpt lat="42.17043" lon="14.584665"><ele>139.20000000000002</ele><time>2026-04-14T10:56:41.867Z</time></trkpt><trkpt lat="42.170325" lon="14.584695"><ele>140.4</ele><time>2026-04-14T10:56:43.867Z</time></trkpt><trkpt lat="42.17021" lon="14.58472"><ele>141.60000000000002</ele><time>2026-04-14T10:56:45.867Z</time></trkpt><trkpt lat="42.1701033" lon="14.5847317"><ele>142.8</ele><time>2026-04-14T10:56:47.867Z</time></trkpt><trkpt lat="42.1699933" lon="14.5847533"><ele>144.0</ele><time>2026-04-14T10:56:49.866Z</time></trkpt><trkpt lat="42.1698817" lon="14.5847733"><ele>144.2</ele><time>2026-04-14T10:56:51.866Z</time></trkpt><trkpt lat="42.169775" lon="14.5847767"><ele>144.4</ele><time>2026-04-14T10:56:53.867Z</time></trkpt><trkpt lat="42.1696633" lon="14.5847633"><ele>144.6</ele><time>2026-04-14T10:56:55.866Z</time></trkpt><trkpt lat="42.1695533" lon="14.5847533"><ele>144.8</ele><time>2026-04-14T10:56:57.867Z</time></trkpt><trkpt lat="42.169445" lon="14.5847467"><ele>145.0</ele><time>2026-04-14T10:56:59.866Z</time></trkpt><trkpt lat="42.1693267" lon="14.584735"><ele>145.0</ele><time>2026-04-14T10:57:01.867Z</time></trkpt><trkpt lat="42.1692117" lon="14.584715"><ele>145.0</ele><time>2026-04-14T10:57:03.866Z</time></trkpt><trkpt lat="42.1690967" lon="14.5846917"><ele>145.0</ele><time>2026-04-14T10:57:05.867Z</time></trkpt><trkpt lat="42.168985" lon="14.5846617"><ele>145.0</ele><time>2026-04-14T10:57:07.867Z</time></trkpt><trkpt lat="42.1688767" lon="14.584625"><ele>146.0</ele><time>2026-04-14T10:57:09.866Z</time></trkpt><trkpt lat="42.1687683" lon="14.58458"><ele>147.0</ele><time>2026-04-14T10:57:11.867Z</time></trkpt><trkpt lat="42.168655" lon="14.5845383"><ele>148.0</ele><time>2026-04-14T10:57:13.866Z</time></trkpt><trkpt lat="42.1685483" lon="14.5844967"><ele>149.0</ele><time>2026-04-14T10:57:15.866Z</time></trkpt><trkpt lat="42.1684417" lon="14.584455"><ele>149.0</ele><time>2026-04-14T10:57:17.867Z</time></trkpt><trkpt lat="42.1683367" lon="14.5844333"><ele>149.0</ele><time>2026-04-14T10:57:19.867Z</time></trkpt><trkpt lat="42.1682267" lon="14.58443"><ele>149.0</ele><time>2026-04-14T10:57:21.867Z</time></trkpt><trkpt lat="42.1681083" lon="14.584455"><ele>149.0</ele><time>2026-04-14T10:57:23.867Z</time></trkpt><trkpt lat="42.1679917" lon="14.5844983"><ele>149.2</ele><time>2026-04-14T10:57:25.866Z</time></trkpt><trkpt lat="42.1678917" lon="14.5845567"><ele>149.4</ele><time>2026-04-14T10:57:27.867Z</time></trkpt><trkpt lat="42.1677933" lon="14.5846133"><ele>149.6</ele><time>2026-04-14T10:57:29.867Z</time></trkpt><trkpt lat="42.1677017" lon="14.5846483"><ele>149.8</ele><time>2026-04-14T10:57:31.867Z</time></trkpt><trkpt lat="42.1675967" lon="14.58467"><ele>150.0</ele><time>2026-04-14T10:57:33.866Z</time></trkpt><trkpt lat="42.1675333" lon="14.5846833"><ele>150.0</ele><time>2026-04-14T10:57:34.867Z</time></trkpt><trkpt lat="42.1674117" lon="14.5846983"><ele>150.0</ele><time>2026-04-14T10:57:36.867Z</time></trkpt><trkpt lat="42.1673083" lon="14.5847217"><ele>150.0</ele><time>2026-04-14T10:57:38.866Z</time></trkpt><trkpt lat="42.1672183" lon="14.5847417"><ele>150.0</ele><time>2026-04-14T10:57:40.867Z</time></trkpt><trkpt lat="42.1671233" lon="14.58476"><ele>150.0</ele><time>2026-04-14T10:57:42.867Z</time></trkpt><trkpt lat="42.1670117" lon="14.584785"><ele>149.75</ele><time>2026-04-14T10:57:44.867Z</time></trkpt><trkpt lat="42.1668967" lon="14.584805"><ele>149.5</ele><time>2026-04-14T10:57:46.866Z</time></trkpt><trkpt lat="42.16678" lon="14.5848333"><ele>149.25</ele><time>2026-04-14T10:57:48.867Z</time></trkpt><trkpt lat="42.1666667" lon="14.5848683"><ele>149.0</ele><time>2026-04-14T10:57:50.867Z</time></trkpt><trkpt lat="42.1665633" lon="14.5849033"><ele>149.0</ele><time>2026-04-14T10:57:52.867Z</time></trkpt><trkpt lat="42.1664583" lon="14.5849217"><ele>149.0</ele><time>2026-04-14T10:57:54.867Z</time></trkpt><trkpt lat="42.1663683" lon="14.584935"><ele>149.0</ele><time>2026-04-14T10:57:56.866Z</time></trkpt><trkpt lat="42.1662683" lon="14.58491"><ele>149.0</ele><time>2026-04-14T10:57:58.867Z</time></trkpt><trkpt lat="42.1661567" lon="14.5848733"><ele>149.0</ele><time>2026-04-14T10:58:00.866Z</time></trkpt><trkpt lat="42.1660433" lon="14.5848233"><ele>149.0</ele><time>2026-04-14T10:58:02.866Z</time></trkpt><trkpt lat="42.165935" lon="14.5847733"><ele>149.0</ele><time>2026-04-14T10:58:04.867Z</time></trkpt><trkpt lat="42.1658217" lon="14.5847217"><ele>149.0</ele><time>2026-04-14T10:58:06.867Z</time></trkpt><trkpt lat="42.165715" lon="14.584665"><ele>149.0</ele><time>2026-04-14T10:58:08.867Z</time></trkpt><trkpt lat="42.1656517" lon="14.584645"><ele>149.0</ele><time>2026-04-14T10:58:09.867Z</time></trkpt><trkpt lat="42.1655267" lon="14.58459"><ele>149.2</ele><time>2026-04-14T10:58:11.867Z</time></trkpt><trkpt lat="42.1654583" lon="14.5845683"><ele>149.4</ele><time>2026-04-14T10:58:12.866Z</time></trkpt><trkpt lat="42.165395" lon="14.584545"><ele>149.6</ele><time>2026-04-14T10:58:13.867Z</time></trkpt><trkpt lat="42.165275" lon="14.5844983"><ele>149.8</ele><time>2026-04-14T10:58:15.867Z</time></trkpt><trkpt lat="42.1651617" lon="14.584445"><ele>150.0</ele><time>2026-04-14T10:58:17.867Z</time></trkpt><trkpt lat="42.1650517" lon="14.5843967"><ele>150.4</ele><time>2026-04-14T10:58:19.866Z</time></trkpt><trkpt lat="42.1649433" lon="14.5843383"><ele>150.8</ele><time>2026-04-14T10:58:21.866Z</time></trkpt><trkpt lat="42.1648317" lon="14.58429"><ele>151.2</ele><time>2026-04-14T10:58:23.866Z</time></trkpt><trkpt lat="42.1647333" lon="14.584255"><ele>151.6</ele><time>2026-04-14T10:58:25.867Z</time></trkpt><trkpt lat="42.16463" lon="14.584205"><ele>152.0</ele><time>2026-04-14T10:58:27.867Z</time></trkpt><trkpt lat="42.164525" lon="14.58416"><ele>152.5</ele><time>2026-04-14T10:58:29.866Z</time></trkpt><trkpt lat="42.16441" lon="14.5841133"><ele>153.0</ele><time>2026-04-14T10:58:31.867Z</time></trkpt><trkpt lat="42.1642933" lon="14.58407"><ele>153.5</ele><time>2026-04-14T10:58:33.867Z</time></trkpt><trkpt lat="42.164175" lon="14.5840217"><ele>154.0</ele><time>2026-04-14T10:58:35.867Z</time></trkpt><trkpt lat="42.1640583" lon="14.5839867"><ele>154.0</ele><time>2026-04-14T10:58:37.866Z</time></trkpt><trkpt lat="42.163945" lon="14.5839533"><ele>154.0</ele><time>2026-04-14T10:58:39.866Z</time></trkpt><trkpt lat="42.1638333" lon="14.5839083"><ele>154.0</ele><time>2026-04-14T10:58:41.867Z</time></trkpt><trkpt lat="42.163715" lon="14.5838617"><ele>154.0</ele><time>2026-04-14T10:58:43.867Z</time></trkpt><trkpt lat="42.1635983" lon="14.58383"><ele>154.0</ele><time>2026-04-14T10:58:45.867Z</time></trkpt><trkpt lat="42.16348" lon="14.5837933"><ele>154.0</ele><time>2026-04-14T10:58:47.866Z</time></trkpt><trkpt lat="42.1633683" lon="14.5837467"><ele>154.0</ele><time>2026-04-14T10:58:49.867Z</time></trkpt><trkpt lat="42.16326" lon="14.5837117"><ele>154.0</ele><time>2026-04-14T10:58:51.867Z</time></trkpt><trkpt lat="42.1631433" lon="14.5836817"><ele>154.8</ele><time>2026-04-14T10:58:53.866Z</time></trkpt><trkpt lat="42.1630267" lon="14.5836483"><ele>155.60000000000002</ele><time>2026-04-14T10:58:55.867Z</time></trkpt><trkpt lat="42.1629117" lon="14.58361"><ele>156.4</ele><time>2026-04-14T10:58:57.866Z</time></trkpt><trkpt lat="42.16285" lon="14.58359"><ele>157.20000000000002</ele><time>2026-04-14T10:58:58.867Z</time></trkpt><trkpt lat="42.16273" lon="14.5835517"><ele>158.0</ele><time>2026-04-14T10:59:00.867Z</time></trkpt><trkpt lat="42.162615" lon="14.5835067"><ele>158.0</ele><time>2026-04-14T10:59:02.866Z</time></trkpt><trkpt lat="42.1624967" lon="14.58347"><ele>158.0</ele><time>2026-04-14T10:59:04.866Z</time></trkpt><trkpt lat="42.162435" lon="14.58345"><ele>158.0</ele><time>2026-04-14T10:59:05.867Z</time></trkpt><trkpt lat="42.1623717" lon="14.5834333"><ele>158.0</ele><time>2026-04-14T10:59:06.867Z</time></trkpt><trkpt lat="42.1622533" lon="14.5834167"><ele>158.0</ele><time>2026-04-14T10:59:08.866Z</time></trkpt><trkpt lat="42.1621883" lon="14.5834183"><ele>158.0</ele><time>2026-04-14T10:59:09.867Z</time></trkpt><trkpt lat="42.1620717" lon="14.5834583"><ele>158.20000000000002</ele><time>2026-04-14T10:59:11.867Z</time></trkpt><trkpt lat="42.1620133" lon="14.583495"><ele>158.4</ele><time>2026-04-14T10:59:12.867Z</time></trkpt><trkpt lat="42.1619117" lon="14.5835717"><ele>158.60000000000002</ele><time>2026-04-14T10:59:14.866Z</time></trkpt><trkpt lat="42.1618267" lon="14.5836483"><ele>158.8</ele><time>2026-04-14T10:59:16.867Z</time></trkpt><trkpt lat="42.1617617" lon="14.5837283"><ele>159.0</ele><time>2026-04-14T10:59:18.867Z</time></trkpt><trkpt lat="42.1616983" lon="14.5838067"><ele>159.16666666666666</ele><time>2026-04-14T10:59:20.867Z</time></trkpt><trkpt lat="42.1616483" lon="14.5838683"><ele>159.33333333333334</ele><time>2026-04-14T10:59:22.866Z</time></trkpt><trkpt lat="42.1615717" lon="14.58383"><ele>159.5</ele><time>2026-04-14T10:59:25.867Z</time></trkpt><trkpt lat="42.1615167" lon="14.5837517"><ele>159.66666666666669</ele><time>2026-04-14T10:59:27.867Z</time></trkpt><trkpt lat="42.161455" lon="14.5836483"><ele>159.83333333333334</ele><time>2026-04-14T10:59:29.867Z</time></trkpt><trkpt lat="42.16139" lon="14.583535"><ele>160.0</ele><time>2026-04-14T10:59:31.867Z</time></trkpt><trkpt lat="42.16133" lon="14.5834167"><ele>160.6</ele><time>2026-04-14T10:59:33.867Z</time></trkpt><trkpt lat="42.1612783" lon="14.5832983"><ele>161.2</ele><time>2026-04-14T10:59:35.866Z</time></trkpt><trkpt lat="42.1612267" lon="14.5831783"><ele>161.8</ele><time>2026-04-14T10:59:37.866Z</time></trkpt><trkpt lat="42.161175" lon="14.583055"><ele>162.4</ele><time>2026-04-14T10:59:39.866Z</time></trkpt><trkpt lat="42.16112" lon="14.582935"><ele>163.0</ele><time>2026-04-14T10:59:41.866Z</time></trkpt><trkpt lat="42.1610667" lon="14.582815"><ele>163.0</ele><time>2026-04-14T10:59:43.867Z</time></trkpt><trkpt lat="42.1610133" lon="14.5826933"><ele>163.0</ele><time>2026-04-14T10:59:45.867Z</time></trkpt><trkpt lat="42.1609633" lon="14.5825967"><ele>163.0</ele><time>2026-04-14T10:59:47.867Z</time></trkpt><trkpt lat="42.1609117" lon="14.582505"><ele>163.0</ele><time>2026-04-14T10:59:49.867Z</time></trkpt><trkpt lat="42.1608483" lon="14.5824117"><ele>163.0</ele><time>2026-04-14T10:59:51.867Z</time></trkpt><trkpt lat="42.1607783" lon="14.5823383"><ele>163.8</ele><time>2026-04-14T10:59:53.867Z</time></trkpt><trkpt lat="42.1606983" lon="14.5822733"><ele>164.60000000000002</ele><time>2026-04-14T10:59:55.867Z</time></trkpt><trkpt lat="42.16062" lon="14.5822"><ele>165.39999999999998</ele><time>2026-04-14T10:59:57.866Z</time></trkpt><trkpt lat="42.1605317" lon="14.5821283"><ele>166.2</ele><time>2026-04-14T10:59:59.866Z</time></trkpt><trkpt lat="42.1604533" lon="14.582065"><ele>167.0</ele><time>2026-04-14T11:00:01.866Z</time></trkpt><trkpt lat="42.16039" lon="14.5820167"><ele>167.0</ele><time>2026-04-14T11:00:03.867Z</time></trkpt><trkpt lat="42.160335" lon="14.5819633"><ele>167.0</ele><time>2026-04-14T11:00:05.867Z</time></trkpt><trkpt lat="42.1602633" lon="14.5818933"><ele>167.0</ele><time>2026-04-14T11:00:08.866Z</time></trkpt><trkpt lat="42.16019" lon="14.5818883"><ele>167.0</ele><time>2026-04-14T11:00:12.867Z</time></trkpt><trkpt lat="42.1601233" lon="14.58193"><ele>167.0</ele><time>2026-04-14T11:00:14.867Z</time></trkpt><trkpt lat="42.1600533" lon="14.5820033"><ele>167.0</ele><time>2026-04-14T11:00:16.867Z</time></trkpt><trkpt lat="42.1599867" lon="14.5820833"><ele>167.0</ele><time>2026-04-14T11:00:18.867Z</time></trkpt><trkpt lat="42.1599233" lon="14.582165"><ele>167.0</ele><time>2026-04-14T11:00:20.866Z</time></trkpt><trkpt lat="42.1598633" lon="14.5822517"><ele>167.0</ele><time>2026-04-14T11:00:22.867Z</time></trkpt><trkpt lat="42.1598117" lon="14.5823367"><ele>167.0</ele><time>2026-04-14T11:00:24.867Z</time></trkpt><trkpt lat="42.15976" lon="14.5824267"><ele>167.0</ele><time>2026-04-14T11:00:26.867Z</time></trkpt><trkpt lat="42.1597017" lon="14.582485"><ele>167.0</ele><time>2026-04-14T11:00:28.867Z</time></trkpt><trkpt lat="42.1596183" lon="14.5824533"><ele>167.66666666666666</ele><time>2026-04-14T11:00:31.867Z</time></trkpt><trkpt lat="42.1595667" lon="14.5823817"><ele>168.33333333333331</ele><time>2026-04-14T11:00:33.867Z</time></trkpt><trkpt lat="42.1594967" lon="14.5823117"><ele>169.0</ele><time>2026-04-14T11:00:35.866Z</time></trkpt><trkpt lat="42.1594167" lon="14.5822567"><ele>169.66666666666666</ele><time>2026-04-14T11:00:37.867Z</time></trkpt><trkpt lat="42.159335" lon="14.582205"><ele>170.33333333333334</ele><time>2026-04-14T11:00:39.866Z</time></trkpt><trkpt lat="42.1592533" lon="14.5821617"><ele>171.0</ele><time>2026-04-14T11:00:41.866Z</time></trkpt><trkpt lat="42.15918" lon="14.5821117"><ele>171.0</ele><time>2026-04-14T11:00:43.866Z</time></trkpt><trkpt lat="42.1591267" lon="14.582045"><ele>171.0</ele><time>2026-04-14T11:00:45.867Z</time></trkpt><trkpt lat="42.1590617" lon="14.581965"><ele>171.0</ele><time>2026-04-14T11:00:47.866Z</time></trkpt><trkpt lat="42.1590117" lon="14.581875"><ele>171.0</ele><time>2026-04-14T11:00:49.866Z</time></trkpt><trkpt lat="42.1589683" lon="14.5817667"><ele>171.0</ele><time>2026-04-14T11:00:51.866Z</time></trkpt><trkpt lat="42.15892" lon="14.58167"><ele>171.0</ele><time>2026-04-14T11:00:53.867Z</time></trkpt><trkpt lat="42.1588767" lon="14.5815667"><ele>172.33333333333334</ele><time>2026-04-14T11:00:55.867Z</time></trkpt><trkpt lat="42.1588383" lon="14.5814617"><ele>173.66666666666666</ele><time>2026-04-14T11:00:57.867Z</time></trkpt><trkpt lat="42.1588117" lon="14.5813567"><ele>175.0</ele><time>2026-04-14T11:00:59.867Z</time></trkpt><trkpt lat="42.158785" lon="14.5812517"><ele>176.33333333333331</ele><time>2026-04-14T11:01:01.866Z</time></trkpt><trkpt lat="42.1587583" lon="14.581145"><ele>177.66666666666666</ele><time>2026-04-14T11:01:03.866Z</time></trkpt><trkpt lat="42.158735" lon="14.5810333"><ele>179.0</ele><time>2026-04-14T11:01:05.867Z</time></trkpt><trkpt lat="42.1587" lon="14.58092"><ele>179.83333333333331</ele><time>2026-04-14T11:01:07.867Z</time></trkpt><trkpt lat="42.1586567" lon="14.5808183"><ele>180.66666666666666</ele><time>2026-04-14T11:01:09.867Z</time></trkpt><trkpt lat="42.1586067" lon="14.5807283"><ele>181.5</ele><time>2026-04-14T11:01:11.867Z</time></trkpt><trkpt lat="42.158555" lon="14.5806383"><ele>182.33333333333334</ele><time>2026-04-14T11:01:13.867Z</time></trkpt><trkpt lat="42.158495" lon="14.5805517"><ele>183.16666666666669</ele><time>2026-04-14T11:01:15.866Z</time></trkpt><trkpt lat="42.1584333" lon="14.580465"><ele>184.0</ele><time>2026-04-14T11:01:17.866Z</time></trkpt><trkpt lat="42.1583633" lon="14.580395"><ele>184.5</ele><time>2026-04-14T11:01:19.867Z</time></trkpt><trkpt lat="42.1582933" lon="14.58033"><ele>185.0</ele><time>2026-04-14T11:01:21.867Z</time></trkpt><trkpt lat="42.1582167" lon="14.58027"><ele>185.5</ele><time>2026-04-14T11:01:23.867Z</time></trkpt><trkpt lat="42.15814" lon="14.580215"><ele>186.0</ele><time>2026-04-14T11:01:25.867Z</time></trkpt><trkpt lat="42.1580683" lon="14.5801383"><ele>186.5</ele><time>2026-04-14T11:01:27.867Z</time></trkpt><trkpt lat="42.1580083" lon="14.580055"><ele>187.0</ele><time>2026-04-14T11:01:29.867Z</time></trkpt><trkpt lat="42.1579467" lon="14.5799767"><ele>187.83333333333334</ele><time>2026-04-14T11:01:31.866Z</time></trkpt><trkpt lat="42.15789" lon="14.5798917"><ele>188.66666666666669</ele><time>2026-04-14T11:01:33.867Z</time></trkpt><trkpt lat="42.1578367" lon="14.5798017"><ele>189.5</ele><time>2026-04-14T11:01:35.866Z</time></trkpt><trkpt lat="42.1577833" lon="14.579715"><ele>190.33333333333334</ele><time>2026-04-14T11:01:37.866Z</time></trkpt><trkpt lat="42.1577183" lon="14.5796283"><ele>191.16666666666666</ele><time>2026-04-14T11:01:39.867Z</time></trkpt><trkpt lat="42.15765" lon="14.5795417"><ele>192.0</ele><time>2026-04-14T11:01:41.867Z</time></trkpt><trkpt lat="42.1575883" lon="14.5794567"><ele>193.16666666666666</ele><time>2026-04-14T11:01:43.867Z</time></trkpt><trkpt lat="42.1575367" lon="14.579365"><ele>194.33333333333331</ele><time>2026-04-14T11:01:45.866Z</time></trkpt><trkpt lat="42.1574817" lon="14.5792833"><ele>195.5</ele><time>2026-04-14T11:01:47.867Z</time></trkpt><trkpt lat="42.1574217" lon="14.579195"><ele>196.66666666666666</ele><time>2026-04-14T11:01:49.867Z</time></trkpt><trkpt lat="42.157365" lon="14.5791033"><ele>197.83333333333331</ele><time>2026-04-14T11:01:51.866Z</time></trkpt><trkpt lat="42.1573017" lon="14.57902"><ele>199.0</ele><time>2026-04-14T11:01:53.866Z</time></trkpt><trkpt lat="42.1572367" lon="14.5789367"><ele>199.99999999999997</ele><time>2026-04-14T11:01:55.866Z</time></trkpt><trkpt lat="42.1571733" lon="14.5788583"><ele>201.0</ele><time>2026-04-14T11:01:57.867Z</time></trkpt><trkpt lat="42.1571183" lon="14.578775"><ele>202.0</ele><time>2026-04-14T11:01:59.866Z</time></trkpt><trkpt lat="42.1570617" lon="14.5787017"><ele>203.0</ele><time>2026-04-14T11:02:01.867Z</time></trkpt><trkpt lat="42.157005" lon="14.5786133"><ele>203.99999999999997</ele><time>2026-04-14T11:02:03.866Z</time></trkpt><trkpt lat="42.1569433" lon="14.578525"><ele>205.0</ele><time>2026-04-14T11:02:05.866Z</time></trkpt><trkpt lat="42.1568833" lon="14.5784417"><ele>205.66666666666666</ele><time>2026-04-14T11:02:07.867Z</time></trkpt><trkpt lat="42.15682" lon="14.578365"><ele>206.33333333333331</ele><time>2026-04-14T11:02:09.867Z</time></trkpt><trkpt lat="42.15675" lon="14.5782967"><ele>207.0</ele><time>2026-04-14T11:02:11.866Z</time></trkpt><trkpt lat="42.15669" lon="14.578235"><ele>207.66666666666669</ele><time>2026-04-14T11:02:13.867Z</time></trkpt><trkpt lat="42.1566433" lon="14.5781717"><ele>208.33333333333334</ele><time>2026-04-14T11:02:15.866Z</time></trkpt><trkpt lat="42.156575" lon="14.5781217"><ele>209.0</ele><time>2026-04-14T11:02:18.866Z</time></trkpt><trkpt lat="42.1565017" lon="14.5781383"><ele>209.6</ele><time>2026-04-14T11:02:20.866Z</time></trkpt><trkpt lat="42.1564133" lon="14.578195"><ele>210.2</ele><time>2026-04-14T11:02:22.866Z</time></trkpt><trkpt lat="42.1563317" lon="14.578265"><ele>210.79999999999998</ele><time>2026-04-14T11:02:24.867Z</time></trkpt><trkpt lat="42.1562617" lon="14.57834"><ele>211.39999999999998</ele><time>2026-04-14T11:02:26.867Z</time></trkpt><trkpt lat="42.1561933" lon="14.57843"><ele>212.0</ele><time>2026-04-14T11:02:28.867Z</time></trkpt><trkpt lat="42.156125" lon="14.5785333"><ele>212.0</ele><time>2026-04-14T11:02:30.867Z</time></trkpt><trkpt lat="42.1560633" lon="14.578645"><ele>212.0</ele><time>2026-04-14T11:02:32.867Z</time></trkpt><trkpt lat="42.1560017" lon="14.578765"><ele>212.0</ele><time>2026-04-14T11:02:34.867Z</time></trkpt><trkpt lat="42.1559383" lon="14.5788867"><ele>212.0</ele><time>2026-04-14T11:02:36.867Z</time></trkpt><trkpt lat="42.1558683" lon="14.5790117"><ele>212.0</ele><time>2026-04-14T11:02:38.867Z</time></trkpt><trkpt lat="42.1558067" lon="14.5791433"><ele>211.50000000000003</ele><time>2026-04-14T11:02:40.866Z</time></trkpt><trkpt lat="42.155735" lon="14.579285"><ele>211.0</ele><time>2026-04-14T11:02:42.867Z</time></trkpt><trkpt lat="42.155695" lon="14.5793567"><ele>210.5</ele><time>2026-04-14T11:02:43.867Z</time></trkpt><trkpt lat="42.1556567" lon="14.5794317"><ele>210.0</ele><time>2026-04-14T11:02:44.867Z</time></trkpt><trkpt lat="42.15562" lon="14.5795033"><ele>209.50000000000003</ele><time>2026-04-14T11:02:45.867Z</time></trkpt><trkpt lat="42.1555767" lon="14.579575"><ele>209.0</ele><time>2026-04-14T11:02:46.866Z</time></trkpt><trkpt lat="42.1555317" lon="14.57965"><ele>208.42857142857142</ele><time>2026-04-14T11:02:47.866Z</time></trkpt><trkpt lat="42.1554883" lon="14.5797167"><ele>207.85714285714283</ele><time>2026-04-14T11:02:48.867Z</time></trkpt><trkpt lat="42.1554467" lon="14.5797867"><ele>207.28571428571428</ele><time>2026-04-14T11:02:49.866Z</time></trkpt><trkpt lat="42.1553983" lon="14.5798533"><ele>206.71428571428572</ele><time>2026-04-14T11:02:50.866Z</time></trkpt><trkpt lat="42.1553467" lon="14.579915"><ele>206.14285714285714</ele><time>2026-04-14T11:02:51.867Z</time></trkpt><trkpt lat="42.1552917" lon="14.57997"><ele>205.57142857142858</ele><time>2026-04-14T11:02:52.867Z</time></trkpt><trkpt lat="42.155235" lon="14.5800233"><ele>205.0</ele><time>2026-04-14T11:02:53.866Z</time></trkpt><trkpt lat="42.155175" lon="14.5800717"><ele>205.0</ele><time>2026-04-14T11:02:54.867Z</time></trkpt><trkpt lat="42.1551133" lon="14.58012"><ele>205.0</ele><time>2026-04-14T11:02:55.867Z</time></trkpt><trkpt lat="42.15505" lon="14.580165"><ele>205.0</ele><time>2026-04-14T11:02:56.866Z</time></trkpt><trkpt lat="42.1549917" lon="14.5802083"><ele>205.0</ele><time>2026-04-14T11:02:57.866Z</time></trkpt><trkpt lat="42.154925" lon="14.5802517"><ele>205.0</ele><time>2026-04-14T11:02:58.866Z</time></trkpt><trkpt lat="42.154855" lon="14.5802917"><ele>205.0</ele><time>2026-04-14T11:02:59.867Z</time></trkpt><trkpt lat="42.1547867" lon="14.58034"><ele>205.0</ele><time>2026-04-14T11:03:00.867Z</time></trkpt><trkpt lat="42.15472" lon="14.5803867"><ele>204.83333333333331</ele><time>2026-04-14T11:03:01.866Z</time></trkpt><trkpt lat="42.1546533" lon="14.5804267"><ele>204.66666666666666</ele><time>2026-04-14T11:03:02.867Z</time></trkpt><trkpt lat="42.1545967" lon="14.58047"><ele>204.5</ele><time>2026-04-14T11:03:03.867Z</time></trkpt><trkpt lat="42.1545383" lon="14.5805117"><ele>204.33333333333331</ele><time>2026-04-14T11:03:04.867Z</time></trkpt><trkpt lat="42.1544467" lon="14.5805333"><ele>204.16666666666666</ele><time>2026-04-14T11:03:06.867Z</time></trkpt><trkpt lat="42.154395" lon="14.580465"><ele>204.0</ele><time>2026-04-14T11:03:08.867Z</time></trkpt><trkpt lat="42.1543483" lon="14.580365"><ele>204.83333333333334</ele><time>2026-04-14T11:03:10.866Z</time></trkpt><trkpt lat="42.1543017" lon="14.5802733"><ele>205.66666666666669</ele><time>2026-04-14T11:03:12.867Z</time></trkpt><trkpt lat="42.1542467" lon="14.5801717"><ele>206.5</ele><time>2026-04-14T11:03:14.866Z</time></trkpt><trkpt lat="42.15419" lon="14.5800817"><ele>207.33333333333334</ele><time>2026-04-14T11:03:16.867Z</time></trkpt><trkpt lat="42.154145" lon="14.5799883"><ele>208.16666666666669</ele><time>2026-04-14T11:03:18.867Z</time></trkpt><trkpt lat="42.1541" lon="14.5798917"><ele>209.0</ele><time>2026-04-14T11:03:20.867Z</time></trkpt><trkpt lat="42.1540483" lon="14.57979"><ele>209.50000000000003</ele><time>2026-04-14T11:03:22.866Z</time></trkpt><trkpt lat="42.1539983" lon="14.5797017"><ele>210.0</ele><time>2026-04-14T11:03:24.867Z</time></trkpt><trkpt lat="42.1539433" lon="14.579605"><ele>210.5</ele><time>2026-04-14T11:03:26.866Z</time></trkpt><trkpt lat="42.153895" lon="14.5795083"><ele>211.0</ele><time>2026-04-14T11:03:28.867Z</time></trkpt><trkpt lat="42.1538383" lon="14.57941"><ele>211.50000000000003</ele><time>2026-04-14T11:03:30.866Z</time></trkpt><trkpt lat="42.1537867" lon="14.5793133"><ele>212.0</ele><time>2026-04-14T11:03:32.867Z</time></trkpt><trkpt lat="42.1537317" lon="14.5792133"><ele>212.66666666666669</ele><time>2026-04-14T11:03:34.866Z</time></trkpt><trkpt lat="42.1536767" lon="14.579115"><ele>213.33333333333334</ele><time>2026-04-14T11:03:36.866Z</time></trkpt><trkpt lat="42.1536233" lon="14.5790167"><ele>214.0</ele><time>2026-04-14T11:03:38.867Z</time></trkpt><trkpt lat="42.1535667" lon="14.5789267"><ele>214.66666666666669</ele><time>2026-04-14T11:03:40.866Z</time></trkpt><trkpt lat="42.1535183" lon="14.57884"><ele>215.33333333333334</ele><time>2026-04-14T11:03:42.866Z</time></trkpt><trkpt lat="42.1534667" lon="14.578745"><ele>216.0</ele><time>2026-04-14T11:03:44.867Z</time></trkpt><trkpt lat="42.153415" lon="14.578655"><ele>216.16666666666666</ele><time>2026-04-14T11:03:46.866Z</time></trkpt><trkpt lat="42.153355" lon="14.5785817"><ele>216.33333333333331</ele><time>2026-04-14T11:03:48.867Z</time></trkpt><trkpt lat="42.1532667" lon="14.5785783"><ele>216.5</ele><time>2026-04-14T11:03:50.867Z</time></trkpt><trkpt lat="42.1531817" lon="14.5786233"><ele>216.66666666666666</ele><time>2026-04-14T11:03:52.867Z</time></trkpt><trkpt lat="42.1530967" lon="14.57868"><ele>216.83333333333331</ele><time>2026-04-14T11:03:54.867Z</time></trkpt><trkpt lat="42.1530183" lon="14.5787417"><ele>217.0</ele><time>2026-04-14T11:03:56.867Z</time></trkpt><trkpt lat="42.1529483" lon="14.5787967"><ele>216.49999999999997</ele><time>2026-04-14T11:03:58.867Z</time></trkpt><trkpt lat="42.1528817" lon="14.5788483"><ele>216.0</ele><time>2026-04-14T11:04:00.866Z</time></trkpt><trkpt lat="42.152815" lon="14.5789017"><ele>215.5</ele><time>2026-04-14T11:04:02.867Z</time></trkpt><trkpt lat="42.1527467" lon="14.578945"><ele>215.0</ele><time>2026-04-14T11:04:04.867Z</time></trkpt><trkpt lat="42.1526717" lon="14.579"><ele>214.49999999999997</ele><time>2026-04-14T11:04:06.867Z</time></trkpt><trkpt lat="42.152575" lon="14.579075"><ele>214.0</ele><time>2026-04-14T11:04:08.867Z</time></trkpt><trkpt lat="42.152485" lon="14.5791517"><ele>213.99999999999997</ele><time>2026-04-14T11:04:10.866Z</time></trkpt><trkpt lat="42.1523783" lon="14.5792167"><ele>214.0</ele><time>2026-04-14T11:04:12.867Z</time></trkpt><trkpt lat="42.1523183" lon="14.5792583"><ele>214.0</ele><time>2026-04-14T11:04:13.867Z</time></trkpt><trkpt lat="42.1522583" lon="14.5792983"><ele>214.0</ele><time>2026-04-14T11:04:14.867Z</time></trkpt><trkpt lat="42.1521983" lon="14.5793383"><ele>213.99999999999997</ele><time>2026-04-14T11:04:15.867Z</time></trkpt><trkpt lat="42.1521383" lon="14.5793867"><ele>214.0</ele><time>2026-04-14T11:04:16.866Z</time></trkpt><trkpt lat="42.15208" lon="14.5794383"><ele>212.83333333333331</ele><time>2026-04-14T11:04:17.867Z</time></trkpt><trkpt lat="42.1520233" lon="14.5794783"><ele>211.66666666666666</ele><time>2026-04-14T11:04:18.867Z</time></trkpt><trkpt lat="42.1519683" lon="14.579525"><ele>210.5</ele><time>2026-04-14T11:04:19.866Z</time></trkpt><trkpt lat="42.1518717" lon="14.5796133"><ele>209.33333333333331</ele><time>2026-04-14T11:04:21.866Z</time></trkpt><trkpt lat="42.1517817" lon="14.5796883"><ele>208.16666666666666</ele><time>2026-04-14T11:04:23.867Z</time></trkpt><trkpt lat="42.151705" lon="14.5797433"><ele>207.0</ele><time>2026-04-14T11:04:25.866Z</time></trkpt><trkpt lat="42.1516333" lon="14.5797933"><ele>206.66666666666666</ele><time>2026-04-14T11:04:28.866Z</time></trkpt><trkpt lat="42.1515767" lon="14.57985"><ele>206.33333333333331</ele><time>2026-04-14T11:04:31.867Z</time></trkpt><trkpt lat="42.151535" lon="14.5799183"><ele>206.0</ele><time>2026-04-14T11:04:33.867Z</time></trkpt><trkpt lat="42.151515" lon="14.5800133"><ele>205.66666666666666</ele><time>2026-04-14T11:04:35.867Z</time></trkpt><trkpt lat="42.1514717" lon="14.5801067"><ele>205.33333333333331</ele><time>2026-04-14T11:04:38.866Z</time></trkpt><trkpt lat="42.151385" lon="14.58011"><ele>205.0</ele><time>2026-04-14T11:04:42.866Z</time></trkpt><trkpt lat="42.15131" lon="14.5801217"><ele>205.66666666666666</ele><time>2026-04-14T11:04:44.867Z</time></trkpt><trkpt lat="42.1512433" lon="14.5801283"><ele>206.33333333333331</ele><time>2026-04-14T11:04:46.867Z</time></trkpt><trkpt lat="42.15117" lon="14.5801367"><ele>207.0</ele><time>2026-04-14T11:04:48.866Z</time></trkpt><trkpt lat="42.15109" lon="14.58014"><ele>207.66666666666669</ele><time>2026-04-14T11:04:50.867Z</time></trkpt><trkpt lat="42.1510033" lon="14.5801333"><ele>208.33333333333334</ele><time>2026-04-14T11:04:52.867Z</time></trkpt><trkpt lat="42.1509233" lon="14.58013"><ele>209.0</ele><time>2026-04-14T11:04:54.866Z</time></trkpt><trkpt lat="42.150845" lon="14.580135"><ele>209.00000000000003</ele><time>2026-04-14T11:04:56.866Z</time></trkpt><trkpt lat="42.1507617" lon="14.580145"><ele>209.0</ele><time>2026-04-14T11:04:58.866Z</time></trkpt><trkpt lat="42.1506833" lon="14.58015"><ele>209.0</ele><time>2026-04-14T11:05:00.867Z</time></trkpt><trkpt lat="42.1506" lon="14.580145"><ele>209.0</ele><time>2026-04-14T11:05:02.867Z</time></trkpt><trkpt lat="42.1505233" lon="14.5801467"><ele>209.00000000000003</ele><time>2026-04-14T11:05:04.867Z</time></trkpt><trkpt lat="42.150435" lon="14.5801617"><ele>209.0</ele><time>2026-04-14T11:05:07.866Z</time></trkpt><trkpt lat="42.150355" lon="14.5801867"><ele>209.66666666666669</ele><time>2026-04-14T11:05:10.866Z</time></trkpt><trkpt lat="42.15029" lon="14.5801933"><ele>210.33333333333334</ele><time>2026-04-14T11:05:12.866Z</time></trkpt><trkpt lat="42.15022" lon="14.5802067"><ele>211.0</ele><time>2026-04-14T11:05:15.867Z</time></trkpt><trkpt lat="42.1501517" lon="14.5802467"><ele>211.66666666666669</ele><time>2026-04-14T11:05:18.866Z</time></trkpt><trkpt lat="42.1501" lon="14.580305"><ele>212.33333333333334</ele><time>2026-04-14T11:05:20.866Z</time></trkpt><trkpt lat="42.1500733" lon="14.5804067"><ele>213.0</ele><time>2026-04-14T11:05:22.867Z</time></trkpt><trkpt lat="42.150055" lon="14.5805333"><ele>213.0</ele><time>2026-04-14T11:05:24.866Z</time></trkpt><trkpt lat="42.1500433" lon="14.5806617"><ele>213.0</ele><time>2026-04-14T11:05:26.867Z</time></trkpt><trkpt lat="42.1500433" lon="14.58079"><ele>213.0</ele><time>2026-04-14T11:05:28.867Z</time></trkpt><trkpt lat="42.15004" lon="14.5809183"><ele>213.0</ele><time>2026-04-14T11:05:30.866Z</time></trkpt><trkpt lat="42.1500283" lon="14.581035"><ele>213.0</ele><time>2026-04-14T11:05:32.866Z</time></trkpt><trkpt lat="42.1499733" lon="14.5811217"><ele>213.0</ele><time>2026-04-14T11:05:35.866Z</time></trkpt><trkpt lat="42.1498833" lon="14.5811817"><ele>213.0</ele><time>2026-04-14T11:05:37.867Z</time></trkpt><trkpt lat="42.149805" lon="14.5812483"><ele>213.0</ele><time>2026-04-14T11:05:39.866Z</time></trkpt><trkpt lat="42.1497367" lon="14.5813183"><ele>213.0</ele><time>2026-04-14T11:05:41.866Z</time></trkpt><trkpt lat="42.149705" lon="14.5814017"><ele>213.0</ele><time>2026-04-14T11:05:43.867Z</time></trkpt><trkpt lat="42.1496833" lon="14.5815133"><ele>213.0</ele><time>2026-04-14T11:05:45.867Z</time></trkpt><trkpt lat="42.1496717" lon="14.5816567"><ele>212.4</ele><time>2026-04-14T11:05:47.867Z</time></trkpt><trkpt lat="42.1496383" lon="14.5817867"><ele>211.8</ele><time>2026-04-14T11:05:49.866Z</time></trkpt><trkpt lat="42.1496117" lon="14.5819283"><ele>211.2</ele><time>2026-04-14T11:05:51.867Z</time></trkpt><trkpt lat="42.1495883" lon="14.5820733"><ele>210.6</ele><time>2026-04-14T11:05:53.866Z</time></trkpt><trkpt lat="42.1495733" lon="14.5822067"><ele>210.0</ele><time>2026-04-14T11:05:55.866Z</time></trkpt><trkpt lat="42.1495583" lon="14.58232"><ele>208.5</ele><time>2026-04-14T11:05:57.867Z</time></trkpt><trkpt lat="42.14953" lon="14.582425"><ele>207.0</ele><time>2026-04-14T11:05:59.867Z</time></trkpt><trkpt lat="42.1495967" lon="14.5824817"><ele>205.5</ele><time>2026-04-14T11:06:02.867Z</time></trkpt><trkpt lat="42.1496617" lon="14.582505"><ele>204.0</ele><time>2026-04-14T11:06:04.866Z</time></trkpt><trkpt lat="42.1497083" lon="14.5825983"><ele>202.5</ele><time>2026-04-14T11:06:07.867Z</time></trkpt><trkpt lat="42.14971" lon="14.58273"><ele>201.0</ele><time>2026-04-14T11:06:10.866Z</time></trkpt><trkpt lat="42.14971" lon="14.58285"><ele>199.83333333333334</ele><time>2026-04-14T11:06:13.866Z</time></trkpt><trkpt lat="42.1497067" lon="14.5829833"><ele>198.66666666666669</ele><time>2026-04-14T11:06:16.866Z</time></trkpt><trkpt lat="42.1497033" lon="14.5831"><ele>197.5</ele><time>2026-04-14T11:06:18.867Z</time></trkpt><trkpt lat="42.14974" lon="14.5831817"><ele>196.33333333333334</ele><time>2026-04-14T11:06:20.867Z</time></trkpt><trkpt lat="42.1497867" lon="14.583255"><ele>195.16666666666669</ele><time>2026-04-14T11:06:22.867Z</time></trkpt><trkpt lat="42.14982" lon="14.5833567"><ele>194.0</ele><time>2026-04-14T11:06:25.867Z</time></trkpt><trkpt lat="42.1498633" lon="14.58344"><ele>196.50000000000003</ele><time>2026-04-14T11:06:29.866Z</time></trkpt><trkpt lat="42.149945" lon="14.5834933"><ele>199.0</ele><time>2026-04-14T11:06:32.867Z</time></trkpt><trkpt lat="42.15001" lon="14.5835467"><ele>201.5</ele><time>2026-04-14T11:06:34.866Z</time></trkpt><trkpt lat="42.1500733" lon="14.5836617"><ele>204.0</ele><time>2026-04-14T11:06:36.867Z</time></trkpt><trkpt lat="42.1501283" lon="14.583715"><ele>206.50000000000003</ele><time>2026-04-14T11:06:38.866Z</time></trkpt><trkpt lat="42.15019" lon="14.5837683"><ele>209.0</ele><time>2026-04-14T11:06:40.866Z</time></trkpt><trkpt lat="42.1502617" lon="14.58383"><ele>209.16666666666669</ele><time>2026-04-14T11:06:42.867Z</time></trkpt><trkpt lat="42.1503183" lon="14.5838867"><ele>209.33333333333334</ele><time>2026-04-14T11:06:44.866Z</time></trkpt><trkpt lat="42.150375" lon="14.5839833"><ele>209.5</ele><time>2026-04-14T11:06:46.866Z</time></trkpt><trkpt lat="42.150405" lon="14.58407"><ele>209.66666666666669</ele><time>2026-04-14T11:06:48.866Z</time></trkpt><trkpt lat="42.150415" lon="14.5841767"><ele>209.83333333333334</ele><time>2026-04-14T11:06:51.866Z</time></trkpt><trkpt lat="42.150395" lon="14.58428"><ele>210.0</ele><time>2026-04-14T11:06:53.866Z</time></trkpt><trkpt lat="42.15038" lon="14.5843767"><ele>210.0</ele><time>2026-04-14T11:06:55.866Z</time></trkpt><trkpt lat="42.1504217" lon="14.5844917"><ele>210.0</ele><time>2026-04-14T11:06:57.867Z</time></trkpt><trkpt lat="42.15048" lon="14.584605"><ele>210.0</ele><time>2026-04-14T11:06:59.867Z</time></trkpt><trkpt lat="42.1505033" lon="14.5846867"><ele>210.0</ele><time>2026-04-14T11:07:01.867Z</time></trkpt><trkpt lat="42.1504917" lon="14.584825"><ele>210.0</ele><time>2026-04-14T11:07:04.867Z</time></trkpt><trkpt lat="42.1504533" lon="14.58494"><ele>209.0</ele><time>2026-04-14T11:07:06.867Z</time></trkpt><trkpt lat="42.1504133" lon="14.5850117"><ele>208.0</ele><time>2026-04-14T11:07:08.867Z</time></trkpt><trkpt lat="42.1503333" lon="14.5850717"><ele>207.0</ele><time>2026-04-14T11:07:11.867Z</time></trkpt><trkpt lat="42.15025" lon="14.5851133"><ele>206.0</ele><time>2026-04-14T11:07:13.866Z</time></trkpt><trkpt lat="42.150155" lon="14.5851433"><ele>205.0</ele><time>2026-04-14T11:07:15.867Z</time></trkpt><trkpt lat="42.15005" lon="14.5851683"><ele>205.0</ele><time>2026-04-14T11:07:17.867Z</time></trkpt><trkpt lat="42.1499867" lon="14.5851933"><ele>205.0</ele><time>2026-04-14T11:07:19.867Z</time></trkpt><trkpt lat="42.149935" lon="14.5852533"><ele>205.0</ele><time>2026-04-14T11:07:23.867Z</time></trkpt><trkpt lat="42.1499733" lon="14.58513"><ele>205.0</ele><time>2026-04-14T11:08:30.104Z</time></trkpt><trkpt lat="42.149975" lon="14.585235"><ele>205.0</ele><time>2026-04-14T11:08:32.365Z</time></trkpt></trkseg></trk></gpx>